<?xml version="1.0" encoding="UTF-8" standalone="no" ?>
<gpx xmlns="http://www.topografix.com/GPX/1/1" xmlns:xsi="http://www.w3.org/2001/XMLSchema-instance" xsi:schemaLocation="http://www.topografix.com/GPX/1/1 http://www.topografix.com/GPX/1/1/gpx.xsd" version="1.1" creator="VisuGPX - https://www.visugpx.com">
  <metadata>
    <name>12-07-23-St Herblain vers Hte Goulaine</name>
    <desc><![CDATA[Bou]]></desc>
  </metadata>
  <trk>
    <name><![CDATA[23/07/2012 18:27]]></name>
    <desc><![CDATA[Bou]]></desc>
    <trkseg>
      <trkpt lat="47.24534" lon="-1.60825">
        <ele>184.8</ele>
        <time>2012-07-23T16:28:10.000Z</time>
      </trkpt>
      <trkpt lat="47.24528" lon="-1.60825">
        <ele>181</ele>
        <time>2012-07-23T16:28:11.000Z</time>
      </trkpt>
      <trkpt lat="47.24539" lon="-1.60824">
        <ele>175.7</ele>
        <time>2012-07-23T16:28:14.000Z</time>
      </trkpt>
      <trkpt lat="47.24539" lon="-1.60813">
        <ele>158.6</ele>
        <time>2012-07-23T16:28:16.000Z</time>
      </trkpt>
      <trkpt lat="47.24543" lon="-1.60808">
        <ele>156</ele>
        <time>2012-07-23T16:28:28.000Z</time>
      </trkpt>
      <trkpt lat="47.24543" lon="-1.60808">
        <ele>156</ele>
        <time>2012-07-23T16:28:28.000Z</time>
      </trkpt>
      <trkpt lat="47.24543" lon="-1.60808">
        <ele>156</ele>
        <time>2012-07-23T16:28:29.000Z</time>
      </trkpt>
      <trkpt lat="47.24543" lon="-1.608">
        <ele>148.3</ele>
        <time>2012-07-23T16:28:35.000Z</time>
      </trkpt>
      <trkpt lat="47.24544" lon="-1.60789">
        <ele>138.5</ele>
        <time>2012-07-23T16:28:37.000Z</time>
      </trkpt>
      <trkpt lat="47.24547" lon="-1.60782">
        <ele>131.3</ele>
        <time>2012-07-23T16:28:41.000Z</time>
      </trkpt>
      <trkpt lat="47.24544" lon="-1.60755">
        <ele>124.5</ele>
        <time>2012-07-23T16:28:43.000Z</time>
      </trkpt>
      <trkpt lat="47.2454" lon="-1.60738">
        <ele>124.8</ele>
        <time>2012-07-23T16:28:44.000Z</time>
      </trkpt>
      <trkpt lat="47.24537" lon="-1.60718">
        <ele>122.9</ele>
        <time>2012-07-23T16:28:45.000Z</time>
      </trkpt>
      <trkpt lat="47.24537" lon="-1.60702">
        <ele>119.4</ele>
        <time>2012-07-23T16:28:46.000Z</time>
      </trkpt>
      <trkpt lat="47.24535" lon="-1.60694">
        <ele>117.3</ele>
        <time>2012-07-23T16:28:47.000Z</time>
      </trkpt>
      <trkpt lat="47.24535" lon="-1.60682">
        <ele>113.3</ele>
        <time>2012-07-23T16:28:48.000Z</time>
      </trkpt>
      <trkpt lat="47.24536" lon="-1.60675">
        <ele>109.1</ele>
        <time>2012-07-23T16:28:49.000Z</time>
      </trkpt>
      <trkpt lat="47.24532" lon="-1.60669">
        <ele>108.9</ele>
        <time>2012-07-23T16:28:50.000Z</time>
      </trkpt>
      <trkpt lat="47.2453" lon="-1.60662">
        <ele>111.9</ele>
        <time>2012-07-23T16:28:52.000Z</time>
      </trkpt>
      <trkpt lat="47.24527" lon="-1.60655">
        <ele>110.8</ele>
        <time>2012-07-23T16:28:54.000Z</time>
      </trkpt>
      <trkpt lat="47.24524" lon="-1.60646">
        <ele>112.3</ele>
        <time>2012-07-23T16:28:57.000Z</time>
      </trkpt>
      <trkpt lat="47.24524" lon="-1.60638">
        <ele>108.5</ele>
        <time>2012-07-23T16:28:59.000Z</time>
      </trkpt>
      <trkpt lat="47.24521" lon="-1.60631">
        <ele>109</ele>
        <time>2012-07-23T16:29:01.000Z</time>
      </trkpt>
      <trkpt lat="47.24519" lon="-1.60622">
        <ele>108.9</ele>
        <time>2012-07-23T16:29:04.000Z</time>
      </trkpt>
      <trkpt lat="47.24516" lon="-1.60616">
        <ele>117</ele>
        <time>2012-07-23T16:29:07.000Z</time>
      </trkpt>
      <trkpt lat="47.24508" lon="-1.60616">
        <ele>116.9</ele>
        <time>2012-07-23T16:29:08.000Z</time>
      </trkpt>
      <trkpt lat="47.245" lon="-1.60617">
        <ele>117.5</ele>
        <time>2012-07-23T16:29:10.000Z</time>
      </trkpt>
      <trkpt lat="47.24495" lon="-1.60618">
        <ele>118.4</ele>
        <time>2012-07-23T16:29:12.000Z</time>
      </trkpt>
      <trkpt lat="47.24488" lon="-1.60618">
        <ele>118.9</ele>
        <time>2012-07-23T16:29:14.000Z</time>
      </trkpt>
      <trkpt lat="47.24481" lon="-1.60619">
        <ele>118.4</ele>
        <time>2012-07-23T16:29:16.000Z</time>
      </trkpt>
      <trkpt lat="47.24476" lon="-1.60621">
        <ele>118.6</ele>
        <time>2012-07-23T16:29:17.000Z</time>
      </trkpt>
      <trkpt lat="47.24472" lon="-1.60625">
        <ele>118.6</ele>
        <time>2012-07-23T16:29:18.000Z</time>
      </trkpt>
      <trkpt lat="47.24464" lon="-1.60629">
        <ele>119.1</ele>
        <time>2012-07-23T16:29:20.000Z</time>
      </trkpt>
      <trkpt lat="47.24457" lon="-1.60634">
        <ele>118.6</ele>
        <time>2012-07-23T16:29:22.000Z</time>
      </trkpt>
      <trkpt lat="47.24451" lon="-1.60638">
        <ele>118.9</ele>
        <time>2012-07-23T16:29:24.000Z</time>
      </trkpt>
      <trkpt lat="47.24446" lon="-1.60642">
        <ele>118.8</ele>
        <time>2012-07-23T16:29:26.000Z</time>
      </trkpt>
      <trkpt lat="47.2444" lon="-1.60644">
        <ele>118</ele>
        <time>2012-07-23T16:29:28.000Z</time>
      </trkpt>
      <trkpt lat="47.24436" lon="-1.60648">
        <ele>117.9</ele>
        <time>2012-07-23T16:29:30.000Z</time>
      </trkpt>
      <trkpt lat="47.24431" lon="-1.60652">
        <ele>116.1</ele>
        <time>2012-07-23T16:29:32.000Z</time>
      </trkpt>
      <trkpt lat="47.24426" lon="-1.60655">
        <ele>115.4</ele>
        <time>2012-07-23T16:29:34.000Z</time>
      </trkpt>
      <trkpt lat="47.24421" lon="-1.60659">
        <ele>114.7</ele>
        <time>2012-07-23T16:29:36.000Z</time>
      </trkpt>
      <trkpt lat="47.24415" lon="-1.60663">
        <ele>114.2</ele>
        <time>2012-07-23T16:29:38.000Z</time>
      </trkpt>
      <trkpt lat="47.24409" lon="-1.60666">
        <ele>113.7</ele>
        <time>2012-07-23T16:29:40.000Z</time>
      </trkpt>
      <trkpt lat="47.24404" lon="-1.60669">
        <ele>112.1</ele>
        <time>2012-07-23T16:29:42.000Z</time>
      </trkpt>
      <trkpt lat="47.24399" lon="-1.60672">
        <ele>112.2</ele>
        <time>2012-07-23T16:29:44.000Z</time>
      </trkpt>
      <trkpt lat="47.24394" lon="-1.60676">
        <ele>112</ele>
        <time>2012-07-23T16:29:46.000Z</time>
      </trkpt>
      <trkpt lat="47.24389" lon="-1.60679">
        <ele>112.1</ele>
        <time>2012-07-23T16:29:48.000Z</time>
      </trkpt>
      <trkpt lat="47.24384" lon="-1.60682">
        <ele>112</ele>
        <time>2012-07-23T16:29:50.000Z</time>
      </trkpt>
      <trkpt lat="47.2438" lon="-1.60687">
        <ele>112.2</ele>
        <time>2012-07-23T16:29:52.000Z</time>
      </trkpt>
      <trkpt lat="47.24375" lon="-1.60691">
        <ele>112.1</ele>
        <time>2012-07-23T16:29:54.000Z</time>
      </trkpt>
      <trkpt lat="47.24371" lon="-1.60695">
        <ele>111.2</ele>
        <time>2012-07-23T16:29:56.000Z</time>
      </trkpt>
      <trkpt lat="47.24366" lon="-1.60698">
        <ele>110.9</ele>
        <time>2012-07-23T16:29:58.000Z</time>
      </trkpt>
      <trkpt lat="47.2436" lon="-1.60701">
        <ele>112.4</ele>
        <time>2012-07-23T16:30:00.000Z</time>
      </trkpt>
      <trkpt lat="47.24356" lon="-1.60707">
        <ele>111.4</ele>
        <time>2012-07-23T16:30:02.000Z</time>
      </trkpt>
      <trkpt lat="47.24352" lon="-1.60711">
        <ele>112.1</ele>
        <time>2012-07-23T16:30:04.000Z</time>
      </trkpt>
      <trkpt lat="47.24347" lon="-1.60715">
        <ele>111.7</ele>
        <time>2012-07-23T16:30:06.000Z</time>
      </trkpt>
      <trkpt lat="47.24342" lon="-1.60721">
        <ele>110.4</ele>
        <time>2012-07-23T16:30:08.000Z</time>
      </trkpt>
      <trkpt lat="47.24338" lon="-1.60726">
        <ele>110.2</ele>
        <time>2012-07-23T16:30:10.000Z</time>
      </trkpt>
      <trkpt lat="47.24333" lon="-1.6073">
        <ele>109.4</ele>
        <time>2012-07-23T16:30:12.000Z</time>
      </trkpt>
      <trkpt lat="47.24329" lon="-1.60734">
        <ele>108.5</ele>
        <time>2012-07-23T16:30:14.000Z</time>
      </trkpt>
      <trkpt lat="47.24324" lon="-1.60737">
        <ele>108.1</ele>
        <time>2012-07-23T16:30:16.000Z</time>
      </trkpt>
      <trkpt lat="47.2432" lon="-1.6074">
        <ele>107.4</ele>
        <time>2012-07-23T16:30:18.000Z</time>
      </trkpt>
      <trkpt lat="47.24315" lon="-1.60744">
        <ele>107.4</ele>
        <time>2012-07-23T16:30:20.000Z</time>
      </trkpt>
      <trkpt lat="47.2431" lon="-1.60747">
        <ele>106.9</ele>
        <time>2012-07-23T16:30:22.000Z</time>
      </trkpt>
      <trkpt lat="47.24306" lon="-1.6075">
        <ele>107.3</ele>
        <time>2012-07-23T16:30:24.000Z</time>
      </trkpt>
      <trkpt lat="47.24301" lon="-1.60755">
        <ele>106.1</ele>
        <time>2012-07-23T16:30:26.000Z</time>
      </trkpt>
      <trkpt lat="47.24297" lon="-1.60759">
        <ele>105.8</ele>
        <time>2012-07-23T16:30:28.000Z</time>
      </trkpt>
      <trkpt lat="47.24291" lon="-1.60766">
        <ele>106.7</ele>
        <time>2012-07-23T16:30:30.000Z</time>
      </trkpt>
      <trkpt lat="47.24286" lon="-1.6077">
        <ele>106</ele>
        <time>2012-07-23T16:30:32.000Z</time>
      </trkpt>
      <trkpt lat="47.24281" lon="-1.60776">
        <ele>103.9</ele>
        <time>2012-07-23T16:30:35.000Z</time>
      </trkpt>
      <trkpt lat="47.24276" lon="-1.60781">
        <ele>103.6</ele>
        <time>2012-07-23T16:30:37.000Z</time>
      </trkpt>
      <trkpt lat="47.24272" lon="-1.60786">
        <ele>103.4</ele>
        <time>2012-07-23T16:30:39.000Z</time>
      </trkpt>
      <trkpt lat="47.24268" lon="-1.60792">
        <ele>101.8</ele>
        <time>2012-07-23T16:30:41.000Z</time>
      </trkpt>
      <trkpt lat="47.24263" lon="-1.60796">
        <ele>102.6</ele>
        <time>2012-07-23T16:30:43.000Z</time>
      </trkpt>
      <trkpt lat="47.24258" lon="-1.608">
        <ele>103.2</ele>
        <time>2012-07-23T16:30:45.000Z</time>
      </trkpt>
      <trkpt lat="47.24253" lon="-1.60805">
        <ele>103</ele>
        <time>2012-07-23T16:30:47.000Z</time>
      </trkpt>
      <trkpt lat="47.24249" lon="-1.6081">
        <ele>102.3</ele>
        <time>2012-07-23T16:30:49.000Z</time>
      </trkpt>
      <trkpt lat="47.24243" lon="-1.60812">
        <ele>101.8</ele>
        <time>2012-07-23T16:30:51.000Z</time>
      </trkpt>
      <trkpt lat="47.24238" lon="-1.60814">
        <ele>101.1</ele>
        <time>2012-07-23T16:30:53.000Z</time>
      </trkpt>
      <trkpt lat="47.24234" lon="-1.60818">
        <ele>101.2</ele>
        <time>2012-07-23T16:30:55.000Z</time>
      </trkpt>
      <trkpt lat="47.2423" lon="-1.60822">
        <ele>101.1</ele>
        <time>2012-07-23T16:30:57.000Z</time>
      </trkpt>
      <trkpt lat="47.24228" lon="-1.60829">
        <ele>101.2</ele>
        <time>2012-07-23T16:30:59.000Z</time>
      </trkpt>
      <trkpt lat="47.24226" lon="-1.60836">
        <ele>100.2</ele>
        <time>2012-07-23T16:31:03.000Z</time>
      </trkpt>
      <trkpt lat="47.24222" lon="-1.60838">
        <ele>99.7</ele>
        <time>2012-07-23T16:31:05.000Z</time>
      </trkpt>
      <trkpt lat="47.24216" lon="-1.60835">
        <ele>100</ele>
        <time>2012-07-23T16:31:08.000Z</time>
      </trkpt>
      <trkpt lat="47.24208" lon="-1.60834">
        <ele>100.2</ele>
        <time>2012-07-23T16:31:10.000Z</time>
      </trkpt>
      <trkpt lat="47.24203" lon="-1.60836">
        <ele>99.5</ele>
        <time>2012-07-23T16:31:11.000Z</time>
      </trkpt>
      <trkpt lat="47.24196" lon="-1.60839">
        <ele>99.6</ele>
        <time>2012-07-23T16:31:13.000Z</time>
      </trkpt>
      <trkpt lat="47.2419" lon="-1.60844">
        <ele>100.3</ele>
        <time>2012-07-23T16:31:15.000Z</time>
      </trkpt>
      <trkpt lat="47.24184" lon="-1.60849">
        <ele>99.1</ele>
        <time>2012-07-23T16:31:17.000Z</time>
      </trkpt>
      <trkpt lat="47.2418" lon="-1.60854">
        <ele>98.3</ele>
        <time>2012-07-23T16:31:19.000Z</time>
      </trkpt>
      <trkpt lat="47.24174" lon="-1.60856">
        <ele>98.8</ele>
        <time>2012-07-23T16:31:21.000Z</time>
      </trkpt>
      <trkpt lat="47.24169" lon="-1.60862">
        <ele>97.5</ele>
        <time>2012-07-23T16:31:23.000Z</time>
      </trkpt>
      <trkpt lat="47.24164" lon="-1.60868">
        <ele>97.3</ele>
        <time>2012-07-23T16:31:25.000Z</time>
      </trkpt>
      <trkpt lat="47.24159" lon="-1.60872">
        <ele>97</ele>
        <time>2012-07-23T16:31:27.000Z</time>
      </trkpt>
      <trkpt lat="47.24154" lon="-1.60876">
        <ele>97.7</ele>
        <time>2012-07-23T16:31:29.000Z</time>
      </trkpt>
      <trkpt lat="47.24147" lon="-1.60879">
        <ele>98.8</ele>
        <time>2012-07-23T16:31:32.000Z</time>
      </trkpt>
      <trkpt lat="47.24141" lon="-1.60881">
        <ele>98.6</ele>
        <time>2012-07-23T16:31:34.000Z</time>
      </trkpt>
      <trkpt lat="47.24136" lon="-1.60883">
        <ele>93.9</ele>
        <time>2012-07-23T16:31:37.000Z</time>
      </trkpt>
      <trkpt lat="47.24129" lon="-1.60885">
        <ele>91.9</ele>
        <time>2012-07-23T16:31:40.000Z</time>
      </trkpt>
      <trkpt lat="47.24124" lon="-1.60887">
        <ele>91.5</ele>
        <time>2012-07-23T16:31:42.000Z</time>
      </trkpt>
      <trkpt lat="47.2412" lon="-1.60891">
        <ele>91.8</ele>
        <time>2012-07-23T16:31:44.000Z</time>
      </trkpt>
      <trkpt lat="47.24115" lon="-1.60894">
        <ele>92.8</ele>
        <time>2012-07-23T16:31:46.000Z</time>
      </trkpt>
      <trkpt lat="47.2411" lon="-1.60897">
        <ele>95.1</ele>
        <time>2012-07-23T16:31:48.000Z</time>
      </trkpt>
      <trkpt lat="47.24103" lon="-1.60899">
        <ele>95.7</ele>
        <time>2012-07-23T16:31:50.000Z</time>
      </trkpt>
      <trkpt lat="47.24096" lon="-1.60902">
        <ele>94.1</ele>
        <time>2012-07-23T16:31:52.000Z</time>
      </trkpt>
      <trkpt lat="47.24091" lon="-1.60904">
        <ele>95</ele>
        <time>2012-07-23T16:31:54.000Z</time>
      </trkpt>
      <trkpt lat="47.24086" lon="-1.60908">
        <ele>94.4</ele>
        <time>2012-07-23T16:31:56.000Z</time>
      </trkpt>
      <trkpt lat="47.24081" lon="-1.60909">
        <ele>93.4</ele>
        <time>2012-07-23T16:31:58.000Z</time>
      </trkpt>
      <trkpt lat="47.24075" lon="-1.60911">
        <ele>93.5</ele>
        <time>2012-07-23T16:32:00.000Z</time>
      </trkpt>
      <trkpt lat="47.2407" lon="-1.60912">
        <ele>93.8</ele>
        <time>2012-07-23T16:32:02.000Z</time>
      </trkpt>
      <trkpt lat="47.24063" lon="-1.60914">
        <ele>94.4</ele>
        <time>2012-07-23T16:32:04.000Z</time>
      </trkpt>
      <trkpt lat="47.24058" lon="-1.60919">
        <ele>96.7</ele>
        <time>2012-07-23T16:32:07.000Z</time>
      </trkpt>
      <trkpt lat="47.24052" lon="-1.60926">
        <ele>95.2</ele>
        <time>2012-07-23T16:32:09.000Z</time>
      </trkpt>
      <trkpt lat="47.24048" lon="-1.60931">
        <ele>94.5</ele>
        <time>2012-07-23T16:32:11.000Z</time>
      </trkpt>
      <trkpt lat="47.24046" lon="-1.60939">
        <ele>96.2</ele>
        <time>2012-07-23T16:32:13.000Z</time>
      </trkpt>
      <trkpt lat="47.24043" lon="-1.60948">
        <ele>97.4</ele>
        <time>2012-07-23T16:32:15.000Z</time>
      </trkpt>
      <trkpt lat="47.24039" lon="-1.60955">
        <ele>97.6</ele>
        <time>2012-07-23T16:32:17.000Z</time>
      </trkpt>
      <trkpt lat="47.24035" lon="-1.6096">
        <ele>98.9</ele>
        <time>2012-07-23T16:32:19.000Z</time>
      </trkpt>
      <trkpt lat="47.2403" lon="-1.60966">
        <ele>98.1</ele>
        <time>2012-07-23T16:32:21.000Z</time>
      </trkpt>
      <trkpt lat="47.24026" lon="-1.60967">
        <ele>98.4</ele>
        <time>2012-07-23T16:32:23.000Z</time>
      </trkpt>
      <trkpt lat="47.24018" lon="-1.60966">
        <ele>98.2</ele>
        <time>2012-07-23T16:32:26.000Z</time>
      </trkpt>
      <trkpt lat="47.24012" lon="-1.60969">
        <ele>97.8</ele>
        <time>2012-07-23T16:32:28.000Z</time>
      </trkpt>
      <trkpt lat="47.24008" lon="-1.60976">
        <ele>96.9</ele>
        <time>2012-07-23T16:32:30.000Z</time>
      </trkpt>
      <trkpt lat="47.24003" lon="-1.60981">
        <ele>94.5</ele>
        <time>2012-07-23T16:32:32.000Z</time>
      </trkpt>
      <trkpt lat="47.23997" lon="-1.60985">
        <ele>94.1</ele>
        <time>2012-07-23T16:32:34.000Z</time>
      </trkpt>
      <trkpt lat="47.23993" lon="-1.60991">
        <ele>91.9</ele>
        <time>2012-07-23T16:32:36.000Z</time>
      </trkpt>
      <trkpt lat="47.23988" lon="-1.60994">
        <ele>91.4</ele>
        <time>2012-07-23T16:32:38.000Z</time>
      </trkpt>
      <trkpt lat="47.23982" lon="-1.61">
        <ele>92.3</ele>
        <time>2012-07-23T16:32:40.000Z</time>
      </trkpt>
      <trkpt lat="47.23978" lon="-1.61005">
        <ele>93</ele>
        <time>2012-07-23T16:32:42.000Z</time>
      </trkpt>
      <trkpt lat="47.23973" lon="-1.61008">
        <ele>92</ele>
        <time>2012-07-23T16:32:44.000Z</time>
      </trkpt>
      <trkpt lat="47.23968" lon="-1.61011">
        <ele>91.5</ele>
        <time>2012-07-23T16:32:46.000Z</time>
      </trkpt>
      <trkpt lat="47.23964" lon="-1.61014">
        <ele>91.7</ele>
        <time>2012-07-23T16:32:48.000Z</time>
      </trkpt>
      <trkpt lat="47.23958" lon="-1.61018">
        <ele>93.5</ele>
        <time>2012-07-23T16:32:50.000Z</time>
      </trkpt>
      <trkpt lat="47.23953" lon="-1.61022">
        <ele>94.3</ele>
        <time>2012-07-23T16:32:52.000Z</time>
      </trkpt>
      <trkpt lat="47.23949" lon="-1.61026">
        <ele>94.2</ele>
        <time>2012-07-23T16:32:54.000Z</time>
      </trkpt>
      <trkpt lat="47.23943" lon="-1.6103">
        <ele>93.9</ele>
        <time>2012-07-23T16:32:56.000Z</time>
      </trkpt>
      <trkpt lat="47.23939" lon="-1.61036">
        <ele>93.2</ele>
        <time>2012-07-23T16:32:58.000Z</time>
      </trkpt>
      <trkpt lat="47.23934" lon="-1.61039">
        <ele>93.2</ele>
        <time>2012-07-23T16:33:00.000Z</time>
      </trkpt>
      <trkpt lat="47.23928" lon="-1.61042">
        <ele>93.4</ele>
        <time>2012-07-23T16:33:02.000Z</time>
      </trkpt>
      <trkpt lat="47.23922" lon="-1.61045">
        <ele>93.8</ele>
        <time>2012-07-23T16:33:04.000Z</time>
      </trkpt>
      <trkpt lat="47.23918" lon="-1.61051">
        <ele>93.5</ele>
        <time>2012-07-23T16:33:06.000Z</time>
      </trkpt>
      <trkpt lat="47.23913" lon="-1.61054">
        <ele>94.5</ele>
        <time>2012-07-23T16:33:08.000Z</time>
      </trkpt>
      <trkpt lat="47.23908" lon="-1.61058">
        <ele>94.4</ele>
        <time>2012-07-23T16:33:10.000Z</time>
      </trkpt>
      <trkpt lat="47.23902" lon="-1.61061">
        <ele>94.8</ele>
        <time>2012-07-23T16:33:12.000Z</time>
      </trkpt>
      <trkpt lat="47.23897" lon="-1.61068">
        <ele>94.3</ele>
        <time>2012-07-23T16:33:14.000Z</time>
      </trkpt>
      <trkpt lat="47.23893" lon="-1.61072">
        <ele>93.4</ele>
        <time>2012-07-23T16:33:16.000Z</time>
      </trkpt>
      <trkpt lat="47.23887" lon="-1.61076">
        <ele>93.8</ele>
        <time>2012-07-23T16:33:18.000Z</time>
      </trkpt>
      <trkpt lat="47.23882" lon="-1.6108">
        <ele>92.6</ele>
        <time>2012-07-23T16:33:20.000Z</time>
      </trkpt>
      <trkpt lat="47.23877" lon="-1.61084">
        <ele>90.9</ele>
        <time>2012-07-23T16:33:22.000Z</time>
      </trkpt>
      <trkpt lat="47.23872" lon="-1.61088">
        <ele>90.3</ele>
        <time>2012-07-23T16:33:24.000Z</time>
      </trkpt>
      <trkpt lat="47.23867" lon="-1.61091">
        <ele>90.1</ele>
        <time>2012-07-23T16:33:26.000Z</time>
      </trkpt>
      <trkpt lat="47.23862" lon="-1.61097">
        <ele>89.5</ele>
        <time>2012-07-23T16:33:28.000Z</time>
      </trkpt>
      <trkpt lat="47.23856" lon="-1.61102">
        <ele>88.4</ele>
        <time>2012-07-23T16:33:30.000Z</time>
      </trkpt>
      <trkpt lat="47.23851" lon="-1.61107">
        <ele>87.9</ele>
        <time>2012-07-23T16:33:32.000Z</time>
      </trkpt>
      <trkpt lat="47.23845" lon="-1.61112">
        <ele>88.1</ele>
        <time>2012-07-23T16:33:34.000Z</time>
      </trkpt>
      <trkpt lat="47.23841" lon="-1.61116">
        <ele>84.9</ele>
        <time>2012-07-23T16:33:36.000Z</time>
      </trkpt>
      <trkpt lat="47.23836" lon="-1.61121">
        <ele>84.1</ele>
        <time>2012-07-23T16:33:38.000Z</time>
      </trkpt>
      <trkpt lat="47.2383" lon="-1.61124">
        <ele>84</ele>
        <time>2012-07-23T16:33:40.000Z</time>
      </trkpt>
      <trkpt lat="47.23825" lon="-1.6113">
        <ele>83.4</ele>
        <time>2012-07-23T16:33:42.000Z</time>
      </trkpt>
      <trkpt lat="47.2382" lon="-1.61135">
        <ele>83.3</ele>
        <time>2012-07-23T16:33:44.000Z</time>
      </trkpt>
      <trkpt lat="47.23815" lon="-1.61139">
        <ele>82.8</ele>
        <time>2012-07-23T16:33:46.000Z</time>
      </trkpt>
      <trkpt lat="47.2381" lon="-1.61142">
        <ele>83</ele>
        <time>2012-07-23T16:33:48.000Z</time>
      </trkpt>
      <trkpt lat="47.23804" lon="-1.61149">
        <ele>80.5</ele>
        <time>2012-07-23T16:33:50.000Z</time>
      </trkpt>
      <trkpt lat="47.238" lon="-1.61155">
        <ele>79.4</ele>
        <time>2012-07-23T16:33:52.000Z</time>
      </trkpt>
      <trkpt lat="47.23793" lon="-1.6116">
        <ele>83</ele>
        <time>2012-07-23T16:33:54.000Z</time>
      </trkpt>
      <trkpt lat="47.23789" lon="-1.61165">
        <ele>81</ele>
        <time>2012-07-23T16:33:56.000Z</time>
      </trkpt>
      <trkpt lat="47.23785" lon="-1.61169">
        <ele>79.7</ele>
        <time>2012-07-23T16:33:58.000Z</time>
      </trkpt>
      <trkpt lat="47.2378" lon="-1.61173">
        <ele>78.5</ele>
        <time>2012-07-23T16:34:00.000Z</time>
      </trkpt>
      <trkpt lat="47.23774" lon="-1.61176">
        <ele>78.5</ele>
        <time>2012-07-23T16:34:02.000Z</time>
      </trkpt>
      <trkpt lat="47.23768" lon="-1.61178">
        <ele>79.3</ele>
        <time>2012-07-23T16:34:04.000Z</time>
      </trkpt>
      <trkpt lat="47.23764" lon="-1.61181">
        <ele>79.8</ele>
        <time>2012-07-23T16:34:06.000Z</time>
      </trkpt>
      <trkpt lat="47.23758" lon="-1.61184">
        <ele>80.1</ele>
        <time>2012-07-23T16:34:08.000Z</time>
      </trkpt>
      <trkpt lat="47.23753" lon="-1.61188">
        <ele>80.5</ele>
        <time>2012-07-23T16:34:10.000Z</time>
      </trkpt>
      <trkpt lat="47.23747" lon="-1.61192">
        <ele>79.4</ele>
        <time>2012-07-23T16:34:12.000Z</time>
      </trkpt>
      <trkpt lat="47.23742" lon="-1.612">
        <ele>75.1</ele>
        <time>2012-07-23T16:34:15.000Z</time>
      </trkpt>
      <trkpt lat="47.2374" lon="-1.6121">
        <ele>72.5</ele>
        <time>2012-07-23T16:34:18.000Z</time>
      </trkpt>
      <trkpt lat="47.23738" lon="-1.61219">
        <ele>72.2</ele>
        <time>2012-07-23T16:34:20.000Z</time>
      </trkpt>
      <trkpt lat="47.23734" lon="-1.61225">
        <ele>72.6</ele>
        <time>2012-07-23T16:34:22.000Z</time>
      </trkpt>
      <trkpt lat="47.23727" lon="-1.61228">
        <ele>71.3</ele>
        <time>2012-07-23T16:34:24.000Z</time>
      </trkpt>
      <trkpt lat="47.23723" lon="-1.61232">
        <ele>71</ele>
        <time>2012-07-23T16:34:26.000Z</time>
      </trkpt>
      <trkpt lat="47.23718" lon="-1.61234">
        <ele>71.9</ele>
        <time>2012-07-23T16:34:28.000Z</time>
      </trkpt>
      <trkpt lat="47.23713" lon="-1.61231">
        <ele>72.6</ele>
        <time>2012-07-23T16:34:30.000Z</time>
      </trkpt>
      <trkpt lat="47.2371" lon="-1.61225">
        <ele>72.9</ele>
        <time>2012-07-23T16:34:32.000Z</time>
      </trkpt>
      <trkpt lat="47.23712" lon="-1.61213">
        <ele>73.7</ele>
        <time>2012-07-23T16:34:34.000Z</time>
      </trkpt>
      <trkpt lat="47.23712" lon="-1.61205">
        <ele>75.4</ele>
        <time>2012-07-23T16:34:36.000Z</time>
      </trkpt>
      <trkpt lat="47.23708" lon="-1.61197">
        <ele>75</ele>
        <time>2012-07-23T16:34:39.000Z</time>
      </trkpt>
      <trkpt lat="47.23705" lon="-1.61205">
        <ele>74.5</ele>
        <time>2012-07-23T16:34:42.000Z</time>
      </trkpt>
      <trkpt lat="47.23705" lon="-1.61213">
        <ele>73.6</ele>
        <time>2012-07-23T16:34:44.000Z</time>
      </trkpt>
      <trkpt lat="47.23704" lon="-1.6122">
        <ele>72.9</ele>
        <time>2012-07-23T16:34:46.000Z</time>
      </trkpt>
      <trkpt lat="47.23704" lon="-1.61228">
        <ele>72.6</ele>
        <time>2012-07-23T16:34:48.000Z</time>
      </trkpt>
      <trkpt lat="47.23704" lon="-1.61235">
        <ele>72</ele>
        <time>2012-07-23T16:34:50.000Z</time>
      </trkpt>
      <trkpt lat="47.23703" lon="-1.61242">
        <ele>71.6</ele>
        <time>2012-07-23T16:34:52.000Z</time>
      </trkpt>
      <trkpt lat="47.23697" lon="-1.61239">
        <ele>71.4</ele>
        <time>2012-07-23T16:34:53.000Z</time>
      </trkpt>
      <trkpt lat="47.23692" lon="-1.61239">
        <ele>71.3</ele>
        <time>2012-07-23T16:34:56.000Z</time>
      </trkpt>
      <trkpt lat="47.23689" lon="-1.61235">
        <ele>71.2</ele>
        <time>2012-07-23T16:34:58.000Z</time>
      </trkpt>
      <trkpt lat="47.23685" lon="-1.61228">
        <ele>70.8</ele>
        <time>2012-07-23T16:35:00.000Z</time>
      </trkpt>
      <trkpt lat="47.23682" lon="-1.61221">
        <ele>70.5</ele>
        <time>2012-07-23T16:35:03.000Z</time>
      </trkpt>
      <trkpt lat="47.23681" lon="-1.61214">
        <ele>70.9</ele>
        <time>2012-07-23T16:35:05.000Z</time>
      </trkpt>
      <trkpt lat="47.23677" lon="-1.61205">
        <ele>71.7</ele>
        <time>2012-07-23T16:35:08.000Z</time>
      </trkpt>
      <trkpt lat="47.23674" lon="-1.61199">
        <ele>72</ele>
        <time>2012-07-23T16:35:10.000Z</time>
      </trkpt>
      <trkpt lat="47.23671" lon="-1.61192">
        <ele>71.8</ele>
        <time>2012-07-23T16:35:12.000Z</time>
      </trkpt>
      <trkpt lat="47.23666" lon="-1.61188">
        <ele>71.1</ele>
        <time>2012-07-23T16:35:14.000Z</time>
      </trkpt>
      <trkpt lat="47.23663" lon="-1.61182">
        <ele>71.2</ele>
        <time>2012-07-23T16:35:16.000Z</time>
      </trkpt>
      <trkpt lat="47.23661" lon="-1.61175">
        <ele>71.4</ele>
        <time>2012-07-23T16:35:18.000Z</time>
      </trkpt>
      <trkpt lat="47.23656" lon="-1.61168">
        <ele>72</ele>
        <time>2012-07-23T16:35:21.000Z</time>
      </trkpt>
      <trkpt lat="47.23652" lon="-1.61159">
        <ele>72.2</ele>
        <time>2012-07-23T16:35:23.000Z</time>
      </trkpt>
      <trkpt lat="47.23647" lon="-1.6115">
        <ele>71.3</ele>
        <time>2012-07-23T16:35:25.000Z</time>
      </trkpt>
      <trkpt lat="47.23644" lon="-1.61143">
        <ele>71.4</ele>
        <time>2012-07-23T16:35:27.000Z</time>
      </trkpt>
      <trkpt lat="47.23643" lon="-1.61136">
        <ele>70.2</ele>
        <time>2012-07-23T16:35:30.000Z</time>
      </trkpt>
      <trkpt lat="47.23639" lon="-1.61127">
        <ele>69.7</ele>
        <time>2012-07-23T16:35:33.000Z</time>
      </trkpt>
      <trkpt lat="47.23638" lon="-1.6112">
        <ele>69.3</ele>
        <time>2012-07-23T16:35:35.000Z</time>
      </trkpt>
      <trkpt lat="47.23635" lon="-1.6111">
        <ele>69.6</ele>
        <time>2012-07-23T16:35:38.000Z</time>
      </trkpt>
      <trkpt lat="47.23635" lon="-1.61103">
        <ele>69.4</ele>
        <time>2012-07-23T16:35:40.000Z</time>
      </trkpt>
      <trkpt lat="47.23636" lon="-1.61096">
        <ele>70.4</ele>
        <time>2012-07-23T16:35:43.000Z</time>
      </trkpt>
      <trkpt lat="47.23637" lon="-1.61088">
        <ele>70</ele>
        <time>2012-07-23T16:35:46.000Z</time>
      </trkpt>
      <trkpt lat="47.23639" lon="-1.61082">
        <ele>70.3</ele>
        <time>2012-07-23T16:35:48.000Z</time>
      </trkpt>
      <trkpt lat="47.23643" lon="-1.61074">
        <ele>70.6</ele>
        <time>2012-07-23T16:35:51.000Z</time>
      </trkpt>
      <trkpt lat="47.23642" lon="-1.61066">
        <ele>72</ele>
        <time>2012-07-23T16:35:53.000Z</time>
      </trkpt>
      <trkpt lat="47.23643" lon="-1.61058">
        <ele>73.1</ele>
        <time>2012-07-23T16:35:56.000Z</time>
      </trkpt>
      <trkpt lat="47.23644" lon="-1.61051">
        <ele>73.3</ele>
        <time>2012-07-23T16:35:58.000Z</time>
      </trkpt>
      <trkpt lat="47.23647" lon="-1.61045">
        <ele>74.1</ele>
        <time>2012-07-23T16:36:00.000Z</time>
      </trkpt>
      <trkpt lat="47.2365" lon="-1.61035">
        <ele>73.8</ele>
        <time>2012-07-23T16:36:03.000Z</time>
      </trkpt>
      <trkpt lat="47.23654" lon="-1.61026">
        <ele>75.3</ele>
        <time>2012-07-23T16:36:06.000Z</time>
      </trkpt>
      <trkpt lat="47.23657" lon="-1.61017">
        <ele>75.4</ele>
        <time>2012-07-23T16:36:08.000Z</time>
      </trkpt>
      <trkpt lat="47.23657" lon="-1.61008">
        <ele>75.5</ele>
        <time>2012-07-23T16:36:10.000Z</time>
      </trkpt>
      <trkpt lat="47.23657" lon="-1.60998">
        <ele>74.4</ele>
        <time>2012-07-23T16:36:12.000Z</time>
      </trkpt>
      <trkpt lat="47.23656" lon="-1.6099">
        <ele>75.3</ele>
        <time>2012-07-23T16:36:14.000Z</time>
      </trkpt>
      <trkpt lat="47.23658" lon="-1.6098">
        <ele>74.2</ele>
        <time>2012-07-23T16:36:16.000Z</time>
      </trkpt>
      <trkpt lat="47.23661" lon="-1.60968">
        <ele>71.3</ele>
        <time>2012-07-23T16:36:18.000Z</time>
      </trkpt>
      <trkpt lat="47.23663" lon="-1.6096">
        <ele>69.5</ele>
        <time>2012-07-23T16:36:20.000Z</time>
      </trkpt>
      <trkpt lat="47.23664" lon="-1.60952">
        <ele>67.8</ele>
        <time>2012-07-23T16:36:22.000Z</time>
      </trkpt>
      <trkpt lat="47.23669" lon="-1.60943">
        <ele>65.1</ele>
        <time>2012-07-23T16:36:24.000Z</time>
      </trkpt>
      <trkpt lat="47.23667" lon="-1.60932">
        <ele>65.7</ele>
        <time>2012-07-23T16:36:26.000Z</time>
      </trkpt>
      <trkpt lat="47.23663" lon="-1.60924">
        <ele>66.4</ele>
        <time>2012-07-23T16:36:28.000Z</time>
      </trkpt>
      <trkpt lat="47.23658" lon="-1.60917">
        <ele>68.2</ele>
        <time>2012-07-23T16:36:30.000Z</time>
      </trkpt>
      <trkpt lat="47.23653" lon="-1.60912">
        <ele>69.2</ele>
        <time>2012-07-23T16:36:33.000Z</time>
      </trkpt>
      <trkpt lat="47.23649" lon="-1.60906">
        <ele>70.2</ele>
        <time>2012-07-23T16:36:36.000Z</time>
      </trkpt>
      <trkpt lat="47.23646" lon="-1.60901">
        <ele>70</ele>
        <time>2012-07-23T16:36:38.000Z</time>
      </trkpt>
      <trkpt lat="47.23642" lon="-1.60896">
        <ele>69.1</ele>
        <time>2012-07-23T16:36:40.000Z</time>
      </trkpt>
      <trkpt lat="47.23639" lon="-1.60889">
        <ele>70.6</ele>
        <time>2012-07-23T16:36:43.000Z</time>
      </trkpt>
      <trkpt lat="47.23637" lon="-1.60879">
        <ele>71.4</ele>
        <time>2012-07-23T16:36:47.000Z</time>
      </trkpt>
      <trkpt lat="47.23632" lon="-1.60871">
        <ele>70.8</ele>
        <time>2012-07-23T16:36:49.000Z</time>
      </trkpt>
      <trkpt lat="47.23633" lon="-1.60864">
        <ele>70.9</ele>
        <time>2012-07-23T16:36:51.000Z</time>
      </trkpt>
      <trkpt lat="47.23631" lon="-1.60858">
        <ele>71.9</ele>
        <time>2012-07-23T16:36:54.000Z</time>
      </trkpt>
      <trkpt lat="47.23636" lon="-1.60862">
        <ele>71</ele>
        <time>2012-07-23T16:36:59.000Z</time>
      </trkpt>
      <trkpt lat="47.23637" lon="-1.60871">
        <ele>72.1</ele>
        <time>2012-07-23T16:37:02.000Z</time>
      </trkpt>
      <trkpt lat="47.23638" lon="-1.60881">
        <ele>70.2</ele>
        <time>2012-07-23T16:37:04.000Z</time>
      </trkpt>
      <trkpt lat="47.23637" lon="-1.6089">
        <ele>70.2</ele>
        <time>2012-07-23T16:37:06.000Z</time>
      </trkpt>
      <trkpt lat="47.23634" lon="-1.60899">
        <ele>72.6</ele>
        <time>2012-07-23T16:37:08.000Z</time>
      </trkpt>
      <trkpt lat="47.23634" lon="-1.60908">
        <ele>73.4</ele>
        <time>2012-07-23T16:37:10.000Z</time>
      </trkpt>
      <trkpt lat="47.23637" lon="-1.60915">
        <ele>73.3</ele>
        <time>2012-07-23T16:37:13.000Z</time>
      </trkpt>
      <trkpt lat="47.23641" lon="-1.60912">
        <ele>74.9</ele>
        <time>2012-07-23T16:37:16.000Z</time>
      </trkpt>
      <trkpt lat="47.23644" lon="-1.60903">
        <ele>75.5</ele>
        <time>2012-07-23T16:37:19.000Z</time>
      </trkpt>
      <trkpt lat="47.2365" lon="-1.60898">
        <ele>75.9</ele>
        <time>2012-07-23T16:37:22.000Z</time>
      </trkpt>
      <trkpt lat="47.23654" lon="-1.60894">
        <ele>73.9</ele>
        <time>2012-07-23T16:37:27.000Z</time>
      </trkpt>
      <trkpt lat="47.23658" lon="-1.60882">
        <ele>70.7</ele>
        <time>2012-07-23T16:37:30.000Z</time>
      </trkpt>
      <trkpt lat="47.23659" lon="-1.60874">
        <ele>70.4</ele>
        <time>2012-07-23T16:37:31.000Z</time>
      </trkpt>
      <trkpt lat="47.2366" lon="-1.60868">
        <ele>70.2</ele>
        <time>2012-07-23T16:37:32.000Z</time>
      </trkpt>
      <trkpt lat="47.23663" lon="-1.60856">
        <ele>69.4</ele>
        <time>2012-07-23T16:37:34.000Z</time>
      </trkpt>
      <trkpt lat="47.23668" lon="-1.60848">
        <ele>67.6</ele>
        <time>2012-07-23T16:37:35.000Z</time>
      </trkpt>
      <trkpt lat="47.2367" lon="-1.60842">
        <ele>66.1</ele>
        <time>2012-07-23T16:37:36.000Z</time>
      </trkpt>
      <trkpt lat="47.23673" lon="-1.60834">
        <ele>66.8</ele>
        <time>2012-07-23T16:37:38.000Z</time>
      </trkpt>
      <trkpt lat="47.23674" lon="-1.60824">
        <ele>66.9</ele>
        <time>2012-07-23T16:37:41.000Z</time>
      </trkpt>
      <trkpt lat="47.23676" lon="-1.60818">
        <ele>67.3</ele>
        <time>2012-07-23T16:37:43.000Z</time>
      </trkpt>
      <trkpt lat="47.23681" lon="-1.60814">
        <ele>69.9</ele>
        <time>2012-07-23T16:37:47.000Z</time>
      </trkpt>
      <trkpt lat="47.23682" lon="-1.60807">
        <ele>71.5</ele>
        <time>2012-07-23T16:37:54.000Z</time>
      </trkpt>
      <trkpt lat="47.23683" lon="-1.60793">
        <ele>71.9</ele>
        <time>2012-07-23T16:37:58.000Z</time>
      </trkpt>
      <trkpt lat="47.23683" lon="-1.60785">
        <ele>71.1</ele>
        <time>2012-07-23T16:37:59.000Z</time>
      </trkpt>
      <trkpt lat="47.23684" lon="-1.60778">
        <ele>71</ele>
        <time>2012-07-23T16:38:00.000Z</time>
      </trkpt>
      <trkpt lat="47.23685" lon="-1.60771">
        <ele>70.4</ele>
        <time>2012-07-23T16:38:01.000Z</time>
      </trkpt>
      <trkpt lat="47.23686" lon="-1.60763">
        <ele>70.2</ele>
        <time>2012-07-23T16:38:02.000Z</time>
      </trkpt>
      <trkpt lat="47.23682" lon="-1.6075">
        <ele>72.6</ele>
        <time>2012-07-23T16:38:04.000Z</time>
      </trkpt>
      <trkpt lat="47.23681" lon="-1.60742">
        <ele>72.7</ele>
        <time>2012-07-23T16:38:06.000Z</time>
      </trkpt>
      <trkpt lat="47.2368" lon="-1.60733">
        <ele>72.6</ele>
        <time>2012-07-23T16:38:08.000Z</time>
      </trkpt>
      <trkpt lat="47.23676" lon="-1.60727">
        <ele>74.3</ele>
        <time>2012-07-23T16:38:10.000Z</time>
      </trkpt>
      <trkpt lat="47.23672" lon="-1.6072">
        <ele>75.3</ele>
        <time>2012-07-23T16:38:12.000Z</time>
      </trkpt>
      <trkpt lat="47.23668" lon="-1.60711">
        <ele>76</ele>
        <time>2012-07-23T16:38:14.000Z</time>
      </trkpt>
      <trkpt lat="47.23665" lon="-1.60703">
        <ele>76.3</ele>
        <time>2012-07-23T16:38:17.000Z</time>
      </trkpt>
      <trkpt lat="47.23659" lon="-1.60697">
        <ele>75.1</ele>
        <time>2012-07-23T16:38:19.000Z</time>
      </trkpt>
      <trkpt lat="47.23655" lon="-1.60693">
        <ele>75.1</ele>
        <time>2012-07-23T16:38:20.000Z</time>
      </trkpt>
      <trkpt lat="47.23648" lon="-1.60689">
        <ele>75.1</ele>
        <time>2012-07-23T16:38:22.000Z</time>
      </trkpt>
      <trkpt lat="47.23644" lon="-1.60686">
        <ele>75.2</ele>
        <time>2012-07-23T16:38:24.000Z</time>
      </trkpt>
      <trkpt lat="47.23639" lon="-1.60679">
        <ele>75</ele>
        <time>2012-07-23T16:38:27.000Z</time>
      </trkpt>
      <trkpt lat="47.23634" lon="-1.60674">
        <ele>75</ele>
        <time>2012-07-23T16:38:30.000Z</time>
      </trkpt>
      <trkpt lat="47.23628" lon="-1.60668">
        <ele>75.1</ele>
        <time>2012-07-23T16:38:32.000Z</time>
      </trkpt>
      <trkpt lat="47.23624" lon="-1.60664">
        <ele>76</ele>
        <time>2012-07-23T16:38:34.000Z</time>
      </trkpt>
      <trkpt lat="47.23621" lon="-1.6066">
        <ele>75.8</ele>
        <time>2012-07-23T16:38:35.000Z</time>
      </trkpt>
      <trkpt lat="47.23617" lon="-1.60653">
        <ele>77</ele>
        <time>2012-07-23T16:38:37.000Z</time>
      </trkpt>
      <trkpt lat="47.23613" lon="-1.60646">
        <ele>76.6</ele>
        <time>2012-07-23T16:38:39.000Z</time>
      </trkpt>
      <trkpt lat="47.23611" lon="-1.60638">
        <ele>77.5</ele>
        <time>2012-07-23T16:38:41.000Z</time>
      </trkpt>
      <trkpt lat="47.23609" lon="-1.60629">
        <ele>78</ele>
        <time>2012-07-23T16:38:43.000Z</time>
      </trkpt>
      <trkpt lat="47.23607" lon="-1.60622">
        <ele>78.3</ele>
        <time>2012-07-23T16:38:45.000Z</time>
      </trkpt>
      <trkpt lat="47.23603" lon="-1.60616">
        <ele>78</ele>
        <time>2012-07-23T16:38:47.000Z</time>
      </trkpt>
      <trkpt lat="47.23598" lon="-1.60609">
        <ele>78.7</ele>
        <time>2012-07-23T16:38:50.000Z</time>
      </trkpt>
      <trkpt lat="47.23592" lon="-1.60604">
        <ele>77.7</ele>
        <time>2012-07-23T16:38:52.000Z</time>
      </trkpt>
      <trkpt lat="47.2359" lon="-1.60598">
        <ele>78</ele>
        <time>2012-07-23T16:38:54.000Z</time>
      </trkpt>
      <trkpt lat="47.23587" lon="-1.60591">
        <ele>77.6</ele>
        <time>2012-07-23T16:38:57.000Z</time>
      </trkpt>
      <trkpt lat="47.23585" lon="-1.60584">
        <ele>77.7</ele>
        <time>2012-07-23T16:38:59.000Z</time>
      </trkpt>
      <trkpt lat="47.23582" lon="-1.60577">
        <ele>77.9</ele>
        <time>2012-07-23T16:39:01.000Z</time>
      </trkpt>
      <trkpt lat="47.2358" lon="-1.60571">
        <ele>77.5</ele>
        <time>2012-07-23T16:39:03.000Z</time>
      </trkpt>
      <trkpt lat="47.23578" lon="-1.60562">
        <ele>77.2</ele>
        <time>2012-07-23T16:39:05.000Z</time>
      </trkpt>
      <trkpt lat="47.23576" lon="-1.60554">
        <ele>77.7</ele>
        <time>2012-07-23T16:39:07.000Z</time>
      </trkpt>
      <trkpt lat="47.23576" lon="-1.60546">
        <ele>77.7</ele>
        <time>2012-07-23T16:39:09.000Z</time>
      </trkpt>
      <trkpt lat="47.23575" lon="-1.60539">
        <ele>77</ele>
        <time>2012-07-23T16:39:11.000Z</time>
      </trkpt>
      <trkpt lat="47.23572" lon="-1.60532">
        <ele>75.8</ele>
        <time>2012-07-23T16:39:13.000Z</time>
      </trkpt>
      <trkpt lat="47.23571" lon="-1.60522">
        <ele>76.5</ele>
        <time>2012-07-23T16:39:15.000Z</time>
      </trkpt>
      <trkpt lat="47.23568" lon="-1.60516">
        <ele>76.6</ele>
        <time>2012-07-23T16:39:17.000Z</time>
      </trkpt>
      <trkpt lat="47.23564" lon="-1.6051">
        <ele>76.7</ele>
        <time>2012-07-23T16:39:19.000Z</time>
      </trkpt>
      <trkpt lat="47.23562" lon="-1.60503">
        <ele>75.7</ele>
        <time>2012-07-23T16:39:22.000Z</time>
      </trkpt>
      <trkpt lat="47.23559" lon="-1.60495">
        <ele>75.7</ele>
        <time>2012-07-23T16:39:24.000Z</time>
      </trkpt>
      <trkpt lat="47.23556" lon="-1.60488">
        <ele>75.5</ele>
        <time>2012-07-23T16:39:26.000Z</time>
      </trkpt>
      <trkpt lat="47.23555" lon="-1.6048">
        <ele>74.7</ele>
        <time>2012-07-23T16:39:28.000Z</time>
      </trkpt>
      <trkpt lat="47.23553" lon="-1.60472">
        <ele>74</ele>
        <time>2012-07-23T16:39:31.000Z</time>
      </trkpt>
      <trkpt lat="47.23552" lon="-1.60463">
        <ele>74.5</ele>
        <time>2012-07-23T16:39:34.000Z</time>
      </trkpt>
      <trkpt lat="47.23553" lon="-1.60453">
        <ele>75.1</ele>
        <time>2012-07-23T16:39:37.000Z</time>
      </trkpt>
      <trkpt lat="47.23551" lon="-1.60443">
        <ele>75.2</ele>
        <time>2012-07-23T16:39:40.000Z</time>
      </trkpt>
      <trkpt lat="47.23548" lon="-1.60436">
        <ele>74.8</ele>
        <time>2012-07-23T16:39:42.000Z</time>
      </trkpt>
      <trkpt lat="47.23546" lon="-1.6043">
        <ele>75.1</ele>
        <time>2012-07-23T16:39:44.000Z</time>
      </trkpt>
      <trkpt lat="47.23545" lon="-1.60423">
        <ele>75.2</ele>
        <time>2012-07-23T16:39:46.000Z</time>
      </trkpt>
      <trkpt lat="47.23543" lon="-1.60415">
        <ele>75.8</ele>
        <time>2012-07-23T16:39:48.000Z</time>
      </trkpt>
      <trkpt lat="47.23542" lon="-1.60408">
        <ele>75.8</ele>
        <time>2012-07-23T16:39:50.000Z</time>
      </trkpt>
      <trkpt lat="47.23542" lon="-1.604">
        <ele>76.5</ele>
        <time>2012-07-23T16:39:52.000Z</time>
      </trkpt>
      <trkpt lat="47.2354" lon="-1.60391">
        <ele>76.9</ele>
        <time>2012-07-23T16:39:54.000Z</time>
      </trkpt>
      <trkpt lat="47.23538" lon="-1.60385">
        <ele>76.8</ele>
        <time>2012-07-23T16:39:56.000Z</time>
      </trkpt>
      <trkpt lat="47.23535" lon="-1.60378">
        <ele>76.9</ele>
        <time>2012-07-23T16:39:58.000Z</time>
      </trkpt>
      <trkpt lat="47.23531" lon="-1.60371">
        <ele>76.9</ele>
        <time>2012-07-23T16:40:00.000Z</time>
      </trkpt>
      <trkpt lat="47.23533" lon="-1.60362">
        <ele>77.5</ele>
        <time>2012-07-23T16:40:03.000Z</time>
      </trkpt>
      <trkpt lat="47.2353" lon="-1.60354">
        <ele>78.4</ele>
        <time>2012-07-23T16:40:05.000Z</time>
      </trkpt>
      <trkpt lat="47.23524" lon="-1.60345">
        <ele>76.8</ele>
        <time>2012-07-23T16:40:07.000Z</time>
      </trkpt>
      <trkpt lat="47.2352" lon="-1.60335">
        <ele>74.6</ele>
        <time>2012-07-23T16:40:09.000Z</time>
      </trkpt>
      <trkpt lat="47.23514" lon="-1.60329">
        <ele>74</ele>
        <time>2012-07-23T16:40:11.000Z</time>
      </trkpt>
      <trkpt lat="47.2351" lon="-1.60324">
        <ele>72.8</ele>
        <time>2012-07-23T16:40:12.000Z</time>
      </trkpt>
      <trkpt lat="47.23508" lon="-1.60317">
        <ele>73</ele>
        <time>2012-07-23T16:40:14.000Z</time>
      </trkpt>
      <trkpt lat="47.23504" lon="-1.6031">
        <ele>71.7</ele>
        <time>2012-07-23T16:40:17.000Z</time>
      </trkpt>
      <trkpt lat="47.23501" lon="-1.60302">
        <ele>71.7</ele>
        <time>2012-07-23T16:40:20.000Z</time>
      </trkpt>
      <trkpt lat="47.23496" lon="-1.60296">
        <ele>72.7</ele>
        <time>2012-07-23T16:40:23.000Z</time>
      </trkpt>
      <trkpt lat="47.23492" lon="-1.6029">
        <ele>74.2</ele>
        <time>2012-07-23T16:40:26.000Z</time>
      </trkpt>
      <trkpt lat="47.23487" lon="-1.60285">
        <ele>75.5</ele>
        <time>2012-07-23T16:40:28.000Z</time>
      </trkpt>
      <trkpt lat="47.23481" lon="-1.60281">
        <ele>76</ele>
        <time>2012-07-23T16:40:30.000Z</time>
      </trkpt>
      <trkpt lat="47.23477" lon="-1.60278">
        <ele>75.9</ele>
        <time>2012-07-23T16:40:32.000Z</time>
      </trkpt>
      <trkpt lat="47.23472" lon="-1.60273">
        <ele>76.2</ele>
        <time>2012-07-23T16:40:34.000Z</time>
      </trkpt>
      <trkpt lat="47.23464" lon="-1.60269">
        <ele>76.5</ele>
        <time>2012-07-23T16:40:36.000Z</time>
      </trkpt>
      <trkpt lat="47.2346" lon="-1.60262">
        <ele>73.1</ele>
        <time>2012-07-23T16:40:39.000Z</time>
      </trkpt>
      <trkpt lat="47.23456" lon="-1.60258">
        <ele>73</ele>
        <time>2012-07-23T16:40:42.000Z</time>
      </trkpt>
      <trkpt lat="47.2345" lon="-1.60252">
        <ele>73.6</ele>
        <time>2012-07-23T16:40:45.000Z</time>
      </trkpt>
      <trkpt lat="47.23446" lon="-1.60248">
        <ele>73.5</ele>
        <time>2012-07-23T16:40:47.000Z</time>
      </trkpt>
      <trkpt lat="47.23442" lon="-1.60244">
        <ele>73.2</ele>
        <time>2012-07-23T16:40:49.000Z</time>
      </trkpt>
      <trkpt lat="47.23437" lon="-1.6024">
        <ele>73.2</ele>
        <time>2012-07-23T16:40:51.000Z</time>
      </trkpt>
      <trkpt lat="47.23434" lon="-1.60233">
        <ele>73.3</ele>
        <time>2012-07-23T16:40:53.000Z</time>
      </trkpt>
      <trkpt lat="47.23431" lon="-1.60225">
        <ele>72.7</ele>
        <time>2012-07-23T16:40:56.000Z</time>
      </trkpt>
      <trkpt lat="47.23429" lon="-1.60218">
        <ele>73.3</ele>
        <time>2012-07-23T16:40:58.000Z</time>
      </trkpt>
      <trkpt lat="47.23426" lon="-1.60211">
        <ele>73</ele>
        <time>2012-07-23T16:41:01.000Z</time>
      </trkpt>
      <trkpt lat="47.23421" lon="-1.60206">
        <ele>73.1</ele>
        <time>2012-07-23T16:41:04.000Z</time>
      </trkpt>
      <trkpt lat="47.23415" lon="-1.60199">
        <ele>72.3</ele>
        <time>2012-07-23T16:41:07.000Z</time>
      </trkpt>
      <trkpt lat="47.23412" lon="-1.60193">
        <ele>72.1</ele>
        <time>2012-07-23T16:41:09.000Z</time>
      </trkpt>
      <trkpt lat="47.23407" lon="-1.60188">
        <ele>72.9</ele>
        <time>2012-07-23T16:41:12.000Z</time>
      </trkpt>
      <trkpt lat="47.23403" lon="-1.60179">
        <ele>72.1</ele>
        <time>2012-07-23T16:41:14.000Z</time>
      </trkpt>
      <trkpt lat="47.23402" lon="-1.60172">
        <ele>71.4</ele>
        <time>2012-07-23T16:41:15.000Z</time>
      </trkpt>
      <trkpt lat="47.23401" lon="-1.60163">
        <ele>71.8</ele>
        <time>2012-07-23T16:41:17.000Z</time>
      </trkpt>
      <trkpt lat="47.23398" lon="-1.60154">
        <ele>71.7</ele>
        <time>2012-07-23T16:41:19.000Z</time>
      </trkpt>
      <trkpt lat="47.23392" lon="-1.60146">
        <ele>70.6</ele>
        <time>2012-07-23T16:41:21.000Z</time>
      </trkpt>
      <trkpt lat="47.23389" lon="-1.60138">
        <ele>69.8</ele>
        <time>2012-07-23T16:41:23.000Z</time>
      </trkpt>
      <trkpt lat="47.23385" lon="-1.6013">
        <ele>69.2</ele>
        <time>2012-07-23T16:41:25.000Z</time>
      </trkpt>
      <trkpt lat="47.23385" lon="-1.60121">
        <ele>69.9</ele>
        <time>2012-07-23T16:41:27.000Z</time>
      </trkpt>
      <trkpt lat="47.23381" lon="-1.60113">
        <ele>70.5</ele>
        <time>2012-07-23T16:41:29.000Z</time>
      </trkpt>
      <trkpt lat="47.23381" lon="-1.60104">
        <ele>75.5</ele>
        <time>2012-07-23T16:41:31.000Z</time>
      </trkpt>
      <trkpt lat="47.23378" lon="-1.60095">
        <ele>74.5</ele>
        <time>2012-07-23T16:41:33.000Z</time>
      </trkpt>
      <trkpt lat="47.23376" lon="-1.60088">
        <ele>76.1</ele>
        <time>2012-07-23T16:41:35.000Z</time>
      </trkpt>
      <trkpt lat="47.23372" lon="-1.60079">
        <ele>76</ele>
        <time>2012-07-23T16:41:37.000Z</time>
      </trkpt>
      <trkpt lat="47.23368" lon="-1.60073">
        <ele>76.6</ele>
        <time>2012-07-23T16:41:39.000Z</time>
      </trkpt>
      <trkpt lat="47.23366" lon="-1.60066">
        <ele>76.8</ele>
        <time>2012-07-23T16:41:41.000Z</time>
      </trkpt>
      <trkpt lat="47.23365" lon="-1.60058">
        <ele>76.7</ele>
        <time>2012-07-23T16:41:44.000Z</time>
      </trkpt>
      <trkpt lat="47.23362" lon="-1.60049">
        <ele>78.1</ele>
        <time>2012-07-23T16:41:46.000Z</time>
      </trkpt>
      <trkpt lat="47.23362" lon="-1.60038">
        <ele>75</ele>
        <time>2012-07-23T16:41:48.000Z</time>
      </trkpt>
      <trkpt lat="47.23361" lon="-1.6003">
        <ele>73.3</ele>
        <time>2012-07-23T16:41:50.000Z</time>
      </trkpt>
      <trkpt lat="47.23359" lon="-1.60022">
        <ele>72.3</ele>
        <time>2012-07-23T16:41:53.000Z</time>
      </trkpt>
      <trkpt lat="47.23357" lon="-1.60015">
        <ele>72.2</ele>
        <time>2012-07-23T16:41:55.000Z</time>
      </trkpt>
      <trkpt lat="47.23357" lon="-1.60004">
        <ele>72.3</ele>
        <time>2012-07-23T16:41:58.000Z</time>
      </trkpt>
      <trkpt lat="47.2336" lon="-1.59994">
        <ele>71.9</ele>
        <time>2012-07-23T16:42:00.000Z</time>
      </trkpt>
      <trkpt lat="47.23358" lon="-1.59987">
        <ele>72.8</ele>
        <time>2012-07-23T16:42:02.000Z</time>
      </trkpt>
      <trkpt lat="47.23354" lon="-1.59979">
        <ele>72.7</ele>
        <time>2012-07-23T16:42:05.000Z</time>
      </trkpt>
      <trkpt lat="47.23354" lon="-1.59971">
        <ele>73.1</ele>
        <time>2012-07-23T16:42:07.000Z</time>
      </trkpt>
      <trkpt lat="47.23351" lon="-1.59963">
        <ele>72.9</ele>
        <time>2012-07-23T16:42:09.000Z</time>
      </trkpt>
      <trkpt lat="47.23351" lon="-1.59954">
        <ele>73.7</ele>
        <time>2012-07-23T16:42:11.000Z</time>
      </trkpt>
      <trkpt lat="47.23348" lon="-1.59944">
        <ele>74.8</ele>
        <time>2012-07-23T16:42:13.000Z</time>
      </trkpt>
      <trkpt lat="47.23349" lon="-1.59937">
        <ele>75.2</ele>
        <time>2012-07-23T16:42:15.000Z</time>
      </trkpt>
      <trkpt lat="47.23347" lon="-1.5993">
        <ele>76.1</ele>
        <time>2012-07-23T16:42:17.000Z</time>
      </trkpt>
      <trkpt lat="47.23343" lon="-1.59922">
        <ele>75.4</ele>
        <time>2012-07-23T16:42:19.000Z</time>
      </trkpt>
      <trkpt lat="47.2334" lon="-1.59917">
        <ele>75.4</ele>
        <time>2012-07-23T16:42:21.000Z</time>
      </trkpt>
      <trkpt lat="47.23333" lon="-1.59911">
        <ele>74.7</ele>
        <time>2012-07-23T16:42:24.000Z</time>
      </trkpt>
      <trkpt lat="47.23329" lon="-1.59908">
        <ele>73.8</ele>
        <time>2012-07-23T16:42:26.000Z</time>
      </trkpt>
      <trkpt lat="47.23324" lon="-1.59905">
        <ele>73.7</ele>
        <time>2012-07-23T16:42:28.000Z</time>
      </trkpt>
      <trkpt lat="47.23319" lon="-1.59902">
        <ele>75.2</ele>
        <time>2012-07-23T16:42:30.000Z</time>
      </trkpt>
      <trkpt lat="47.23314" lon="-1.59901">
        <ele>75.9</ele>
        <time>2012-07-23T16:42:32.000Z</time>
      </trkpt>
      <trkpt lat="47.23309" lon="-1.59896">
        <ele>76.7</ele>
        <time>2012-07-23T16:42:34.000Z</time>
      </trkpt>
      <trkpt lat="47.23305" lon="-1.59887">
        <ele>76.6</ele>
        <time>2012-07-23T16:42:36.000Z</time>
      </trkpt>
      <trkpt lat="47.23299" lon="-1.59881">
        <ele>76.3</ele>
        <time>2012-07-23T16:42:38.000Z</time>
      </trkpt>
      <trkpt lat="47.23292" lon="-1.59877">
        <ele>76.3</ele>
        <time>2012-07-23T16:42:40.000Z</time>
      </trkpt>
      <trkpt lat="47.23287" lon="-1.59867">
        <ele>77.2</ele>
        <time>2012-07-23T16:42:43.000Z</time>
      </trkpt>
      <trkpt lat="47.23285" lon="-1.5986">
        <ele>76.8</ele>
        <time>2012-07-23T16:42:46.000Z</time>
      </trkpt>
      <trkpt lat="47.23284" lon="-1.59852">
        <ele>77.1</ele>
        <time>2012-07-23T16:42:48.000Z</time>
      </trkpt>
      <trkpt lat="47.2328" lon="-1.59844">
        <ele>75.8</ele>
        <time>2012-07-23T16:42:50.000Z</time>
      </trkpt>
      <trkpt lat="47.23275" lon="-1.59835">
        <ele>73.1</ele>
        <time>2012-07-23T16:42:52.000Z</time>
      </trkpt>
      <trkpt lat="47.2327" lon="-1.59828">
        <ele>71.6</ele>
        <time>2012-07-23T16:42:54.000Z</time>
      </trkpt>
      <trkpt lat="47.23268" lon="-1.5982">
        <ele>70.9</ele>
        <time>2012-07-23T16:42:56.000Z</time>
      </trkpt>
      <trkpt lat="47.23264" lon="-1.59814">
        <ele>70.9</ele>
        <time>2012-07-23T16:42:58.000Z</time>
      </trkpt>
      <trkpt lat="47.23262" lon="-1.59805">
        <ele>71</ele>
        <time>2012-07-23T16:43:01.000Z</time>
      </trkpt>
      <trkpt lat="47.2326" lon="-1.59795">
        <ele>71.2</ele>
        <time>2012-07-23T16:43:04.000Z</time>
      </trkpt>
      <trkpt lat="47.23255" lon="-1.5979">
        <ele>70.5</ele>
        <time>2012-07-23T16:43:06.000Z</time>
      </trkpt>
      <trkpt lat="47.23251" lon="-1.59783">
        <ele>69.7</ele>
        <time>2012-07-23T16:43:08.000Z</time>
      </trkpt>
      <trkpt lat="47.23243" lon="-1.59779">
        <ele>70.4</ele>
        <time>2012-07-23T16:43:11.000Z</time>
      </trkpt>
      <trkpt lat="47.23232" lon="-1.59782">
        <ele>70</ele>
        <time>2012-07-23T16:43:12.000Z</time>
      </trkpt>
      <trkpt lat="47.23222" lon="-1.59783">
        <ele>70</ele>
        <time>2012-07-23T16:43:13.000Z</time>
      </trkpt>
      <trkpt lat="47.23218" lon="-1.59784">
        <ele>70.4</ele>
        <time>2012-07-23T16:43:14.000Z</time>
      </trkpt>
      <trkpt lat="47.23208" lon="-1.59786">
        <ele>70.9</ele>
        <time>2012-07-23T16:43:16.000Z</time>
      </trkpt>
      <trkpt lat="47.23202" lon="-1.59781">
        <ele>71.7</ele>
        <time>2012-07-23T16:43:19.000Z</time>
      </trkpt>
      <trkpt lat="47.232" lon="-1.59771">
        <ele>69</ele>
        <time>2012-07-23T16:43:22.000Z</time>
      </trkpt>
      <trkpt lat="47.23198" lon="-1.59763">
        <ele>69.2</ele>
        <time>2012-07-23T16:43:24.000Z</time>
      </trkpt>
      <trkpt lat="47.23193" lon="-1.59754">
        <ele>67.8</ele>
        <time>2012-07-23T16:43:26.000Z</time>
      </trkpt>
      <trkpt lat="47.23188" lon="-1.59749">
        <ele>66.7</ele>
        <time>2012-07-23T16:43:28.000Z</time>
      </trkpt>
      <trkpt lat="47.23184" lon="-1.59741">
        <ele>66.7</ele>
        <time>2012-07-23T16:43:30.000Z</time>
      </trkpt>
      <trkpt lat="47.2318" lon="-1.59734">
        <ele>66.3</ele>
        <time>2012-07-23T16:43:32.000Z</time>
      </trkpt>
      <trkpt lat="47.23176" lon="-1.59728">
        <ele>66.2</ele>
        <time>2012-07-23T16:43:34.000Z</time>
      </trkpt>
      <trkpt lat="47.23173" lon="-1.59722">
        <ele>66.5</ele>
        <time>2012-07-23T16:43:36.000Z</time>
      </trkpt>
      <trkpt lat="47.23168" lon="-1.59715">
        <ele>67.4</ele>
        <time>2012-07-23T16:43:38.000Z</time>
      </trkpt>
      <trkpt lat="47.23164" lon="-1.59709">
        <ele>67.1</ele>
        <time>2012-07-23T16:43:40.000Z</time>
      </trkpt>
      <trkpt lat="47.23159" lon="-1.59706">
        <ele>67.7</ele>
        <time>2012-07-23T16:43:42.000Z</time>
      </trkpt>
      <trkpt lat="47.23155" lon="-1.597">
        <ele>68.5</ele>
        <time>2012-07-23T16:43:44.000Z</time>
      </trkpt>
      <trkpt lat="47.2315" lon="-1.59691">
        <ele>67.9</ele>
        <time>2012-07-23T16:43:47.000Z</time>
      </trkpt>
      <trkpt lat="47.23145" lon="-1.59688">
        <ele>68.8</ele>
        <time>2012-07-23T16:43:49.000Z</time>
      </trkpt>
      <trkpt lat="47.23142" lon="-1.59681">
        <ele>69.6</ele>
        <time>2012-07-23T16:43:51.000Z</time>
      </trkpt>
      <trkpt lat="47.23139" lon="-1.59676">
        <ele>69.6</ele>
        <time>2012-07-23T16:43:53.000Z</time>
      </trkpt>
      <trkpt lat="47.23134" lon="-1.59671">
        <ele>69.9</ele>
        <time>2012-07-23T16:43:55.000Z</time>
      </trkpt>
      <trkpt lat="47.23129" lon="-1.59668">
        <ele>69.2</ele>
        <time>2012-07-23T16:43:57.000Z</time>
      </trkpt>
      <trkpt lat="47.23122" lon="-1.59666">
        <ele>68.9</ele>
        <time>2012-07-23T16:43:59.000Z</time>
      </trkpt>
      <trkpt lat="47.23116" lon="-1.59665">
        <ele>68.8</ele>
        <time>2012-07-23T16:44:01.000Z</time>
      </trkpt>
      <trkpt lat="47.2311" lon="-1.59666">
        <ele>68.5</ele>
        <time>2012-07-23T16:44:03.000Z</time>
      </trkpt>
      <trkpt lat="47.23103" lon="-1.59664">
        <ele>67.6</ele>
        <time>2012-07-23T16:44:05.000Z</time>
      </trkpt>
      <trkpt lat="47.23096" lon="-1.59664">
        <ele>67.1</ele>
        <time>2012-07-23T16:44:07.000Z</time>
      </trkpt>
      <trkpt lat="47.23089" lon="-1.59664">
        <ele>66.6</ele>
        <time>2012-07-23T16:44:09.000Z</time>
      </trkpt>
      <trkpt lat="47.23082" lon="-1.59665">
        <ele>66.7</ele>
        <time>2012-07-23T16:44:11.000Z</time>
      </trkpt>
      <trkpt lat="47.23076" lon="-1.59667">
        <ele>66.5</ele>
        <time>2012-07-23T16:44:13.000Z</time>
      </trkpt>
      <trkpt lat="47.23071" lon="-1.59672">
        <ele>65.8</ele>
        <time>2012-07-23T16:44:15.000Z</time>
      </trkpt>
      <trkpt lat="47.23067" lon="-1.59677">
        <ele>65.3</ele>
        <time>2012-07-23T16:44:17.000Z</time>
      </trkpt>
      <trkpt lat="47.2306" lon="-1.5968">
        <ele>64.4</ele>
        <time>2012-07-23T16:44:20.000Z</time>
      </trkpt>
      <trkpt lat="47.23056" lon="-1.59685">
        <ele>64.8</ele>
        <time>2012-07-23T16:44:22.000Z</time>
      </trkpt>
      <trkpt lat="47.23052" lon="-1.59691">
        <ele>64.1</ele>
        <time>2012-07-23T16:44:25.000Z</time>
      </trkpt>
      <trkpt lat="47.23045" lon="-1.59695">
        <ele>63.4</ele>
        <time>2012-07-23T16:44:27.000Z</time>
      </trkpt>
      <trkpt lat="47.23039" lon="-1.59698">
        <ele>63</ele>
        <time>2012-07-23T16:44:29.000Z</time>
      </trkpt>
      <trkpt lat="47.23034" lon="-1.59699">
        <ele>63.1</ele>
        <time>2012-07-23T16:44:31.000Z</time>
      </trkpt>
      <trkpt lat="47.23027" lon="-1.59703">
        <ele>63.2</ele>
        <time>2012-07-23T16:44:33.000Z</time>
      </trkpt>
      <trkpt lat="47.2302" lon="-1.59703">
        <ele>63.2</ele>
        <time>2012-07-23T16:44:36.000Z</time>
      </trkpt>
      <trkpt lat="47.23016" lon="-1.59704">
        <ele>63.7</ele>
        <time>2012-07-23T16:44:39.000Z</time>
      </trkpt>
      <trkpt lat="47.23011" lon="-1.59701">
        <ele>63</ele>
        <time>2012-07-23T16:44:41.000Z</time>
      </trkpt>
      <trkpt lat="47.23005" lon="-1.59701">
        <ele>62.9</ele>
        <time>2012-07-23T16:44:43.000Z</time>
      </trkpt>
      <trkpt lat="47.23" lon="-1.59703">
        <ele>63.2</ele>
        <time>2012-07-23T16:44:44.000Z</time>
      </trkpt>
      <trkpt lat="47.22995" lon="-1.59705">
        <ele>62.7</ele>
        <time>2012-07-23T16:44:46.000Z</time>
      </trkpt>
      <trkpt lat="47.22989" lon="-1.59705">
        <ele>60.5</ele>
        <time>2012-07-23T16:44:48.000Z</time>
      </trkpt>
      <trkpt lat="47.22984" lon="-1.59707">
        <ele>60.2</ele>
        <time>2012-07-23T16:44:50.000Z</time>
      </trkpt>
      <trkpt lat="47.22978" lon="-1.59709">
        <ele>60.3</ele>
        <time>2012-07-23T16:44:52.000Z</time>
      </trkpt>
      <trkpt lat="47.22973" lon="-1.59712">
        <ele>60.9</ele>
        <time>2012-07-23T16:44:54.000Z</time>
      </trkpt>
      <trkpt lat="47.22967" lon="-1.59711">
        <ele>62.2</ele>
        <time>2012-07-23T16:44:57.000Z</time>
      </trkpt>
      <trkpt lat="47.2296" lon="-1.59712">
        <ele>63</ele>
        <time>2012-07-23T16:45:03.000Z</time>
      </trkpt>
      <trkpt lat="47.22956" lon="-1.59712">
        <ele>63.6</ele>
        <time>2012-07-23T16:45:05.000Z</time>
      </trkpt>
      <trkpt lat="47.22951" lon="-1.59708">
        <ele>65.7</ele>
        <time>2012-07-23T16:45:07.000Z</time>
      </trkpt>
      <trkpt lat="47.22946" lon="-1.59706">
        <ele>65.6</ele>
        <time>2012-07-23T16:45:19.000Z</time>
      </trkpt>
      <trkpt lat="47.2294" lon="-1.59704">
        <ele>66.3</ele>
        <time>2012-07-23T16:45:21.000Z</time>
      </trkpt>
      <trkpt lat="47.22936" lon="-1.59699">
        <ele>65.2</ele>
        <time>2012-07-23T16:45:23.000Z</time>
      </trkpt>
      <trkpt lat="47.22929" lon="-1.59694">
        <ele>65.1</ele>
        <time>2012-07-23T16:45:25.000Z</time>
      </trkpt>
      <trkpt lat="47.22923" lon="-1.5969">
        <ele>66.4</ele>
        <time>2012-07-23T16:45:27.000Z</time>
      </trkpt>
      <trkpt lat="47.22916" lon="-1.59686">
        <ele>66.7</ele>
        <time>2012-07-23T16:45:29.000Z</time>
      </trkpt>
      <trkpt lat="47.22912" lon="-1.59683">
        <ele>66.7</ele>
        <time>2012-07-23T16:45:30.000Z</time>
      </trkpt>
      <trkpt lat="47.22906" lon="-1.59678">
        <ele>66.6</ele>
        <time>2012-07-23T16:45:32.000Z</time>
      </trkpt>
      <trkpt lat="47.229" lon="-1.59674">
        <ele>65.2</ele>
        <time>2012-07-23T16:45:34.000Z</time>
      </trkpt>
      <trkpt lat="47.22893" lon="-1.5967">
        <ele>65.5</ele>
        <time>2012-07-23T16:45:36.000Z</time>
      </trkpt>
      <trkpt lat="47.22887" lon="-1.59664">
        <ele>64.8</ele>
        <time>2012-07-23T16:45:38.000Z</time>
      </trkpt>
      <trkpt lat="47.2288" lon="-1.59659">
        <ele>65.2</ele>
        <time>2012-07-23T16:45:40.000Z</time>
      </trkpt>
      <trkpt lat="47.22875" lon="-1.59655">
        <ele>65.6</ele>
        <time>2012-07-23T16:45:42.000Z</time>
      </trkpt>
      <trkpt lat="47.22872" lon="-1.59651">
        <ele>65.9</ele>
        <time>2012-07-23T16:45:44.000Z</time>
      </trkpt>
      <trkpt lat="47.22868" lon="-1.59645">
        <ele>65.5</ele>
        <time>2012-07-23T16:45:46.000Z</time>
      </trkpt>
      <trkpt lat="47.22862" lon="-1.59639">
        <ele>66.2</ele>
        <time>2012-07-23T16:45:48.000Z</time>
      </trkpt>
      <trkpt lat="47.22856" lon="-1.59634">
        <ele>65.7</ele>
        <time>2012-07-23T16:45:50.000Z</time>
      </trkpt>
      <trkpt lat="47.22855" lon="-1.59628">
        <ele>66.3</ele>
        <time>2012-07-23T16:45:52.000Z</time>
      </trkpt>
      <trkpt lat="47.22853" lon="-1.59618">
        <ele>66.2</ele>
        <time>2012-07-23T16:45:55.000Z</time>
      </trkpt>
      <trkpt lat="47.22852" lon="-1.59611">
        <ele>67.2</ele>
        <time>2012-07-23T16:45:57.000Z</time>
      </trkpt>
      <trkpt lat="47.22854" lon="-1.59604">
        <ele>68</ele>
        <time>2012-07-23T16:45:59.000Z</time>
      </trkpt>
      <trkpt lat="47.22853" lon="-1.59597">
        <ele>68.2</ele>
        <time>2012-07-23T16:46:01.000Z</time>
      </trkpt>
      <trkpt lat="47.22851" lon="-1.5959">
        <ele>68.6</ele>
        <time>2012-07-23T16:46:04.000Z</time>
      </trkpt>
      <trkpt lat="47.22855" lon="-1.59577">
        <ele>68.3</ele>
        <time>2012-07-23T16:46:07.000Z</time>
      </trkpt>
      <trkpt lat="47.22856" lon="-1.59566">
        <ele>68.3</ele>
        <time>2012-07-23T16:46:09.000Z</time>
      </trkpt>
      <trkpt lat="47.22856" lon="-1.59557">
        <ele>66.8</ele>
        <time>2012-07-23T16:46:11.000Z</time>
      </trkpt>
      <trkpt lat="47.22851" lon="-1.59548">
        <ele>67.1</ele>
        <time>2012-07-23T16:46:14.000Z</time>
      </trkpt>
      <trkpt lat="47.22842" lon="-1.59545">
        <ele>67.2</ele>
        <time>2012-07-23T16:46:16.000Z</time>
      </trkpt>
      <trkpt lat="47.22835" lon="-1.59542">
        <ele>66.7</ele>
        <time>2012-07-23T16:46:18.000Z</time>
      </trkpt>
      <trkpt lat="47.22827" lon="-1.5954">
        <ele>66.6</ele>
        <time>2012-07-23T16:46:20.000Z</time>
      </trkpt>
      <trkpt lat="47.22822" lon="-1.59538">
        <ele>66.4</ele>
        <time>2012-07-23T16:46:21.000Z</time>
      </trkpt>
      <trkpt lat="47.22816" lon="-1.59535">
        <ele>66.9</ele>
        <time>2012-07-23T16:46:23.000Z</time>
      </trkpt>
      <trkpt lat="47.22812" lon="-1.59536">
        <ele>67.4</ele>
        <time>2012-07-23T16:46:24.000Z</time>
      </trkpt>
      <trkpt lat="47.22805" lon="-1.59535">
        <ele>67.7</ele>
        <time>2012-07-23T16:46:26.000Z</time>
      </trkpt>
      <trkpt lat="47.228" lon="-1.59536">
        <ele>67.9</ele>
        <time>2012-07-23T16:46:27.000Z</time>
      </trkpt>
      <trkpt lat="47.22795" lon="-1.59538">
        <ele>68.2</ele>
        <time>2012-07-23T16:46:29.000Z</time>
      </trkpt>
      <trkpt lat="47.2279" lon="-1.5954">
        <ele>68.7</ele>
        <time>2012-07-23T16:46:31.000Z</time>
      </trkpt>
      <trkpt lat="47.22785" lon="-1.59538">
        <ele>68.5</ele>
        <time>2012-07-23T16:46:33.000Z</time>
      </trkpt>
      <trkpt lat="47.22778" lon="-1.59538">
        <ele>69</ele>
        <time>2012-07-23T16:46:36.000Z</time>
      </trkpt>
      <trkpt lat="47.22772" lon="-1.59538">
        <ele>69.4</ele>
        <time>2012-07-23T16:46:39.000Z</time>
      </trkpt>
      <trkpt lat="47.22766" lon="-1.59542">
        <ele>69.8</ele>
        <time>2012-07-23T16:46:41.000Z</time>
      </trkpt>
      <trkpt lat="47.2276" lon="-1.59542">
        <ele>69.5</ele>
        <time>2012-07-23T16:46:44.000Z</time>
      </trkpt>
      <trkpt lat="47.22754" lon="-1.59542">
        <ele>69.2</ele>
        <time>2012-07-23T16:46:46.000Z</time>
      </trkpt>
      <trkpt lat="47.22748" lon="-1.59543">
        <ele>70.1</ele>
        <time>2012-07-23T16:46:49.000Z</time>
      </trkpt>
      <trkpt lat="47.22742" lon="-1.59543">
        <ele>70.8</ele>
        <time>2012-07-23T16:46:52.000Z</time>
      </trkpt>
      <trkpt lat="47.22738" lon="-1.59542">
        <ele>71.6</ele>
        <time>2012-07-23T16:46:55.000Z</time>
      </trkpt>
      <trkpt lat="47.22733" lon="-1.59539">
        <ele>72</ele>
        <time>2012-07-23T16:46:58.000Z</time>
      </trkpt>
      <trkpt lat="47.2273" lon="-1.59534">
        <ele>72.5</ele>
        <time>2012-07-23T16:47:00.000Z</time>
      </trkpt>
      <trkpt lat="47.22728" lon="-1.59528">
        <ele>70.6</ele>
        <time>2012-07-23T16:47:02.000Z</time>
      </trkpt>
      <trkpt lat="47.22725" lon="-1.59523">
        <ele>70.5</ele>
        <time>2012-07-23T16:47:04.000Z</time>
      </trkpt>
      <trkpt lat="47.22719" lon="-1.59517">
        <ele>71</ele>
        <time>2012-07-23T16:47:06.000Z</time>
      </trkpt>
      <trkpt lat="47.22716" lon="-1.59512">
        <ele>70.7</ele>
        <time>2012-07-23T16:47:08.000Z</time>
      </trkpt>
      <trkpt lat="47.22714" lon="-1.59505">
        <ele>69.8</ele>
        <time>2012-07-23T16:47:10.000Z</time>
      </trkpt>
      <trkpt lat="47.22711" lon="-1.59498">
        <ele>69.6</ele>
        <time>2012-07-23T16:47:13.000Z</time>
      </trkpt>
      <trkpt lat="47.22709" lon="-1.5949">
        <ele>68.6</ele>
        <time>2012-07-23T16:47:16.000Z</time>
      </trkpt>
      <trkpt lat="47.22708" lon="-1.59482">
        <ele>68.1</ele>
        <time>2012-07-23T16:47:18.000Z</time>
      </trkpt>
      <trkpt lat="47.22709" lon="-1.59475">
        <ele>68</ele>
        <time>2012-07-23T16:47:20.000Z</time>
      </trkpt>
      <trkpt lat="47.22705" lon="-1.59468">
        <ele>68</ele>
        <time>2012-07-23T16:47:22.000Z</time>
      </trkpt>
      <trkpt lat="47.22697" lon="-1.59462">
        <ele>66.1</ele>
        <time>2012-07-23T16:47:24.000Z</time>
      </trkpt>
      <trkpt lat="47.2269" lon="-1.59458">
        <ele>65.1</ele>
        <time>2012-07-23T16:47:26.000Z</time>
      </trkpt>
      <trkpt lat="47.22684" lon="-1.59458">
        <ele>64.7</ele>
        <time>2012-07-23T16:47:27.000Z</time>
      </trkpt>
      <trkpt lat="47.22676" lon="-1.59458">
        <ele>64.2</ele>
        <time>2012-07-23T16:47:28.000Z</time>
      </trkpt>
      <trkpt lat="47.22672" lon="-1.59455">
        <ele>64</ele>
        <time>2012-07-23T16:47:29.000Z</time>
      </trkpt>
      <trkpt lat="47.22668" lon="-1.5945">
        <ele>64.6</ele>
        <time>2012-07-23T16:47:31.000Z</time>
      </trkpt>
      <trkpt lat="47.22669" lon="-1.59443">
        <ele>64.2</ele>
        <time>2012-07-23T16:47:33.000Z</time>
      </trkpt>
      <trkpt lat="47.2267" lon="-1.59436">
        <ele>63.4</ele>
        <time>2012-07-23T16:47:35.000Z</time>
      </trkpt>
      <trkpt lat="47.22667" lon="-1.59429">
        <ele>65</ele>
        <time>2012-07-23T16:47:37.000Z</time>
      </trkpt>
      <trkpt lat="47.22666" lon="-1.59422">
        <ele>65.5</ele>
        <time>2012-07-23T16:47:40.000Z</time>
      </trkpt>
      <trkpt lat="47.22668" lon="-1.59415">
        <ele>66.6</ele>
        <time>2012-07-23T16:47:42.000Z</time>
      </trkpt>
      <trkpt lat="47.22666" lon="-1.59407">
        <ele>66.2</ele>
        <time>2012-07-23T16:47:44.000Z</time>
      </trkpt>
      <trkpt lat="47.22666" lon="-1.59398">
        <ele>66.3</ele>
        <time>2012-07-23T16:47:47.000Z</time>
      </trkpt>
      <trkpt lat="47.22668" lon="-1.59392">
        <ele>66.8</ele>
        <time>2012-07-23T16:47:49.000Z</time>
      </trkpt>
      <trkpt lat="47.22671" lon="-1.59384">
        <ele>66.9</ele>
        <time>2012-07-23T16:47:52.000Z</time>
      </trkpt>
      <trkpt lat="47.22671" lon="-1.59377">
        <ele>68</ele>
        <time>2012-07-23T16:47:54.000Z</time>
      </trkpt>
      <trkpt lat="47.22672" lon="-1.59368">
        <ele>68.9</ele>
        <time>2012-07-23T16:47:57.000Z</time>
      </trkpt>
      <trkpt lat="47.22671" lon="-1.59359">
        <ele>70.3</ele>
        <time>2012-07-23T16:48:00.000Z</time>
      </trkpt>
      <trkpt lat="47.2267" lon="-1.59352">
        <ele>70.2</ele>
        <time>2012-07-23T16:48:02.000Z</time>
      </trkpt>
      <trkpt lat="47.22673" lon="-1.59346">
        <ele>71.2</ele>
        <time>2012-07-23T16:48:04.000Z</time>
      </trkpt>
      <trkpt lat="47.22673" lon="-1.59336">
        <ele>72</ele>
        <time>2012-07-23T16:48:06.000Z</time>
      </trkpt>
      <trkpt lat="47.22678" lon="-1.59325">
        <ele>70.3</ele>
        <time>2012-07-23T16:48:08.000Z</time>
      </trkpt>
      <trkpt lat="47.2268" lon="-1.59318">
        <ele>69.2</ele>
        <time>2012-07-23T16:48:10.000Z</time>
      </trkpt>
      <trkpt lat="47.2268" lon="-1.59308">
        <ele>68.2</ele>
        <time>2012-07-23T16:48:13.000Z</time>
      </trkpt>
      <trkpt lat="47.22679" lon="-1.59299">
        <ele>69.8</ele>
        <time>2012-07-23T16:48:16.000Z</time>
      </trkpt>
      <trkpt lat="47.2268" lon="-1.59292">
        <ele>70.5</ele>
        <time>2012-07-23T16:48:17.000Z</time>
      </trkpt>
      <trkpt lat="47.22682" lon="-1.59283">
        <ele>70</ele>
        <time>2012-07-23T16:48:19.000Z</time>
      </trkpt>
      <trkpt lat="47.22684" lon="-1.59274">
        <ele>69.6</ele>
        <time>2012-07-23T16:48:21.000Z</time>
      </trkpt>
      <trkpt lat="47.22683" lon="-1.59266">
        <ele>69.9</ele>
        <time>2012-07-23T16:48:23.000Z</time>
      </trkpt>
      <trkpt lat="47.22684" lon="-1.59253">
        <ele>70.9</ele>
        <time>2012-07-23T16:48:26.000Z</time>
      </trkpt>
      <trkpt lat="47.22686" lon="-1.59242">
        <ele>71.3</ele>
        <time>2012-07-23T16:48:28.000Z</time>
      </trkpt>
      <trkpt lat="47.22686" lon="-1.59234">
        <ele>72.1</ele>
        <time>2012-07-23T16:48:30.000Z</time>
      </trkpt>
      <trkpt lat="47.22686" lon="-1.59224">
        <ele>73.4</ele>
        <time>2012-07-23T16:48:33.000Z</time>
      </trkpt>
      <trkpt lat="47.22689" lon="-1.59214">
        <ele>74.1</ele>
        <time>2012-07-23T16:48:35.000Z</time>
      </trkpt>
      <trkpt lat="47.22692" lon="-1.59205">
        <ele>73.2</ele>
        <time>2012-07-23T16:48:37.000Z</time>
      </trkpt>
      <trkpt lat="47.22693" lon="-1.59193">
        <ele>72.2</ele>
        <time>2012-07-23T16:48:39.000Z</time>
      </trkpt>
      <trkpt lat="47.22695" lon="-1.59187">
        <ele>71.9</ele>
        <time>2012-07-23T16:48:41.000Z</time>
      </trkpt>
      <trkpt lat="47.22696" lon="-1.5918">
        <ele>71</ele>
        <time>2012-07-23T16:48:43.000Z</time>
      </trkpt>
      <trkpt lat="47.22698" lon="-1.59172">
        <ele>70.7</ele>
        <time>2012-07-23T16:48:45.000Z</time>
      </trkpt>
      <trkpt lat="47.22695" lon="-1.59166">
        <ele>70.5</ele>
        <time>2012-07-23T16:48:47.000Z</time>
      </trkpt>
      <trkpt lat="47.22694" lon="-1.59157">
        <ele>71.8</ele>
        <time>2012-07-23T16:48:49.000Z</time>
      </trkpt>
      <trkpt lat="47.22694" lon="-1.59149">
        <ele>73</ele>
        <time>2012-07-23T16:48:51.000Z</time>
      </trkpt>
      <trkpt lat="47.22693" lon="-1.59142">
        <ele>73.1</ele>
        <time>2012-07-23T16:48:53.000Z</time>
      </trkpt>
      <trkpt lat="47.22689" lon="-1.59135">
        <ele>73.6</ele>
        <time>2012-07-23T16:48:55.000Z</time>
      </trkpt>
      <trkpt lat="47.22687" lon="-1.59125">
        <ele>73</ele>
        <time>2012-07-23T16:48:57.000Z</time>
      </trkpt>
      <trkpt lat="47.22684" lon="-1.59114">
        <ele>71.6</ele>
        <time>2012-07-23T16:48:59.000Z</time>
      </trkpt>
      <trkpt lat="47.22679" lon="-1.59106">
        <ele>70.3</ele>
        <time>2012-07-23T16:49:01.000Z</time>
      </trkpt>
      <trkpt lat="47.22677" lon="-1.59097">
        <ele>70.5</ele>
        <time>2012-07-23T16:49:03.000Z</time>
      </trkpt>
      <trkpt lat="47.22676" lon="-1.59088">
        <ele>70.6</ele>
        <time>2012-07-23T16:49:05.000Z</time>
      </trkpt>
      <trkpt lat="47.22674" lon="-1.59082">
        <ele>70.3</ele>
        <time>2012-07-23T16:49:07.000Z</time>
      </trkpt>
      <trkpt lat="47.22671" lon="-1.59076">
        <ele>70.7</ele>
        <time>2012-07-23T16:49:09.000Z</time>
      </trkpt>
      <trkpt lat="47.22669" lon="-1.59067">
        <ele>71.7</ele>
        <time>2012-07-23T16:49:11.000Z</time>
      </trkpt>
      <trkpt lat="47.22666" lon="-1.59061">
        <ele>72</ele>
        <time>2012-07-23T16:49:13.000Z</time>
      </trkpt>
      <trkpt lat="47.22662" lon="-1.59055">
        <ele>72.6</ele>
        <time>2012-07-23T16:49:15.000Z</time>
      </trkpt>
      <trkpt lat="47.22655" lon="-1.59047">
        <ele>71.8</ele>
        <time>2012-07-23T16:49:17.000Z</time>
      </trkpt>
      <trkpt lat="47.2265" lon="-1.59041">
        <ele>71.3</ele>
        <time>2012-07-23T16:49:18.000Z</time>
      </trkpt>
      <trkpt lat="47.22645" lon="-1.59034">
        <ele>69.7</ele>
        <time>2012-07-23T16:49:20.000Z</time>
      </trkpt>
      <trkpt lat="47.22639" lon="-1.59027">
        <ele>69.8</ele>
        <time>2012-07-23T16:49:22.000Z</time>
      </trkpt>
      <trkpt lat="47.22632" lon="-1.59024">
        <ele>69.5</ele>
        <time>2012-07-23T16:49:24.000Z</time>
      </trkpt>
      <trkpt lat="47.22627" lon="-1.59018">
        <ele>69.5</ele>
        <time>2012-07-23T16:49:27.000Z</time>
      </trkpt>
      <trkpt lat="47.22621" lon="-1.59014">
        <ele>68.5</ele>
        <time>2012-07-23T16:49:30.000Z</time>
      </trkpt>
      <trkpt lat="47.22617" lon="-1.59011">
        <ele>68.8</ele>
        <time>2012-07-23T16:49:31.000Z</time>
      </trkpt>
      <trkpt lat="47.22611" lon="-1.59009">
        <ele>70.5</ele>
        <time>2012-07-23T16:49:33.000Z</time>
      </trkpt>
      <trkpt lat="47.22607" lon="-1.59007">
        <ele>70.2</ele>
        <time>2012-07-23T16:49:35.000Z</time>
      </trkpt>
      <trkpt lat="47.22596" lon="-1.59006">
        <ele>70.1</ele>
        <time>2012-07-23T16:49:37.000Z</time>
      </trkpt>
      <trkpt lat="47.22591" lon="-1.59005">
        <ele>69.9</ele>
        <time>2012-07-23T16:49:38.000Z</time>
      </trkpt>
      <trkpt lat="47.22584" lon="-1.59002">
        <ele>70</ele>
        <time>2012-07-23T16:49:40.000Z</time>
      </trkpt>
      <trkpt lat="47.22579" lon="-1.58997">
        <ele>71.3</ele>
        <time>2012-07-23T16:49:42.000Z</time>
      </trkpt>
      <trkpt lat="47.22576" lon="-1.58988">
        <ele>72.9</ele>
        <time>2012-07-23T16:49:46.000Z</time>
      </trkpt>
      <trkpt lat="47.22577" lon="-1.58981">
        <ele>75.1</ele>
        <time>2012-07-23T16:49:50.000Z</time>
      </trkpt>
      <trkpt lat="47.22575" lon="-1.58974">
        <ele>76.6</ele>
        <time>2012-07-23T16:49:53.000Z</time>
      </trkpt>
      <trkpt lat="47.22576" lon="-1.58968">
        <ele>76.4</ele>
        <time>2012-07-23T16:49:56.000Z</time>
      </trkpt>
      <trkpt lat="47.22577" lon="-1.58959">
        <ele>76.5</ele>
        <time>2012-07-23T16:49:58.000Z</time>
      </trkpt>
      <trkpt lat="47.22578" lon="-1.58951">
        <ele>76.5</ele>
        <time>2012-07-23T16:50:01.000Z</time>
      </trkpt>
      <trkpt lat="47.22582" lon="-1.58945">
        <ele>77.8</ele>
        <time>2012-07-23T16:50:03.000Z</time>
      </trkpt>
      <trkpt lat="47.22582" lon="-1.58938">
        <ele>80.6</ele>
        <time>2012-07-23T16:50:06.000Z</time>
      </trkpt>
      <trkpt lat="47.22581" lon="-1.58931">
        <ele>81.6</ele>
        <time>2012-07-23T16:50:08.000Z</time>
      </trkpt>
      <trkpt lat="47.22581" lon="-1.58922">
        <ele>81.9</ele>
        <time>2012-07-23T16:50:10.000Z</time>
      </trkpt>
      <trkpt lat="47.22582" lon="-1.58913">
        <ele>82.4</ele>
        <time>2012-07-23T16:50:12.000Z</time>
      </trkpt>
      <trkpt lat="47.22578" lon="-1.58902">
        <ele>82.8</ele>
        <time>2012-07-23T16:50:15.000Z</time>
      </trkpt>
      <trkpt lat="47.22577" lon="-1.58895">
        <ele>83.2</ele>
        <time>2012-07-23T16:50:17.000Z</time>
      </trkpt>
      <trkpt lat="47.22574" lon="-1.58887">
        <ele>82.5</ele>
        <time>2012-07-23T16:50:19.000Z</time>
      </trkpt>
      <trkpt lat="47.22573" lon="-1.58877">
        <ele>82.1</ele>
        <time>2012-07-23T16:50:21.000Z</time>
      </trkpt>
      <trkpt lat="47.2257" lon="-1.58871">
        <ele>82.3</ele>
        <time>2012-07-23T16:50:23.000Z</time>
      </trkpt>
      <trkpt lat="47.22568" lon="-1.58864">
        <ele>83.2</ele>
        <time>2012-07-23T16:50:25.000Z</time>
      </trkpt>
      <trkpt lat="47.22564" lon="-1.58858">
        <ele>84.8</ele>
        <time>2012-07-23T16:50:27.000Z</time>
      </trkpt>
      <trkpt lat="47.22559" lon="-1.58852">
        <ele>85.5</ele>
        <time>2012-07-23T16:50:29.000Z</time>
      </trkpt>
      <trkpt lat="47.22557" lon="-1.58846">
        <ele>86.1</ele>
        <time>2012-07-23T16:50:31.000Z</time>
      </trkpt>
      <trkpt lat="47.22554" lon="-1.58841">
        <ele>86.5</ele>
        <time>2012-07-23T16:50:32.000Z</time>
      </trkpt>
      <trkpt lat="47.22548" lon="-1.58835">
        <ele>87</ele>
        <time>2012-07-23T16:50:34.000Z</time>
      </trkpt>
      <trkpt lat="47.22546" lon="-1.58827">
        <ele>88.2</ele>
        <time>2012-07-23T16:50:37.000Z</time>
      </trkpt>
      <trkpt lat="47.22546" lon="-1.58818">
        <ele>89</ele>
        <time>2012-07-23T16:50:40.000Z</time>
      </trkpt>
      <trkpt lat="47.22543" lon="-1.5881">
        <ele>90.3</ele>
        <time>2012-07-23T16:50:43.000Z</time>
      </trkpt>
      <trkpt lat="47.22541" lon="-1.58802">
        <ele>90.8</ele>
        <time>2012-07-23T16:50:45.000Z</time>
      </trkpt>
      <trkpt lat="47.2254" lon="-1.58795">
        <ele>89.9</ele>
        <time>2012-07-23T16:50:47.000Z</time>
      </trkpt>
      <trkpt lat="47.22539" lon="-1.58786">
        <ele>89.9</ele>
        <time>2012-07-23T16:50:49.000Z</time>
      </trkpt>
      <trkpt lat="47.2254" lon="-1.58778">
        <ele>88.8</ele>
        <time>2012-07-23T16:50:51.000Z</time>
      </trkpt>
      <trkpt lat="47.2254" lon="-1.58771">
        <ele>89.4</ele>
        <time>2012-07-23T16:50:53.000Z</time>
      </trkpt>
      <trkpt lat="47.22538" lon="-1.58765">
        <ele>89.1</ele>
        <time>2012-07-23T16:50:55.000Z</time>
      </trkpt>
      <trkpt lat="47.22538" lon="-1.58756">
        <ele>88.7</ele>
        <time>2012-07-23T16:50:57.000Z</time>
      </trkpt>
      <trkpt lat="47.22534" lon="-1.58748">
        <ele>87.4</ele>
        <time>2012-07-23T16:50:59.000Z</time>
      </trkpt>
      <trkpt lat="47.2253" lon="-1.58743">
        <ele>86.1</ele>
        <time>2012-07-23T16:51:00.000Z</time>
      </trkpt>
      <trkpt lat="47.22517" lon="-1.58736">
        <ele>83.2</ele>
        <time>2012-07-23T16:51:02.000Z</time>
      </trkpt>
      <trkpt lat="47.22505" lon="-1.58732">
        <ele>79.3</ele>
        <time>2012-07-23T16:51:03.000Z</time>
      </trkpt>
      <trkpt lat="47.22502" lon="-1.58726">
        <ele>77.8</ele>
        <time>2012-07-23T16:51:04.000Z</time>
      </trkpt>
      <trkpt lat="47.22496" lon="-1.58718">
        <ele>74.4</ele>
        <time>2012-07-23T16:51:06.000Z</time>
      </trkpt>
      <trkpt lat="47.22494" lon="-1.58712">
        <ele>71.7</ele>
        <time>2012-07-23T16:51:08.000Z</time>
      </trkpt>
      <trkpt lat="47.22489" lon="-1.58708">
        <ele>71</ele>
        <time>2012-07-23T16:51:10.000Z</time>
      </trkpt>
      <trkpt lat="47.22484" lon="-1.58706">
        <ele>71.3</ele>
        <time>2012-07-23T16:51:12.000Z</time>
      </trkpt>
      <trkpt lat="47.22479" lon="-1.58705">
        <ele>70.9</ele>
        <time>2012-07-23T16:51:15.000Z</time>
      </trkpt>
      <trkpt lat="47.22474" lon="-1.58702">
        <ele>71.4</ele>
        <time>2012-07-23T16:51:17.000Z</time>
      </trkpt>
      <trkpt lat="47.22468" lon="-1.58696">
        <ele>71.8</ele>
        <time>2012-07-23T16:51:21.000Z</time>
      </trkpt>
      <trkpt lat="47.22461" lon="-1.58694">
        <ele>71.9</ele>
        <time>2012-07-23T16:51:23.000Z</time>
      </trkpt>
      <trkpt lat="47.22456" lon="-1.58694">
        <ele>71.8</ele>
        <time>2012-07-23T16:51:24.000Z</time>
      </trkpt>
      <trkpt lat="47.2245" lon="-1.58691">
        <ele>71.8</ele>
        <time>2012-07-23T16:51:26.000Z</time>
      </trkpt>
      <trkpt lat="47.22446" lon="-1.58686">
        <ele>72.6</ele>
        <time>2012-07-23T16:51:28.000Z</time>
      </trkpt>
      <trkpt lat="47.22438" lon="-1.58684">
        <ele>72.4</ele>
        <time>2012-07-23T16:51:31.000Z</time>
      </trkpt>
      <trkpt lat="47.22432" lon="-1.58682">
        <ele>72.5</ele>
        <time>2012-07-23T16:51:33.000Z</time>
      </trkpt>
      <trkpt lat="47.22425" lon="-1.58682">
        <ele>72.2</ele>
        <time>2012-07-23T16:51:36.000Z</time>
      </trkpt>
      <trkpt lat="47.22419" lon="-1.58682">
        <ele>71.2</ele>
        <time>2012-07-23T16:51:40.000Z</time>
      </trkpt>
      <trkpt lat="47.22413" lon="-1.58679">
        <ele>70.5</ele>
        <time>2012-07-23T16:51:42.000Z</time>
      </trkpt>
      <trkpt lat="47.22406" lon="-1.58676">
        <ele>70.3</ele>
        <time>2012-07-23T16:51:44.000Z</time>
      </trkpt>
      <trkpt lat="47.22402" lon="-1.58669">
        <ele>72.3</ele>
        <time>2012-07-23T16:51:47.000Z</time>
      </trkpt>
      <trkpt lat="47.22397" lon="-1.58663">
        <ele>72.7</ele>
        <time>2012-07-23T16:51:51.000Z</time>
      </trkpt>
      <trkpt lat="47.22395" lon="-1.58656">
        <ele>74.7</ele>
        <time>2012-07-23T16:52:06.000Z</time>
      </trkpt>
      <trkpt lat="47.2239" lon="-1.58648">
        <ele>74.4</ele>
        <time>2012-07-23T16:52:08.000Z</time>
      </trkpt>
      <trkpt lat="47.22392" lon="-1.58636">
        <ele>73.3</ele>
        <time>2012-07-23T16:52:10.000Z</time>
      </trkpt>
      <trkpt lat="47.22393" lon="-1.58628">
        <ele>73.6</ele>
        <time>2012-07-23T16:52:12.000Z</time>
      </trkpt>
      <trkpt lat="47.22393" lon="-1.58618">
        <ele>73.1</ele>
        <time>2012-07-23T16:52:14.000Z</time>
      </trkpt>
      <trkpt lat="47.22389" lon="-1.58608">
        <ele>74</ele>
        <time>2012-07-23T16:52:16.000Z</time>
      </trkpt>
      <trkpt lat="47.22382" lon="-1.586">
        <ele>73.8</ele>
        <time>2012-07-23T16:52:18.000Z</time>
      </trkpt>
      <trkpt lat="47.2238" lon="-1.58593">
        <ele>74.3</ele>
        <time>2012-07-23T16:52:20.000Z</time>
      </trkpt>
      <trkpt lat="47.22377" lon="-1.58587">
        <ele>74.7</ele>
        <time>2012-07-23T16:52:21.000Z</time>
      </trkpt>
      <trkpt lat="47.22375" lon="-1.58578">
        <ele>74.5</ele>
        <time>2012-07-23T16:52:23.000Z</time>
      </trkpt>
      <trkpt lat="47.22372" lon="-1.58573">
        <ele>74.3</ele>
        <time>2012-07-23T16:52:25.000Z</time>
      </trkpt>
      <trkpt lat="47.22368" lon="-1.58568">
        <ele>74</ele>
        <time>2012-07-23T16:52:27.000Z</time>
      </trkpt>
      <trkpt lat="47.22363" lon="-1.58563">
        <ele>73.9</ele>
        <time>2012-07-23T16:52:29.000Z</time>
      </trkpt>
      <trkpt lat="47.2236" lon="-1.58558">
        <ele>75.5</ele>
        <time>2012-07-23T16:52:31.000Z</time>
      </trkpt>
      <trkpt lat="47.22355" lon="-1.58551">
        <ele>75.3</ele>
        <time>2012-07-23T16:52:34.000Z</time>
      </trkpt>
      <trkpt lat="47.22356" lon="-1.58543">
        <ele>75</ele>
        <time>2012-07-23T16:52:36.000Z</time>
      </trkpt>
      <trkpt lat="47.22356" lon="-1.58536">
        <ele>74.3</ele>
        <time>2012-07-23T16:52:37.000Z</time>
      </trkpt>
      <trkpt lat="47.22353" lon="-1.58528">
        <ele>74.4</ele>
        <time>2012-07-23T16:52:39.000Z</time>
      </trkpt>
      <trkpt lat="47.22351" lon="-1.58522">
        <ele>75</ele>
        <time>2012-07-23T16:52:41.000Z</time>
      </trkpt>
      <trkpt lat="47.22352" lon="-1.58513">
        <ele>77.4</ele>
        <time>2012-07-23T16:52:44.000Z</time>
      </trkpt>
      <trkpt lat="47.22353" lon="-1.58504">
        <ele>77.2</ele>
        <time>2012-07-23T16:52:47.000Z</time>
      </trkpt>
      <trkpt lat="47.22356" lon="-1.58494">
        <ele>75.6</ele>
        <time>2012-07-23T16:52:48.000Z</time>
      </trkpt>
      <trkpt lat="47.22352" lon="-1.58487">
        <ele>75</ele>
        <time>2012-07-23T16:52:51.000Z</time>
      </trkpt>
      <trkpt lat="47.22346" lon="-1.5848">
        <ele>75.4</ele>
        <time>2012-07-23T16:52:52.000Z</time>
      </trkpt>
      <trkpt lat="47.22342" lon="-1.58473">
        <ele>75</ele>
        <time>2012-07-23T16:52:55.000Z</time>
      </trkpt>
      <trkpt lat="47.22346" lon="-1.58468">
        <ele>75.4</ele>
        <time>2012-07-23T16:52:57.000Z</time>
      </trkpt>
      <trkpt lat="47.22343" lon="-1.58461">
        <ele>74.6</ele>
        <time>2012-07-23T16:53:01.000Z</time>
      </trkpt>
      <trkpt lat="47.2234" lon="-1.58452">
        <ele>73.9</ele>
        <time>2012-07-23T16:53:03.000Z</time>
      </trkpt>
      <trkpt lat="47.22332" lon="-1.58444">
        <ele>73</ele>
        <time>2012-07-23T16:53:05.000Z</time>
      </trkpt>
      <trkpt lat="47.22324" lon="-1.58439">
        <ele>71.3</ele>
        <time>2012-07-23T16:53:06.000Z</time>
      </trkpt>
      <trkpt lat="47.22319" lon="-1.58434">
        <ele>71.1</ele>
        <time>2012-07-23T16:53:07.000Z</time>
      </trkpt>
      <trkpt lat="47.22312" lon="-1.5843">
        <ele>70.9</ele>
        <time>2012-07-23T16:53:09.000Z</time>
      </trkpt>
      <trkpt lat="47.22306" lon="-1.58422">
        <ele>70.4</ele>
        <time>2012-07-23T16:53:11.000Z</time>
      </trkpt>
      <trkpt lat="47.22302" lon="-1.58416">
        <ele>70.8</ele>
        <time>2012-07-23T16:53:13.000Z</time>
      </trkpt>
      <trkpt lat="47.22299" lon="-1.58409">
        <ele>69.9</ele>
        <time>2012-07-23T16:53:16.000Z</time>
      </trkpt>
      <trkpt lat="47.22296" lon="-1.584">
        <ele>71.1</ele>
        <time>2012-07-23T16:53:19.000Z</time>
      </trkpt>
      <trkpt lat="47.22299" lon="-1.58392">
        <ele>71.1</ele>
        <time>2012-07-23T16:53:21.000Z</time>
      </trkpt>
      <trkpt lat="47.22303" lon="-1.58386">
        <ele>70.6</ele>
        <time>2012-07-23T16:53:23.000Z</time>
      </trkpt>
      <trkpt lat="47.22306" lon="-1.5838">
        <ele>70</ele>
        <time>2012-07-23T16:53:25.000Z</time>
      </trkpt>
      <trkpt lat="47.22311" lon="-1.58371">
        <ele>71.7</ele>
        <time>2012-07-23T16:53:27.000Z</time>
      </trkpt>
      <trkpt lat="47.22313" lon="-1.58362">
        <ele>71.2</ele>
        <time>2012-07-23T16:53:30.000Z</time>
      </trkpt>
      <trkpt lat="47.22314" lon="-1.58354">
        <ele>70.6</ele>
        <time>2012-07-23T16:53:32.000Z</time>
      </trkpt>
      <trkpt lat="47.22312" lon="-1.58346">
        <ele>70.5</ele>
        <time>2012-07-23T16:53:35.000Z</time>
      </trkpt>
      <trkpt lat="47.22309" lon="-1.58339">
        <ele>70</ele>
        <time>2012-07-23T16:53:37.000Z</time>
      </trkpt>
      <trkpt lat="47.22305" lon="-1.58332">
        <ele>69.9</ele>
        <time>2012-07-23T16:53:39.000Z</time>
      </trkpt>
      <trkpt lat="47.22303" lon="-1.58326">
        <ele>69.8</ele>
        <time>2012-07-23T16:53:41.000Z</time>
      </trkpt>
      <trkpt lat="47.22304" lon="-1.58316">
        <ele>70.4</ele>
        <time>2012-07-23T16:53:44.000Z</time>
      </trkpt>
      <trkpt lat="47.22307" lon="-1.58307">
        <ele>69.6</ele>
        <time>2012-07-23T16:53:46.000Z</time>
      </trkpt>
      <trkpt lat="47.22309" lon="-1.58295">
        <ele>68.1</ele>
        <time>2012-07-23T16:53:48.000Z</time>
      </trkpt>
      <trkpt lat="47.22311" lon="-1.58288">
        <ele>68</ele>
        <time>2012-07-23T16:53:50.000Z</time>
      </trkpt>
      <trkpt lat="47.22312" lon="-1.58278">
        <ele>67.2</ele>
        <time>2012-07-23T16:53:53.000Z</time>
      </trkpt>
      <trkpt lat="47.22312" lon="-1.58271">
        <ele>67.2</ele>
        <time>2012-07-23T16:53:55.000Z</time>
      </trkpt>
      <trkpt lat="47.2231" lon="-1.58264">
        <ele>67.8</ele>
        <time>2012-07-23T16:53:57.000Z</time>
      </trkpt>
      <trkpt lat="47.22306" lon="-1.58258">
        <ele>68.1</ele>
        <time>2012-07-23T16:53:59.000Z</time>
      </trkpt>
      <trkpt lat="47.223" lon="-1.58249">
        <ele>67.7</ele>
        <time>2012-07-23T16:54:01.000Z</time>
      </trkpt>
      <trkpt lat="47.22293" lon="-1.58242">
        <ele>67</ele>
        <time>2012-07-23T16:54:03.000Z</time>
      </trkpt>
      <trkpt lat="47.22288" lon="-1.58235">
        <ele>65.9</ele>
        <time>2012-07-23T16:54:05.000Z</time>
      </trkpt>
      <trkpt lat="47.22282" lon="-1.58234">
        <ele>66.1</ele>
        <time>2012-07-23T16:54:06.000Z</time>
      </trkpt>
      <trkpt lat="47.22279" lon="-1.58229">
        <ele>65.3</ele>
        <time>2012-07-23T16:54:07.000Z</time>
      </trkpt>
      <trkpt lat="47.22275" lon="-1.58221">
        <ele>65.2</ele>
        <time>2012-07-23T16:54:09.000Z</time>
      </trkpt>
      <trkpt lat="47.22273" lon="-1.58215">
        <ele>64.3</ele>
        <time>2012-07-23T16:54:11.000Z</time>
      </trkpt>
      <trkpt lat="47.22272" lon="-1.58206">
        <ele>64.1</ele>
        <time>2012-07-23T16:54:13.000Z</time>
      </trkpt>
      <trkpt lat="47.22268" lon="-1.58201">
        <ele>63.1</ele>
        <time>2012-07-23T16:54:15.000Z</time>
      </trkpt>
      <trkpt lat="47.22261" lon="-1.58195">
        <ele>63.6</ele>
        <time>2012-07-23T16:54:18.000Z</time>
      </trkpt>
      <trkpt lat="47.2226" lon="-1.58183">
        <ele>63.4</ele>
        <time>2012-07-23T16:54:21.000Z</time>
      </trkpt>
      <trkpt lat="47.22258" lon="-1.58177">
        <ele>64</ele>
        <time>2012-07-23T16:54:24.000Z</time>
      </trkpt>
      <trkpt lat="47.22254" lon="-1.58171">
        <ele>62.6</ele>
        <time>2012-07-23T16:54:26.000Z</time>
      </trkpt>
      <trkpt lat="47.22255" lon="-1.58164">
        <ele>62.8</ele>
        <time>2012-07-23T16:54:28.000Z</time>
      </trkpt>
      <trkpt lat="47.22257" lon="-1.58155">
        <ele>62.6</ele>
        <time>2012-07-23T16:54:31.000Z</time>
      </trkpt>
      <trkpt lat="47.22259" lon="-1.58147">
        <ele>62.2</ele>
        <time>2012-07-23T16:54:34.000Z</time>
      </trkpt>
      <trkpt lat="47.22259" lon="-1.5814">
        <ele>62.3</ele>
        <time>2012-07-23T16:54:36.000Z</time>
      </trkpt>
      <trkpt lat="47.2226" lon="-1.58131">
        <ele>62.3</ele>
        <time>2012-07-23T16:54:39.000Z</time>
      </trkpt>
      <trkpt lat="47.22261" lon="-1.5812">
        <ele>60.4</ele>
        <time>2012-07-23T16:54:41.000Z</time>
      </trkpt>
      <trkpt lat="47.22262" lon="-1.58112">
        <ele>60</ele>
        <time>2012-07-23T16:54:43.000Z</time>
      </trkpt>
      <trkpt lat="47.22263" lon="-1.58104">
        <ele>59.9</ele>
        <time>2012-07-23T16:54:45.000Z</time>
      </trkpt>
      <trkpt lat="47.22259" lon="-1.58098">
        <ele>60.5</ele>
        <time>2012-07-23T16:54:48.000Z</time>
      </trkpt>
      <trkpt lat="47.22253" lon="-1.58095">
        <ele>60.3</ele>
        <time>2012-07-23T16:54:50.000Z</time>
      </trkpt>
      <trkpt lat="47.22249" lon="-1.58094">
        <ele>59.8</ele>
        <time>2012-07-23T16:54:51.000Z</time>
      </trkpt>
      <trkpt lat="47.22242" lon="-1.58091">
        <ele>59.5</ele>
        <time>2012-07-23T16:54:53.000Z</time>
      </trkpt>
      <trkpt lat="47.22236" lon="-1.58092">
        <ele>58.6</ele>
        <time>2012-07-23T16:54:56.000Z</time>
      </trkpt>
      <trkpt lat="47.2223" lon="-1.58094">
        <ele>58.6</ele>
        <time>2012-07-23T16:54:59.000Z</time>
      </trkpt>
      <trkpt lat="47.22224" lon="-1.58095">
        <ele>59.5</ele>
        <time>2012-07-23T16:55:01.000Z</time>
      </trkpt>
      <trkpt lat="47.22214" lon="-1.58099">
        <ele>61.4</ele>
        <time>2012-07-23T16:55:02.000Z</time>
      </trkpt>
      <trkpt lat="47.22208" lon="-1.58101">
        <ele>61.7</ele>
        <time>2012-07-23T16:55:03.000Z</time>
      </trkpt>
      <trkpt lat="47.22203" lon="-1.58103">
        <ele>62.4</ele>
        <time>2012-07-23T16:55:04.000Z</time>
      </trkpt>
      <trkpt lat="47.22196" lon="-1.58103">
        <ele>63.6</ele>
        <time>2012-07-23T16:55:06.000Z</time>
      </trkpt>
      <trkpt lat="47.22192" lon="-1.58104">
        <ele>63.7</ele>
        <time>2012-07-23T16:55:08.000Z</time>
      </trkpt>
      <trkpt lat="47.22187" lon="-1.58106">
        <ele>64.4</ele>
        <time>2012-07-23T16:55:10.000Z</time>
      </trkpt>
      <trkpt lat="47.22182" lon="-1.58105">
        <ele>64.6</ele>
        <time>2012-07-23T16:55:13.000Z</time>
      </trkpt>
      <trkpt lat="47.22185" lon="-1.58097">
        <ele>65.2</ele>
        <time>2012-07-23T16:55:17.000Z</time>
      </trkpt>
      <trkpt lat="47.22187" lon="-1.5809">
        <ele>65.3</ele>
        <time>2012-07-23T16:55:19.000Z</time>
      </trkpt>
      <trkpt lat="47.22192" lon="-1.5808">
        <ele>63.6</ele>
        <time>2012-07-23T16:55:21.000Z</time>
      </trkpt>
      <trkpt lat="47.22192" lon="-1.58072">
        <ele>64.2</ele>
        <time>2012-07-23T16:55:23.000Z</time>
      </trkpt>
      <trkpt lat="47.22193" lon="-1.58063">
        <ele>63.3</ele>
        <time>2012-07-23T16:55:25.000Z</time>
      </trkpt>
      <trkpt lat="47.22189" lon="-1.58058">
        <ele>62.9</ele>
        <time>2012-07-23T16:55:27.000Z</time>
      </trkpt>
      <trkpt lat="47.22188" lon="-1.5805">
        <ele>63.9</ele>
        <time>2012-07-23T16:55:30.000Z</time>
      </trkpt>
      <trkpt lat="47.22187" lon="-1.58042">
        <ele>65</ele>
        <time>2012-07-23T16:55:33.000Z</time>
      </trkpt>
      <trkpt lat="47.22189" lon="-1.58034">
        <ele>66.2</ele>
        <time>2012-07-23T16:55:35.000Z</time>
      </trkpt>
      <trkpt lat="47.22188" lon="-1.58027">
        <ele>67.1</ele>
        <time>2012-07-23T16:55:37.000Z</time>
      </trkpt>
      <trkpt lat="47.22186" lon="-1.5802">
        <ele>67.6</ele>
        <time>2012-07-23T16:55:39.000Z</time>
      </trkpt>
      <trkpt lat="47.22182" lon="-1.5801">
        <ele>68.1</ele>
        <time>2012-07-23T16:55:41.000Z</time>
      </trkpt>
      <trkpt lat="47.22182" lon="-1.58">
        <ele>69</ele>
        <time>2012-07-23T16:55:44.000Z</time>
      </trkpt>
      <trkpt lat="47.22182" lon="-1.57992">
        <ele>69.1</ele>
        <time>2012-07-23T16:55:47.000Z</time>
      </trkpt>
      <trkpt lat="47.22181" lon="-1.57984">
        <ele>68.7</ele>
        <time>2012-07-23T16:55:49.000Z</time>
      </trkpt>
      <trkpt lat="47.22184" lon="-1.57978">
        <ele>67.3</ele>
        <time>2012-07-23T16:55:50.000Z</time>
      </trkpt>
      <trkpt lat="47.22187" lon="-1.57973">
        <ele>66.2</ele>
        <time>2012-07-23T16:55:51.000Z</time>
      </trkpt>
      <trkpt lat="47.22189" lon="-1.57966">
        <ele>65.5</ele>
        <time>2012-07-23T16:55:52.000Z</time>
      </trkpt>
      <trkpt lat="47.22193" lon="-1.57959">
        <ele>65.5</ele>
        <time>2012-07-23T16:55:54.000Z</time>
      </trkpt>
      <trkpt lat="47.22194" lon="-1.57951">
        <ele>65.3</ele>
        <time>2012-07-23T16:55:56.000Z</time>
      </trkpt>
      <trkpt lat="47.22194" lon="-1.57942">
        <ele>65.3</ele>
        <time>2012-07-23T16:55:58.000Z</time>
      </trkpt>
      <trkpt lat="47.22195" lon="-1.57935">
        <ele>64.6</ele>
        <time>2012-07-23T16:56:01.000Z</time>
      </trkpt>
      <trkpt lat="47.22193" lon="-1.57928">
        <ele>63.9</ele>
        <time>2012-07-23T16:56:06.000Z</time>
      </trkpt>
      <trkpt lat="47.22196" lon="-1.57922">
        <ele>63.9</ele>
        <time>2012-07-23T16:56:09.000Z</time>
      </trkpt>
      <trkpt lat="47.22197" lon="-1.57914">
        <ele>67.3</ele>
        <time>2012-07-23T16:56:12.000Z</time>
      </trkpt>
      <trkpt lat="47.22191" lon="-1.57908">
        <ele>68.9</ele>
        <time>2012-07-23T16:56:14.000Z</time>
      </trkpt>
      <trkpt lat="47.22187" lon="-1.57904">
        <ele>70.4</ele>
        <time>2012-07-23T16:56:17.000Z</time>
      </trkpt>
      <trkpt lat="47.22181" lon="-1.57902">
        <ele>71.2</ele>
        <time>2012-07-23T16:56:22.000Z</time>
      </trkpt>
      <trkpt lat="47.22174" lon="-1.57899">
        <ele>71.8</ele>
        <time>2012-07-23T16:56:25.000Z</time>
      </trkpt>
      <trkpt lat="47.22167" lon="-1.57897">
        <ele>72</ele>
        <time>2012-07-23T16:56:28.000Z</time>
      </trkpt>
      <trkpt lat="47.22162" lon="-1.57896">
        <ele>71.3</ele>
        <time>2012-07-23T16:56:29.000Z</time>
      </trkpt>
      <trkpt lat="47.22157" lon="-1.57892">
        <ele>70.7</ele>
        <time>2012-07-23T16:56:31.000Z</time>
      </trkpt>
      <trkpt lat="47.22152" lon="-1.57888">
        <ele>69.8</ele>
        <time>2012-07-23T16:56:33.000Z</time>
      </trkpt>
      <trkpt lat="47.22146" lon="-1.57888">
        <ele>69.7</ele>
        <time>2012-07-23T16:56:36.000Z</time>
      </trkpt>
      <trkpt lat="47.22143" lon="-1.5788">
        <ele>70.2</ele>
        <time>2012-07-23T16:56:41.000Z</time>
      </trkpt>
      <trkpt lat="47.22138" lon="-1.57871">
        <ele>71.4</ele>
        <time>2012-07-23T16:56:43.000Z</time>
      </trkpt>
      <trkpt lat="47.22134" lon="-1.57867">
        <ele>71.6</ele>
        <time>2012-07-23T16:56:44.000Z</time>
      </trkpt>
      <trkpt lat="47.22126" lon="-1.57862">
        <ele>71.3</ele>
        <time>2012-07-23T16:56:46.000Z</time>
      </trkpt>
      <trkpt lat="47.22117" lon="-1.57855">
        <ele>68.7</ele>
        <time>2012-07-23T16:56:47.000Z</time>
      </trkpt>
      <trkpt lat="47.22109" lon="-1.57851">
        <ele>67.1</ele>
        <time>2012-07-23T16:56:49.000Z</time>
      </trkpt>
      <trkpt lat="47.22104" lon="-1.57851">
        <ele>66.4</ele>
        <time>2012-07-23T16:56:53.000Z</time>
      </trkpt>
      <trkpt lat="47.2209" lon="-1.57859">
        <ele>65.7</ele>
        <time>2012-07-23T16:56:59.000Z</time>
      </trkpt>
      <trkpt lat="47.22083" lon="-1.5786">
        <ele>65.4</ele>
        <time>2012-07-23T16:57:01.000Z</time>
      </trkpt>
      <trkpt lat="47.22078" lon="-1.57859">
        <ele>65.5</ele>
        <time>2012-07-23T16:57:02.000Z</time>
      </trkpt>
      <trkpt lat="47.22073" lon="-1.57858">
        <ele>65.2</ele>
        <time>2012-07-23T16:57:04.000Z</time>
      </trkpt>
      <trkpt lat="47.22068" lon="-1.57856">
        <ele>65.6</ele>
        <time>2012-07-23T16:57:06.000Z</time>
      </trkpt>
      <trkpt lat="47.22064" lon="-1.57853">
        <ele>67.2</ele>
        <time>2012-07-23T16:57:08.000Z</time>
      </trkpt>
      <trkpt lat="47.22061" lon="-1.57847">
        <ele>66.3</ele>
        <time>2012-07-23T16:57:17.000Z</time>
      </trkpt>
      <trkpt lat="47.22062" lon="-1.57837">
        <ele>66.7</ele>
        <time>2012-07-23T16:57:23.000Z</time>
      </trkpt>
      <trkpt lat="47.22063" lon="-1.57829">
        <ele>67.7</ele>
        <time>2012-07-23T16:57:24.000Z</time>
      </trkpt>
      <trkpt lat="47.22062" lon="-1.57818">
        <ele>70</ele>
        <time>2012-07-23T16:57:26.000Z</time>
      </trkpt>
      <trkpt lat="47.22059" lon="-1.5781">
        <ele>71.7</ele>
        <time>2012-07-23T16:57:28.000Z</time>
      </trkpt>
      <trkpt lat="47.22055" lon="-1.57801">
        <ele>72.4</ele>
        <time>2012-07-23T16:57:30.000Z</time>
      </trkpt>
      <trkpt lat="47.22057" lon="-1.57792">
        <ele>72.3</ele>
        <time>2012-07-23T16:57:32.000Z</time>
      </trkpt>
      <trkpt lat="47.22058" lon="-1.57783">
        <ele>72</ele>
        <time>2012-07-23T16:57:34.000Z</time>
      </trkpt>
      <trkpt lat="47.22056" lon="-1.57775">
        <ele>72</ele>
        <time>2012-07-23T16:57:35.000Z</time>
      </trkpt>
      <trkpt lat="47.22053" lon="-1.57768">
        <ele>71.4</ele>
        <time>2012-07-23T16:57:36.000Z</time>
      </trkpt>
      <trkpt lat="47.22048" lon="-1.57764">
        <ele>71.2</ele>
        <time>2012-07-23T16:57:37.000Z</time>
      </trkpt>
      <trkpt lat="47.22044" lon="-1.57759">
        <ele>70.9</ele>
        <time>2012-07-23T16:57:38.000Z</time>
      </trkpt>
      <trkpt lat="47.22042" lon="-1.57752">
        <ele>71.2</ele>
        <time>2012-07-23T16:57:40.000Z</time>
      </trkpt>
      <trkpt lat="47.22042" lon="-1.57743">
        <ele>73.5</ele>
        <time>2012-07-23T16:57:43.000Z</time>
      </trkpt>
      <trkpt lat="47.22037" lon="-1.57744">
        <ele>75.5</ele>
        <time>2012-07-23T16:57:48.000Z</time>
      </trkpt>
      <trkpt lat="47.22033" lon="-1.57736">
        <ele>78.9</ele>
        <time>2012-07-23T16:57:58.000Z</time>
      </trkpt>
      <trkpt lat="47.22029" lon="-1.57731">
        <ele>79.5</ele>
        <time>2012-07-23T16:57:59.000Z</time>
      </trkpt>
      <trkpt lat="47.22024" lon="-1.57725">
        <ele>79.4</ele>
        <time>2012-07-23T16:58:00.000Z</time>
      </trkpt>
      <trkpt lat="47.22021" lon="-1.57714">
        <ele>79.1</ele>
        <time>2012-07-23T16:58:02.000Z</time>
      </trkpt>
      <trkpt lat="47.22011" lon="-1.57705">
        <ele>77.2</ele>
        <time>2012-07-23T16:58:04.000Z</time>
      </trkpt>
      <trkpt lat="47.22005" lon="-1.57698">
        <ele>77</ele>
        <time>2012-07-23T16:58:05.000Z</time>
      </trkpt>
      <trkpt lat="47.21999" lon="-1.57696">
        <ele>75.8</ele>
        <time>2012-07-23T16:58:06.000Z</time>
      </trkpt>
      <trkpt lat="47.21991" lon="-1.57692">
        <ele>75.7</ele>
        <time>2012-07-23T16:58:08.000Z</time>
      </trkpt>
      <trkpt lat="47.21988" lon="-1.57686">
        <ele>76.8</ele>
        <time>2012-07-23T16:58:10.000Z</time>
      </trkpt>
      <trkpt lat="47.21985" lon="-1.5768">
        <ele>77.2</ele>
        <time>2012-07-23T16:58:12.000Z</time>
      </trkpt>
      <trkpt lat="47.21989" lon="-1.57671">
        <ele>78</ele>
        <time>2012-07-23T16:58:14.000Z</time>
      </trkpt>
      <trkpt lat="47.21987" lon="-1.57664">
        <ele>79.4</ele>
        <time>2012-07-23T16:58:17.000Z</time>
      </trkpt>
      <trkpt lat="47.21984" lon="-1.57658">
        <ele>79.7</ele>
        <time>2012-07-23T16:58:19.000Z</time>
      </trkpt>
      <trkpt lat="47.21982" lon="-1.57652">
        <ele>79.1</ele>
        <time>2012-07-23T16:58:20.000Z</time>
      </trkpt>
      <trkpt lat="47.2198" lon="-1.57644">
        <ele>78.7</ele>
        <time>2012-07-23T16:58:22.000Z</time>
      </trkpt>
      <trkpt lat="47.21973" lon="-1.57639">
        <ele>78.6</ele>
        <time>2012-07-23T16:58:24.000Z</time>
      </trkpt>
      <trkpt lat="47.21969" lon="-1.57634">
        <ele>80.6</ele>
        <time>2012-07-23T16:58:27.000Z</time>
      </trkpt>
      <trkpt lat="47.21961" lon="-1.57634">
        <ele>80.6</ele>
        <time>2012-07-23T16:58:29.000Z</time>
      </trkpt>
      <trkpt lat="47.21955" lon="-1.57631">
        <ele>80.8</ele>
        <time>2012-07-23T16:58:32.000Z</time>
      </trkpt>
      <trkpt lat="47.2195" lon="-1.57622">
        <ele>80.5</ele>
        <time>2012-07-23T16:58:35.000Z</time>
      </trkpt>
      <trkpt lat="47.21946" lon="-1.57614">
        <ele>80.9</ele>
        <time>2012-07-23T16:58:38.000Z</time>
      </trkpt>
      <trkpt lat="47.21948" lon="-1.57603">
        <ele>80.6</ele>
        <time>2012-07-23T16:58:40.000Z</time>
      </trkpt>
      <trkpt lat="47.2195" lon="-1.57596">
        <ele>80.8</ele>
        <time>2012-07-23T16:58:41.000Z</time>
      </trkpt>
      <trkpt lat="47.21948" lon="-1.57588">
        <ele>82.3</ele>
        <time>2012-07-23T16:58:43.000Z</time>
      </trkpt>
      <trkpt lat="47.21943" lon="-1.5758">
        <ele>82.6</ele>
        <time>2012-07-23T16:58:45.000Z</time>
      </trkpt>
      <trkpt lat="47.21942" lon="-1.57572">
        <ele>83.5</ele>
        <time>2012-07-23T16:58:47.000Z</time>
      </trkpt>
      <trkpt lat="47.21943" lon="-1.57561">
        <ele>84.9</ele>
        <time>2012-07-23T16:58:49.000Z</time>
      </trkpt>
      <trkpt lat="47.21947" lon="-1.57553">
        <ele>85</ele>
        <time>2012-07-23T16:58:51.000Z</time>
      </trkpt>
      <trkpt lat="47.2195" lon="-1.57546">
        <ele>86.2</ele>
        <time>2012-07-23T16:58:53.000Z</time>
      </trkpt>
      <trkpt lat="47.21954" lon="-1.57539">
        <ele>88.2</ele>
        <time>2012-07-23T16:58:55.000Z</time>
      </trkpt>
      <trkpt lat="47.21952" lon="-1.57533">
        <ele>87.9</ele>
        <time>2012-07-23T16:58:57.000Z</time>
      </trkpt>
      <trkpt lat="47.21948" lon="-1.5753">
        <ele>87.7</ele>
        <time>2012-07-23T16:58:58.000Z</time>
      </trkpt>
      <trkpt lat="47.21942" lon="-1.57522">
        <ele>88.3</ele>
        <time>2012-07-23T16:59:01.000Z</time>
      </trkpt>
      <trkpt lat="47.21939" lon="-1.57516">
        <ele>87.7</ele>
        <time>2012-07-23T16:59:03.000Z</time>
      </trkpt>
      <trkpt lat="47.21934" lon="-1.57507">
        <ele>87.4</ele>
        <time>2012-07-23T16:59:06.000Z</time>
      </trkpt>
      <trkpt lat="47.2193" lon="-1.57499">
        <ele>86.8</ele>
        <time>2012-07-23T16:59:08.000Z</time>
      </trkpt>
      <trkpt lat="47.21928" lon="-1.57493">
        <ele>85.1</ele>
        <time>2012-07-23T16:59:09.000Z</time>
      </trkpt>
      <trkpt lat="47.21923" lon="-1.57487">
        <ele>83.9</ele>
        <time>2012-07-23T16:59:11.000Z</time>
      </trkpt>
      <trkpt lat="47.2192" lon="-1.57481">
        <ele>83.1</ele>
        <time>2012-07-23T16:59:13.000Z</time>
      </trkpt>
      <trkpt lat="47.21913" lon="-1.57478">
        <ele>82.8</ele>
        <time>2012-07-23T16:59:14.000Z</time>
      </trkpt>
      <trkpt lat="47.2191" lon="-1.57471">
        <ele>81.6</ele>
        <time>2012-07-23T16:59:16.000Z</time>
      </trkpt>
      <trkpt lat="47.21904" lon="-1.57467">
        <ele>82.1</ele>
        <time>2012-07-23T16:59:18.000Z</time>
      </trkpt>
      <trkpt lat="47.21903" lon="-1.57459">
        <ele>82.4</ele>
        <time>2012-07-23T16:59:20.000Z</time>
      </trkpt>
      <trkpt lat="47.21899" lon="-1.57453">
        <ele>82.4</ele>
        <time>2012-07-23T16:59:22.000Z</time>
      </trkpt>
      <trkpt lat="47.21894" lon="-1.57451">
        <ele>82.4</ele>
        <time>2012-07-23T16:59:23.000Z</time>
      </trkpt>
      <trkpt lat="47.2189" lon="-1.57448">
        <ele>81.8</ele>
        <time>2012-07-23T16:59:24.000Z</time>
      </trkpt>
      <trkpt lat="47.21883" lon="-1.57443">
        <ele>79</ele>
        <time>2012-07-23T16:59:25.000Z</time>
      </trkpt>
      <trkpt lat="47.21874" lon="-1.57439">
        <ele>78.9</ele>
        <time>2012-07-23T16:59:27.000Z</time>
      </trkpt>
      <trkpt lat="47.21869" lon="-1.57434">
        <ele>78.6</ele>
        <time>2012-07-23T16:59:29.000Z</time>
      </trkpt>
      <trkpt lat="47.21864" lon="-1.57427">
        <ele>79.5</ele>
        <time>2012-07-23T16:59:31.000Z</time>
      </trkpt>
      <trkpt lat="47.21861" lon="-1.57421">
        <ele>79.4</ele>
        <time>2012-07-23T16:59:34.000Z</time>
      </trkpt>
      <trkpt lat="47.21856" lon="-1.57414">
        <ele>79.7</ele>
        <time>2012-07-23T16:59:37.000Z</time>
      </trkpt>
      <trkpt lat="47.21852" lon="-1.57411">
        <ele>80</ele>
        <time>2012-07-23T16:59:40.000Z</time>
      </trkpt>
      <trkpt lat="47.21849" lon="-1.57403">
        <ele>80.9</ele>
        <time>2012-07-23T16:59:44.000Z</time>
      </trkpt>
      <trkpt lat="47.21845" lon="-1.57398">
        <ele>81</ele>
        <time>2012-07-23T16:59:46.000Z</time>
      </trkpt>
      <trkpt lat="47.21839" lon="-1.57394">
        <ele>80.4</ele>
        <time>2012-07-23T16:59:47.000Z</time>
      </trkpt>
      <trkpt lat="47.21836" lon="-1.57382">
        <ele>78.2</ele>
        <time>2012-07-23T16:59:49.000Z</time>
      </trkpt>
      <trkpt lat="47.21833" lon="-1.57376">
        <ele>78.5</ele>
        <time>2012-07-23T16:59:51.000Z</time>
      </trkpt>
      <trkpt lat="47.21837" lon="-1.5737">
        <ele>80.9</ele>
        <time>2012-07-23T16:59:52.000Z</time>
      </trkpt>
      <trkpt lat="47.21837" lon="-1.5736">
        <ele>79.9</ele>
        <time>2012-07-23T16:59:54.000Z</time>
      </trkpt>
      <trkpt lat="47.2183" lon="-1.57356">
        <ele>80.3</ele>
        <time>2012-07-23T16:59:56.000Z</time>
      </trkpt>
      <trkpt lat="47.21826" lon="-1.57351">
        <ele>79.9</ele>
        <time>2012-07-23T16:59:58.000Z</time>
      </trkpt>
      <trkpt lat="47.21818" lon="-1.57348">
        <ele>80</ele>
        <time>2012-07-23T17:00:00.000Z</time>
      </trkpt>
      <trkpt lat="47.2181" lon="-1.57349">
        <ele>81.2</ele>
        <time>2012-07-23T17:00:02.000Z</time>
      </trkpt>
      <trkpt lat="47.21802" lon="-1.57346">
        <ele>81.3</ele>
        <time>2012-07-23T17:00:04.000Z</time>
      </trkpt>
      <trkpt lat="47.21795" lon="-1.57345">
        <ele>80.1</ele>
        <time>2012-07-23T17:00:05.000Z</time>
      </trkpt>
      <trkpt lat="47.2179" lon="-1.57346">
        <ele>80.5</ele>
        <time>2012-07-23T17:00:07.000Z</time>
      </trkpt>
      <trkpt lat="47.21783" lon="-1.57344">
        <ele>80.6</ele>
        <time>2012-07-23T17:00:09.000Z</time>
      </trkpt>
      <trkpt lat="47.21778" lon="-1.57344">
        <ele>80.7</ele>
        <time>2012-07-23T17:00:10.000Z</time>
      </trkpt>
      <trkpt lat="47.2177" lon="-1.57346">
        <ele>80.9</ele>
        <time>2012-07-23T17:00:11.000Z</time>
      </trkpt>
      <trkpt lat="47.21764" lon="-1.57347">
        <ele>80.7</ele>
        <time>2012-07-23T17:00:12.000Z</time>
      </trkpt>
      <trkpt lat="47.21757" lon="-1.57348">
        <ele>81</ele>
        <time>2012-07-23T17:00:15.000Z</time>
      </trkpt>
      <trkpt lat="47.21752" lon="-1.5735">
        <ele>81</ele>
        <time>2012-07-23T17:00:16.000Z</time>
      </trkpt>
      <trkpt lat="47.21747" lon="-1.57352">
        <ele>81.2</ele>
        <time>2012-07-23T17:00:17.000Z</time>
      </trkpt>
      <trkpt lat="47.21739" lon="-1.57354">
        <ele>81.9</ele>
        <time>2012-07-23T17:00:19.000Z</time>
      </trkpt>
      <trkpt lat="47.21733" lon="-1.57355">
        <ele>81.1</ele>
        <time>2012-07-23T17:00:22.000Z</time>
      </trkpt>
      <trkpt lat="47.21728" lon="-1.57357">
        <ele>80.2</ele>
        <time>2012-07-23T17:00:23.000Z</time>
      </trkpt>
      <trkpt lat="47.21721" lon="-1.57358">
        <ele>78.8</ele>
        <time>2012-07-23T17:00:26.000Z</time>
      </trkpt>
      <trkpt lat="47.21712" lon="-1.57362">
        <ele>76.9</ele>
        <time>2012-07-23T17:00:28.000Z</time>
      </trkpt>
      <trkpt lat="47.21705" lon="-1.57366">
        <ele>76</ele>
        <time>2012-07-23T17:00:30.000Z</time>
      </trkpt>
      <trkpt lat="47.217" lon="-1.57364">
        <ele>74.2</ele>
        <time>2012-07-23T17:00:32.000Z</time>
      </trkpt>
      <trkpt lat="47.21693" lon="-1.57366">
        <ele>72.8</ele>
        <time>2012-07-23T17:00:35.000Z</time>
      </trkpt>
      <trkpt lat="47.21686" lon="-1.57371">
        <ele>72.5</ele>
        <time>2012-07-23T17:00:38.000Z</time>
      </trkpt>
      <trkpt lat="47.21681" lon="-1.57374">
        <ele>72.4</ele>
        <time>2012-07-23T17:00:40.000Z</time>
      </trkpt>
      <trkpt lat="47.21678" lon="-1.57381">
        <ele>74.3</ele>
        <time>2012-07-23T17:00:43.000Z</time>
      </trkpt>
      <trkpt lat="47.21676" lon="-1.5739">
        <ele>73.5</ele>
        <time>2012-07-23T17:00:46.000Z</time>
      </trkpt>
      <trkpt lat="47.21674" lon="-1.57398">
        <ele>73.6</ele>
        <time>2012-07-23T17:00:49.000Z</time>
      </trkpt>
      <trkpt lat="47.21669" lon="-1.57403">
        <ele>73.3</ele>
        <time>2012-07-23T17:00:52.000Z</time>
      </trkpt>
      <trkpt lat="47.21663" lon="-1.57406">
        <ele>73.1</ele>
        <time>2012-07-23T17:00:55.000Z</time>
      </trkpt>
      <trkpt lat="47.21652" lon="-1.57408">
        <ele>73</ele>
        <time>2012-07-23T17:00:58.000Z</time>
      </trkpt>
      <trkpt lat="47.21642" lon="-1.57416">
        <ele>73</ele>
        <time>2012-07-23T17:01:01.000Z</time>
      </trkpt>
      <trkpt lat="47.21634" lon="-1.57418">
        <ele>72.7</ele>
        <time>2012-07-23T17:01:03.000Z</time>
      </trkpt>
      <trkpt lat="47.21627" lon="-1.57418">
        <ele>72</ele>
        <time>2012-07-23T17:01:05.000Z</time>
      </trkpt>
      <trkpt lat="47.2162" lon="-1.57417">
        <ele>70.3</ele>
        <time>2012-07-23T17:01:07.000Z</time>
      </trkpt>
      <trkpt lat="47.21617" lon="-1.57411">
        <ele>70.7</ele>
        <time>2012-07-23T17:01:10.000Z</time>
      </trkpt>
      <trkpt lat="47.21612" lon="-1.57405">
        <ele>70.4</ele>
        <time>2012-07-23T17:01:13.000Z</time>
      </trkpt>
      <trkpt lat="47.21608" lon="-1.57398">
        <ele>69.9</ele>
        <time>2012-07-23T17:01:17.000Z</time>
      </trkpt>
      <trkpt lat="47.21603" lon="-1.57394">
        <ele>69.1</ele>
        <time>2012-07-23T17:01:18.000Z</time>
      </trkpt>
      <trkpt lat="47.21598" lon="-1.57391">
        <ele>67.9</ele>
        <time>2012-07-23T17:01:19.000Z</time>
      </trkpt>
      <trkpt lat="47.21592" lon="-1.57386">
        <ele>67.4</ele>
        <time>2012-07-23T17:01:21.000Z</time>
      </trkpt>
      <trkpt lat="47.21587" lon="-1.57382">
        <ele>65.7</ele>
        <time>2012-07-23T17:01:23.000Z</time>
      </trkpt>
      <trkpt lat="47.21584" lon="-1.57374">
        <ele>65.9</ele>
        <time>2012-07-23T17:01:26.000Z</time>
      </trkpt>
      <trkpt lat="47.21579" lon="-1.5737">
        <ele>66.2</ele>
        <time>2012-07-23T17:01:28.000Z</time>
      </trkpt>
      <trkpt lat="47.21575" lon="-1.57363">
        <ele>66.7</ele>
        <time>2012-07-23T17:01:31.000Z</time>
      </trkpt>
      <trkpt lat="47.21573" lon="-1.57354">
        <ele>67.2</ele>
        <time>2012-07-23T17:01:36.000Z</time>
      </trkpt>
      <trkpt lat="47.21577" lon="-1.57347">
        <ele>67.2</ele>
        <time>2012-07-23T17:01:39.000Z</time>
      </trkpt>
      <trkpt lat="47.21581" lon="-1.57342">
        <ele>69.1</ele>
        <time>2012-07-23T17:01:42.000Z</time>
      </trkpt>
      <trkpt lat="47.21584" lon="-1.57335">
        <ele>70</ele>
        <time>2012-07-23T17:01:45.000Z</time>
      </trkpt>
      <trkpt lat="47.21584" lon="-1.57323">
        <ele>70</ele>
        <time>2012-07-23T17:01:47.000Z</time>
      </trkpt>
      <trkpt lat="47.21582" lon="-1.57313">
        <ele>70.1</ele>
        <time>2012-07-23T17:01:49.000Z</time>
      </trkpt>
      <trkpt lat="47.21579" lon="-1.57304">
        <ele>69.5</ele>
        <time>2012-07-23T17:01:51.000Z</time>
      </trkpt>
      <trkpt lat="47.21575" lon="-1.57295">
        <ele>69.5</ele>
        <time>2012-07-23T17:01:54.000Z</time>
      </trkpt>
      <trkpt lat="47.2157" lon="-1.57288">
        <ele>69.1</ele>
        <time>2012-07-23T17:01:56.000Z</time>
      </trkpt>
      <trkpt lat="47.21565" lon="-1.57284">
        <ele>67.6</ele>
        <time>2012-07-23T17:01:58.000Z</time>
      </trkpt>
      <trkpt lat="47.21559" lon="-1.5728">
        <ele>66.6</ele>
        <time>2012-07-23T17:02:00.000Z</time>
      </trkpt>
      <trkpt lat="47.21559" lon="-1.57272">
        <ele>66.3</ele>
        <time>2012-07-23T17:02:02.000Z</time>
      </trkpt>
      <trkpt lat="47.21554" lon="-1.57268">
        <ele>66</ele>
        <time>2012-07-23T17:02:04.000Z</time>
      </trkpt>
      <trkpt lat="47.21548" lon="-1.57262">
        <ele>65.9</ele>
        <time>2012-07-23T17:02:06.000Z</time>
      </trkpt>
      <trkpt lat="47.21545" lon="-1.57252">
        <ele>66</ele>
        <time>2012-07-23T17:02:09.000Z</time>
      </trkpt>
      <trkpt lat="47.21541" lon="-1.57243">
        <ele>66.7</ele>
        <time>2012-07-23T17:02:11.000Z</time>
      </trkpt>
      <trkpt lat="47.2154" lon="-1.57237">
        <ele>67.2</ele>
        <time>2012-07-23T17:02:13.000Z</time>
      </trkpt>
      <trkpt lat="47.21535" lon="-1.57231">
        <ele>69.7</ele>
        <time>2012-07-23T17:02:15.000Z</time>
      </trkpt>
      <trkpt lat="47.2153" lon="-1.57226">
        <ele>70.5</ele>
        <time>2012-07-23T17:02:17.000Z</time>
      </trkpt>
      <trkpt lat="47.21526" lon="-1.57229">
        <ele>73.9</ele>
        <time>2012-07-23T17:02:29.000Z</time>
      </trkpt>
      <trkpt lat="47.21512" lon="-1.57235">
        <ele>72.2</ele>
        <time>2012-07-23T17:02:30.000Z</time>
      </trkpt>
      <trkpt lat="47.21506" lon="-1.5724">
        <ele>71.4</ele>
        <time>2012-07-23T17:02:31.000Z</time>
      </trkpt>
      <trkpt lat="47.21499" lon="-1.57244">
        <ele>71.2</ele>
        <time>2012-07-23T17:02:33.000Z</time>
      </trkpt>
      <trkpt lat="47.21494" lon="-1.57244">
        <ele>72.9</ele>
        <time>2012-07-23T17:02:34.000Z</time>
      </trkpt>
      <trkpt lat="47.21489" lon="-1.57248">
        <ele>72.7</ele>
        <time>2012-07-23T17:02:35.000Z</time>
      </trkpt>
      <trkpt lat="47.21484" lon="-1.57252">
        <ele>72.8</ele>
        <time>2012-07-23T17:02:36.000Z</time>
      </trkpt>
      <trkpt lat="47.21478" lon="-1.57254">
        <ele>74.1</ele>
        <time>2012-07-23T17:02:38.000Z</time>
      </trkpt>
      <trkpt lat="47.21473" lon="-1.57257">
        <ele>73.9</ele>
        <time>2012-07-23T17:02:39.000Z</time>
      </trkpt>
      <trkpt lat="47.21468" lon="-1.57263">
        <ele>74</ele>
        <time>2012-07-23T17:02:41.000Z</time>
      </trkpt>
      <trkpt lat="47.21461" lon="-1.57265">
        <ele>73.3</ele>
        <time>2012-07-23T17:02:43.000Z</time>
      </trkpt>
      <trkpt lat="47.21455" lon="-1.57266">
        <ele>74.5</ele>
        <time>2012-07-23T17:02:45.000Z</time>
      </trkpt>
      <trkpt lat="47.21449" lon="-1.57269">
        <ele>76.2</ele>
        <time>2012-07-23T17:02:47.000Z</time>
      </trkpt>
      <trkpt lat="47.2145" lon="-1.57282">
        <ele>73.9</ele>
        <time>2012-07-23T17:02:50.000Z</time>
      </trkpt>
      <trkpt lat="47.2146" lon="-1.57291">
        <ele>70.2</ele>
        <time>2012-07-23T17:02:52.000Z</time>
      </trkpt>
      <trkpt lat="47.21464" lon="-1.57299">
        <ele>69.6</ele>
        <time>2012-07-23T17:02:54.000Z</time>
      </trkpt>
      <trkpt lat="47.21465" lon="-1.5731">
        <ele>69</ele>
        <time>2012-07-23T17:02:56.000Z</time>
      </trkpt>
      <trkpt lat="47.21466" lon="-1.57317">
        <ele>69</ele>
        <time>2012-07-23T17:02:58.000Z</time>
      </trkpt>
      <trkpt lat="47.21466" lon="-1.57324">
        <ele>68.8</ele>
        <time>2012-07-23T17:03:00.000Z</time>
      </trkpt>
      <trkpt lat="47.21464" lon="-1.57333">
        <ele>69.2</ele>
        <time>2012-07-23T17:03:02.000Z</time>
      </trkpt>
      <trkpt lat="47.21464" lon="-1.57341">
        <ele>69.1</ele>
        <time>2012-07-23T17:03:04.000Z</time>
      </trkpt>
      <trkpt lat="47.21464" lon="-1.57349">
        <ele>69.4</ele>
        <time>2012-07-23T17:03:06.000Z</time>
      </trkpt>
      <trkpt lat="47.21468" lon="-1.57355">
        <ele>69</ele>
        <time>2012-07-23T17:03:10.000Z</time>
      </trkpt>
      <trkpt lat="47.2147" lon="-1.57364">
        <ele>68.7</ele>
        <time>2012-07-23T17:03:13.000Z</time>
      </trkpt>
      <trkpt lat="47.21472" lon="-1.57372">
        <ele>68.3</ele>
        <time>2012-07-23T17:03:15.000Z</time>
      </trkpt>
      <trkpt lat="47.21473" lon="-1.57381">
        <ele>68.5</ele>
        <time>2012-07-23T17:03:17.000Z</time>
      </trkpt>
      <trkpt lat="47.21473" lon="-1.57388">
        <ele>68.5</ele>
        <time>2012-07-23T17:03:19.000Z</time>
      </trkpt>
      <trkpt lat="47.21462" lon="-1.5739">
        <ele>73.1</ele>
        <time>2012-07-23T17:03:24.000Z</time>
      </trkpt>
      <trkpt lat="47.21457" lon="-1.5739">
        <ele>73.6</ele>
        <time>2012-07-23T17:03:26.000Z</time>
      </trkpt>
      <trkpt lat="47.2145" lon="-1.57391">
        <ele>74.9</ele>
        <time>2012-07-23T17:03:28.000Z</time>
      </trkpt>
      <trkpt lat="47.21445" lon="-1.57391">
        <ele>75.5</ele>
        <time>2012-07-23T17:03:30.000Z</time>
      </trkpt>
      <trkpt lat="47.2144" lon="-1.57396">
        <ele>74.7</ele>
        <time>2012-07-23T17:03:32.000Z</time>
      </trkpt>
      <trkpt lat="47.21433" lon="-1.57392">
        <ele>74.2</ele>
        <time>2012-07-23T17:03:35.000Z</time>
      </trkpt>
      <trkpt lat="47.21428" lon="-1.57384">
        <ele>71.1</ele>
        <time>2012-07-23T17:03:37.000Z</time>
      </trkpt>
      <trkpt lat="47.21418" lon="-1.57381">
        <ele>69.2</ele>
        <time>2012-07-23T17:03:39.000Z</time>
      </trkpt>
      <trkpt lat="47.21409" lon="-1.57381">
        <ele>69</ele>
        <time>2012-07-23T17:03:41.000Z</time>
      </trkpt>
      <trkpt lat="47.21403" lon="-1.5738">
        <ele>68.5</ele>
        <time>2012-07-23T17:03:42.000Z</time>
      </trkpt>
      <trkpt lat="47.21394" lon="-1.57377">
        <ele>67.8</ele>
        <time>2012-07-23T17:03:44.000Z</time>
      </trkpt>
      <trkpt lat="47.2139" lon="-1.57375">
        <ele>67.3</ele>
        <time>2012-07-23T17:03:45.000Z</time>
      </trkpt>
      <trkpt lat="47.21384" lon="-1.5737">
        <ele>67.6</ele>
        <time>2012-07-23T17:03:47.000Z</time>
      </trkpt>
      <trkpt lat="47.21379" lon="-1.57365">
        <ele>67.4</ele>
        <time>2012-07-23T17:03:49.000Z</time>
      </trkpt>
      <trkpt lat="47.21375" lon="-1.57359">
        <ele>66.5</ele>
        <time>2012-07-23T17:03:51.000Z</time>
      </trkpt>
      <trkpt lat="47.2137" lon="-1.57355">
        <ele>65.8</ele>
        <time>2012-07-23T17:03:53.000Z</time>
      </trkpt>
      <trkpt lat="47.21367" lon="-1.5735">
        <ele>65.9</ele>
        <time>2012-07-23T17:03:55.000Z</time>
      </trkpt>
      <trkpt lat="47.21362" lon="-1.57341">
        <ele>66.1</ele>
        <time>2012-07-23T17:03:58.000Z</time>
      </trkpt>
      <trkpt lat="47.2136" lon="-1.57335">
        <ele>65.8</ele>
        <time>2012-07-23T17:04:00.000Z</time>
      </trkpt>
      <trkpt lat="47.21356" lon="-1.57328">
        <ele>66.5</ele>
        <time>2012-07-23T17:04:02.000Z</time>
      </trkpt>
      <trkpt lat="47.21352" lon="-1.57326">
        <ele>66.4</ele>
        <time>2012-07-23T17:04:03.000Z</time>
      </trkpt>
      <trkpt lat="47.21348" lon="-1.57317">
        <ele>66.5</ele>
        <time>2012-07-23T17:04:05.000Z</time>
      </trkpt>
      <trkpt lat="47.21345" lon="-1.5731">
        <ele>66.5</ele>
        <time>2012-07-23T17:04:07.000Z</time>
      </trkpt>
      <trkpt lat="47.21342" lon="-1.57303">
        <ele>67</ele>
        <time>2012-07-23T17:04:10.000Z</time>
      </trkpt>
      <trkpt lat="47.21337" lon="-1.573">
        <ele>67.4</ele>
        <time>2012-07-23T17:04:12.000Z</time>
      </trkpt>
      <trkpt lat="47.21335" lon="-1.57293">
        <ele>66.7</ele>
        <time>2012-07-23T17:04:14.000Z</time>
      </trkpt>
      <trkpt lat="47.21333" lon="-1.57287">
        <ele>66</ele>
        <time>2012-07-23T17:04:16.000Z</time>
      </trkpt>
      <trkpt lat="47.21329" lon="-1.57283">
        <ele>66.1</ele>
        <time>2012-07-23T17:04:18.000Z</time>
      </trkpt>
      <trkpt lat="47.21324" lon="-1.57276">
        <ele>66.3</ele>
        <time>2012-07-23T17:04:20.000Z</time>
      </trkpt>
      <trkpt lat="47.21324" lon="-1.57267">
        <ele>65.8</ele>
        <time>2012-07-23T17:04:23.000Z</time>
      </trkpt>
      <trkpt lat="47.21318" lon="-1.57262">
        <ele>65.5</ele>
        <time>2012-07-23T17:04:25.000Z</time>
      </trkpt>
      <trkpt lat="47.21313" lon="-1.57256">
        <ele>64.7</ele>
        <time>2012-07-23T17:04:27.000Z</time>
      </trkpt>
      <trkpt lat="47.21308" lon="-1.57251">
        <ele>64.5</ele>
        <time>2012-07-23T17:04:29.000Z</time>
      </trkpt>
      <trkpt lat="47.21303" lon="-1.57247">
        <ele>65</ele>
        <time>2012-07-23T17:04:31.000Z</time>
      </trkpt>
      <trkpt lat="47.21297" lon="-1.57239">
        <ele>63.9</ele>
        <time>2012-07-23T17:04:33.000Z</time>
      </trkpt>
      <trkpt lat="47.21292" lon="-1.57232">
        <ele>63</ele>
        <time>2012-07-23T17:04:35.000Z</time>
      </trkpt>
      <trkpt lat="47.2129" lon="-1.57226">
        <ele>62.5</ele>
        <time>2012-07-23T17:04:37.000Z</time>
      </trkpt>
      <trkpt lat="47.21284" lon="-1.57219">
        <ele>61.8</ele>
        <time>2012-07-23T17:04:39.000Z</time>
      </trkpt>
      <trkpt lat="47.21284" lon="-1.57209">
        <ele>61.9</ele>
        <time>2012-07-23T17:04:41.000Z</time>
      </trkpt>
      <trkpt lat="47.21278" lon="-1.57204">
        <ele>62.6</ele>
        <time>2012-07-23T17:04:43.000Z</time>
      </trkpt>
      <trkpt lat="47.21275" lon="-1.572">
        <ele>62.3</ele>
        <time>2012-07-23T17:04:45.000Z</time>
      </trkpt>
      <trkpt lat="47.21268" lon="-1.57194">
        <ele>64.3</ele>
        <time>2012-07-23T17:04:47.000Z</time>
      </trkpt>
      <trkpt lat="47.21265" lon="-1.57188">
        <ele>65.6</ele>
        <time>2012-07-23T17:04:49.000Z</time>
      </trkpt>
      <trkpt lat="47.21264" lon="-1.57177">
        <ele>67.7</ele>
        <time>2012-07-23T17:04:51.000Z</time>
      </trkpt>
      <trkpt lat="47.21258" lon="-1.5717">
        <ele>69.8</ele>
        <time>2012-07-23T17:04:53.000Z</time>
      </trkpt>
      <trkpt lat="47.21254" lon="-1.57161">
        <ele>73.3</ele>
        <time>2012-07-23T17:04:55.000Z</time>
      </trkpt>
      <trkpt lat="47.2125" lon="-1.57157">
        <ele>74.3</ele>
        <time>2012-07-23T17:04:57.000Z</time>
      </trkpt>
      <trkpt lat="47.21245" lon="-1.57149">
        <ele>72.8</ele>
        <time>2012-07-23T17:05:01.000Z</time>
      </trkpt>
      <trkpt lat="47.2124" lon="-1.57148">
        <ele>73.4</ele>
        <time>2012-07-23T17:05:03.000Z</time>
      </trkpt>
      <trkpt lat="47.21235" lon="-1.57146">
        <ele>73.5</ele>
        <time>2012-07-23T17:05:05.000Z</time>
      </trkpt>
      <trkpt lat="47.21229" lon="-1.57143">
        <ele>73.6</ele>
        <time>2012-07-23T17:05:07.000Z</time>
      </trkpt>
      <trkpt lat="47.21224" lon="-1.57143">
        <ele>73.1</ele>
        <time>2012-07-23T17:05:09.000Z</time>
      </trkpt>
      <trkpt lat="47.2122" lon="-1.57139">
        <ele>72.6</ele>
        <time>2012-07-23T17:05:12.000Z</time>
      </trkpt>
      <trkpt lat="47.21214" lon="-1.57137">
        <ele>72.4</ele>
        <time>2012-07-23T17:05:14.000Z</time>
      </trkpt>
      <trkpt lat="47.21208" lon="-1.57137">
        <ele>71.7</ele>
        <time>2012-07-23T17:05:16.000Z</time>
      </trkpt>
      <trkpt lat="47.21203" lon="-1.5713">
        <ele>71.2</ele>
        <time>2012-07-23T17:05:18.000Z</time>
      </trkpt>
      <trkpt lat="47.21199" lon="-1.57132">
        <ele>71.1</ele>
        <time>2012-07-23T17:05:20.000Z</time>
      </trkpt>
      <trkpt lat="47.21193" lon="-1.57126">
        <ele>72.8</ele>
        <time>2012-07-23T17:05:22.000Z</time>
      </trkpt>
      <trkpt lat="47.21197" lon="-1.57129">
        <ele>72.4</ele>
        <time>2012-07-23T17:05:25.000Z</time>
      </trkpt>
      <trkpt lat="47.212" lon="-1.57124">
        <ele>77.1</ele>
        <time>2012-07-23T17:05:30.000Z</time>
      </trkpt>
      <trkpt lat="47.21191" lon="-1.57119">
        <ele>77.4</ele>
        <time>2012-07-23T17:05:35.000Z</time>
      </trkpt>
      <trkpt lat="47.21184" lon="-1.57116">
        <ele>76.7</ele>
        <time>2012-07-23T17:05:36.000Z</time>
      </trkpt>
      <trkpt lat="47.2118" lon="-1.57113">
        <ele>75.9</ele>
        <time>2012-07-23T17:05:37.000Z</time>
      </trkpt>
      <trkpt lat="47.21175" lon="-1.57109">
        <ele>76</ele>
        <time>2012-07-23T17:05:39.000Z</time>
      </trkpt>
      <trkpt lat="47.21169" lon="-1.5711">
        <ele>75.8</ele>
        <time>2012-07-23T17:05:41.000Z</time>
      </trkpt>
      <trkpt lat="47.21164" lon="-1.5711">
        <ele>75.9</ele>
        <time>2012-07-23T17:05:43.000Z</time>
      </trkpt>
      <trkpt lat="47.21159" lon="-1.57114">
        <ele>76.7</ele>
        <time>2012-07-23T17:05:47.000Z</time>
      </trkpt>
      <trkpt lat="47.21153" lon="-1.57112">
        <ele>77</ele>
        <time>2012-07-23T17:05:49.000Z</time>
      </trkpt>
      <trkpt lat="47.21147" lon="-1.57106">
        <ele>77.4</ele>
        <time>2012-07-23T17:05:52.000Z</time>
      </trkpt>
      <trkpt lat="47.21143" lon="-1.57103">
        <ele>77.6</ele>
        <time>2012-07-23T17:05:53.000Z</time>
      </trkpt>
      <trkpt lat="47.21137" lon="-1.57101">
        <ele>77.6</ele>
        <time>2012-07-23T17:05:54.000Z</time>
      </trkpt>
      <trkpt lat="47.21132" lon="-1.571">
        <ele>78.8</ele>
        <time>2012-07-23T17:05:55.000Z</time>
      </trkpt>
      <trkpt lat="47.21121" lon="-1.57098">
        <ele>78.8</ele>
        <time>2012-07-23T17:05:57.000Z</time>
      </trkpt>
      <trkpt lat="47.21116" lon="-1.57096">
        <ele>80.1</ele>
        <time>2012-07-23T17:05:58.000Z</time>
      </trkpt>
      <trkpt lat="47.2111" lon="-1.57095">
        <ele>81.5</ele>
        <time>2012-07-23T17:06:00.000Z</time>
      </trkpt>
      <trkpt lat="47.21105" lon="-1.57096">
        <ele>83.3</ele>
        <time>2012-07-23T17:06:02.000Z</time>
      </trkpt>
      <trkpt lat="47.21098" lon="-1.57093">
        <ele>82.2</ele>
        <time>2012-07-23T17:06:04.000Z</time>
      </trkpt>
      <trkpt lat="47.21094" lon="-1.57097">
        <ele>82</ele>
        <time>2012-07-23T17:06:05.000Z</time>
      </trkpt>
      <trkpt lat="47.21087" lon="-1.57099">
        <ele>84.6</ele>
        <time>2012-07-23T17:06:08.000Z</time>
      </trkpt>
      <trkpt lat="47.21082" lon="-1.57098">
        <ele>85.3</ele>
        <time>2012-07-23T17:06:09.000Z</time>
      </trkpt>
      <trkpt lat="47.21078" lon="-1.57094">
        <ele>86.1</ele>
        <time>2012-07-23T17:06:10.000Z</time>
      </trkpt>
      <trkpt lat="47.21072" lon="-1.57091">
        <ele>86.5</ele>
        <time>2012-07-23T17:06:12.000Z</time>
      </trkpt>
      <trkpt lat="47.21065" lon="-1.57086">
        <ele>86.8</ele>
        <time>2012-07-23T17:06:15.000Z</time>
      </trkpt>
      <trkpt lat="47.2106" lon="-1.5708">
        <ele>87</ele>
        <time>2012-07-23T17:06:18.000Z</time>
      </trkpt>
      <trkpt lat="47.21055" lon="-1.57076">
        <ele>85.6</ele>
        <time>2012-07-23T17:06:20.000Z</time>
      </trkpt>
      <trkpt lat="47.21048" lon="-1.57073">
        <ele>85.4</ele>
        <time>2012-07-23T17:06:23.000Z</time>
      </trkpt>
      <trkpt lat="47.21042" lon="-1.57068">
        <ele>84.6</ele>
        <time>2012-07-23T17:06:25.000Z</time>
      </trkpt>
      <trkpt lat="47.21035" lon="-1.57066">
        <ele>85.8</ele>
        <time>2012-07-23T17:06:27.000Z</time>
      </trkpt>
      <trkpt lat="47.21028" lon="-1.57064">
        <ele>84.2</ele>
        <time>2012-07-23T17:06:29.000Z</time>
      </trkpt>
      <trkpt lat="47.21023" lon="-1.5706">
        <ele>83.5</ele>
        <time>2012-07-23T17:06:31.000Z</time>
      </trkpt>
      <trkpt lat="47.21018" lon="-1.57056">
        <ele>84.5</ele>
        <time>2012-07-23T17:06:34.000Z</time>
      </trkpt>
      <trkpt lat="47.21011" lon="-1.57054">
        <ele>83.2</ele>
        <time>2012-07-23T17:06:37.000Z</time>
      </trkpt>
      <trkpt lat="47.21007" lon="-1.57049">
        <ele>81.5</ele>
        <time>2012-07-23T17:06:39.000Z</time>
      </trkpt>
      <trkpt lat="47.21001" lon="-1.57049">
        <ele>80.6</ele>
        <time>2012-07-23T17:06:40.000Z</time>
      </trkpt>
      <trkpt lat="47.20996" lon="-1.57047">
        <ele>79.1</ele>
        <time>2012-07-23T17:06:41.000Z</time>
      </trkpt>
      <trkpt lat="47.20992" lon="-1.57046">
        <ele>78.1</ele>
        <time>2012-07-23T17:06:42.000Z</time>
      </trkpt>
      <trkpt lat="47.20985" lon="-1.57048">
        <ele>77.3</ele>
        <time>2012-07-23T17:06:43.000Z</time>
      </trkpt>
      <trkpt lat="47.20977" lon="-1.57052">
        <ele>76.4</ele>
        <time>2012-07-23T17:06:44.000Z</time>
      </trkpt>
      <trkpt lat="47.20978" lon="-1.5706">
        <ele>72.9</ele>
        <time>2012-07-23T17:06:46.000Z</time>
      </trkpt>
      <trkpt lat="47.20978" lon="-1.57066">
        <ele>68.5</ele>
        <time>2012-07-23T17:06:52.000Z</time>
      </trkpt>
      <trkpt lat="47.20973" lon="-1.57067">
        <ele>69.9</ele>
        <time>2012-07-23T17:07:05.000Z</time>
      </trkpt>
      <trkpt lat="47.20968" lon="-1.57062">
        <ele>71.7</ele>
        <time>2012-07-23T17:07:08.000Z</time>
      </trkpt>
      <trkpt lat="47.20965" lon="-1.57056">
        <ele>73.5</ele>
        <time>2012-07-23T17:07:12.000Z</time>
      </trkpt>
      <trkpt lat="47.20968" lon="-1.5705">
        <ele>75.9</ele>
        <time>2012-07-23T17:07:18.000Z</time>
      </trkpt>
      <trkpt lat="47.2097" lon="-1.57041">
        <ele>77.5</ele>
        <time>2012-07-23T17:07:21.000Z</time>
      </trkpt>
      <trkpt lat="47.20972" lon="-1.57034">
        <ele>77.9</ele>
        <time>2012-07-23T17:07:24.000Z</time>
      </trkpt>
      <trkpt lat="47.20974" lon="-1.57028">
        <ele>78</ele>
        <time>2012-07-23T17:07:26.000Z</time>
      </trkpt>
      <trkpt lat="47.20978" lon="-1.57022">
        <ele>78.3</ele>
        <time>2012-07-23T17:07:28.000Z</time>
      </trkpt>
      <trkpt lat="47.2098" lon="-1.57014">
        <ele>78.5</ele>
        <time>2012-07-23T17:07:30.000Z</time>
      </trkpt>
      <trkpt lat="47.20984" lon="-1.57008">
        <ele>78</ele>
        <time>2012-07-23T17:07:32.000Z</time>
      </trkpt>
      <trkpt lat="47.20984" lon="-1.56999">
        <ele>77.1</ele>
        <time>2012-07-23T17:07:34.000Z</time>
      </trkpt>
      <trkpt lat="47.20985" lon="-1.56991">
        <ele>76.9</ele>
        <time>2012-07-23T17:07:36.000Z</time>
      </trkpt>
      <trkpt lat="47.20985" lon="-1.56984">
        <ele>76.2</ele>
        <time>2012-07-23T17:07:37.000Z</time>
      </trkpt>
      <trkpt lat="47.20984" lon="-1.56976">
        <ele>75.7</ele>
        <time>2012-07-23T17:07:39.000Z</time>
      </trkpt>
      <trkpt lat="47.20988" lon="-1.56969">
        <ele>75.3</ele>
        <time>2012-07-23T17:07:41.000Z</time>
      </trkpt>
      <trkpt lat="47.20991" lon="-1.56964">
        <ele>75</ele>
        <time>2012-07-23T17:07:42.000Z</time>
      </trkpt>
      <trkpt lat="47.20986" lon="-1.56957">
        <ele>74.7</ele>
        <time>2012-07-23T17:07:45.000Z</time>
      </trkpt>
      <trkpt lat="47.20978" lon="-1.56956">
        <ele>76.1</ele>
        <time>2012-07-23T17:07:46.000Z</time>
      </trkpt>
      <trkpt lat="47.20973" lon="-1.56952">
        <ele>76.9</ele>
        <time>2012-07-23T17:07:47.000Z</time>
      </trkpt>
      <trkpt lat="47.20971" lon="-1.56944">
        <ele>77.1</ele>
        <time>2012-07-23T17:07:50.000Z</time>
      </trkpt>
      <trkpt lat="47.20972" lon="-1.56937">
        <ele>76.4</ele>
        <time>2012-07-23T17:07:51.000Z</time>
      </trkpt>
      <trkpt lat="47.2097" lon="-1.56929">
        <ele>74.7</ele>
        <time>2012-07-23T17:07:53.000Z</time>
      </trkpt>
      <trkpt lat="47.2097" lon="-1.56918">
        <ele>74.3</ele>
        <time>2012-07-23T17:07:56.000Z</time>
      </trkpt>
      <trkpt lat="47.20971" lon="-1.56911">
        <ele>74.5</ele>
        <time>2012-07-23T17:07:58.000Z</time>
      </trkpt>
      <trkpt lat="47.20974" lon="-1.56901">
        <ele>74.2</ele>
        <time>2012-07-23T17:08:01.000Z</time>
      </trkpt>
      <trkpt lat="47.20977" lon="-1.56892">
        <ele>72.5</ele>
        <time>2012-07-23T17:08:03.000Z</time>
      </trkpt>
      <trkpt lat="47.20981" lon="-1.56884">
        <ele>71.5</ele>
        <time>2012-07-23T17:08:05.000Z</time>
      </trkpt>
      <trkpt lat="47.20978" lon="-1.56874">
        <ele>70.3</ele>
        <time>2012-07-23T17:08:07.000Z</time>
      </trkpt>
      <trkpt lat="47.20973" lon="-1.56868">
        <ele>67.3</ele>
        <time>2012-07-23T17:08:08.000Z</time>
      </trkpt>
      <trkpt lat="47.20955" lon="-1.56862">
        <ele>63</ele>
        <time>2012-07-23T17:08:09.000Z</time>
      </trkpt>
      <trkpt lat="47.20944" lon="-1.56858">
        <ele>61.1</ele>
        <time>2012-07-23T17:08:10.000Z</time>
      </trkpt>
      <trkpt lat="47.20935" lon="-1.56853">
        <ele>61.4</ele>
        <time>2012-07-23T17:08:11.000Z</time>
      </trkpt>
      <trkpt lat="47.2093" lon="-1.5685">
        <ele>61.1</ele>
        <time>2012-07-23T17:08:12.000Z</time>
      </trkpt>
      <trkpt lat="47.20925" lon="-1.56841">
        <ele>62.2</ele>
        <time>2012-07-23T17:08:14.000Z</time>
      </trkpt>
      <trkpt lat="47.20921" lon="-1.56837">
        <ele>62.4</ele>
        <time>2012-07-23T17:08:15.000Z</time>
      </trkpt>
      <trkpt lat="47.2092" lon="-1.56822">
        <ele>70</ele>
        <time>2012-07-23T17:08:17.000Z</time>
      </trkpt>
      <trkpt lat="47.2092" lon="-1.56812">
        <ele>73.3</ele>
        <time>2012-07-23T17:08:19.000Z</time>
      </trkpt>
      <trkpt lat="47.20921" lon="-1.56803">
        <ele>70.2</ele>
        <time>2012-07-23T17:08:23.000Z</time>
      </trkpt>
      <trkpt lat="47.20918" lon="-1.56795">
        <ele>71.2</ele>
        <time>2012-07-23T17:08:25.000Z</time>
      </trkpt>
      <trkpt lat="47.20912" lon="-1.56794">
        <ele>70</ele>
        <time>2012-07-23T17:08:27.000Z</time>
      </trkpt>
      <trkpt lat="47.20907" lon="-1.56791">
        <ele>70.3</ele>
        <time>2012-07-23T17:08:31.000Z</time>
      </trkpt>
      <trkpt lat="47.20902" lon="-1.56788">
        <ele>71.7</ele>
        <time>2012-07-23T17:08:39.000Z</time>
      </trkpt>
      <trkpt lat="47.20896" lon="-1.56786">
        <ele>70.2</ele>
        <time>2012-07-23T17:08:42.000Z</time>
      </trkpt>
      <trkpt lat="47.20892" lon="-1.56782">
        <ele>71.3</ele>
        <time>2012-07-23T17:08:46.000Z</time>
      </trkpt>
      <trkpt lat="47.20887" lon="-1.56782">
        <ele>69.8</ele>
        <time>2012-07-23T17:08:48.000Z</time>
      </trkpt>
      <trkpt lat="47.20886" lon="-1.56775">
        <ele>69.6</ele>
        <time>2012-07-23T17:08:50.000Z</time>
      </trkpt>
      <trkpt lat="47.20887" lon="-1.56768">
        <ele>70.1</ele>
        <time>2012-07-23T17:08:52.000Z</time>
      </trkpt>
      <trkpt lat="47.20889" lon="-1.56758">
        <ele>68.8</ele>
        <time>2012-07-23T17:08:55.000Z</time>
      </trkpt>
      <trkpt lat="47.2089" lon="-1.5675">
        <ele>71.5</ele>
        <time>2012-07-23T17:08:58.000Z</time>
      </trkpt>
      <trkpt lat="47.20893" lon="-1.56742">
        <ele>73.4</ele>
        <time>2012-07-23T17:09:01.000Z</time>
      </trkpt>
      <trkpt lat="47.20895" lon="-1.56736">
        <ele>70.7</ele>
        <time>2012-07-23T17:09:02.000Z</time>
      </trkpt>
      <trkpt lat="47.20897" lon="-1.56729">
        <ele>69.9</ele>
        <time>2012-07-23T17:09:04.000Z</time>
      </trkpt>
      <trkpt lat="47.20899" lon="-1.5672">
        <ele>71.4</ele>
        <time>2012-07-23T17:09:06.000Z</time>
      </trkpt>
      <trkpt lat="47.209" lon="-1.56714">
        <ele>71.9</ele>
        <time>2012-07-23T17:09:08.000Z</time>
      </trkpt>
      <trkpt lat="47.20904" lon="-1.56706">
        <ele>73.1</ele>
        <time>2012-07-23T17:09:11.000Z</time>
      </trkpt>
      <trkpt lat="47.209" lon="-1.56702">
        <ele>73.8</ele>
        <time>2012-07-23T17:09:18.000Z</time>
      </trkpt>
      <trkpt lat="47.20899" lon="-1.56693">
        <ele>74.5</ele>
        <time>2012-07-23T17:09:22.000Z</time>
      </trkpt>
      <trkpt lat="47.20899" lon="-1.56685">
        <ele>74.2</ele>
        <time>2012-07-23T17:09:24.000Z</time>
      </trkpt>
      <trkpt lat="47.209" lon="-1.56677">
        <ele>72.8</ele>
        <time>2012-07-23T17:09:26.000Z</time>
      </trkpt>
      <trkpt lat="47.20902" lon="-1.56667">
        <ele>72.7</ele>
        <time>2012-07-23T17:09:28.000Z</time>
      </trkpt>
      <trkpt lat="47.20902" lon="-1.56658">
        <ele>74.6</ele>
        <time>2012-07-23T17:09:31.000Z</time>
      </trkpt>
      <trkpt lat="47.20901" lon="-1.5665">
        <ele>74.9</ele>
        <time>2012-07-23T17:09:33.000Z</time>
      </trkpt>
      <trkpt lat="47.20896" lon="-1.56645">
        <ele>74.6</ele>
        <time>2012-07-23T17:09:35.000Z</time>
      </trkpt>
      <trkpt lat="47.20889" lon="-1.56642">
        <ele>77.8</ele>
        <time>2012-07-23T17:09:36.000Z</time>
      </trkpt>
      <trkpt lat="47.20883" lon="-1.56635">
        <ele>79.5</ele>
        <time>2012-07-23T17:09:38.000Z</time>
      </trkpt>
      <trkpt lat="47.20878" lon="-1.5663">
        <ele>79.7</ele>
        <time>2012-07-23T17:09:40.000Z</time>
      </trkpt>
      <trkpt lat="47.20873" lon="-1.56625">
        <ele>79.9</ele>
        <time>2012-07-23T17:09:42.000Z</time>
      </trkpt>
      <trkpt lat="47.20867" lon="-1.56619">
        <ele>80.4</ele>
        <time>2012-07-23T17:09:44.000Z</time>
      </trkpt>
      <trkpt lat="47.20862" lon="-1.56613">
        <ele>80.4</ele>
        <time>2012-07-23T17:09:46.000Z</time>
      </trkpt>
      <trkpt lat="47.20856" lon="-1.56608">
        <ele>79.7</ele>
        <time>2012-07-23T17:09:48.000Z</time>
      </trkpt>
      <trkpt lat="47.20851" lon="-1.56602">
        <ele>80</ele>
        <time>2012-07-23T17:09:50.000Z</time>
      </trkpt>
      <trkpt lat="47.20847" lon="-1.56598">
        <ele>80.2</ele>
        <time>2012-07-23T17:09:52.000Z</time>
      </trkpt>
      <trkpt lat="47.20842" lon="-1.56597">
        <ele>79.4</ele>
        <time>2012-07-23T17:09:54.000Z</time>
      </trkpt>
      <trkpt lat="47.20835" lon="-1.56593">
        <ele>80.1</ele>
        <time>2012-07-23T17:09:56.000Z</time>
      </trkpt>
      <trkpt lat="47.20828" lon="-1.56586">
        <ele>79.6</ele>
        <time>2012-07-23T17:09:58.000Z</time>
      </trkpt>
      <trkpt lat="47.20822" lon="-1.5658">
        <ele>79.8</ele>
        <time>2012-07-23T17:10:00.000Z</time>
      </trkpt>
      <trkpt lat="47.20818" lon="-1.56575">
        <ele>78.9</ele>
        <time>2012-07-23T17:10:02.000Z</time>
      </trkpt>
      <trkpt lat="47.20811" lon="-1.56574">
        <ele>77.8</ele>
        <time>2012-07-23T17:10:04.000Z</time>
      </trkpt>
      <trkpt lat="47.20806" lon="-1.56571">
        <ele>75.3</ele>
        <time>2012-07-23T17:10:06.000Z</time>
      </trkpt>
      <trkpt lat="47.20801" lon="-1.56568">
        <ele>74.5</ele>
        <time>2012-07-23T17:10:08.000Z</time>
      </trkpt>
      <trkpt lat="47.20797" lon="-1.56564">
        <ele>74</ele>
        <time>2012-07-23T17:10:10.000Z</time>
      </trkpt>
      <trkpt lat="47.20792" lon="-1.56558">
        <ele>74.8</ele>
        <time>2012-07-23T17:10:12.000Z</time>
      </trkpt>
      <trkpt lat="47.20787" lon="-1.56553">
        <ele>75.1</ele>
        <time>2012-07-23T17:10:14.000Z</time>
      </trkpt>
      <trkpt lat="47.20782" lon="-1.56549">
        <ele>74.1</ele>
        <time>2012-07-23T17:10:16.000Z</time>
      </trkpt>
      <trkpt lat="47.20778" lon="-1.56544">
        <ele>73.3</ele>
        <time>2012-07-23T17:10:18.000Z</time>
      </trkpt>
      <trkpt lat="47.20773" lon="-1.56541">
        <ele>73.5</ele>
        <time>2012-07-23T17:10:20.000Z</time>
      </trkpt>
      <trkpt lat="47.20769" lon="-1.56536">
        <ele>74.5</ele>
        <time>2012-07-23T17:10:22.000Z</time>
      </trkpt>
      <trkpt lat="47.20775" lon="-1.56541">
        <ele>74.9</ele>
        <time>2012-07-23T17:10:25.000Z</time>
      </trkpt>
      <trkpt lat="47.20778" lon="-1.56547">
        <ele>74.1</ele>
        <time>2012-07-23T17:10:28.000Z</time>
      </trkpt>
      <trkpt lat="47.2078" lon="-1.56555">
        <ele>71.1</ele>
        <time>2012-07-23T17:10:32.000Z</time>
      </trkpt>
      <trkpt lat="47.20785" lon="-1.56557">
        <ele>67.2</ele>
        <time>2012-07-23T17:10:42.000Z</time>
      </trkpt>
      <trkpt lat="47.20789" lon="-1.56548">
        <ele>67.6</ele>
        <time>2012-07-23T17:10:45.000Z</time>
      </trkpt>
      <trkpt lat="47.20791" lon="-1.56541">
        <ele>67.6</ele>
        <time>2012-07-23T17:10:47.000Z</time>
      </trkpt>
      <trkpt lat="47.20794" lon="-1.56534">
        <ele>68</ele>
        <time>2012-07-23T17:10:50.000Z</time>
      </trkpt>
      <trkpt lat="47.20794" lon="-1.56527">
        <ele>70</ele>
        <time>2012-07-23T17:10:54.000Z</time>
      </trkpt>
      <trkpt lat="47.20798" lon="-1.56519">
        <ele>71.5</ele>
        <time>2012-07-23T17:10:56.000Z</time>
      </trkpt>
      <trkpt lat="47.20802" lon="-1.56515">
        <ele>71.5</ele>
        <time>2012-07-23T17:10:58.000Z</time>
      </trkpt>
      <trkpt lat="47.20806" lon="-1.56513">
        <ele>70.2</ele>
        <time>2012-07-23T17:11:04.000Z</time>
      </trkpt>
      <trkpt lat="47.20807" lon="-1.56505">
        <ele>70.1</ele>
        <time>2012-07-23T17:11:10.000Z</time>
      </trkpt>
      <trkpt lat="47.20806" lon="-1.56496">
        <ele>70.1</ele>
        <time>2012-07-23T17:11:12.000Z</time>
      </trkpt>
      <trkpt lat="47.20806" lon="-1.56488">
        <ele>69.2</ele>
        <time>2012-07-23T17:11:14.000Z</time>
      </trkpt>
      <trkpt lat="47.20807" lon="-1.56479">
        <ele>71.4</ele>
        <time>2012-07-23T17:11:17.000Z</time>
      </trkpt>
      <trkpt lat="47.20807" lon="-1.56473">
        <ele>71.5</ele>
        <time>2012-07-23T17:11:20.000Z</time>
      </trkpt>
      <trkpt lat="47.20807" lon="-1.56464">
        <ele>70.5</ele>
        <time>2012-07-23T17:11:24.000Z</time>
      </trkpt>
      <trkpt lat="47.20808" lon="-1.56456">
        <ele>69.9</ele>
        <time>2012-07-23T17:11:26.000Z</time>
      </trkpt>
      <trkpt lat="47.20809" lon="-1.56449">
        <ele>69.7</ele>
        <time>2012-07-23T17:11:28.000Z</time>
      </trkpt>
      <trkpt lat="47.20811" lon="-1.56439">
        <ele>67.3</ele>
        <time>2012-07-23T17:11:30.000Z</time>
      </trkpt>
      <trkpt lat="47.20813" lon="-1.56432">
        <ele>66.4</ele>
        <time>2012-07-23T17:11:32.000Z</time>
      </trkpt>
      <trkpt lat="47.20814" lon="-1.56421">
        <ele>64.7</ele>
        <time>2012-07-23T17:11:34.000Z</time>
      </trkpt>
      <trkpt lat="47.20816" lon="-1.56413">
        <ele>65</ele>
        <time>2012-07-23T17:11:36.000Z</time>
      </trkpt>
      <trkpt lat="47.20818" lon="-1.56405">
        <ele>64.7</ele>
        <time>2012-07-23T17:11:38.000Z</time>
      </trkpt>
      <trkpt lat="47.2082" lon="-1.56396">
        <ele>63.5</ele>
        <time>2012-07-23T17:11:41.000Z</time>
      </trkpt>
      <trkpt lat="47.2082" lon="-1.56387">
        <ele>63.8</ele>
        <time>2012-07-23T17:11:44.000Z</time>
      </trkpt>
      <trkpt lat="47.20818" lon="-1.5638">
        <ele>63.8</ele>
        <time>2012-07-23T17:11:48.000Z</time>
      </trkpt>
      <trkpt lat="47.2082" lon="-1.56372">
        <ele>64.2</ele>
        <time>2012-07-23T17:11:50.000Z</time>
      </trkpt>
      <trkpt lat="47.20819" lon="-1.56365">
        <ele>64.3</ele>
        <time>2012-07-23T17:11:52.000Z</time>
      </trkpt>
      <trkpt lat="47.20814" lon="-1.56356">
        <ele>64.1</ele>
        <time>2012-07-23T17:11:54.000Z</time>
      </trkpt>
      <trkpt lat="47.20814" lon="-1.56349">
        <ele>63.6</ele>
        <time>2012-07-23T17:11:56.000Z</time>
      </trkpt>
      <trkpt lat="47.20818" lon="-1.56341">
        <ele>64</ele>
        <time>2012-07-23T17:11:58.000Z</time>
      </trkpt>
      <trkpt lat="47.20821" lon="-1.56336">
        <ele>63.8</ele>
        <time>2012-07-23T17:11:59.000Z</time>
      </trkpt>
      <trkpt lat="47.20823" lon="-1.56328">
        <ele>63.8</ele>
        <time>2012-07-23T17:12:01.000Z</time>
      </trkpt>
      <trkpt lat="47.20826" lon="-1.56317">
        <ele>63.8</ele>
        <time>2012-07-23T17:12:04.000Z</time>
      </trkpt>
      <trkpt lat="47.2083" lon="-1.56308">
        <ele>63.4</ele>
        <time>2012-07-23T17:12:06.000Z</time>
      </trkpt>
      <trkpt lat="47.20818" lon="-1.56304">
        <ele>63</ele>
        <time>2012-07-23T17:12:07.000Z</time>
      </trkpt>
      <trkpt lat="47.20819" lon="-1.56294">
        <ele>63.2</ele>
        <time>2012-07-23T17:12:10.000Z</time>
      </trkpt>
      <trkpt lat="47.20824" lon="-1.56287">
        <ele>62.8</ele>
        <time>2012-07-23T17:12:12.000Z</time>
      </trkpt>
      <trkpt lat="47.20819" lon="-1.56285">
        <ele>63.9</ele>
        <time>2012-07-23T17:12:16.000Z</time>
      </trkpt>
      <trkpt lat="47.20814" lon="-1.56285">
        <ele>65.1</ele>
        <time>2012-07-23T17:12:19.000Z</time>
      </trkpt>
      <trkpt lat="47.20809" lon="-1.56286">
        <ele>64.7</ele>
        <time>2012-07-23T17:12:25.000Z</time>
      </trkpt>
      <trkpt lat="47.20808" lon="-1.56279">
        <ele>67.5</ele>
        <time>2012-07-23T17:12:29.000Z</time>
      </trkpt>
      <trkpt lat="47.20809" lon="-1.56272">
        <ele>71</ele>
        <time>2012-07-23T17:12:33.000Z</time>
      </trkpt>
      <trkpt lat="47.2081" lon="-1.56263">
        <ele>71.5</ele>
        <time>2012-07-23T17:12:36.000Z</time>
      </trkpt>
      <trkpt lat="47.20809" lon="-1.56254">
        <ele>78.3</ele>
        <time>2012-07-23T17:12:46.000Z</time>
      </trkpt>
      <trkpt lat="47.20802" lon="-1.56248">
        <ele>81.9</ele>
        <time>2012-07-23T17:12:48.000Z</time>
      </trkpt>
      <trkpt lat="47.20797" lon="-1.56244">
        <ele>83.8</ele>
        <time>2012-07-23T17:12:50.000Z</time>
      </trkpt>
      <trkpt lat="47.20789" lon="-1.56238">
        <ele>85.5</ele>
        <time>2012-07-23T17:12:53.000Z</time>
      </trkpt>
      <trkpt lat="47.20781" lon="-1.56234">
        <ele>86.1</ele>
        <time>2012-07-23T17:12:54.000Z</time>
      </trkpt>
      <trkpt lat="47.20776" lon="-1.5623">
        <ele>86.7</ele>
        <time>2012-07-23T17:12:55.000Z</time>
      </trkpt>
      <trkpt lat="47.20768" lon="-1.56226">
        <ele>87.1</ele>
        <time>2012-07-23T17:12:57.000Z</time>
      </trkpt>
      <trkpt lat="47.20762" lon="-1.56226">
        <ele>88.1</ele>
        <time>2012-07-23T17:12:59.000Z</time>
      </trkpt>
      <trkpt lat="47.20754" lon="-1.56225">
        <ele>87.4</ele>
        <time>2012-07-23T17:13:00.000Z</time>
      </trkpt>
      <trkpt lat="47.20762" lon="-1.56217">
        <ele>88.2</ele>
        <time>2012-07-23T17:13:01.000Z</time>
      </trkpt>
      <trkpt lat="47.20756" lon="-1.56212">
        <ele>88.3</ele>
        <time>2012-07-23T17:13:04.000Z</time>
      </trkpt>
      <trkpt lat="47.20752" lon="-1.56208">
        <ele>88.1</ele>
        <time>2012-07-23T17:13:06.000Z</time>
      </trkpt>
      <trkpt lat="47.20746" lon="-1.56206">
        <ele>87</ele>
        <time>2012-07-23T17:13:07.000Z</time>
      </trkpt>
      <trkpt lat="47.2074" lon="-1.56206">
        <ele>87</ele>
        <time>2012-07-23T17:13:08.000Z</time>
      </trkpt>
      <trkpt lat="47.20732" lon="-1.56204">
        <ele>86.8</ele>
        <time>2012-07-23T17:13:10.000Z</time>
      </trkpt>
      <trkpt lat="47.20726" lon="-1.56204">
        <ele>87.1</ele>
        <time>2012-07-23T17:13:12.000Z</time>
      </trkpt>
      <trkpt lat="47.20726" lon="-1.56196">
        <ele>84.4</ele>
        <time>2012-07-23T17:13:13.000Z</time>
      </trkpt>
      <trkpt lat="47.20721" lon="-1.56193">
        <ele>83.9</ele>
        <time>2012-07-23T17:13:15.000Z</time>
      </trkpt>
      <trkpt lat="47.20716" lon="-1.56191">
        <ele>86</ele>
        <time>2012-07-23T17:13:17.000Z</time>
      </trkpt>
      <trkpt lat="47.2071" lon="-1.56195">
        <ele>85.5</ele>
        <time>2012-07-23T17:13:22.000Z</time>
      </trkpt>
      <trkpt lat="47.20704" lon="-1.56198">
        <ele>86.9</ele>
        <time>2012-07-23T17:13:24.000Z</time>
      </trkpt>
      <trkpt lat="47.20697" lon="-1.56198">
        <ele>88.4</ele>
        <time>2012-07-23T17:13:27.000Z</time>
      </trkpt>
      <trkpt lat="47.20693" lon="-1.56195">
        <ele>89.3</ele>
        <time>2012-07-23T17:13:28.000Z</time>
      </trkpt>
      <trkpt lat="47.20687" lon="-1.56195">
        <ele>87.6</ele>
        <time>2012-07-23T17:13:30.000Z</time>
      </trkpt>
      <trkpt lat="47.20682" lon="-1.56198">
        <ele>86.5</ele>
        <time>2012-07-23T17:13:32.000Z</time>
      </trkpt>
      <trkpt lat="47.20674" lon="-1.56202">
        <ele>87.6</ele>
        <time>2012-07-23T17:13:34.000Z</time>
      </trkpt>
      <trkpt lat="47.2067" lon="-1.56205">
        <ele>87.9</ele>
        <time>2012-07-23T17:13:35.000Z</time>
      </trkpt>
      <trkpt lat="47.20664" lon="-1.56209">
        <ele>88.9</ele>
        <time>2012-07-23T17:13:37.000Z</time>
      </trkpt>
      <trkpt lat="47.20659" lon="-1.5621">
        <ele>88.4</ele>
        <time>2012-07-23T17:13:38.000Z</time>
      </trkpt>
      <trkpt lat="47.20653" lon="-1.56206">
        <ele>90.7</ele>
        <time>2012-07-23T17:13:41.000Z</time>
      </trkpt>
      <trkpt lat="47.20648" lon="-1.56204">
        <ele>93.4</ele>
        <time>2012-07-23T17:13:44.000Z</time>
      </trkpt>
      <trkpt lat="47.20641" lon="-1.56206">
        <ele>93.8</ele>
        <time>2012-07-23T17:13:46.000Z</time>
      </trkpt>
      <trkpt lat="47.20637" lon="-1.56201">
        <ele>95.3</ele>
        <time>2012-07-23T17:13:48.000Z</time>
      </trkpt>
      <trkpt lat="47.20634" lon="-1.56195">
        <ele>96.2</ele>
        <time>2012-07-23T17:13:50.000Z</time>
      </trkpt>
      <trkpt lat="47.20631" lon="-1.56189">
        <ele>100.5</ele>
        <time>2012-07-23T17:13:53.000Z</time>
      </trkpt>
      <trkpt lat="47.20626" lon="-1.56173">
        <ele>98.5</ele>
        <time>2012-07-23T17:13:56.000Z</time>
      </trkpt>
      <trkpt lat="47.20621" lon="-1.56165">
        <ele>95</ele>
        <time>2012-07-23T17:13:58.000Z</time>
      </trkpt>
      <trkpt lat="47.20615" lon="-1.56164">
        <ele>93.1</ele>
        <time>2012-07-23T17:14:00.000Z</time>
      </trkpt>
      <trkpt lat="47.2061" lon="-1.56166">
        <ele>92.9</ele>
        <time>2012-07-23T17:14:02.000Z</time>
      </trkpt>
      <trkpt lat="47.20605" lon="-1.56169">
        <ele>92</ele>
        <time>2012-07-23T17:14:05.000Z</time>
      </trkpt>
      <trkpt lat="47.206" lon="-1.5617">
        <ele>91.6</ele>
        <time>2012-07-23T17:14:07.000Z</time>
      </trkpt>
      <trkpt lat="47.20595" lon="-1.56172">
        <ele>91.5</ele>
        <time>2012-07-23T17:14:10.000Z</time>
      </trkpt>
      <trkpt lat="47.2059" lon="-1.56173">
        <ele>90.9</ele>
        <time>2012-07-23T17:14:11.000Z</time>
      </trkpt>
      <trkpt lat="47.20583" lon="-1.56174">
        <ele>90.7</ele>
        <time>2012-07-23T17:14:13.000Z</time>
      </trkpt>
      <trkpt lat="47.20569" lon="-1.56178">
        <ele>88.8</ele>
        <time>2012-07-23T17:14:14.000Z</time>
      </trkpt>
      <trkpt lat="47.20558" lon="-1.56178">
        <ele>87.3</ele>
        <time>2012-07-23T17:14:15.000Z</time>
      </trkpt>
      <trkpt lat="47.2055" lon="-1.56177">
        <ele>86.5</ele>
        <time>2012-07-23T17:14:16.000Z</time>
      </trkpt>
      <trkpt lat="47.20544" lon="-1.56178">
        <ele>85.8</ele>
        <time>2012-07-23T17:14:17.000Z</time>
      </trkpt>
      <trkpt lat="47.20537" lon="-1.56179">
        <ele>86.2</ele>
        <time>2012-07-23T17:14:19.000Z</time>
      </trkpt>
      <trkpt lat="47.20533" lon="-1.56179">
        <ele>86</ele>
        <time>2012-07-23T17:14:20.000Z</time>
      </trkpt>
      <trkpt lat="47.20526" lon="-1.56179">
        <ele>85.8</ele>
        <time>2012-07-23T17:14:22.000Z</time>
      </trkpt>
      <trkpt lat="47.20519" lon="-1.5618">
        <ele>87</ele>
        <time>2012-07-23T17:14:25.000Z</time>
      </trkpt>
      <trkpt lat="47.20512" lon="-1.56186">
        <ele>86.8</ele>
        <time>2012-07-23T17:14:26.000Z</time>
      </trkpt>
      <trkpt lat="47.20506" lon="-1.56189">
        <ele>86.6</ele>
        <time>2012-07-23T17:14:27.000Z</time>
      </trkpt>
      <trkpt lat="47.20501" lon="-1.56193">
        <ele>86.7</ele>
        <time>2012-07-23T17:14:29.000Z</time>
      </trkpt>
      <trkpt lat="47.20497" lon="-1.56195">
        <ele>86.8</ele>
        <time>2012-07-23T17:14:31.000Z</time>
      </trkpt>
      <trkpt lat="47.2049" lon="-1.56196">
        <ele>86.8</ele>
        <time>2012-07-23T17:14:33.000Z</time>
      </trkpt>
      <trkpt lat="47.20488" lon="-1.56176">
        <ele>85</ele>
        <time>2012-07-23T17:14:35.000Z</time>
      </trkpt>
      <trkpt lat="47.20492" lon="-1.56162">
        <ele>82.4</ele>
        <time>2012-07-23T17:14:36.000Z</time>
      </trkpt>
      <trkpt lat="47.20488" lon="-1.56157">
        <ele>81.5</ele>
        <time>2012-07-23T17:14:40.000Z</time>
      </trkpt>
      <trkpt lat="47.20483" lon="-1.56152">
        <ele>79.6</ele>
        <time>2012-07-23T17:14:44.000Z</time>
      </trkpt>
      <trkpt lat="47.20483" lon="-1.56144">
        <ele>79.7</ele>
        <time>2012-07-23T17:14:46.000Z</time>
      </trkpt>
      <trkpt lat="47.20483" lon="-1.56134">
        <ele>80.3</ele>
        <time>2012-07-23T17:14:49.000Z</time>
      </trkpt>
      <trkpt lat="47.20482" lon="-1.56123">
        <ele>80.6</ele>
        <time>2012-07-23T17:14:51.000Z</time>
      </trkpt>
      <trkpt lat="47.20477" lon="-1.5612">
        <ele>78.8</ele>
        <time>2012-07-23T17:14:52.000Z</time>
      </trkpt>
      <trkpt lat="47.20477" lon="-1.56111">
        <ele>77.6</ele>
        <time>2012-07-23T17:14:55.000Z</time>
      </trkpt>
      <trkpt lat="47.20478" lon="-1.56103">
        <ele>77.9</ele>
        <time>2012-07-23T17:14:58.000Z</time>
      </trkpt>
      <trkpt lat="47.20482" lon="-1.56096">
        <ele>79.4</ele>
        <time>2012-07-23T17:15:00.000Z</time>
      </trkpt>
      <trkpt lat="47.20486" lon="-1.56089">
        <ele>80.1</ele>
        <time>2012-07-23T17:15:03.000Z</time>
      </trkpt>
      <trkpt lat="47.20487" lon="-1.56078">
        <ele>80.4</ele>
        <time>2012-07-23T17:15:06.000Z</time>
      </trkpt>
      <trkpt lat="47.20488" lon="-1.56071">
        <ele>81.4</ele>
        <time>2012-07-23T17:15:08.000Z</time>
      </trkpt>
      <trkpt lat="47.20487" lon="-1.5606">
        <ele>85</ele>
        <time>2012-07-23T17:15:11.000Z</time>
      </trkpt>
      <trkpt lat="47.20488" lon="-1.56049">
        <ele>85.6</ele>
        <time>2012-07-23T17:15:13.000Z</time>
      </trkpt>
      <trkpt lat="47.20489" lon="-1.56037">
        <ele>88.2</ele>
        <time>2012-07-23T17:15:16.000Z</time>
      </trkpt>
      <trkpt lat="47.20488" lon="-1.5603">
        <ele>88.7</ele>
        <time>2012-07-23T17:15:18.000Z</time>
      </trkpt>
      <trkpt lat="47.20489" lon="-1.56023">
        <ele>88.9</ele>
        <time>2012-07-23T17:15:20.000Z</time>
      </trkpt>
      <trkpt lat="47.20491" lon="-1.56016">
        <ele>89.8</ele>
        <time>2012-07-23T17:15:22.000Z</time>
      </trkpt>
      <trkpt lat="47.20493" lon="-1.5601">
        <ele>91.3</ele>
        <time>2012-07-23T17:15:24.000Z</time>
      </trkpt>
      <trkpt lat="47.20492" lon="-1.55999">
        <ele>93.1</ele>
        <time>2012-07-23T17:15:26.000Z</time>
      </trkpt>
      <trkpt lat="47.20491" lon="-1.55992">
        <ele>92.6</ele>
        <time>2012-07-23T17:15:28.000Z</time>
      </trkpt>
      <trkpt lat="47.20488" lon="-1.55982">
        <ele>92.4</ele>
        <time>2012-07-23T17:15:30.000Z</time>
      </trkpt>
      <trkpt lat="47.20491" lon="-1.55975">
        <ele>97.4</ele>
        <time>2012-07-23T17:15:32.000Z</time>
      </trkpt>
      <trkpt lat="47.20488" lon="-1.55966">
        <ele>96</ele>
        <time>2012-07-23T17:15:36.000Z</time>
      </trkpt>
      <trkpt lat="47.20489" lon="-1.55959">
        <ele>89.5</ele>
        <time>2012-07-23T17:15:38.000Z</time>
      </trkpt>
      <trkpt lat="47.20491" lon="-1.5595">
        <ele>87.2</ele>
        <time>2012-07-23T17:15:40.000Z</time>
      </trkpt>
      <trkpt lat="47.20492" lon="-1.55942">
        <ele>87.1</ele>
        <time>2012-07-23T17:15:43.000Z</time>
      </trkpt>
      <trkpt lat="47.20496" lon="-1.55933">
        <ele>78.6</ele>
        <time>2012-07-23T17:15:45.000Z</time>
      </trkpt>
      <trkpt lat="47.20497" lon="-1.55926">
        <ele>76.8</ele>
        <time>2012-07-23T17:15:47.000Z</time>
      </trkpt>
      <trkpt lat="47.205" lon="-1.5592">
        <ele>75.4</ele>
        <time>2012-07-23T17:15:49.000Z</time>
      </trkpt>
      <trkpt lat="47.20501" lon="-1.55912">
        <ele>76.9</ele>
        <time>2012-07-23T17:15:52.000Z</time>
      </trkpt>
      <trkpt lat="47.20502" lon="-1.55902">
        <ele>80.2</ele>
        <time>2012-07-23T17:15:56.000Z</time>
      </trkpt>
      <trkpt lat="47.20501" lon="-1.55893">
        <ele>83.1</ele>
        <time>2012-07-23T17:15:59.000Z</time>
      </trkpt>
      <trkpt lat="47.20502" lon="-1.55885">
        <ele>85.4</ele>
        <time>2012-07-23T17:16:01.000Z</time>
      </trkpt>
      <trkpt lat="47.20503" lon="-1.55876">
        <ele>86.3</ele>
        <time>2012-07-23T17:16:04.000Z</time>
      </trkpt>
      <trkpt lat="47.20504" lon="-1.55869">
        <ele>87</ele>
        <time>2012-07-23T17:16:06.000Z</time>
      </trkpt>
      <trkpt lat="47.20505" lon="-1.5586">
        <ele>87.6</ele>
        <time>2012-07-23T17:16:08.000Z</time>
      </trkpt>
      <trkpt lat="47.20504" lon="-1.55848">
        <ele>87.7</ele>
        <time>2012-07-23T17:16:11.000Z</time>
      </trkpt>
      <trkpt lat="47.20503" lon="-1.55841">
        <ele>87</ele>
        <time>2012-07-23T17:16:13.000Z</time>
      </trkpt>
      <trkpt lat="47.20506" lon="-1.55832">
        <ele>86.7</ele>
        <time>2012-07-23T17:16:15.000Z</time>
      </trkpt>
      <trkpt lat="47.20507" lon="-1.55823">
        <ele>87.5</ele>
        <time>2012-07-23T17:16:17.000Z</time>
      </trkpt>
      <trkpt lat="47.20509" lon="-1.55813">
        <ele>87.1</ele>
        <time>2012-07-23T17:16:19.000Z</time>
      </trkpt>
      <trkpt lat="47.20514" lon="-1.55802">
        <ele>87.2</ele>
        <time>2012-07-23T17:16:22.000Z</time>
      </trkpt>
      <trkpt lat="47.20514" lon="-1.55795">
        <ele>88</ele>
        <time>2012-07-23T17:16:24.000Z</time>
      </trkpt>
      <trkpt lat="47.20514" lon="-1.55787">
        <ele>89.3</ele>
        <time>2012-07-23T17:16:27.000Z</time>
      </trkpt>
      <trkpt lat="47.20516" lon="-1.55781">
        <ele>89.3</ele>
        <time>2012-07-23T17:16:29.000Z</time>
      </trkpt>
      <trkpt lat="47.20518" lon="-1.55771">
        <ele>89.3</ele>
        <time>2012-07-23T17:16:31.000Z</time>
      </trkpt>
      <trkpt lat="47.20521" lon="-1.55762">
        <ele>89.8</ele>
        <time>2012-07-23T17:16:33.000Z</time>
      </trkpt>
      <trkpt lat="47.20521" lon="-1.55753">
        <ele>89.2</ele>
        <time>2012-07-23T17:16:35.000Z</time>
      </trkpt>
      <trkpt lat="47.20518" lon="-1.55745">
        <ele>89.4</ele>
        <time>2012-07-23T17:16:37.000Z</time>
      </trkpt>
      <trkpt lat="47.20521" lon="-1.55734">
        <ele>88.2</ele>
        <time>2012-07-23T17:16:40.000Z</time>
      </trkpt>
      <trkpt lat="47.20524" lon="-1.55728">
        <ele>88.1</ele>
        <time>2012-07-23T17:16:42.000Z</time>
      </trkpt>
      <trkpt lat="47.20528" lon="-1.55722">
        <ele>88.1</ele>
        <time>2012-07-23T17:16:44.000Z</time>
      </trkpt>
      <trkpt lat="47.20529" lon="-1.55713">
        <ele>86.4</ele>
        <time>2012-07-23T17:16:46.000Z</time>
      </trkpt>
      <trkpt lat="47.20533" lon="-1.55706">
        <ele>85.4</ele>
        <time>2012-07-23T17:16:48.000Z</time>
      </trkpt>
      <trkpt lat="47.20535" lon="-1.55696">
        <ele>82.7</ele>
        <time>2012-07-23T17:16:50.000Z</time>
      </trkpt>
      <trkpt lat="47.20538" lon="-1.5569">
        <ele>81.9</ele>
        <time>2012-07-23T17:16:51.000Z</time>
      </trkpt>
      <trkpt lat="47.20535" lon="-1.5568">
        <ele>80.4</ele>
        <time>2012-07-23T17:16:54.000Z</time>
      </trkpt>
      <trkpt lat="47.20543" lon="-1.55674">
        <ele>80</ele>
        <time>2012-07-23T17:16:56.000Z</time>
      </trkpt>
      <trkpt lat="47.20536" lon="-1.55666">
        <ele>78.9</ele>
        <time>2012-07-23T17:16:59.000Z</time>
      </trkpt>
      <trkpt lat="47.2053" lon="-1.5566">
        <ele>80</ele>
        <time>2012-07-23T17:17:01.000Z</time>
      </trkpt>
      <trkpt lat="47.20528" lon="-1.55652">
        <ele>83.2</ele>
        <time>2012-07-23T17:17:02.000Z</time>
      </trkpt>
      <trkpt lat="47.20524" lon="-1.55647">
        <ele>83.3</ele>
        <time>2012-07-23T17:17:04.000Z</time>
      </trkpt>
      <trkpt lat="47.20525" lon="-1.55638">
        <ele>85.7</ele>
        <time>2012-07-23T17:17:07.000Z</time>
      </trkpt>
      <trkpt lat="47.20528" lon="-1.55631">
        <ele>86.1</ele>
        <time>2012-07-23T17:17:09.000Z</time>
      </trkpt>
      <trkpt lat="47.20531" lon="-1.55625">
        <ele>86.5</ele>
        <time>2012-07-23T17:17:11.000Z</time>
      </trkpt>
      <trkpt lat="47.20533" lon="-1.55616">
        <ele>86</ele>
        <time>2012-07-23T17:17:14.000Z</time>
      </trkpt>
      <trkpt lat="47.20536" lon="-1.55606">
        <ele>85.9</ele>
        <time>2012-07-23T17:17:16.000Z</time>
      </trkpt>
      <trkpt lat="47.20537" lon="-1.55597">
        <ele>85.9</ele>
        <time>2012-07-23T17:17:18.000Z</time>
      </trkpt>
      <trkpt lat="47.20538" lon="-1.55588">
        <ele>86.3</ele>
        <time>2012-07-23T17:17:20.000Z</time>
      </trkpt>
      <trkpt lat="47.20535" lon="-1.55583">
        <ele>85.8</ele>
        <time>2012-07-23T17:17:22.000Z</time>
      </trkpt>
      <trkpt lat="47.20539" lon="-1.55574">
        <ele>84.9</ele>
        <time>2012-07-23T17:17:24.000Z</time>
      </trkpt>
      <trkpt lat="47.20541" lon="-1.55568">
        <ele>84</ele>
        <time>2012-07-23T17:17:26.000Z</time>
      </trkpt>
      <trkpt lat="47.20542" lon="-1.55559">
        <ele>86</ele>
        <time>2012-07-23T17:17:28.000Z</time>
      </trkpt>
      <trkpt lat="47.2054" lon="-1.55552">
        <ele>87</ele>
        <time>2012-07-23T17:17:30.000Z</time>
      </trkpt>
      <trkpt lat="47.20543" lon="-1.55545">
        <ele>86.6</ele>
        <time>2012-07-23T17:17:32.000Z</time>
      </trkpt>
      <trkpt lat="47.20538" lon="-1.55538">
        <ele>85.3</ele>
        <time>2012-07-23T17:17:34.000Z</time>
      </trkpt>
      <trkpt lat="47.20533" lon="-1.55532">
        <ele>84.7</ele>
        <time>2012-07-23T17:17:35.000Z</time>
      </trkpt>
      <trkpt lat="47.20527" lon="-1.55529">
        <ele>84.5</ele>
        <time>2012-07-23T17:17:37.000Z</time>
      </trkpt>
      <trkpt lat="47.20523" lon="-1.55522">
        <ele>83.6</ele>
        <time>2012-07-23T17:17:40.000Z</time>
      </trkpt>
      <trkpt lat="47.20516" lon="-1.55515">
        <ele>82.4</ele>
        <time>2012-07-23T17:17:42.000Z</time>
      </trkpt>
      <trkpt lat="47.20514" lon="-1.55504">
        <ele>82.8</ele>
        <time>2012-07-23T17:17:45.000Z</time>
      </trkpt>
      <trkpt lat="47.20509" lon="-1.55499">
        <ele>82.8</ele>
        <time>2012-07-23T17:17:47.000Z</time>
      </trkpt>
      <trkpt lat="47.20507" lon="-1.55491">
        <ele>82.6</ele>
        <time>2012-07-23T17:17:49.000Z</time>
      </trkpt>
      <trkpt lat="47.20501" lon="-1.55487">
        <ele>83.4</ele>
        <time>2012-07-23T17:17:51.000Z</time>
      </trkpt>
      <trkpt lat="47.20497" lon="-1.55482">
        <ele>84.4</ele>
        <time>2012-07-23T17:17:53.000Z</time>
      </trkpt>
      <trkpt lat="47.20504" lon="-1.55473">
        <ele>84.5</ele>
        <time>2012-07-23T17:17:55.000Z</time>
      </trkpt>
      <trkpt lat="47.20499" lon="-1.55468">
        <ele>81.2</ele>
        <time>2012-07-23T17:17:58.000Z</time>
      </trkpt>
      <trkpt lat="47.20498" lon="-1.55459">
        <ele>80.5</ele>
        <time>2012-07-23T17:18:01.000Z</time>
      </trkpt>
      <trkpt lat="47.20501" lon="-1.55452">
        <ele>80</ele>
        <time>2012-07-23T17:18:03.000Z</time>
      </trkpt>
      <trkpt lat="47.20506" lon="-1.55443">
        <ele>79.5</ele>
        <time>2012-07-23T17:18:05.000Z</time>
      </trkpt>
      <trkpt lat="47.20509" lon="-1.55437">
        <ele>79</ele>
        <time>2012-07-23T17:18:06.000Z</time>
      </trkpt>
      <trkpt lat="47.20509" lon="-1.55425">
        <ele>79.4</ele>
        <time>2012-07-23T17:18:08.000Z</time>
      </trkpt>
      <trkpt lat="47.2051" lon="-1.55417">
        <ele>79.6</ele>
        <time>2012-07-23T17:18:10.000Z</time>
      </trkpt>
      <trkpt lat="47.20511" lon="-1.55409">
        <ele>79.4</ele>
        <time>2012-07-23T17:18:12.000Z</time>
      </trkpt>
      <trkpt lat="47.20509" lon="-1.55398">
        <ele>77.9</ele>
        <time>2012-07-23T17:18:15.000Z</time>
      </trkpt>
      <trkpt lat="47.20504" lon="-1.55391">
        <ele>77.9</ele>
        <time>2012-07-23T17:18:17.000Z</time>
      </trkpt>
      <trkpt lat="47.20502" lon="-1.55386">
        <ele>77.2</ele>
        <time>2012-07-23T17:18:19.000Z</time>
      </trkpt>
      <trkpt lat="47.20504" lon="-1.55376">
        <ele>73.1</ele>
        <time>2012-07-23T17:18:21.000Z</time>
      </trkpt>
      <trkpt lat="47.20501" lon="-1.55371">
        <ele>73.4</ele>
        <time>2012-07-23T17:18:22.000Z</time>
      </trkpt>
      <trkpt lat="47.20494" lon="-1.55364">
        <ele>74.6</ele>
        <time>2012-07-23T17:18:24.000Z</time>
      </trkpt>
      <trkpt lat="47.20489" lon="-1.55357">
        <ele>75.2</ele>
        <time>2012-07-23T17:18:25.000Z</time>
      </trkpt>
      <trkpt lat="47.20485" lon="-1.5535">
        <ele>75.6</ele>
        <time>2012-07-23T17:18:26.000Z</time>
      </trkpt>
      <trkpt lat="47.2048" lon="-1.55342">
        <ele>78.9</ele>
        <time>2012-07-23T17:18:28.000Z</time>
      </trkpt>
      <trkpt lat="47.20476" lon="-1.55333">
        <ele>79.9</ele>
        <time>2012-07-23T17:18:30.000Z</time>
      </trkpt>
      <trkpt lat="47.20471" lon="-1.55329">
        <ele>81.5</ele>
        <time>2012-07-23T17:18:31.000Z</time>
      </trkpt>
      <trkpt lat="47.20466" lon="-1.55324">
        <ele>81.1</ele>
        <time>2012-07-23T17:18:33.000Z</time>
      </trkpt>
      <trkpt lat="47.2046" lon="-1.55326">
        <ele>85.1</ele>
        <time>2012-07-23T17:18:35.000Z</time>
      </trkpt>
      <trkpt lat="47.20454" lon="-1.55324">
        <ele>89.1</ele>
        <time>2012-07-23T17:18:37.000Z</time>
      </trkpt>
      <trkpt lat="47.20449" lon="-1.55322">
        <ele>89.4</ele>
        <time>2012-07-23T17:18:39.000Z</time>
      </trkpt>
      <trkpt lat="47.20449" lon="-1.55311">
        <ele>91.2</ele>
        <time>2012-07-23T17:18:43.000Z</time>
      </trkpt>
      <trkpt lat="47.20448" lon="-1.55302">
        <ele>90.8</ele>
        <time>2012-07-23T17:18:46.000Z</time>
      </trkpt>
      <trkpt lat="47.20443" lon="-1.55296">
        <ele>90.8</ele>
        <time>2012-07-23T17:18:48.000Z</time>
      </trkpt>
      <trkpt lat="47.20439" lon="-1.55288">
        <ele>91.4</ele>
        <time>2012-07-23T17:18:50.000Z</time>
      </trkpt>
      <trkpt lat="47.20435" lon="-1.55278">
        <ele>90.7</ele>
        <time>2012-07-23T17:18:52.000Z</time>
      </trkpt>
      <trkpt lat="47.20436" lon="-1.55269">
        <ele>91.1</ele>
        <time>2012-07-23T17:18:54.000Z</time>
      </trkpt>
      <trkpt lat="47.20433" lon="-1.55263">
        <ele>90.6</ele>
        <time>2012-07-23T17:18:57.000Z</time>
      </trkpt>
      <trkpt lat="47.20429" lon="-1.55255">
        <ele>90.3</ele>
        <time>2012-07-23T17:19:00.000Z</time>
      </trkpt>
      <trkpt lat="47.20428" lon="-1.55247">
        <ele>89.9</ele>
        <time>2012-07-23T17:19:04.000Z</time>
      </trkpt>
      <trkpt lat="47.20424" lon="-1.5524">
        <ele>89.3</ele>
        <time>2012-07-23T17:19:06.000Z</time>
      </trkpt>
      <trkpt lat="47.20422" lon="-1.55231">
        <ele>87.9</ele>
        <time>2012-07-23T17:19:08.000Z</time>
      </trkpt>
      <trkpt lat="47.20417" lon="-1.55227">
        <ele>87.2</ele>
        <time>2012-07-23T17:19:10.000Z</time>
      </trkpt>
      <trkpt lat="47.20415" lon="-1.55219">
        <ele>86.9</ele>
        <time>2012-07-23T17:19:12.000Z</time>
      </trkpt>
      <trkpt lat="47.20412" lon="-1.55212">
        <ele>86.8</ele>
        <time>2012-07-23T17:19:14.000Z</time>
      </trkpt>
      <trkpt lat="47.2041" lon="-1.55198">
        <ele>87.1</ele>
        <time>2012-07-23T17:19:17.000Z</time>
      </trkpt>
      <trkpt lat="47.20405" lon="-1.55189">
        <ele>86.1</ele>
        <time>2012-07-23T17:19:19.000Z</time>
      </trkpt>
      <trkpt lat="47.204" lon="-1.55181">
        <ele>86</ele>
        <time>2012-07-23T17:19:21.000Z</time>
      </trkpt>
      <trkpt lat="47.20395" lon="-1.55177">
        <ele>87.5</ele>
        <time>2012-07-23T17:19:23.000Z</time>
      </trkpt>
      <trkpt lat="47.2039" lon="-1.55172">
        <ele>87.7</ele>
        <time>2012-07-23T17:19:25.000Z</time>
      </trkpt>
      <trkpt lat="47.20386" lon="-1.55166">
        <ele>88.6</ele>
        <time>2012-07-23T17:19:27.000Z</time>
      </trkpt>
      <trkpt lat="47.20382" lon="-1.55164">
        <ele>90.3</ele>
        <time>2012-07-23T17:19:29.000Z</time>
      </trkpt>
      <trkpt lat="47.20377" lon="-1.55162">
        <ele>89.5</ele>
        <time>2012-07-23T17:19:31.000Z</time>
      </trkpt>
      <trkpt lat="47.20372" lon="-1.55161">
        <ele>89.7</ele>
        <time>2012-07-23T17:19:33.000Z</time>
      </trkpt>
      <trkpt lat="47.20367" lon="-1.55159">
        <ele>91.2</ele>
        <time>2012-07-23T17:19:41.000Z</time>
      </trkpt>
      <trkpt lat="47.20363" lon="-1.55167">
        <ele>92.7</ele>
        <time>2012-07-23T17:19:46.000Z</time>
      </trkpt>
      <trkpt lat="47.20359" lon="-1.55174">
        <ele>94.5</ele>
        <time>2012-07-23T17:19:51.000Z</time>
      </trkpt>
      <trkpt lat="47.20352" lon="-1.5518">
        <ele>94.9</ele>
        <time>2012-07-23T17:19:55.000Z</time>
      </trkpt>
      <trkpt lat="47.20343" lon="-1.5518">
        <ele>93.9</ele>
        <time>2012-07-23T17:19:57.000Z</time>
      </trkpt>
      <trkpt lat="47.20335" lon="-1.55181">
        <ele>93.3</ele>
        <time>2012-07-23T17:19:58.000Z</time>
      </trkpt>
      <trkpt lat="47.20327" lon="-1.55182">
        <ele>92.5</ele>
        <time>2012-07-23T17:19:59.000Z</time>
      </trkpt>
      <trkpt lat="47.2032" lon="-1.55183">
        <ele>91.7</ele>
        <time>2012-07-23T17:20:00.000Z</time>
      </trkpt>
      <trkpt lat="47.20313" lon="-1.55182">
        <ele>90.8</ele>
        <time>2012-07-23T17:20:01.000Z</time>
      </trkpt>
      <trkpt lat="47.20308" lon="-1.5518">
        <ele>90.6</ele>
        <time>2012-07-23T17:20:02.000Z</time>
      </trkpt>
      <trkpt lat="47.20302" lon="-1.55181">
        <ele>89.6</ele>
        <time>2012-07-23T17:20:03.000Z</time>
      </trkpt>
      <trkpt lat="47.20295" lon="-1.55182">
        <ele>87.3</ele>
        <time>2012-07-23T17:20:05.000Z</time>
      </trkpt>
      <trkpt lat="47.20286" lon="-1.5518">
        <ele>83.3</ele>
        <time>2012-07-23T17:20:08.000Z</time>
      </trkpt>
      <trkpt lat="47.20285" lon="-1.55174">
        <ele>80</ele>
        <time>2012-07-23T17:20:11.000Z</time>
      </trkpt>
      <trkpt lat="47.2028" lon="-1.55166">
        <ele>76.9</ele>
        <time>2012-07-23T17:20:14.000Z</time>
      </trkpt>
      <trkpt lat="47.20277" lon="-1.55161">
        <ele>74.7</ele>
        <time>2012-07-23T17:20:17.000Z</time>
      </trkpt>
      <trkpt lat="47.20273" lon="-1.55156">
        <ele>74.1</ele>
        <time>2012-07-23T17:20:19.000Z</time>
      </trkpt>
      <trkpt lat="47.20268" lon="-1.5515">
        <ele>72.7</ele>
        <time>2012-07-23T17:20:22.000Z</time>
      </trkpt>
      <trkpt lat="47.20264" lon="-1.55145">
        <ele>71.9</ele>
        <time>2012-07-23T17:20:24.000Z</time>
      </trkpt>
      <trkpt lat="47.20261" lon="-1.55141">
        <ele>70</ele>
        <time>2012-07-23T17:20:26.000Z</time>
      </trkpt>
      <trkpt lat="47.20256" lon="-1.55134">
        <ele>68.2</ele>
        <time>2012-07-23T17:20:29.000Z</time>
      </trkpt>
      <trkpt lat="47.20251" lon="-1.55128">
        <ele>67.6</ele>
        <time>2012-07-23T17:20:32.000Z</time>
      </trkpt>
      <trkpt lat="47.20248" lon="-1.55121">
        <ele>67.1</ele>
        <time>2012-07-23T17:20:34.000Z</time>
      </trkpt>
      <trkpt lat="47.20243" lon="-1.55118">
        <ele>66.9</ele>
        <time>2012-07-23T17:20:36.000Z</time>
      </trkpt>
      <trkpt lat="47.20241" lon="-1.5511">
        <ele>67.1</ele>
        <time>2012-07-23T17:20:39.000Z</time>
      </trkpt>
      <trkpt lat="47.20236" lon="-1.55105">
        <ele>66.9</ele>
        <time>2012-07-23T17:20:41.000Z</time>
      </trkpt>
      <trkpt lat="47.20233" lon="-1.551">
        <ele>66.5</ele>
        <time>2012-07-23T17:20:43.000Z</time>
      </trkpt>
      <trkpt lat="47.20229" lon="-1.55093">
        <ele>65.9</ele>
        <time>2012-07-23T17:20:46.000Z</time>
      </trkpt>
      <trkpt lat="47.20226" lon="-1.55088">
        <ele>65.8</ele>
        <time>2012-07-23T17:20:48.000Z</time>
      </trkpt>
      <trkpt lat="47.20222" lon="-1.55081">
        <ele>65</ele>
        <time>2012-07-23T17:20:51.000Z</time>
      </trkpt>
      <trkpt lat="47.20218" lon="-1.55076">
        <ele>63.8</ele>
        <time>2012-07-23T17:20:53.000Z</time>
      </trkpt>
      <trkpt lat="47.20215" lon="-1.5507">
        <ele>64.5</ele>
        <time>2012-07-23T17:20:55.000Z</time>
      </trkpt>
      <trkpt lat="47.2021" lon="-1.55066">
        <ele>64.8</ele>
        <time>2012-07-23T17:20:57.000Z</time>
      </trkpt>
      <trkpt lat="47.20205" lon="-1.55059">
        <ele>65.3</ele>
        <time>2012-07-23T17:21:00.000Z</time>
      </trkpt>
      <trkpt lat="47.20202" lon="-1.55055">
        <ele>64.9</ele>
        <time>2012-07-23T17:21:02.000Z</time>
      </trkpt>
      <trkpt lat="47.20198" lon="-1.55048">
        <ele>64.3</ele>
        <time>2012-07-23T17:21:05.000Z</time>
      </trkpt>
      <trkpt lat="47.20195" lon="-1.55043">
        <ele>64.5</ele>
        <time>2012-07-23T17:21:07.000Z</time>
      </trkpt>
      <trkpt lat="47.20194" lon="-1.55035">
        <ele>65.4</ele>
        <time>2012-07-23T17:21:10.000Z</time>
      </trkpt>
      <trkpt lat="47.2019" lon="-1.55028">
        <ele>64.8</ele>
        <time>2012-07-23T17:21:14.000Z</time>
      </trkpt>
      <trkpt lat="47.20189" lon="-1.55021">
        <ele>65.9</ele>
        <time>2012-07-23T17:21:16.000Z</time>
      </trkpt>
      <trkpt lat="47.20184" lon="-1.55017">
        <ele>65.8</ele>
        <time>2012-07-23T17:21:18.000Z</time>
      </trkpt>
      <trkpt lat="47.20181" lon="-1.5501">
        <ele>65.8</ele>
        <time>2012-07-23T17:21:20.000Z</time>
      </trkpt>
      <trkpt lat="47.20177" lon="-1.55003">
        <ele>66.6</ele>
        <time>2012-07-23T17:21:22.000Z</time>
      </trkpt>
      <trkpt lat="47.20175" lon="-1.54993">
        <ele>67.3</ele>
        <time>2012-07-23T17:21:24.000Z</time>
      </trkpt>
      <trkpt lat="47.20174" lon="-1.54986">
        <ele>68</ele>
        <time>2012-07-23T17:21:26.000Z</time>
      </trkpt>
      <trkpt lat="47.20169" lon="-1.54976">
        <ele>63.6</ele>
        <time>2012-07-23T17:21:29.000Z</time>
      </trkpt>
      <trkpt lat="47.20167" lon="-1.5497">
        <ele>62.5</ele>
        <time>2012-07-23T17:21:31.000Z</time>
      </trkpt>
      <trkpt lat="47.20164" lon="-1.54961">
        <ele>66.9</ele>
        <time>2012-07-23T17:21:33.000Z</time>
      </trkpt>
      <trkpt lat="47.20164" lon="-1.54952">
        <ele>71.2</ele>
        <time>2012-07-23T17:21:35.000Z</time>
      </trkpt>
      <trkpt lat="47.2016" lon="-1.54942">
        <ele>73.5</ele>
        <time>2012-07-23T17:21:38.000Z</time>
      </trkpt>
      <trkpt lat="47.2016" lon="-1.54934">
        <ele>75.9</ele>
        <time>2012-07-23T17:21:41.000Z</time>
      </trkpt>
      <trkpt lat="47.2016" lon="-1.54923">
        <ele>76.3</ele>
        <time>2012-07-23T17:21:44.000Z</time>
      </trkpt>
      <trkpt lat="47.2016" lon="-1.54915">
        <ele>77.8</ele>
        <time>2012-07-23T17:21:46.000Z</time>
      </trkpt>
      <trkpt lat="47.2016" lon="-1.54907">
        <ele>79.2</ele>
        <time>2012-07-23T17:21:48.000Z</time>
      </trkpt>
      <trkpt lat="47.20159" lon="-1.549">
        <ele>79.7</ele>
        <time>2012-07-23T17:21:50.000Z</time>
      </trkpt>
      <trkpt lat="47.20158" lon="-1.54893">
        <ele>79.6</ele>
        <time>2012-07-23T17:21:52.000Z</time>
      </trkpt>
      <trkpt lat="47.20156" lon="-1.54884">
        <ele>79.1</ele>
        <time>2012-07-23T17:21:54.000Z</time>
      </trkpt>
      <trkpt lat="47.20152" lon="-1.54878">
        <ele>79.8</ele>
        <time>2012-07-23T17:21:56.000Z</time>
      </trkpt>
      <trkpt lat="47.20145" lon="-1.54878">
        <ele>80.9</ele>
        <time>2012-07-23T17:21:58.000Z</time>
      </trkpt>
      <trkpt lat="47.20139" lon="-1.54881">
        <ele>81.6</ele>
        <time>2012-07-23T17:22:00.000Z</time>
      </trkpt>
      <trkpt lat="47.20133" lon="-1.54887">
        <ele>81.8</ele>
        <time>2012-07-23T17:22:03.000Z</time>
      </trkpt>
      <trkpt lat="47.20124" lon="-1.54892">
        <ele>82.1</ele>
        <time>2012-07-23T17:22:06.000Z</time>
      </trkpt>
      <trkpt lat="47.2012" lon="-1.54895">
        <ele>80.8</ele>
        <time>2012-07-23T17:22:08.000Z</time>
      </trkpt>
      <trkpt lat="47.20121" lon="-1.54904">
        <ele>78.8</ele>
        <time>2012-07-23T17:22:10.000Z</time>
      </trkpt>
      <trkpt lat="47.20116" lon="-1.5491">
        <ele>74.4</ele>
        <time>2012-07-23T17:22:15.000Z</time>
      </trkpt>
      <trkpt lat="47.20111" lon="-1.54914">
        <ele>74.2</ele>
        <time>2012-07-23T17:22:22.000Z</time>
      </trkpt>
      <trkpt lat="47.20107" lon="-1.54916">
        <ele>71</ele>
        <time>2012-07-23T17:22:48.000Z</time>
      </trkpt>
      <trkpt lat="47.20102" lon="-1.5492">
        <ele>70.3</ele>
        <time>2012-07-23T17:22:52.000Z</time>
      </trkpt>
      <trkpt lat="47.20097" lon="-1.54923">
        <ele>70.9</ele>
        <time>2012-07-23T17:22:55.000Z</time>
      </trkpt>
      <trkpt lat="47.20092" lon="-1.54926">
        <ele>71.8</ele>
        <time>2012-07-23T17:22:57.000Z</time>
      </trkpt>
      <trkpt lat="47.20087" lon="-1.5493">
        <ele>72.5</ele>
        <time>2012-07-23T17:22:59.000Z</time>
      </trkpt>
      <trkpt lat="47.20081" lon="-1.54932">
        <ele>71.1</ele>
        <time>2012-07-23T17:23:02.000Z</time>
      </trkpt>
      <trkpt lat="47.20074" lon="-1.5494">
        <ele>72.9</ele>
        <time>2012-07-23T17:23:04.000Z</time>
      </trkpt>
      <trkpt lat="47.20067" lon="-1.54945">
        <ele>72.4</ele>
        <time>2012-07-23T17:23:06.000Z</time>
      </trkpt>
      <trkpt lat="47.2006" lon="-1.5495">
        <ele>74.4</ele>
        <time>2012-07-23T17:23:08.000Z</time>
      </trkpt>
      <trkpt lat="47.20055" lon="-1.54953">
        <ele>75.6</ele>
        <time>2012-07-23T17:23:10.000Z</time>
      </trkpt>
      <trkpt lat="47.2005" lon="-1.54953">
        <ele>76.6</ele>
        <time>2012-07-23T17:23:12.000Z</time>
      </trkpt>
      <trkpt lat="47.20045" lon="-1.54952">
        <ele>76.6</ele>
        <time>2012-07-23T17:23:14.000Z</time>
      </trkpt>
      <trkpt lat="47.2004" lon="-1.54955">
        <ele>78.4</ele>
        <time>2012-07-23T17:23:16.000Z</time>
      </trkpt>
      <trkpt lat="47.20035" lon="-1.54956">
        <ele>78.5</ele>
        <time>2012-07-23T17:23:18.000Z</time>
      </trkpt>
      <trkpt lat="47.20028" lon="-1.54957">
        <ele>78.6</ele>
        <time>2012-07-23T17:23:21.000Z</time>
      </trkpt>
      <trkpt lat="47.20023" lon="-1.54957">
        <ele>79.4</ele>
        <time>2012-07-23T17:23:23.000Z</time>
      </trkpt>
      <trkpt lat="47.20017" lon="-1.54957">
        <ele>80.1</ele>
        <time>2012-07-23T17:23:25.000Z</time>
      </trkpt>
      <trkpt lat="47.20011" lon="-1.54956">
        <ele>81</ele>
        <time>2012-07-23T17:23:27.000Z</time>
      </trkpt>
      <trkpt lat="47.20006" lon="-1.54957">
        <ele>82.2</ele>
        <time>2012-07-23T17:23:29.000Z</time>
      </trkpt>
      <trkpt lat="47.2" lon="-1.54959">
        <ele>80.4</ele>
        <time>2012-07-23T17:23:32.000Z</time>
      </trkpt>
      <trkpt lat="47.19996" lon="-1.5496">
        <ele>81.1</ele>
        <time>2012-07-23T17:23:34.000Z</time>
      </trkpt>
      <trkpt lat="47.1999" lon="-1.54961">
        <ele>81.3</ele>
        <time>2012-07-23T17:23:36.000Z</time>
      </trkpt>
      <trkpt lat="47.19983" lon="-1.54962">
        <ele>81.4</ele>
        <time>2012-07-23T17:23:38.000Z</time>
      </trkpt>
      <trkpt lat="47.19975" lon="-1.54962">
        <ele>81.3</ele>
        <time>2012-07-23T17:23:41.000Z</time>
      </trkpt>
      <trkpt lat="47.1997" lon="-1.54962">
        <ele>80.5</ele>
        <time>2012-07-23T17:23:43.000Z</time>
      </trkpt>
      <trkpt lat="47.19962" lon="-1.54962">
        <ele>78.1</ele>
        <time>2012-07-23T17:23:46.000Z</time>
      </trkpt>
      <trkpt lat="47.19957" lon="-1.54961">
        <ele>77.3</ele>
        <time>2012-07-23T17:23:48.000Z</time>
      </trkpt>
      <trkpt lat="47.19952" lon="-1.54962">
        <ele>76.5</ele>
        <time>2012-07-23T17:23:50.000Z</time>
      </trkpt>
      <trkpt lat="47.19946" lon="-1.54962">
        <ele>75.6</ele>
        <time>2012-07-23T17:23:53.000Z</time>
      </trkpt>
      <trkpt lat="47.19941" lon="-1.54962">
        <ele>74.9</ele>
        <time>2012-07-23T17:23:55.000Z</time>
      </trkpt>
      <trkpt lat="47.19935" lon="-1.54964">
        <ele>77.3</ele>
        <time>2012-07-23T17:23:58.000Z</time>
      </trkpt>
      <trkpt lat="47.1993" lon="-1.54965">
        <ele>79</ele>
        <time>2012-07-23T17:24:01.000Z</time>
      </trkpt>
      <trkpt lat="47.19925" lon="-1.54966">
        <ele>79</ele>
        <time>2012-07-23T17:24:03.000Z</time>
      </trkpt>
      <trkpt lat="47.1992" lon="-1.54966">
        <ele>78</ele>
        <time>2012-07-23T17:24:05.000Z</time>
      </trkpt>
      <trkpt lat="47.19914" lon="-1.54969">
        <ele>71.2</ele>
        <time>2012-07-23T17:24:07.000Z</time>
      </trkpt>
      <trkpt lat="47.19909" lon="-1.54971">
        <ele>67.6</ele>
        <time>2012-07-23T17:24:10.000Z</time>
      </trkpt>
      <trkpt lat="47.19903" lon="-1.54972">
        <ele>66.4</ele>
        <time>2012-07-23T17:24:13.000Z</time>
      </trkpt>
      <trkpt lat="47.19897" lon="-1.54973">
        <ele>66.3</ele>
        <time>2012-07-23T17:24:17.000Z</time>
      </trkpt>
      <trkpt lat="47.19892" lon="-1.54971">
        <ele>66.4</ele>
        <time>2012-07-23T17:24:20.000Z</time>
      </trkpt>
      <trkpt lat="47.19886" lon="-1.54972">
        <ele>68.1</ele>
        <time>2012-07-23T17:24:24.000Z</time>
      </trkpt>
      <trkpt lat="47.19881" lon="-1.54972">
        <ele>68.3</ele>
        <time>2012-07-23T17:24:27.000Z</time>
      </trkpt>
      <trkpt lat="47.19876" lon="-1.54972">
        <ele>68.9</ele>
        <time>2012-07-23T17:24:29.000Z</time>
      </trkpt>
      <trkpt lat="47.19871" lon="-1.54974">
        <ele>69.1</ele>
        <time>2012-07-23T17:24:30.000Z</time>
      </trkpt>
      <trkpt lat="47.19864" lon="-1.54972">
        <ele>69.8</ele>
        <time>2012-07-23T17:24:32.000Z</time>
      </trkpt>
      <trkpt lat="47.19858" lon="-1.54971">
        <ele>69.9</ele>
        <time>2012-07-23T17:24:34.000Z</time>
      </trkpt>
      <trkpt lat="47.19853" lon="-1.54969">
        <ele>70.4</ele>
        <time>2012-07-23T17:24:38.000Z</time>
      </trkpt>
      <trkpt lat="47.19846" lon="-1.5497">
        <ele>71.9</ele>
        <time>2012-07-23T17:24:40.000Z</time>
      </trkpt>
      <trkpt lat="47.19841" lon="-1.54967">
        <ele>72.4</ele>
        <time>2012-07-23T17:24:44.000Z</time>
      </trkpt>
      <trkpt lat="47.19833" lon="-1.54967">
        <ele>80.2</ele>
        <time>2012-07-23T17:24:46.000Z</time>
      </trkpt>
      <trkpt lat="47.19825" lon="-1.54969">
        <ele>81.9</ele>
        <time>2012-07-23T17:24:48.000Z</time>
      </trkpt>
      <trkpt lat="47.19821" lon="-1.5497">
        <ele>79.3</ele>
        <time>2012-07-23T17:24:50.000Z</time>
      </trkpt>
      <trkpt lat="47.19815" lon="-1.5497">
        <ele>80.4</ele>
        <time>2012-07-23T17:24:53.000Z</time>
      </trkpt>
      <trkpt lat="47.19809" lon="-1.5497">
        <ele>83.8</ele>
        <time>2012-07-23T17:24:55.000Z</time>
      </trkpt>
      <trkpt lat="47.19804" lon="-1.54969">
        <ele>84.9</ele>
        <time>2012-07-23T17:24:57.000Z</time>
      </trkpt>
      <trkpt lat="47.19799" lon="-1.54969">
        <ele>86.3</ele>
        <time>2012-07-23T17:24:59.000Z</time>
      </trkpt>
      <trkpt lat="47.19793" lon="-1.5497">
        <ele>87.5</ele>
        <time>2012-07-23T17:25:00.000Z</time>
      </trkpt>
      <trkpt lat="47.19788" lon="-1.5497">
        <ele>88.6</ele>
        <time>2012-07-23T17:25:02.000Z</time>
      </trkpt>
      <trkpt lat="47.19782" lon="-1.54967">
        <ele>85.9</ele>
        <time>2012-07-23T17:25:06.000Z</time>
      </trkpt>
      <trkpt lat="47.19777" lon="-1.54965">
        <ele>85.9</ele>
        <time>2012-07-23T17:25:09.000Z</time>
      </trkpt>
      <trkpt lat="47.19772" lon="-1.54966">
        <ele>84.6</ele>
        <time>2012-07-23T17:25:13.000Z</time>
      </trkpt>
      <trkpt lat="47.19767" lon="-1.54965">
        <ele>83.7</ele>
        <time>2012-07-23T17:25:15.000Z</time>
      </trkpt>
      <trkpt lat="47.1976" lon="-1.54967">
        <ele>84</ele>
        <time>2012-07-23T17:25:17.000Z</time>
      </trkpt>
      <trkpt lat="47.19756" lon="-1.54968">
        <ele>83.3</ele>
        <time>2012-07-23T17:25:18.000Z</time>
      </trkpt>
      <trkpt lat="47.19749" lon="-1.54968">
        <ele>82.7</ele>
        <time>2012-07-23T17:25:20.000Z</time>
      </trkpt>
      <trkpt lat="47.19744" lon="-1.54966">
        <ele>83.5</ele>
        <time>2012-07-23T17:25:22.000Z</time>
      </trkpt>
      <trkpt lat="47.19738" lon="-1.54967">
        <ele>81.8</ele>
        <time>2012-07-23T17:25:25.000Z</time>
      </trkpt>
      <trkpt lat="47.19725" lon="-1.54968">
        <ele>82.5</ele>
        <time>2012-07-23T17:25:28.000Z</time>
      </trkpt>
      <trkpt lat="47.19717" lon="-1.54969">
        <ele>81.9</ele>
        <time>2012-07-23T17:25:30.000Z</time>
      </trkpt>
      <trkpt lat="47.1971" lon="-1.54968">
        <ele>81.7</ele>
        <time>2012-07-23T17:25:32.000Z</time>
      </trkpt>
      <trkpt lat="47.19703" lon="-1.54968">
        <ele>80.8</ele>
        <time>2012-07-23T17:25:34.000Z</time>
      </trkpt>
      <trkpt lat="47.19697" lon="-1.54966">
        <ele>82.1</ele>
        <time>2012-07-23T17:25:36.000Z</time>
      </trkpt>
      <trkpt lat="47.1969" lon="-1.54966">
        <ele>82.1</ele>
        <time>2012-07-23T17:25:38.000Z</time>
      </trkpt>
      <trkpt lat="47.19684" lon="-1.54967">
        <ele>80.9</ele>
        <time>2012-07-23T17:25:40.000Z</time>
      </trkpt>
      <trkpt lat="47.19679" lon="-1.54968">
        <ele>79.2</ele>
        <time>2012-07-23T17:25:42.000Z</time>
      </trkpt>
      <trkpt lat="47.19679" lon="-1.54975">
        <ele>76</ele>
        <time>2012-07-23T17:25:46.000Z</time>
      </trkpt>
      <trkpt lat="47.19679" lon="-1.54982">
        <ele>71.8</ele>
        <time>2012-07-23T17:25:52.000Z</time>
      </trkpt>
      <trkpt lat="47.19682" lon="-1.54989">
        <ele>69.6</ele>
        <time>2012-07-23T17:25:56.000Z</time>
      </trkpt>
      <trkpt lat="47.19686" lon="-1.54992">
        <ele>69</ele>
        <time>2012-07-23T17:25:59.000Z</time>
      </trkpt>
      <trkpt lat="47.19692" lon="-1.54991">
        <ele>68.8</ele>
        <time>2012-07-23T17:26:02.000Z</time>
      </trkpt>
      <trkpt lat="47.19697" lon="-1.54991">
        <ele>68.7</ele>
        <time>2012-07-23T17:26:04.000Z</time>
      </trkpt>
      <trkpt lat="47.19702" lon="-1.54988">
        <ele>68.3</ele>
        <time>2012-07-23T17:26:06.000Z</time>
      </trkpt>
      <trkpt lat="47.19705" lon="-1.54982">
        <ele>68</ele>
        <time>2012-07-23T17:26:09.000Z</time>
      </trkpt>
      <trkpt lat="47.1971" lon="-1.54967">
        <ele>68.2</ele>
        <time>2012-07-23T17:26:12.000Z</time>
      </trkpt>
      <trkpt lat="47.19711" lon="-1.54959">
        <ele>67.6</ele>
        <time>2012-07-23T17:26:13.000Z</time>
      </trkpt>
      <trkpt lat="47.1971" lon="-1.54952">
        <ele>67</ele>
        <time>2012-07-23T17:26:15.000Z</time>
      </trkpt>
      <trkpt lat="47.19696" lon="-1.54959">
        <ele>61.5</ele>
        <time>2012-07-23T17:26:17.000Z</time>
      </trkpt>
      <trkpt lat="47.19692" lon="-1.54955">
        <ele>59.9</ele>
        <time>2012-07-23T17:26:19.000Z</time>
      </trkpt>
      <trkpt lat="47.19685" lon="-1.54955">
        <ele>59.3</ele>
        <time>2012-07-23T17:26:22.000Z</time>
      </trkpt>
      <trkpt lat="47.1968" lon="-1.54956">
        <ele>58.2</ele>
        <time>2012-07-23T17:26:24.000Z</time>
      </trkpt>
      <trkpt lat="47.19675" lon="-1.5495">
        <ele>56.1</ele>
        <time>2012-07-23T17:26:26.000Z</time>
      </trkpt>
      <trkpt lat="47.1967" lon="-1.54945">
        <ele>54.6</ele>
        <time>2012-07-23T17:26:28.000Z</time>
      </trkpt>
      <trkpt lat="47.19667" lon="-1.54939">
        <ele>53.8</ele>
        <time>2012-07-23T17:26:30.000Z</time>
      </trkpt>
      <trkpt lat="47.19667" lon="-1.54932">
        <ele>53.7</ele>
        <time>2012-07-23T17:26:32.000Z</time>
      </trkpt>
      <trkpt lat="47.19667" lon="-1.54922">
        <ele>53.9</ele>
        <time>2012-07-23T17:26:35.000Z</time>
      </trkpt>
      <trkpt lat="47.1967" lon="-1.54913">
        <ele>53.6</ele>
        <time>2012-07-23T17:26:37.000Z</time>
      </trkpt>
      <trkpt lat="47.19673" lon="-1.54904">
        <ele>53.4</ele>
        <time>2012-07-23T17:26:40.000Z</time>
      </trkpt>
      <trkpt lat="47.19677" lon="-1.54897">
        <ele>53.8</ele>
        <time>2012-07-23T17:26:42.000Z</time>
      </trkpt>
      <trkpt lat="47.19682" lon="-1.54889">
        <ele>53.4</ele>
        <time>2012-07-23T17:26:44.000Z</time>
      </trkpt>
      <trkpt lat="47.19682" lon="-1.5488">
        <ele>54</ele>
        <time>2012-07-23T17:26:46.000Z</time>
      </trkpt>
      <trkpt lat="47.1968" lon="-1.54871">
        <ele>53.7</ele>
        <time>2012-07-23T17:26:48.000Z</time>
      </trkpt>
      <trkpt lat="47.19679" lon="-1.54863">
        <ele>54</ele>
        <time>2012-07-23T17:26:50.000Z</time>
      </trkpt>
      <trkpt lat="47.19677" lon="-1.54855">
        <ele>53.8</ele>
        <time>2012-07-23T17:26:52.000Z</time>
      </trkpt>
      <trkpt lat="47.19676" lon="-1.54846">
        <ele>54.1</ele>
        <time>2012-07-23T17:26:54.000Z</time>
      </trkpt>
      <trkpt lat="47.19674" lon="-1.54837">
        <ele>54.3</ele>
        <time>2012-07-23T17:26:57.000Z</time>
      </trkpt>
      <trkpt lat="47.19673" lon="-1.5483">
        <ele>54.4</ele>
        <time>2012-07-23T17:26:59.000Z</time>
      </trkpt>
      <trkpt lat="47.19673" lon="-1.5482">
        <ele>54.9</ele>
        <time>2012-07-23T17:27:02.000Z</time>
      </trkpt>
      <trkpt lat="47.19673" lon="-1.54811">
        <ele>54.7</ele>
        <time>2012-07-23T17:27:04.000Z</time>
      </trkpt>
      <trkpt lat="47.19672" lon="-1.54801">
        <ele>55.2</ele>
        <time>2012-07-23T17:27:06.000Z</time>
      </trkpt>
      <trkpt lat="47.19668" lon="-1.54795">
        <ele>55.3</ele>
        <time>2012-07-23T17:27:08.000Z</time>
      </trkpt>
      <trkpt lat="47.19665" lon="-1.54789">
        <ele>55.3</ele>
        <time>2012-07-23T17:27:10.000Z</time>
      </trkpt>
      <trkpt lat="47.19662" lon="-1.54781">
        <ele>55.1</ele>
        <time>2012-07-23T17:27:12.000Z</time>
      </trkpt>
      <trkpt lat="47.19658" lon="-1.54776">
        <ele>53.5</ele>
        <time>2012-07-23T17:27:14.000Z</time>
      </trkpt>
      <trkpt lat="47.19655" lon="-1.54769">
        <ele>53.3</ele>
        <time>2012-07-23T17:27:16.000Z</time>
      </trkpt>
      <trkpt lat="47.19651" lon="-1.54761">
        <ele>54.9</ele>
        <time>2012-07-23T17:27:19.000Z</time>
      </trkpt>
      <trkpt lat="47.19648" lon="-1.54756">
        <ele>55.7</ele>
        <time>2012-07-23T17:27:21.000Z</time>
      </trkpt>
      <trkpt lat="47.19645" lon="-1.54748">
        <ele>55.4</ele>
        <time>2012-07-23T17:27:23.000Z</time>
      </trkpt>
      <trkpt lat="47.1964" lon="-1.54742">
        <ele>55.4</ele>
        <time>2012-07-23T17:27:25.000Z</time>
      </trkpt>
      <trkpt lat="47.19634" lon="-1.54738">
        <ele>55.7</ele>
        <time>2012-07-23T17:27:27.000Z</time>
      </trkpt>
      <trkpt lat="47.19633" lon="-1.5473">
        <ele>56.8</ele>
        <time>2012-07-23T17:27:29.000Z</time>
      </trkpt>
      <trkpt lat="47.19628" lon="-1.54726">
        <ele>57.1</ele>
        <time>2012-07-23T17:27:32.000Z</time>
      </trkpt>
      <trkpt lat="47.19622" lon="-1.54725">
        <ele>57.3</ele>
        <time>2012-07-23T17:27:35.000Z</time>
      </trkpt>
      <trkpt lat="47.19614" lon="-1.54723">
        <ele>58.1</ele>
        <time>2012-07-23T17:27:38.000Z</time>
      </trkpt>
      <trkpt lat="47.19608" lon="-1.54717">
        <ele>57</ele>
        <time>2012-07-23T17:27:41.000Z</time>
      </trkpt>
      <trkpt lat="47.19603" lon="-1.54711">
        <ele>55.8</ele>
        <time>2012-07-23T17:27:43.000Z</time>
      </trkpt>
      <trkpt lat="47.19601" lon="-1.54701">
        <ele>55</ele>
        <time>2012-07-23T17:27:45.000Z</time>
      </trkpt>
      <trkpt lat="47.19596" lon="-1.54695">
        <ele>53.5</ele>
        <time>2012-07-23T17:27:46.000Z</time>
      </trkpt>
      <trkpt lat="47.19594" lon="-1.54688">
        <ele>53.1</ele>
        <time>2012-07-23T17:27:48.000Z</time>
      </trkpt>
      <trkpt lat="47.19591" lon="-1.54681">
        <ele>53.9</ele>
        <time>2012-07-23T17:27:50.000Z</time>
      </trkpt>
      <trkpt lat="47.19588" lon="-1.54674">
        <ele>54.2</ele>
        <time>2012-07-23T17:27:52.000Z</time>
      </trkpt>
      <trkpt lat="47.19585" lon="-1.54667">
        <ele>52.9</ele>
        <time>2012-07-23T17:27:54.000Z</time>
      </trkpt>
      <trkpt lat="47.19581" lon="-1.54661">
        <ele>52.9</ele>
        <time>2012-07-23T17:27:56.000Z</time>
      </trkpt>
      <trkpt lat="47.19575" lon="-1.54656">
        <ele>55.2</ele>
        <time>2012-07-23T17:27:58.000Z</time>
      </trkpt>
      <trkpt lat="47.19574" lon="-1.54649">
        <ele>49.7</ele>
        <time>2012-07-23T17:28:02.000Z</time>
      </trkpt>
      <trkpt lat="47.19571" lon="-1.5464">
        <ele>50.4</ele>
        <time>2012-07-23T17:28:05.000Z</time>
      </trkpt>
      <trkpt lat="47.19567" lon="-1.54634">
        <ele>50.8</ele>
        <time>2012-07-23T17:28:07.000Z</time>
      </trkpt>
      <trkpt lat="47.19564" lon="-1.54626">
        <ele>49.1</ele>
        <time>2012-07-23T17:28:10.000Z</time>
      </trkpt>
      <trkpt lat="47.1956" lon="-1.54631">
        <ele>49.8</ele>
        <time>2012-07-23T17:28:16.000Z</time>
      </trkpt>
      <trkpt lat="47.19552" lon="-1.54626">
        <ele>52.9</ele>
        <time>2012-07-23T17:28:18.000Z</time>
      </trkpt>
      <trkpt lat="47.19548" lon="-1.5462">
        <ele>53.6</ele>
        <time>2012-07-23T17:28:21.000Z</time>
      </trkpt>
      <trkpt lat="47.19544" lon="-1.54613">
        <ele>52.3</ele>
        <time>2012-07-23T17:28:24.000Z</time>
      </trkpt>
      <trkpt lat="47.19541" lon="-1.54606">
        <ele>52.5</ele>
        <time>2012-07-23T17:28:27.000Z</time>
      </trkpt>
      <trkpt lat="47.19536" lon="-1.54597">
        <ele>53.2</ele>
        <time>2012-07-23T17:28:30.000Z</time>
      </trkpt>
      <trkpt lat="47.19534" lon="-1.5459">
        <ele>56.3</ele>
        <time>2012-07-23T17:28:32.000Z</time>
      </trkpt>
      <trkpt lat="47.19531" lon="-1.54584">
        <ele>55.6</ele>
        <time>2012-07-23T17:28:35.000Z</time>
      </trkpt>
      <trkpt lat="47.19528" lon="-1.54579">
        <ele>56.2</ele>
        <time>2012-07-23T17:28:37.000Z</time>
      </trkpt>
      <trkpt lat="47.19524" lon="-1.54574">
        <ele>56.1</ele>
        <time>2012-07-23T17:28:39.000Z</time>
      </trkpt>
      <trkpt lat="47.19519" lon="-1.54568">
        <ele>56.7</ele>
        <time>2012-07-23T17:28:42.000Z</time>
      </trkpt>
      <trkpt lat="47.19514" lon="-1.54562">
        <ele>56.5</ele>
        <time>2012-07-23T17:28:45.000Z</time>
      </trkpt>
      <trkpt lat="47.1951" lon="-1.54558">
        <ele>54.2</ele>
        <time>2012-07-23T17:28:47.000Z</time>
      </trkpt>
      <trkpt lat="47.19506" lon="-1.54553">
        <ele>53.5</ele>
        <time>2012-07-23T17:28:49.000Z</time>
      </trkpt>
      <trkpt lat="47.19501" lon="-1.54546">
        <ele>55.5</ele>
        <time>2012-07-23T17:28:52.000Z</time>
      </trkpt>
      <trkpt lat="47.19496" lon="-1.5454">
        <ele>55</ele>
        <time>2012-07-23T17:28:55.000Z</time>
      </trkpt>
      <trkpt lat="47.19491" lon="-1.54533">
        <ele>55</ele>
        <time>2012-07-23T17:28:58.000Z</time>
      </trkpt>
      <trkpt lat="47.19487" lon="-1.54527">
        <ele>55.3</ele>
        <time>2012-07-23T17:29:01.000Z</time>
      </trkpt>
      <trkpt lat="47.19485" lon="-1.54519">
        <ele>55</ele>
        <time>2012-07-23T17:29:05.000Z</time>
      </trkpt>
      <trkpt lat="47.19482" lon="-1.54512">
        <ele>54.9</ele>
        <time>2012-07-23T17:29:08.000Z</time>
      </trkpt>
      <trkpt lat="47.19479" lon="-1.54503">
        <ele>55.2</ele>
        <time>2012-07-23T17:29:11.000Z</time>
      </trkpt>
      <trkpt lat="47.19478" lon="-1.54497">
        <ele>55.5</ele>
        <time>2012-07-23T17:29:13.000Z</time>
      </trkpt>
      <trkpt lat="47.19476" lon="-1.54488">
        <ele>55.3</ele>
        <time>2012-07-23T17:29:16.000Z</time>
      </trkpt>
      <trkpt lat="47.19475" lon="-1.54481">
        <ele>55.7</ele>
        <time>2012-07-23T17:29:18.000Z</time>
      </trkpt>
      <trkpt lat="47.19473" lon="-1.54474">
        <ele>56.1</ele>
        <time>2012-07-23T17:29:20.000Z</time>
      </trkpt>
      <trkpt lat="47.19471" lon="-1.54466">
        <ele>54.2</ele>
        <time>2012-07-23T17:29:23.000Z</time>
      </trkpt>
      <trkpt lat="47.19472" lon="-1.54459">
        <ele>53.8</ele>
        <time>2012-07-23T17:29:25.000Z</time>
      </trkpt>
      <trkpt lat="47.19474" lon="-1.54449">
        <ele>54.1</ele>
        <time>2012-07-23T17:29:28.000Z</time>
      </trkpt>
      <trkpt lat="47.19479" lon="-1.54446">
        <ele>57.9</ele>
        <time>2012-07-23T17:29:31.000Z</time>
      </trkpt>
      <trkpt lat="47.19485" lon="-1.54442">
        <ele>58.5</ele>
        <time>2012-07-23T17:29:34.000Z</time>
      </trkpt>
      <trkpt lat="47.1949" lon="-1.54437">
        <ele>59.2</ele>
        <time>2012-07-23T17:29:37.000Z</time>
      </trkpt>
      <trkpt lat="47.19496" lon="-1.54435">
        <ele>59.1</ele>
        <time>2012-07-23T17:29:40.000Z</time>
      </trkpt>
      <trkpt lat="47.195" lon="-1.54432">
        <ele>57.5</ele>
        <time>2012-07-23T17:29:42.000Z</time>
      </trkpt>
      <trkpt lat="47.19506" lon="-1.54427">
        <ele>59.4</ele>
        <time>2012-07-23T17:29:45.000Z</time>
      </trkpt>
      <trkpt lat="47.19511" lon="-1.54426">
        <ele>60.7</ele>
        <time>2012-07-23T17:29:49.000Z</time>
      </trkpt>
      <trkpt lat="47.19516" lon="-1.54423">
        <ele>61.2</ele>
        <time>2012-07-23T17:29:57.000Z</time>
      </trkpt>
      <trkpt lat="47.1952" lon="-1.5442">
        <ele>61.8</ele>
        <time>2012-07-23T17:30:00.000Z</time>
      </trkpt>
      <trkpt lat="47.19525" lon="-1.54416">
        <ele>62.6</ele>
        <time>2012-07-23T17:30:03.000Z</time>
      </trkpt>
      <trkpt lat="47.19529" lon="-1.54413">
        <ele>62.4</ele>
        <time>2012-07-23T17:30:11.000Z</time>
      </trkpt>
      <trkpt lat="47.19534" lon="-1.54409">
        <ele>62.4</ele>
        <time>2012-07-23T17:30:15.000Z</time>
      </trkpt>
      <trkpt lat="47.1954" lon="-1.54405">
        <ele>61.1</ele>
        <time>2012-07-23T17:30:19.000Z</time>
      </trkpt>
      <trkpt lat="47.19544" lon="-1.54402">
        <ele>60.3</ele>
        <time>2012-07-23T17:30:21.000Z</time>
      </trkpt>
      <trkpt lat="47.19548" lon="-1.54397">
        <ele>59.5</ele>
        <time>2012-07-23T17:30:24.000Z</time>
      </trkpt>
      <trkpt lat="47.19553" lon="-1.54394">
        <ele>59.3</ele>
        <time>2012-07-23T17:30:27.000Z</time>
      </trkpt>
      <trkpt lat="47.19557" lon="-1.54389">
        <ele>59</ele>
        <time>2012-07-23T17:30:30.000Z</time>
      </trkpt>
      <trkpt lat="47.19562" lon="-1.54385">
        <ele>60</ele>
        <time>2012-07-23T17:30:33.000Z</time>
      </trkpt>
      <trkpt lat="47.19566" lon="-1.54381">
        <ele>59.7</ele>
        <time>2012-07-23T17:30:36.000Z</time>
      </trkpt>
      <trkpt lat="47.19569" lon="-1.54377">
        <ele>60.6</ele>
        <time>2012-07-23T17:30:39.000Z</time>
      </trkpt>
      <trkpt lat="47.19574" lon="-1.54373">
        <ele>62</ele>
        <time>2012-07-23T17:30:42.000Z</time>
      </trkpt>
      <trkpt lat="47.19572" lon="-1.54364">
        <ele>61.4</ele>
        <time>2012-07-23T17:30:45.000Z</time>
      </trkpt>
      <trkpt lat="47.19575" lon="-1.54356">
        <ele>62.6</ele>
        <time>2012-07-23T17:30:49.000Z</time>
      </trkpt>
      <trkpt lat="47.19576" lon="-1.54348">
        <ele>63.5</ele>
        <time>2012-07-23T17:30:53.000Z</time>
      </trkpt>
      <trkpt lat="47.19575" lon="-1.5434">
        <ele>63.8</ele>
        <time>2012-07-23T17:30:56.000Z</time>
      </trkpt>
      <trkpt lat="47.19574" lon="-1.54332">
        <ele>63.5</ele>
        <time>2012-07-23T17:31:00.000Z</time>
      </trkpt>
      <trkpt lat="47.19578" lon="-1.54329">
        <ele>60.2</ele>
        <time>2012-07-23T17:31:04.000Z</time>
      </trkpt>
      <trkpt lat="47.19579" lon="-1.54323">
        <ele>59.6</ele>
        <time>2012-07-23T17:31:23.000Z</time>
      </trkpt>
      <trkpt lat="47.1958" lon="-1.54315">
        <ele>59.1</ele>
        <time>2012-07-23T17:31:27.000Z</time>
      </trkpt>
      <trkpt lat="47.19585" lon="-1.54309">
        <ele>58.5</ele>
        <time>2012-07-23T17:31:28.000Z</time>
      </trkpt>
      <trkpt lat="47.19589" lon="-1.54304">
        <ele>59.7</ele>
        <time>2012-07-23T17:31:31.000Z</time>
      </trkpt>
      <trkpt lat="47.19591" lon="-1.54296">
        <ele>59.8</ele>
        <time>2012-07-23T17:31:34.000Z</time>
      </trkpt>
      <trkpt lat="47.19596" lon="-1.54283">
        <ele>60.2</ele>
        <time>2012-07-23T17:31:36.000Z</time>
      </trkpt>
      <trkpt lat="47.19599" lon="-1.54276">
        <ele>55.1</ele>
        <time>2012-07-23T17:31:39.000Z</time>
      </trkpt>
      <trkpt lat="47.19602" lon="-1.5427">
        <ele>56.6</ele>
        <time>2012-07-23T17:31:41.000Z</time>
      </trkpt>
      <trkpt lat="47.19605" lon="-1.54263">
        <ele>60.8</ele>
        <time>2012-07-23T17:31:44.000Z</time>
      </trkpt>
      <trkpt lat="47.1961" lon="-1.54253">
        <ele>63</ele>
        <time>2012-07-23T17:31:48.000Z</time>
      </trkpt>
      <trkpt lat="47.19612" lon="-1.54246">
        <ele>64.4</ele>
        <time>2012-07-23T17:31:51.000Z</time>
      </trkpt>
      <trkpt lat="47.19614" lon="-1.54241">
        <ele>63.6</ele>
        <time>2012-07-23T17:31:53.000Z</time>
      </trkpt>
      <trkpt lat="47.19617" lon="-1.54233">
        <ele>67.9</ele>
        <time>2012-07-23T17:31:57.000Z</time>
      </trkpt>
      <trkpt lat="47.1962" lon="-1.54227">
        <ele>69</ele>
        <time>2012-07-23T17:31:59.000Z</time>
      </trkpt>
      <trkpt lat="47.19624" lon="-1.54219">
        <ele>69</ele>
        <time>2012-07-23T17:32:02.000Z</time>
      </trkpt>
      <trkpt lat="47.19626" lon="-1.54213">
        <ele>69.5</ele>
        <time>2012-07-23T17:32:05.000Z</time>
      </trkpt>
      <trkpt lat="47.19631" lon="-1.5421">
        <ele>69.1</ele>
        <time>2012-07-23T17:32:08.000Z</time>
      </trkpt>
      <trkpt lat="47.19634" lon="-1.54204">
        <ele>68.5</ele>
        <time>2012-07-23T17:32:11.000Z</time>
      </trkpt>
      <trkpt lat="47.19639" lon="-1.542">
        <ele>68.2</ele>
        <time>2012-07-23T17:32:15.000Z</time>
      </trkpt>
      <trkpt lat="47.19644" lon="-1.54197">
        <ele>67.4</ele>
        <time>2012-07-23T17:32:19.000Z</time>
      </trkpt>
      <trkpt lat="47.19649" lon="-1.54195">
        <ele>65.9</ele>
        <time>2012-07-23T17:32:22.000Z</time>
      </trkpt>
      <trkpt lat="47.19654" lon="-1.54193">
        <ele>63.6</ele>
        <time>2012-07-23T17:32:25.000Z</time>
      </trkpt>
      <trkpt lat="47.19658" lon="-1.54188">
        <ele>62.4</ele>
        <time>2012-07-23T17:32:29.000Z</time>
      </trkpt>
      <trkpt lat="47.19662" lon="-1.54184">
        <ele>60.5</ele>
        <time>2012-07-23T17:32:32.000Z</time>
      </trkpt>
      <trkpt lat="47.19666" lon="-1.54178">
        <ele>59.6</ele>
        <time>2012-07-23T17:32:36.000Z</time>
      </trkpt>
      <trkpt lat="47.19667" lon="-1.54171">
        <ele>58.8</ele>
        <time>2012-07-23T17:32:39.000Z</time>
      </trkpt>
      <trkpt lat="47.1967" lon="-1.54164">
        <ele>58.4</ele>
        <time>2012-07-23T17:32:42.000Z</time>
      </trkpt>
      <trkpt lat="47.19673" lon="-1.54157">
        <ele>58.4</ele>
        <time>2012-07-23T17:32:46.000Z</time>
      </trkpt>
      <trkpt lat="47.19676" lon="-1.5415">
        <ele>58.1</ele>
        <time>2012-07-23T17:32:50.000Z</time>
      </trkpt>
      <trkpt lat="47.1968" lon="-1.54144">
        <ele>58.2</ele>
        <time>2012-07-23T17:32:55.000Z</time>
      </trkpt>
      <trkpt lat="47.19683" lon="-1.54137">
        <ele>57.5</ele>
        <time>2012-07-23T17:32:59.000Z</time>
      </trkpt>
      <trkpt lat="47.19685" lon="-1.54129">
        <ele>57.5</ele>
        <time>2012-07-23T17:33:02.000Z</time>
      </trkpt>
      <trkpt lat="47.19687" lon="-1.54122">
        <ele>57.4</ele>
        <time>2012-07-23T17:33:07.000Z</time>
      </trkpt>
      <trkpt lat="47.19691" lon="-1.54118">
        <ele>57.7</ele>
        <time>2012-07-23T17:33:14.000Z</time>
      </trkpt>
      <trkpt lat="47.19695" lon="-1.54124">
        <ele>57.2</ele>
        <time>2012-07-23T17:33:18.000Z</time>
      </trkpt>
      <trkpt lat="47.19699" lon="-1.54128">
        <ele>57.7</ele>
        <time>2012-07-23T17:33:24.000Z</time>
      </trkpt>
      <trkpt lat="47.19705" lon="-1.54128">
        <ele>60</ele>
        <time>2012-07-23T17:33:29.000Z</time>
      </trkpt>
      <trkpt lat="47.19711" lon="-1.54127">
        <ele>63</ele>
        <time>2012-07-23T17:33:31.000Z</time>
      </trkpt>
      <trkpt lat="47.19716" lon="-1.54123">
        <ele>64.2</ele>
        <time>2012-07-23T17:33:32.000Z</time>
      </trkpt>
      <trkpt lat="47.1972" lon="-1.54118">
        <ele>64.5</ele>
        <time>2012-07-23T17:33:35.000Z</time>
      </trkpt>
      <trkpt lat="47.19722" lon="-1.54111">
        <ele>63.9</ele>
        <time>2012-07-23T17:33:37.000Z</time>
      </trkpt>
      <trkpt lat="47.19726" lon="-1.54104">
        <ele>64.4</ele>
        <time>2012-07-23T17:33:40.000Z</time>
      </trkpt>
      <trkpt lat="47.19731" lon="-1.54103">
        <ele>63.9</ele>
        <time>2012-07-23T17:33:43.000Z</time>
      </trkpt>
      <trkpt lat="47.19734" lon="-1.54107">
        <ele>63.7</ele>
        <time>2012-07-23T17:33:45.000Z</time>
      </trkpt>
      <trkpt lat="47.19739" lon="-1.54113">
        <ele>62.9</ele>
        <time>2012-07-23T17:33:47.000Z</time>
      </trkpt>
      <trkpt lat="47.19742" lon="-1.54118">
        <ele>62.3</ele>
        <time>2012-07-23T17:33:49.000Z</time>
      </trkpt>
      <trkpt lat="47.19746" lon="-1.54124">
        <ele>62.2</ele>
        <time>2012-07-23T17:33:51.000Z</time>
      </trkpt>
      <trkpt lat="47.1975" lon="-1.54131">
        <ele>62</ele>
        <time>2012-07-23T17:33:53.000Z</time>
      </trkpt>
      <trkpt lat="47.19755" lon="-1.54139">
        <ele>62</ele>
        <time>2012-07-23T17:33:55.000Z</time>
      </trkpt>
      <trkpt lat="47.19758" lon="-1.54146">
        <ele>61.4</ele>
        <time>2012-07-23T17:33:57.000Z</time>
      </trkpt>
      <trkpt lat="47.19761" lon="-1.54153">
        <ele>60.9</ele>
        <time>2012-07-23T17:33:59.000Z</time>
      </trkpt>
      <trkpt lat="47.19766" lon="-1.54156">
        <ele>60.6</ele>
        <time>2012-07-23T17:34:01.000Z</time>
      </trkpt>
      <trkpt lat="47.19774" lon="-1.5415">
        <ele>59.9</ele>
        <time>2012-07-23T17:34:03.000Z</time>
      </trkpt>
      <trkpt lat="47.1978" lon="-1.54146">
        <ele>59.3</ele>
        <time>2012-07-23T17:34:05.000Z</time>
      </trkpt>
      <trkpt lat="47.19783" lon="-1.54141">
        <ele>59.1</ele>
        <time>2012-07-23T17:34:07.000Z</time>
      </trkpt>
      <trkpt lat="47.19786" lon="-1.54135">
        <ele>59.6</ele>
        <time>2012-07-23T17:34:09.000Z</time>
      </trkpt>
      <trkpt lat="47.1979" lon="-1.54128">
        <ele>59.4</ele>
        <time>2012-07-23T17:34:11.000Z</time>
      </trkpt>
      <trkpt lat="47.19791" lon="-1.54117">
        <ele>59.4</ele>
        <time>2012-07-23T17:34:13.000Z</time>
      </trkpt>
      <trkpt lat="47.19796" lon="-1.54113">
        <ele>58.4</ele>
        <time>2012-07-23T17:34:15.000Z</time>
      </trkpt>
      <trkpt lat="47.19802" lon="-1.54111">
        <ele>57.9</ele>
        <time>2012-07-23T17:34:17.000Z</time>
      </trkpt>
      <trkpt lat="47.19808" lon="-1.54108">
        <ele>58.1</ele>
        <time>2012-07-23T17:34:19.000Z</time>
      </trkpt>
      <trkpt lat="47.19814" lon="-1.54106">
        <ele>57.8</ele>
        <time>2012-07-23T17:34:21.000Z</time>
      </trkpt>
      <trkpt lat="47.1982" lon="-1.54107">
        <ele>59.6</ele>
        <time>2012-07-23T17:34:23.000Z</time>
      </trkpt>
      <trkpt lat="47.19822" lon="-1.54114">
        <ele>59.2</ele>
        <time>2012-07-23T17:34:29.000Z</time>
      </trkpt>
      <trkpt lat="47.19827" lon="-1.54119">
        <ele>58.6</ele>
        <time>2012-07-23T17:34:31.000Z</time>
      </trkpt>
      <trkpt lat="47.19832" lon="-1.54125">
        <ele>58.5</ele>
        <time>2012-07-23T17:34:33.000Z</time>
      </trkpt>
      <trkpt lat="47.19835" lon="-1.5413">
        <ele>61.2</ele>
        <time>2012-07-23T17:34:35.000Z</time>
      </trkpt>
      <trkpt lat="47.19838" lon="-1.54124">
        <ele>60.6</ele>
        <time>2012-07-23T17:34:37.000Z</time>
      </trkpt>
      <trkpt lat="47.19841" lon="-1.54118">
        <ele>60.5</ele>
        <time>2012-07-23T17:34:39.000Z</time>
      </trkpt>
      <trkpt lat="47.19846" lon="-1.54109">
        <ele>61.8</ele>
        <time>2012-07-23T17:34:41.000Z</time>
      </trkpt>
      <trkpt lat="47.1985" lon="-1.54101">
        <ele>62</ele>
        <time>2012-07-23T17:34:43.000Z</time>
      </trkpt>
      <trkpt lat="47.19849" lon="-1.54091">
        <ele>57.2</ele>
        <time>2012-07-23T17:34:45.000Z</time>
      </trkpt>
      <trkpt lat="47.19851" lon="-1.54083">
        <ele>57.1</ele>
        <time>2012-07-23T17:34:47.000Z</time>
      </trkpt>
      <trkpt lat="47.19852" lon="-1.54075">
        <ele>57.8</ele>
        <time>2012-07-23T17:34:49.000Z</time>
      </trkpt>
      <trkpt lat="47.19856" lon="-1.54065">
        <ele>58.3</ele>
        <time>2012-07-23T17:34:52.000Z</time>
      </trkpt>
      <trkpt lat="47.19858" lon="-1.54058">
        <ele>58</ele>
        <time>2012-07-23T17:34:54.000Z</time>
      </trkpt>
      <trkpt lat="47.1986" lon="-1.54051">
        <ele>57.6</ele>
        <time>2012-07-23T17:34:57.000Z</time>
      </trkpt>
      <trkpt lat="47.19863" lon="-1.54041">
        <ele>57.3</ele>
        <time>2012-07-23T17:35:00.000Z</time>
      </trkpt>
      <trkpt lat="47.19867" lon="-1.54034">
        <ele>57.4</ele>
        <time>2012-07-23T17:35:02.000Z</time>
      </trkpt>
      <trkpt lat="47.1987" lon="-1.54027">
        <ele>57.3</ele>
        <time>2012-07-23T17:35:04.000Z</time>
      </trkpt>
      <trkpt lat="47.19873" lon="-1.5402">
        <ele>57.5</ele>
        <time>2012-07-23T17:35:06.000Z</time>
      </trkpt>
      <trkpt lat="47.19875" lon="-1.54013">
        <ele>57</ele>
        <time>2012-07-23T17:35:08.000Z</time>
      </trkpt>
      <trkpt lat="47.19876" lon="-1.54006">
        <ele>56.7</ele>
        <time>2012-07-23T17:35:09.000Z</time>
      </trkpt>
      <trkpt lat="47.19878" lon="-1.54">
        <ele>56.6</ele>
        <time>2012-07-23T17:35:11.000Z</time>
      </trkpt>
      <trkpt lat="47.19879" lon="-1.53992">
        <ele>56.8</ele>
        <time>2012-07-23T17:35:13.000Z</time>
      </trkpt>
      <trkpt lat="47.1988" lon="-1.53984">
        <ele>56.2</ele>
        <time>2012-07-23T17:35:15.000Z</time>
      </trkpt>
      <trkpt lat="47.19882" lon="-1.53977">
        <ele>55.3</ele>
        <time>2012-07-23T17:35:17.000Z</time>
      </trkpt>
      <trkpt lat="47.19885" lon="-1.53972">
        <ele>55.7</ele>
        <time>2012-07-23T17:35:19.000Z</time>
      </trkpt>
      <trkpt lat="47.19888" lon="-1.53963">
        <ele>56.2</ele>
        <time>2012-07-23T17:35:21.000Z</time>
      </trkpt>
      <trkpt lat="47.1989" lon="-1.53956">
        <ele>56.8</ele>
        <time>2012-07-23T17:35:23.000Z</time>
      </trkpt>
      <trkpt lat="47.19892" lon="-1.53948">
        <ele>56.9</ele>
        <time>2012-07-23T17:35:25.000Z</time>
      </trkpt>
      <trkpt lat="47.19895" lon="-1.53939">
        <ele>55.9</ele>
        <time>2012-07-23T17:35:27.000Z</time>
      </trkpt>
      <trkpt lat="47.19897" lon="-1.53932">
        <ele>55.9</ele>
        <time>2012-07-23T17:35:29.000Z</time>
      </trkpt>
      <trkpt lat="47.199" lon="-1.53926">
        <ele>55.2</ele>
        <time>2012-07-23T17:35:31.000Z</time>
      </trkpt>
      <trkpt lat="47.19902" lon="-1.5392">
        <ele>55</ele>
        <time>2012-07-23T17:35:34.000Z</time>
      </trkpt>
      <trkpt lat="47.19904" lon="-1.53911">
        <ele>54.9</ele>
        <time>2012-07-23T17:35:38.000Z</time>
      </trkpt>
      <trkpt lat="47.19906" lon="-1.539">
        <ele>53.6</ele>
        <time>2012-07-23T17:35:41.000Z</time>
      </trkpt>
      <trkpt lat="47.19909" lon="-1.5389">
        <ele>52.8</ele>
        <time>2012-07-23T17:35:43.000Z</time>
      </trkpt>
      <trkpt lat="47.19912" lon="-1.53882">
        <ele>51.6</ele>
        <time>2012-07-23T17:35:45.000Z</time>
      </trkpt>
      <trkpt lat="47.19912" lon="-1.53875">
        <ele>51.3</ele>
        <time>2012-07-23T17:35:47.000Z</time>
      </trkpt>
      <trkpt lat="47.19911" lon="-1.53867">
        <ele>51.7</ele>
        <time>2012-07-23T17:35:51.000Z</time>
      </trkpt>
      <trkpt lat="47.19911" lon="-1.53859">
        <ele>51.5</ele>
        <time>2012-07-23T17:35:54.000Z</time>
      </trkpt>
      <trkpt lat="47.19915" lon="-1.53845">
        <ele>52.1</ele>
        <time>2012-07-23T17:35:57.000Z</time>
      </trkpt>
      <trkpt lat="47.19917" lon="-1.53834">
        <ele>50.7</ele>
        <time>2012-07-23T17:35:59.000Z</time>
      </trkpt>
      <trkpt lat="47.19918" lon="-1.53828">
        <ele>50.7</ele>
        <time>2012-07-23T17:36:01.000Z</time>
      </trkpt>
      <trkpt lat="47.1992" lon="-1.53818">
        <ele>50.4</ele>
        <time>2012-07-23T17:36:05.000Z</time>
      </trkpt>
      <trkpt lat="47.19924" lon="-1.53809">
        <ele>51.2</ele>
        <time>2012-07-23T17:36:07.000Z</time>
      </trkpt>
      <trkpt lat="47.19925" lon="-1.53802">
        <ele>52</ele>
        <time>2012-07-23T17:36:09.000Z</time>
      </trkpt>
      <trkpt lat="47.19927" lon="-1.53791">
        <ele>52.4</ele>
        <time>2012-07-23T17:36:11.000Z</time>
      </trkpt>
      <trkpt lat="47.19928" lon="-1.53784">
        <ele>51.2</ele>
        <time>2012-07-23T17:36:13.000Z</time>
      </trkpt>
      <trkpt lat="47.1993" lon="-1.53774">
        <ele>51.5</ele>
        <time>2012-07-23T17:36:15.000Z</time>
      </trkpt>
      <trkpt lat="47.19934" lon="-1.53765">
        <ele>51.2</ele>
        <time>2012-07-23T17:36:17.000Z</time>
      </trkpt>
      <trkpt lat="47.19935" lon="-1.53758">
        <ele>49.9</ele>
        <time>2012-07-23T17:36:19.000Z</time>
      </trkpt>
      <trkpt lat="47.1994" lon="-1.53749">
        <ele>50.3</ele>
        <time>2012-07-23T17:36:21.000Z</time>
      </trkpt>
      <trkpt lat="47.19942" lon="-1.5374">
        <ele>50.9</ele>
        <time>2012-07-23T17:36:23.000Z</time>
      </trkpt>
      <trkpt lat="47.19945" lon="-1.53732">
        <ele>52.8</ele>
        <time>2012-07-23T17:36:26.000Z</time>
      </trkpt>
      <trkpt lat="47.19948" lon="-1.53724">
        <ele>53.6</ele>
        <time>2012-07-23T17:36:28.000Z</time>
      </trkpt>
      <trkpt lat="47.19949" lon="-1.53717">
        <ele>52.5</ele>
        <time>2012-07-23T17:36:30.000Z</time>
      </trkpt>
      <trkpt lat="47.19949" lon="-1.53707">
        <ele>51.9</ele>
        <time>2012-07-23T17:36:33.000Z</time>
      </trkpt>
      <trkpt lat="47.19952" lon="-1.53697">
        <ele>50.9</ele>
        <time>2012-07-23T17:36:35.000Z</time>
      </trkpt>
      <trkpt lat="47.19954" lon="-1.5369">
        <ele>51.1</ele>
        <time>2012-07-23T17:36:37.000Z</time>
      </trkpt>
      <trkpt lat="47.19955" lon="-1.53683">
        <ele>52.2</ele>
        <time>2012-07-23T17:36:39.000Z</time>
      </trkpt>
      <trkpt lat="47.19957" lon="-1.53675">
        <ele>52.1</ele>
        <time>2012-07-23T17:36:41.000Z</time>
      </trkpt>
      <trkpt lat="47.19958" lon="-1.53668">
        <ele>52</ele>
        <time>2012-07-23T17:36:43.000Z</time>
      </trkpt>
      <trkpt lat="47.19958" lon="-1.53661">
        <ele>51.4</ele>
        <time>2012-07-23T17:36:46.000Z</time>
      </trkpt>
      <trkpt lat="47.19958" lon="-1.53654">
        <ele>52</ele>
        <time>2012-07-23T17:36:48.000Z</time>
      </trkpt>
      <trkpt lat="47.1996" lon="-1.53646">
        <ele>51.8</ele>
        <time>2012-07-23T17:36:50.000Z</time>
      </trkpt>
      <trkpt lat="47.19961" lon="-1.53636">
        <ele>51.9</ele>
        <time>2012-07-23T17:36:53.000Z</time>
      </trkpt>
      <trkpt lat="47.19964" lon="-1.53629">
        <ele>51.9</ele>
        <time>2012-07-23T17:36:55.000Z</time>
      </trkpt>
      <trkpt lat="47.19967" lon="-1.53624">
        <ele>52.7</ele>
        <time>2012-07-23T17:36:57.000Z</time>
      </trkpt>
      <trkpt lat="47.19968" lon="-1.53616">
        <ele>51.7</ele>
        <time>2012-07-23T17:36:59.000Z</time>
      </trkpt>
      <trkpt lat="47.1997" lon="-1.53607">
        <ele>51.9</ele>
        <time>2012-07-23T17:37:02.000Z</time>
      </trkpt>
      <trkpt lat="47.19972" lon="-1.53599">
        <ele>51.8</ele>
        <time>2012-07-23T17:37:04.000Z</time>
      </trkpt>
      <trkpt lat="47.19973" lon="-1.5359">
        <ele>51.9</ele>
        <time>2012-07-23T17:37:07.000Z</time>
      </trkpt>
      <trkpt lat="47.19977" lon="-1.53584">
        <ele>52.1</ele>
        <time>2012-07-23T17:37:08.000Z</time>
      </trkpt>
      <trkpt lat="47.19979" lon="-1.53575">
        <ele>52.2</ele>
        <time>2012-07-23T17:37:10.000Z</time>
      </trkpt>
      <trkpt lat="47.19981" lon="-1.53568">
        <ele>51.7</ele>
        <time>2012-07-23T17:37:12.000Z</time>
      </trkpt>
      <trkpt lat="47.19982" lon="-1.53558">
        <ele>53.3</ele>
        <time>2012-07-23T17:37:15.000Z</time>
      </trkpt>
      <trkpt lat="47.19984" lon="-1.53548">
        <ele>53.6</ele>
        <time>2012-07-23T17:37:18.000Z</time>
      </trkpt>
      <trkpt lat="47.19987" lon="-1.53541">
        <ele>53.1</ele>
        <time>2012-07-23T17:37:21.000Z</time>
      </trkpt>
      <trkpt lat="47.19992" lon="-1.53533">
        <ele>54</ele>
        <time>2012-07-23T17:37:23.000Z</time>
      </trkpt>
      <trkpt lat="47.19998" lon="-1.53526">
        <ele>55.6</ele>
        <time>2012-07-23T17:37:25.000Z</time>
      </trkpt>
      <trkpt lat="47.20002" lon="-1.53522">
        <ele>57.6</ele>
        <time>2012-07-23T17:37:27.000Z</time>
      </trkpt>
      <trkpt lat="47.20006" lon="-1.53517">
        <ele>57</ele>
        <time>2012-07-23T17:37:29.000Z</time>
      </trkpt>
      <trkpt lat="47.20009" lon="-1.53512">
        <ele>56.2</ele>
        <time>2012-07-23T17:37:31.000Z</time>
      </trkpt>
      <trkpt lat="47.20014" lon="-1.53506">
        <ele>58.3</ele>
        <time>2012-07-23T17:37:33.000Z</time>
      </trkpt>
      <trkpt lat="47.20018" lon="-1.535">
        <ele>57.1</ele>
        <time>2012-07-23T17:37:35.000Z</time>
      </trkpt>
      <trkpt lat="47.20022" lon="-1.53495">
        <ele>58.7</ele>
        <time>2012-07-23T17:37:37.000Z</time>
      </trkpt>
      <trkpt lat="47.20026" lon="-1.53488">
        <ele>58.7</ele>
        <time>2012-07-23T17:37:39.000Z</time>
      </trkpt>
      <trkpt lat="47.20028" lon="-1.5348">
        <ele>59</ele>
        <time>2012-07-23T17:37:42.000Z</time>
      </trkpt>
      <trkpt lat="47.20031" lon="-1.53472">
        <ele>58.9</ele>
        <time>2012-07-23T17:37:45.000Z</time>
      </trkpt>
      <trkpt lat="47.20032" lon="-1.53465">
        <ele>58.6</ele>
        <time>2012-07-23T17:37:48.000Z</time>
      </trkpt>
      <trkpt lat="47.20035" lon="-1.53458">
        <ele>57.8</ele>
        <time>2012-07-23T17:37:51.000Z</time>
      </trkpt>
      <trkpt lat="47.20038" lon="-1.53451">
        <ele>57.1</ele>
        <time>2012-07-23T17:37:53.000Z</time>
      </trkpt>
      <trkpt lat="47.20041" lon="-1.53444">
        <ele>56.5</ele>
        <time>2012-07-23T17:37:56.000Z</time>
      </trkpt>
      <trkpt lat="47.20045" lon="-1.53438">
        <ele>56.4</ele>
        <time>2012-07-23T17:37:59.000Z</time>
      </trkpt>
      <trkpt lat="47.20048" lon="-1.53434">
        <ele>56.5</ele>
        <time>2012-07-23T17:38:01.000Z</time>
      </trkpt>
      <trkpt lat="47.20052" lon="-1.53417">
        <ele>56.9</ele>
        <time>2012-07-23T17:38:03.000Z</time>
      </trkpt>
      <trkpt lat="47.20055" lon="-1.5341">
        <ele>57.1</ele>
        <time>2012-07-23T17:38:04.000Z</time>
      </trkpt>
      <trkpt lat="47.20057" lon="-1.53401">
        <ele>58.8</ele>
        <time>2012-07-23T17:38:06.000Z</time>
      </trkpt>
      <trkpt lat="47.20061" lon="-1.53395">
        <ele>60.4</ele>
        <time>2012-07-23T17:38:08.000Z</time>
      </trkpt>
      <trkpt lat="47.20064" lon="-1.53389">
        <ele>60.6</ele>
        <time>2012-07-23T17:38:10.000Z</time>
      </trkpt>
      <trkpt lat="47.20068" lon="-1.5338">
        <ele>60.2</ele>
        <time>2012-07-23T17:38:13.000Z</time>
      </trkpt>
      <trkpt lat="47.2007" lon="-1.53374">
        <ele>61.3</ele>
        <time>2012-07-23T17:38:15.000Z</time>
      </trkpt>
      <trkpt lat="47.20072" lon="-1.53366">
        <ele>60.9</ele>
        <time>2012-07-23T17:38:17.000Z</time>
      </trkpt>
      <trkpt lat="47.20076" lon="-1.53359">
        <ele>60.1</ele>
        <time>2012-07-23T17:38:20.000Z</time>
      </trkpt>
      <trkpt lat="47.20079" lon="-1.53351">
        <ele>60.2</ele>
        <time>2012-07-23T17:38:23.000Z</time>
      </trkpt>
      <trkpt lat="47.20083" lon="-1.53344">
        <ele>60.6</ele>
        <time>2012-07-23T17:38:26.000Z</time>
      </trkpt>
      <trkpt lat="47.20088" lon="-1.53337">
        <ele>60.1</ele>
        <time>2012-07-23T17:38:29.000Z</time>
      </trkpt>
      <trkpt lat="47.2009" lon="-1.5333">
        <ele>59.9</ele>
        <time>2012-07-23T17:38:31.000Z</time>
      </trkpt>
      <trkpt lat="47.20093" lon="-1.53322">
        <ele>59.9</ele>
        <time>2012-07-23T17:38:34.000Z</time>
      </trkpt>
      <trkpt lat="47.20096" lon="-1.53312">
        <ele>59.6</ele>
        <time>2012-07-23T17:38:37.000Z</time>
      </trkpt>
      <trkpt lat="47.20099" lon="-1.53305">
        <ele>60.2</ele>
        <time>2012-07-23T17:38:39.000Z</time>
      </trkpt>
      <trkpt lat="47.20103" lon="-1.53296">
        <ele>60.9</ele>
        <time>2012-07-23T17:38:42.000Z</time>
      </trkpt>
      <trkpt lat="47.20107" lon="-1.53288">
        <ele>61.6</ele>
        <time>2012-07-23T17:38:45.000Z</time>
      </trkpt>
      <trkpt lat="47.20111" lon="-1.53283">
        <ele>61.8</ele>
        <time>2012-07-23T17:38:47.000Z</time>
      </trkpt>
      <trkpt lat="47.20114" lon="-1.53273">
        <ele>62.5</ele>
        <time>2012-07-23T17:38:49.000Z</time>
      </trkpt>
      <trkpt lat="47.20116" lon="-1.53266">
        <ele>62.1</ele>
        <time>2012-07-23T17:38:51.000Z</time>
      </trkpt>
      <trkpt lat="47.20119" lon="-1.53258">
        <ele>63</ele>
        <time>2012-07-23T17:38:53.000Z</time>
      </trkpt>
      <trkpt lat="47.20121" lon="-1.5325">
        <ele>63.2</ele>
        <time>2012-07-23T17:38:55.000Z</time>
      </trkpt>
      <trkpt lat="47.20122" lon="-1.53244">
        <ele>62.7</ele>
        <time>2012-07-23T17:38:57.000Z</time>
      </trkpt>
      <trkpt lat="47.20123" lon="-1.53237">
        <ele>61.1</ele>
        <time>2012-07-23T17:38:59.000Z</time>
      </trkpt>
      <trkpt lat="47.20125" lon="-1.53229">
        <ele>60.7</ele>
        <time>2012-07-23T17:39:01.000Z</time>
      </trkpt>
      <trkpt lat="47.20128" lon="-1.53223">
        <ele>61.9</ele>
        <time>2012-07-23T17:39:03.000Z</time>
      </trkpt>
      <trkpt lat="47.2013" lon="-1.53216">
        <ele>61.5</ele>
        <time>2012-07-23T17:39:05.000Z</time>
      </trkpt>
      <trkpt lat="47.20131" lon="-1.5321">
        <ele>61.3</ele>
        <time>2012-07-23T17:39:07.000Z</time>
      </trkpt>
      <trkpt lat="47.20133" lon="-1.53202">
        <ele>61</ele>
        <time>2012-07-23T17:39:09.000Z</time>
      </trkpt>
      <trkpt lat="47.20137" lon="-1.53195">
        <ele>60.8</ele>
        <time>2012-07-23T17:39:11.000Z</time>
      </trkpt>
      <trkpt lat="47.20139" lon="-1.53186">
        <ele>59.9</ele>
        <time>2012-07-23T17:39:13.000Z</time>
      </trkpt>
      <trkpt lat="47.20141" lon="-1.5318">
        <ele>62.3</ele>
        <time>2012-07-23T17:39:15.000Z</time>
      </trkpt>
      <trkpt lat="47.20143" lon="-1.53169">
        <ele>62.7</ele>
        <time>2012-07-23T17:39:18.000Z</time>
      </trkpt>
      <trkpt lat="47.20144" lon="-1.53161">
        <ele>61.2</ele>
        <time>2012-07-23T17:39:20.000Z</time>
      </trkpt>
      <trkpt lat="47.20147" lon="-1.53155">
        <ele>60.4</ele>
        <time>2012-07-23T17:39:22.000Z</time>
      </trkpt>
      <trkpt lat="47.2015" lon="-1.53147">
        <ele>59.5</ele>
        <time>2012-07-23T17:39:25.000Z</time>
      </trkpt>
      <trkpt lat="47.20152" lon="-1.53138">
        <ele>59.5</ele>
        <time>2012-07-23T17:39:29.000Z</time>
      </trkpt>
      <trkpt lat="47.20155" lon="-1.5313">
        <ele>58.6</ele>
        <time>2012-07-23T17:39:32.000Z</time>
      </trkpt>
      <trkpt lat="47.20158" lon="-1.53123">
        <ele>57.2</ele>
        <time>2012-07-23T17:39:34.000Z</time>
      </trkpt>
      <trkpt lat="47.20162" lon="-1.53114">
        <ele>55.6</ele>
        <time>2012-07-23T17:39:37.000Z</time>
      </trkpt>
      <trkpt lat="47.20166" lon="-1.53108">
        <ele>53</ele>
        <time>2012-07-23T17:39:40.000Z</time>
      </trkpt>
      <trkpt lat="47.2017" lon="-1.53102">
        <ele>54.2</ele>
        <time>2012-07-23T17:39:42.000Z</time>
      </trkpt>
      <trkpt lat="47.20173" lon="-1.53095">
        <ele>55.1</ele>
        <time>2012-07-23T17:39:45.000Z</time>
      </trkpt>
      <trkpt lat="47.20176" lon="-1.5309">
        <ele>55.3</ele>
        <time>2012-07-23T17:39:47.000Z</time>
      </trkpt>
      <trkpt lat="47.2018" lon="-1.53085">
        <ele>55.4</ele>
        <time>2012-07-23T17:39:49.000Z</time>
      </trkpt>
      <trkpt lat="47.20183" lon="-1.53078">
        <ele>57.1</ele>
        <time>2012-07-23T17:39:52.000Z</time>
      </trkpt>
      <trkpt lat="47.20186" lon="-1.53072">
        <ele>57.3</ele>
        <time>2012-07-23T17:39:55.000Z</time>
      </trkpt>
      <trkpt lat="47.20191" lon="-1.53064">
        <ele>57.5</ele>
        <time>2012-07-23T17:39:58.000Z</time>
      </trkpt>
      <trkpt lat="47.20194" lon="-1.53058">
        <ele>54.7</ele>
        <time>2012-07-23T17:40:00.000Z</time>
      </trkpt>
      <trkpt lat="47.20197" lon="-1.53052">
        <ele>55.4</ele>
        <time>2012-07-23T17:40:02.000Z</time>
      </trkpt>
      <trkpt lat="47.20201" lon="-1.53047">
        <ele>56.1</ele>
        <time>2012-07-23T17:40:04.000Z</time>
      </trkpt>
      <trkpt lat="47.20206" lon="-1.53042">
        <ele>57.3</ele>
        <time>2012-07-23T17:40:06.000Z</time>
      </trkpt>
      <trkpt lat="47.2021" lon="-1.53037">
        <ele>57.7</ele>
        <time>2012-07-23T17:40:08.000Z</time>
      </trkpt>
      <trkpt lat="47.20214" lon="-1.53031">
        <ele>58.6</ele>
        <time>2012-07-23T17:40:11.000Z</time>
      </trkpt>
      <trkpt lat="47.20218" lon="-1.53024">
        <ele>59</ele>
        <time>2012-07-23T17:40:13.000Z</time>
      </trkpt>
      <trkpt lat="47.20222" lon="-1.53019">
        <ele>59.4</ele>
        <time>2012-07-23T17:40:15.000Z</time>
      </trkpt>
      <trkpt lat="47.20225" lon="-1.53013">
        <ele>59</ele>
        <time>2012-07-23T17:40:17.000Z</time>
      </trkpt>
      <trkpt lat="47.2023" lon="-1.53005">
        <ele>58.3</ele>
        <time>2012-07-23T17:40:20.000Z</time>
      </trkpt>
      <trkpt lat="47.20235" lon="-1.52999">
        <ele>58.2</ele>
        <time>2012-07-23T17:40:23.000Z</time>
      </trkpt>
      <trkpt lat="47.20239" lon="-1.52996">
        <ele>58</ele>
        <time>2012-07-23T17:40:26.000Z</time>
      </trkpt>
      <trkpt lat="47.20242" lon="-1.5299">
        <ele>56.8</ele>
        <time>2012-07-23T17:40:29.000Z</time>
      </trkpt>
      <trkpt lat="47.20247" lon="-1.52986">
        <ele>58.3</ele>
        <time>2012-07-23T17:40:30.000Z</time>
      </trkpt>
      <trkpt lat="47.20251" lon="-1.5298">
        <ele>59.8</ele>
        <time>2012-07-23T17:40:32.000Z</time>
      </trkpt>
      <trkpt lat="47.20254" lon="-1.52975">
        <ele>60.3</ele>
        <time>2012-07-23T17:40:34.000Z</time>
      </trkpt>
      <trkpt lat="47.20256" lon="-1.52967">
        <ele>59.8</ele>
        <time>2012-07-23T17:40:37.000Z</time>
      </trkpt>
      <trkpt lat="47.2026" lon="-1.5296">
        <ele>58.7</ele>
        <time>2012-07-23T17:40:40.000Z</time>
      </trkpt>
      <trkpt lat="47.20263" lon="-1.52953">
        <ele>57.2</ele>
        <time>2012-07-23T17:40:42.000Z</time>
      </trkpt>
      <trkpt lat="47.20266" lon="-1.52948">
        <ele>56.9</ele>
        <time>2012-07-23T17:40:44.000Z</time>
      </trkpt>
      <trkpt lat="47.20269" lon="-1.52941">
        <ele>56.5</ele>
        <time>2012-07-23T17:40:46.000Z</time>
      </trkpt>
      <trkpt lat="47.20272" lon="-1.52936">
        <ele>55.8</ele>
        <time>2012-07-23T17:40:48.000Z</time>
      </trkpt>
      <trkpt lat="47.20275" lon="-1.5293">
        <ele>55.7</ele>
        <time>2012-07-23T17:40:50.000Z</time>
      </trkpt>
      <trkpt lat="47.20278" lon="-1.52923">
        <ele>54.7</ele>
        <time>2012-07-23T17:40:53.000Z</time>
      </trkpt>
      <trkpt lat="47.20281" lon="-1.52917">
        <ele>54.4</ele>
        <time>2012-07-23T17:40:55.000Z</time>
      </trkpt>
      <trkpt lat="47.20284" lon="-1.52911">
        <ele>54.5</ele>
        <time>2012-07-23T17:40:57.000Z</time>
      </trkpt>
      <trkpt lat="47.20286" lon="-1.52905">
        <ele>54.7</ele>
        <time>2012-07-23T17:40:59.000Z</time>
      </trkpt>
      <trkpt lat="47.20287" lon="-1.52896">
        <ele>53</ele>
        <time>2012-07-23T17:41:02.000Z</time>
      </trkpt>
      <trkpt lat="47.20287" lon="-1.52888">
        <ele>48.4</ele>
        <time>2012-07-23T17:41:05.000Z</time>
      </trkpt>
      <trkpt lat="47.20292" lon="-1.52881">
        <ele>51</ele>
        <time>2012-07-23T17:41:07.000Z</time>
      </trkpt>
      <trkpt lat="47.20294" lon="-1.52875">
        <ele>51.8</ele>
        <time>2012-07-23T17:41:09.000Z</time>
      </trkpt>
      <trkpt lat="47.20295" lon="-1.52868">
        <ele>50.9</ele>
        <time>2012-07-23T17:41:11.000Z</time>
      </trkpt>
      <trkpt lat="47.20296" lon="-1.5286">
        <ele>46.8</ele>
        <time>2012-07-23T17:41:14.000Z</time>
      </trkpt>
      <trkpt lat="47.20298" lon="-1.52852">
        <ele>44.7</ele>
        <time>2012-07-23T17:41:17.000Z</time>
      </trkpt>
      <trkpt lat="47.20298" lon="-1.52845">
        <ele>42.1</ele>
        <time>2012-07-23T17:41:19.000Z</time>
      </trkpt>
      <trkpt lat="47.203" lon="-1.52838">
        <ele>39.8</ele>
        <time>2012-07-23T17:41:24.000Z</time>
      </trkpt>
      <trkpt lat="47.20303" lon="-1.52831">
        <ele>39.8</ele>
        <time>2012-07-23T17:41:26.000Z</time>
      </trkpt>
      <trkpt lat="47.20308" lon="-1.52823">
        <ele>41.4</ele>
        <time>2012-07-23T17:41:29.000Z</time>
      </trkpt>
      <trkpt lat="47.2031" lon="-1.52816">
        <ele>37.7</ele>
        <time>2012-07-23T17:41:31.000Z</time>
      </trkpt>
      <trkpt lat="47.20312" lon="-1.52811">
        <ele>37.5</ele>
        <time>2012-07-23T17:41:33.000Z</time>
      </trkpt>
      <trkpt lat="47.20315" lon="-1.52804">
        <ele>37.5</ele>
        <time>2012-07-23T17:41:35.000Z</time>
      </trkpt>
      <trkpt lat="47.20318" lon="-1.52798">
        <ele>37.7</ele>
        <time>2012-07-23T17:41:37.000Z</time>
      </trkpt>
      <trkpt lat="47.20323" lon="-1.52792">
        <ele>38.2</ele>
        <time>2012-07-23T17:41:40.000Z</time>
      </trkpt>
      <trkpt lat="47.20327" lon="-1.52786">
        <ele>39.1</ele>
        <time>2012-07-23T17:41:42.000Z</time>
      </trkpt>
      <trkpt lat="47.20331" lon="-1.52781">
        <ele>40.2</ele>
        <time>2012-07-23T17:41:44.000Z</time>
      </trkpt>
      <trkpt lat="47.20336" lon="-1.52776">
        <ele>42.3</ele>
        <time>2012-07-23T17:41:46.000Z</time>
      </trkpt>
      <trkpt lat="47.2034" lon="-1.52769">
        <ele>43.5</ele>
        <time>2012-07-23T17:41:48.000Z</time>
      </trkpt>
      <trkpt lat="47.20344" lon="-1.52762">
        <ele>44.7</ele>
        <time>2012-07-23T17:41:50.000Z</time>
      </trkpt>
      <trkpt lat="47.20347" lon="-1.52755">
        <ele>46.4</ele>
        <time>2012-07-23T17:41:52.000Z</time>
      </trkpt>
      <trkpt lat="47.2035" lon="-1.52748">
        <ele>47.7</ele>
        <time>2012-07-23T17:41:54.000Z</time>
      </trkpt>
      <trkpt lat="47.20353" lon="-1.52741">
        <ele>48.8</ele>
        <time>2012-07-23T17:41:56.000Z</time>
      </trkpt>
      <trkpt lat="47.20356" lon="-1.52735">
        <ele>48.9</ele>
        <time>2012-07-23T17:41:58.000Z</time>
      </trkpt>
      <trkpt lat="47.2036" lon="-1.52729">
        <ele>49.9</ele>
        <time>2012-07-23T17:42:00.000Z</time>
      </trkpt>
      <trkpt lat="47.20362" lon="-1.52722">
        <ele>47.3</ele>
        <time>2012-07-23T17:42:02.000Z</time>
      </trkpt>
      <trkpt lat="47.20364" lon="-1.52716">
        <ele>46.4</ele>
        <time>2012-07-23T17:42:04.000Z</time>
      </trkpt>
      <trkpt lat="47.20368" lon="-1.52708">
        <ele>46.7</ele>
        <time>2012-07-23T17:42:07.000Z</time>
      </trkpt>
      <trkpt lat="47.20372" lon="-1.527">
        <ele>46.2</ele>
        <time>2012-07-23T17:42:10.000Z</time>
      </trkpt>
      <trkpt lat="47.20376" lon="-1.52695">
        <ele>47.3</ele>
        <time>2012-07-23T17:42:12.000Z</time>
      </trkpt>
      <trkpt lat="47.20382" lon="-1.5269">
        <ele>49.9</ele>
        <time>2012-07-23T17:42:14.000Z</time>
      </trkpt>
      <trkpt lat="47.20386" lon="-1.52684">
        <ele>49.7</ele>
        <time>2012-07-23T17:42:16.000Z</time>
      </trkpt>
      <trkpt lat="47.20389" lon="-1.52678">
        <ele>50.2</ele>
        <time>2012-07-23T17:42:18.000Z</time>
      </trkpt>
      <trkpt lat="47.20392" lon="-1.52673">
        <ele>49</ele>
        <time>2012-07-23T17:42:20.000Z</time>
      </trkpt>
      <trkpt lat="47.20395" lon="-1.52666">
        <ele>49.7</ele>
        <time>2012-07-23T17:42:22.000Z</time>
      </trkpt>
      <trkpt lat="47.20398" lon="-1.52659">
        <ele>50.3</ele>
        <time>2012-07-23T17:42:24.000Z</time>
      </trkpt>
      <trkpt lat="47.20402" lon="-1.52653">
        <ele>50.8</ele>
        <time>2012-07-23T17:42:26.000Z</time>
      </trkpt>
      <trkpt lat="47.20406" lon="-1.52646">
        <ele>51.5</ele>
        <time>2012-07-23T17:42:28.000Z</time>
      </trkpt>
      <trkpt lat="47.20408" lon="-1.52641">
        <ele>51.8</ele>
        <time>2012-07-23T17:42:30.000Z</time>
      </trkpt>
      <trkpt lat="47.20412" lon="-1.52632">
        <ele>52.4</ele>
        <time>2012-07-23T17:42:33.000Z</time>
      </trkpt>
      <trkpt lat="47.20415" lon="-1.52623">
        <ele>51.4</ele>
        <time>2012-07-23T17:42:36.000Z</time>
      </trkpt>
      <trkpt lat="47.20417" lon="-1.52617">
        <ele>51.3</ele>
        <time>2012-07-23T17:42:38.000Z</time>
      </trkpt>
      <trkpt lat="47.2042" lon="-1.52611">
        <ele>51.2</ele>
        <time>2012-07-23T17:42:40.000Z</time>
      </trkpt>
      <trkpt lat="47.20422" lon="-1.52605">
        <ele>51</ele>
        <time>2012-07-23T17:42:42.000Z</time>
      </trkpt>
      <trkpt lat="47.20423" lon="-1.52598">
        <ele>50.8</ele>
        <time>2012-07-23T17:42:44.000Z</time>
      </trkpt>
      <trkpt lat="47.20423" lon="-1.52588">
        <ele>45.8</ele>
        <time>2012-07-23T17:42:47.000Z</time>
      </trkpt>
      <trkpt lat="47.20425" lon="-1.5258">
        <ele>45.2</ele>
        <time>2012-07-23T17:42:50.000Z</time>
      </trkpt>
      <trkpt lat="47.20428" lon="-1.52571">
        <ele>45.7</ele>
        <time>2012-07-23T17:42:53.000Z</time>
      </trkpt>
      <trkpt lat="47.20431" lon="-1.52563">
        <ele>46</ele>
        <time>2012-07-23T17:42:55.000Z</time>
      </trkpt>
      <trkpt lat="47.20434" lon="-1.52556">
        <ele>46.4</ele>
        <time>2012-07-23T17:42:57.000Z</time>
      </trkpt>
      <trkpt lat="47.20437" lon="-1.52551">
        <ele>47.3</ele>
        <time>2012-07-23T17:42:59.000Z</time>
      </trkpt>
      <trkpt lat="47.2044" lon="-1.52545">
        <ele>48.2</ele>
        <time>2012-07-23T17:43:01.000Z</time>
      </trkpt>
      <trkpt lat="47.20443" lon="-1.52538">
        <ele>48.9</ele>
        <time>2012-07-23T17:43:03.000Z</time>
      </trkpt>
      <trkpt lat="47.20444" lon="-1.52531">
        <ele>50.1</ele>
        <time>2012-07-23T17:43:05.000Z</time>
      </trkpt>
      <trkpt lat="47.20447" lon="-1.5252">
        <ele>53.3</ele>
        <time>2012-07-23T17:43:08.000Z</time>
      </trkpt>
      <trkpt lat="47.2045" lon="-1.52513">
        <ele>53.7</ele>
        <time>2012-07-23T17:43:10.000Z</time>
      </trkpt>
      <trkpt lat="47.20453" lon="-1.52504">
        <ele>52.4</ele>
        <time>2012-07-23T17:43:13.000Z</time>
      </trkpt>
      <trkpt lat="47.20455" lon="-1.52495">
        <ele>53.2</ele>
        <time>2012-07-23T17:43:16.000Z</time>
      </trkpt>
      <trkpt lat="47.20458" lon="-1.52488">
        <ele>54.1</ele>
        <time>2012-07-23T17:43:18.000Z</time>
      </trkpt>
      <trkpt lat="47.20461" lon="-1.52481">
        <ele>53.5</ele>
        <time>2012-07-23T17:43:20.000Z</time>
      </trkpt>
      <trkpt lat="47.20463" lon="-1.52474">
        <ele>53.9</ele>
        <time>2012-07-23T17:43:22.000Z</time>
      </trkpt>
      <trkpt lat="47.20467" lon="-1.52468">
        <ele>52.3</ele>
        <time>2012-07-23T17:43:24.000Z</time>
      </trkpt>
      <trkpt lat="47.20469" lon="-1.52461">
        <ele>53.3</ele>
        <time>2012-07-23T17:43:26.000Z</time>
      </trkpt>
      <trkpt lat="47.20472" lon="-1.52456">
        <ele>53.4</ele>
        <time>2012-07-23T17:43:28.000Z</time>
      </trkpt>
      <trkpt lat="47.20475" lon="-1.5245">
        <ele>53</ele>
        <time>2012-07-23T17:43:30.000Z</time>
      </trkpt>
      <trkpt lat="47.20479" lon="-1.52444">
        <ele>53.7</ele>
        <time>2012-07-23T17:43:32.000Z</time>
      </trkpt>
      <trkpt lat="47.20479" lon="-1.52436">
        <ele>52.9</ele>
        <time>2012-07-23T17:43:34.000Z</time>
      </trkpt>
      <trkpt lat="47.20482" lon="-1.52429">
        <ele>52.3</ele>
        <time>2012-07-23T17:43:36.000Z</time>
      </trkpt>
      <trkpt lat="47.20485" lon="-1.52423">
        <ele>53.6</ele>
        <time>2012-07-23T17:43:38.000Z</time>
      </trkpt>
      <trkpt lat="47.20488" lon="-1.52414">
        <ele>52.5</ele>
        <time>2012-07-23T17:43:41.000Z</time>
      </trkpt>
      <trkpt lat="47.2049" lon="-1.52407">
        <ele>52.3</ele>
        <time>2012-07-23T17:43:43.000Z</time>
      </trkpt>
      <trkpt lat="47.20492" lon="-1.52402">
        <ele>52.4</ele>
        <time>2012-07-23T17:43:45.000Z</time>
      </trkpt>
      <trkpt lat="47.20495" lon="-1.52396">
        <ele>52.4</ele>
        <time>2012-07-23T17:43:47.000Z</time>
      </trkpt>
      <trkpt lat="47.20492" lon="-1.5239">
        <ele>48.4</ele>
        <time>2012-07-23T17:43:49.000Z</time>
      </trkpt>
      <trkpt lat="47.20493" lon="-1.52382">
        <ele>46.2</ele>
        <time>2012-07-23T17:43:52.000Z</time>
      </trkpt>
      <trkpt lat="47.20494" lon="-1.52374">
        <ele>45.8</ele>
        <time>2012-07-23T17:43:55.000Z</time>
      </trkpt>
      <trkpt lat="47.20496" lon="-1.52366">
        <ele>45.9</ele>
        <time>2012-07-23T17:43:57.000Z</time>
      </trkpt>
      <trkpt lat="47.20498" lon="-1.52358">
        <ele>44</ele>
        <time>2012-07-23T17:43:59.000Z</time>
      </trkpt>
      <trkpt lat="47.20499" lon="-1.5235">
        <ele>43.9</ele>
        <time>2012-07-23T17:44:01.000Z</time>
      </trkpt>
      <trkpt lat="47.20502" lon="-1.52345">
        <ele>45.4</ele>
        <time>2012-07-23T17:44:03.000Z</time>
      </trkpt>
      <trkpt lat="47.20506" lon="-1.52338">
        <ele>46.6</ele>
        <time>2012-07-23T17:44:06.000Z</time>
      </trkpt>
      <trkpt lat="47.20508" lon="-1.52331">
        <ele>47</ele>
        <time>2012-07-23T17:44:08.000Z</time>
      </trkpt>
      <trkpt lat="47.20511" lon="-1.52322">
        <ele>46.6</ele>
        <time>2012-07-23T17:44:11.000Z</time>
      </trkpt>
      <trkpt lat="47.20514" lon="-1.52315">
        <ele>45.9</ele>
        <time>2012-07-23T17:44:13.000Z</time>
      </trkpt>
      <trkpt lat="47.20517" lon="-1.52309">
        <ele>46.4</ele>
        <time>2012-07-23T17:44:15.000Z</time>
      </trkpt>
      <trkpt lat="47.20519" lon="-1.52303">
        <ele>46.1</ele>
        <time>2012-07-23T17:44:17.000Z</time>
      </trkpt>
      <trkpt lat="47.20523" lon="-1.52295">
        <ele>48.4</ele>
        <time>2012-07-23T17:44:19.000Z</time>
      </trkpt>
      <trkpt lat="47.20525" lon="-1.52288">
        <ele>48.9</ele>
        <time>2012-07-23T17:44:21.000Z</time>
      </trkpt>
      <trkpt lat="47.20528" lon="-1.52281">
        <ele>49.6</ele>
        <time>2012-07-23T17:44:23.000Z</time>
      </trkpt>
      <trkpt lat="47.2053" lon="-1.52275">
        <ele>50.5</ele>
        <time>2012-07-23T17:44:25.000Z</time>
      </trkpt>
      <trkpt lat="47.20533" lon="-1.52267">
        <ele>50.9</ele>
        <time>2012-07-23T17:44:28.000Z</time>
      </trkpt>
      <trkpt lat="47.20536" lon="-1.52262">
        <ele>51.6</ele>
        <time>2012-07-23T17:44:30.000Z</time>
      </trkpt>
      <trkpt lat="47.20539" lon="-1.52256">
        <ele>52.9</ele>
        <time>2012-07-23T17:44:32.000Z</time>
      </trkpt>
      <trkpt lat="47.20542" lon="-1.52251">
        <ele>53.9</ele>
        <time>2012-07-23T17:44:34.000Z</time>
      </trkpt>
      <trkpt lat="47.20545" lon="-1.52243">
        <ele>51.7</ele>
        <time>2012-07-23T17:44:37.000Z</time>
      </trkpt>
      <trkpt lat="47.20549" lon="-1.52237">
        <ele>51.8</ele>
        <time>2012-07-23T17:44:39.000Z</time>
      </trkpt>
      <trkpt lat="47.20552" lon="-1.52232">
        <ele>51.9</ele>
        <time>2012-07-23T17:44:41.000Z</time>
      </trkpt>
      <trkpt lat="47.20554" lon="-1.52226">
        <ele>52.7</ele>
        <time>2012-07-23T17:44:43.000Z</time>
      </trkpt>
      <trkpt lat="47.20557" lon="-1.5222">
        <ele>53.1</ele>
        <time>2012-07-23T17:44:45.000Z</time>
      </trkpt>
      <trkpt lat="47.2056" lon="-1.52214">
        <ele>52.6</ele>
        <time>2012-07-23T17:44:47.000Z</time>
      </trkpt>
      <trkpt lat="47.20563" lon="-1.52208">
        <ele>53.2</ele>
        <time>2012-07-23T17:44:49.000Z</time>
      </trkpt>
      <trkpt lat="47.20566" lon="-1.52203">
        <ele>53.2</ele>
        <time>2012-07-23T17:44:51.000Z</time>
      </trkpt>
      <trkpt lat="47.2057" lon="-1.52196">
        <ele>54.3</ele>
        <time>2012-07-23T17:44:54.000Z</time>
      </trkpt>
      <trkpt lat="47.20574" lon="-1.5219">
        <ele>54.5</ele>
        <time>2012-07-23T17:44:56.000Z</time>
      </trkpt>
      <trkpt lat="47.20579" lon="-1.52184">
        <ele>56.6</ele>
        <time>2012-07-23T17:44:58.000Z</time>
      </trkpt>
      <trkpt lat="47.20582" lon="-1.52179">
        <ele>58.1</ele>
        <time>2012-07-23T17:45:00.000Z</time>
      </trkpt>
      <trkpt lat="47.20585" lon="-1.52173">
        <ele>58.1</ele>
        <time>2012-07-23T17:45:02.000Z</time>
      </trkpt>
      <trkpt lat="47.20589" lon="-1.52167">
        <ele>58.7</ele>
        <time>2012-07-23T17:45:04.000Z</time>
      </trkpt>
      <trkpt lat="47.20592" lon="-1.5216">
        <ele>57</ele>
        <time>2012-07-23T17:45:07.000Z</time>
      </trkpt>
      <trkpt lat="47.20595" lon="-1.52154">
        <ele>56.1</ele>
        <time>2012-07-23T17:45:09.000Z</time>
      </trkpt>
      <trkpt lat="47.20598" lon="-1.5215">
        <ele>56.7</ele>
        <time>2012-07-23T17:45:11.000Z</time>
      </trkpt>
      <trkpt lat="47.20602" lon="-1.52145">
        <ele>58.6</ele>
        <time>2012-07-23T17:45:13.000Z</time>
      </trkpt>
      <trkpt lat="47.20606" lon="-1.5214">
        <ele>60.9</ele>
        <time>2012-07-23T17:45:15.000Z</time>
      </trkpt>
      <trkpt lat="47.2061" lon="-1.52132">
        <ele>59.6</ele>
        <time>2012-07-23T17:45:18.000Z</time>
      </trkpt>
      <trkpt lat="47.20613" lon="-1.52124">
        <ele>59.4</ele>
        <time>2012-07-23T17:45:21.000Z</time>
      </trkpt>
      <trkpt lat="47.20618" lon="-1.52116">
        <ele>60</ele>
        <time>2012-07-23T17:45:24.000Z</time>
      </trkpt>
      <trkpt lat="47.20622" lon="-1.52111">
        <ele>60.7</ele>
        <time>2012-07-23T17:45:26.000Z</time>
      </trkpt>
      <trkpt lat="47.20625" lon="-1.52106">
        <ele>59.9</ele>
        <time>2012-07-23T17:45:28.000Z</time>
      </trkpt>
      <trkpt lat="47.20629" lon="-1.52099">
        <ele>60.7</ele>
        <time>2012-07-23T17:45:31.000Z</time>
      </trkpt>
      <trkpt lat="47.20632" lon="-1.52092">
        <ele>58.9</ele>
        <time>2012-07-23T17:45:34.000Z</time>
      </trkpt>
      <trkpt lat="47.20634" lon="-1.52086">
        <ele>57.5</ele>
        <time>2012-07-23T17:45:37.000Z</time>
      </trkpt>
      <trkpt lat="47.20638" lon="-1.52079">
        <ele>56.7</ele>
        <time>2012-07-23T17:45:40.000Z</time>
      </trkpt>
      <trkpt lat="47.20642" lon="-1.52074">
        <ele>56.6</ele>
        <time>2012-07-23T17:45:42.000Z</time>
      </trkpt>
      <trkpt lat="47.20645" lon="-1.52069">
        <ele>56.3</ele>
        <time>2012-07-23T17:45:44.000Z</time>
      </trkpt>
      <trkpt lat="47.20649" lon="-1.52064">
        <ele>56.1</ele>
        <time>2012-07-23T17:45:46.000Z</time>
      </trkpt>
      <trkpt lat="47.20652" lon="-1.52059">
        <ele>56.1</ele>
        <time>2012-07-23T17:45:48.000Z</time>
      </trkpt>
      <trkpt lat="47.20655" lon="-1.52053">
        <ele>55.9</ele>
        <time>2012-07-23T17:45:50.000Z</time>
      </trkpt>
      <trkpt lat="47.20657" lon="-1.52048">
        <ele>56</ele>
        <time>2012-07-23T17:45:52.000Z</time>
      </trkpt>
      <trkpt lat="47.2066" lon="-1.52042">
        <ele>56.1</ele>
        <time>2012-07-23T17:45:54.000Z</time>
      </trkpt>
      <trkpt lat="47.20663" lon="-1.52037">
        <ele>56.8</ele>
        <time>2012-07-23T17:45:56.000Z</time>
      </trkpt>
      <trkpt lat="47.20668" lon="-1.52032">
        <ele>58.6</ele>
        <time>2012-07-23T17:45:58.000Z</time>
      </trkpt>
      <trkpt lat="47.20672" lon="-1.52026">
        <ele>58.7</ele>
        <time>2012-07-23T17:46:00.000Z</time>
      </trkpt>
      <trkpt lat="47.20675" lon="-1.52021">
        <ele>59.1</ele>
        <time>2012-07-23T17:46:02.000Z</time>
      </trkpt>
      <trkpt lat="47.20679" lon="-1.52014">
        <ele>57.2</ele>
        <time>2012-07-23T17:46:05.000Z</time>
      </trkpt>
      <trkpt lat="47.20683" lon="-1.52007">
        <ele>56.5</ele>
        <time>2012-07-23T17:46:08.000Z</time>
      </trkpt>
      <trkpt lat="47.20687" lon="-1.52">
        <ele>56.6</ele>
        <time>2012-07-23T17:46:11.000Z</time>
      </trkpt>
      <trkpt lat="47.20691" lon="-1.51991">
        <ele>56.8</ele>
        <time>2012-07-23T17:46:14.000Z</time>
      </trkpt>
      <trkpt lat="47.20694" lon="-1.51984">
        <ele>56.4</ele>
        <time>2012-07-23T17:46:16.000Z</time>
      </trkpt>
      <trkpt lat="47.20698" lon="-1.51977">
        <ele>58.1</ele>
        <time>2012-07-23T17:46:18.000Z</time>
      </trkpt>
      <trkpt lat="47.20703" lon="-1.51971">
        <ele>56.7</ele>
        <time>2012-07-23T17:46:20.000Z</time>
      </trkpt>
      <trkpt lat="47.20707" lon="-1.51967">
        <ele>57.3</ele>
        <time>2012-07-23T17:46:22.000Z</time>
      </trkpt>
      <trkpt lat="47.2071" lon="-1.51958">
        <ele>57.6</ele>
        <time>2012-07-23T17:46:25.000Z</time>
      </trkpt>
      <trkpt lat="47.20714" lon="-1.51954">
        <ele>57.6</ele>
        <time>2012-07-23T17:46:27.000Z</time>
      </trkpt>
      <trkpt lat="47.20717" lon="-1.51947">
        <ele>57.1</ele>
        <time>2012-07-23T17:46:29.000Z</time>
      </trkpt>
      <trkpt lat="47.2072" lon="-1.51938">
        <ele>56</ele>
        <time>2012-07-23T17:46:32.000Z</time>
      </trkpt>
      <trkpt lat="47.20724" lon="-1.5193">
        <ele>56.5</ele>
        <time>2012-07-23T17:46:35.000Z</time>
      </trkpt>
      <trkpt lat="47.20727" lon="-1.51921">
        <ele>56.3</ele>
        <time>2012-07-23T17:46:38.000Z</time>
      </trkpt>
      <trkpt lat="47.20731" lon="-1.51916">
        <ele>58</ele>
        <time>2012-07-23T17:46:40.000Z</time>
      </trkpt>
      <trkpt lat="47.20735" lon="-1.51909">
        <ele>58.4</ele>
        <time>2012-07-23T17:46:42.000Z</time>
      </trkpt>
      <trkpt lat="47.20738" lon="-1.51904">
        <ele>59.1</ele>
        <time>2012-07-23T17:46:44.000Z</time>
      </trkpt>
      <trkpt lat="47.2074" lon="-1.51898">
        <ele>57.5</ele>
        <time>2012-07-23T17:46:46.000Z</time>
      </trkpt>
      <trkpt lat="47.20743" lon="-1.5189">
        <ele>57.8</ele>
        <time>2012-07-23T17:46:49.000Z</time>
      </trkpt>
      <trkpt lat="47.20745" lon="-1.51882">
        <ele>57.6</ele>
        <time>2012-07-23T17:46:52.000Z</time>
      </trkpt>
      <trkpt lat="47.20748" lon="-1.51874">
        <ele>57.6</ele>
        <time>2012-07-23T17:46:54.000Z</time>
      </trkpt>
      <trkpt lat="47.20751" lon="-1.51868">
        <ele>58.7</ele>
        <time>2012-07-23T17:46:56.000Z</time>
      </trkpt>
      <trkpt lat="47.20753" lon="-1.51862">
        <ele>59.1</ele>
        <time>2012-07-23T17:46:58.000Z</time>
      </trkpt>
      <trkpt lat="47.20755" lon="-1.51856">
        <ele>59.9</ele>
        <time>2012-07-23T17:47:00.000Z</time>
      </trkpt>
      <trkpt lat="47.20758" lon="-1.51848">
        <ele>61.2</ele>
        <time>2012-07-23T17:47:03.000Z</time>
      </trkpt>
      <trkpt lat="47.20761" lon="-1.51841">
        <ele>61.8</ele>
        <time>2012-07-23T17:47:05.000Z</time>
      </trkpt>
      <trkpt lat="47.20764" lon="-1.51836">
        <ele>62.4</ele>
        <time>2012-07-23T17:47:07.000Z</time>
      </trkpt>
      <trkpt lat="47.20768" lon="-1.51829">
        <ele>62.9</ele>
        <time>2012-07-23T17:47:09.000Z</time>
      </trkpt>
      <trkpt lat="47.2077" lon="-1.51823">
        <ele>61.8</ele>
        <time>2012-07-23T17:47:11.000Z</time>
      </trkpt>
      <trkpt lat="47.20773" lon="-1.51815">
        <ele>61.3</ele>
        <time>2012-07-23T17:47:13.000Z</time>
      </trkpt>
      <trkpt lat="47.20774" lon="-1.51809">
        <ele>60.1</ele>
        <time>2012-07-23T17:47:15.000Z</time>
      </trkpt>
      <trkpt lat="47.20776" lon="-1.51802">
        <ele>59.8</ele>
        <time>2012-07-23T17:47:17.000Z</time>
      </trkpt>
      <trkpt lat="47.20778" lon="-1.51796">
        <ele>59.1</ele>
        <time>2012-07-23T17:47:19.000Z</time>
      </trkpt>
      <trkpt lat="47.20779" lon="-1.51787">
        <ele>58.2</ele>
        <time>2012-07-23T17:47:22.000Z</time>
      </trkpt>
      <trkpt lat="47.20781" lon="-1.51777">
        <ele>58.2</ele>
        <time>2012-07-23T17:47:25.000Z</time>
      </trkpt>
      <trkpt lat="47.20782" lon="-1.5177">
        <ele>58.1</ele>
        <time>2012-07-23T17:47:28.000Z</time>
      </trkpt>
      <trkpt lat="47.20784" lon="-1.51761">
        <ele>58.2</ele>
        <time>2012-07-23T17:47:31.000Z</time>
      </trkpt>
      <trkpt lat="47.20786" lon="-1.51754">
        <ele>58.4</ele>
        <time>2012-07-23T17:47:33.000Z</time>
      </trkpt>
      <trkpt lat="47.20789" lon="-1.51747">
        <ele>57.8</ele>
        <time>2012-07-23T17:47:36.000Z</time>
      </trkpt>
      <trkpt lat="47.20792" lon="-1.51736">
        <ele>58</ele>
        <time>2012-07-23T17:47:39.000Z</time>
      </trkpt>
      <trkpt lat="47.20792" lon="-1.51728">
        <ele>57.2</ele>
        <time>2012-07-23T17:47:41.000Z</time>
      </trkpt>
      <trkpt lat="47.20793" lon="-1.51721">
        <ele>58.3</ele>
        <time>2012-07-23T17:47:43.000Z</time>
      </trkpt>
      <trkpt lat="47.20795" lon="-1.51714">
        <ele>58.6</ele>
        <time>2012-07-23T17:47:45.000Z</time>
      </trkpt>
      <trkpt lat="47.20795" lon="-1.51707">
        <ele>57.1</ele>
        <time>2012-07-23T17:47:47.000Z</time>
      </trkpt>
      <trkpt lat="47.20796" lon="-1.517">
        <ele>57.5</ele>
        <time>2012-07-23T17:47:49.000Z</time>
      </trkpt>
      <trkpt lat="47.20797" lon="-1.51694">
        <ele>57.5</ele>
        <time>2012-07-23T17:47:51.000Z</time>
      </trkpt>
      <trkpt lat="47.20799" lon="-1.51685">
        <ele>57.8</ele>
        <time>2012-07-23T17:47:53.000Z</time>
      </trkpt>
      <trkpt lat="47.208" lon="-1.51677">
        <ele>56.8</ele>
        <time>2012-07-23T17:47:55.000Z</time>
      </trkpt>
      <trkpt lat="47.20801" lon="-1.5167">
        <ele>56.5</ele>
        <time>2012-07-23T17:47:57.000Z</time>
      </trkpt>
      <trkpt lat="47.20803" lon="-1.51664">
        <ele>56.3</ele>
        <time>2012-07-23T17:47:59.000Z</time>
      </trkpt>
      <trkpt lat="47.20806" lon="-1.51655">
        <ele>56.4</ele>
        <time>2012-07-23T17:48:01.000Z</time>
      </trkpt>
      <trkpt lat="47.20808" lon="-1.51648">
        <ele>56</ele>
        <time>2012-07-23T17:48:03.000Z</time>
      </trkpt>
      <trkpt lat="47.2081" lon="-1.51641">
        <ele>56.5</ele>
        <time>2012-07-23T17:48:05.000Z</time>
      </trkpt>
      <trkpt lat="47.2081" lon="-1.51634">
        <ele>56.9</ele>
        <time>2012-07-23T17:48:07.000Z</time>
      </trkpt>
      <trkpt lat="47.20812" lon="-1.51627">
        <ele>57.4</ele>
        <time>2012-07-23T17:48:09.000Z</time>
      </trkpt>
      <trkpt lat="47.20815" lon="-1.51618">
        <ele>57</ele>
        <time>2012-07-23T17:48:12.000Z</time>
      </trkpt>
      <trkpt lat="47.20815" lon="-1.51609">
        <ele>56.5</ele>
        <time>2012-07-23T17:48:15.000Z</time>
      </trkpt>
      <trkpt lat="47.20817" lon="-1.51603">
        <ele>56.6</ele>
        <time>2012-07-23T17:48:17.000Z</time>
      </trkpt>
      <trkpt lat="47.20817" lon="-1.51594">
        <ele>56.1</ele>
        <time>2012-07-23T17:48:20.000Z</time>
      </trkpt>
      <trkpt lat="47.20817" lon="-1.51586">
        <ele>56.3</ele>
        <time>2012-07-23T17:48:23.000Z</time>
      </trkpt>
      <trkpt lat="47.20819" lon="-1.51578">
        <ele>55.7</ele>
        <time>2012-07-23T17:48:25.000Z</time>
      </trkpt>
      <trkpt lat="47.20823" lon="-1.51566">
        <ele>56.5</ele>
        <time>2012-07-23T17:48:28.000Z</time>
      </trkpt>
      <trkpt lat="47.20825" lon="-1.51559">
        <ele>56.4</ele>
        <time>2012-07-23T17:48:30.000Z</time>
      </trkpt>
      <trkpt lat="47.20825" lon="-1.51552">
        <ele>56.5</ele>
        <time>2012-07-23T17:48:32.000Z</time>
      </trkpt>
      <trkpt lat="47.20825" lon="-1.51542">
        <ele>57</ele>
        <time>2012-07-23T17:48:35.000Z</time>
      </trkpt>
      <trkpt lat="47.20826" lon="-1.51533">
        <ele>56.7</ele>
        <time>2012-07-23T17:48:38.000Z</time>
      </trkpt>
      <trkpt lat="47.20825" lon="-1.51522">
        <ele>56.6</ele>
        <time>2012-07-23T17:48:41.000Z</time>
      </trkpt>
      <trkpt lat="47.20827" lon="-1.51515">
        <ele>56.5</ele>
        <time>2012-07-23T17:48:43.000Z</time>
      </trkpt>
      <trkpt lat="47.20826" lon="-1.51508">
        <ele>58.1</ele>
        <time>2012-07-23T17:48:45.000Z</time>
      </trkpt>
      <trkpt lat="47.20827" lon="-1.51496">
        <ele>58.5</ele>
        <time>2012-07-23T17:48:48.000Z</time>
      </trkpt>
      <trkpt lat="47.20828" lon="-1.5149">
        <ele>58.2</ele>
        <time>2012-07-23T17:48:50.000Z</time>
      </trkpt>
      <trkpt lat="47.20827" lon="-1.5148">
        <ele>57.9</ele>
        <time>2012-07-23T17:48:53.000Z</time>
      </trkpt>
      <trkpt lat="47.20829" lon="-1.51473">
        <ele>56.7</ele>
        <time>2012-07-23T17:48:55.000Z</time>
      </trkpt>
      <trkpt lat="47.2083" lon="-1.51467">
        <ele>56.8</ele>
        <time>2012-07-23T17:48:57.000Z</time>
      </trkpt>
      <trkpt lat="47.20831" lon="-1.5146">
        <ele>57.6</ele>
        <time>2012-07-23T17:48:59.000Z</time>
      </trkpt>
      <trkpt lat="47.20833" lon="-1.51452">
        <ele>57.4</ele>
        <time>2012-07-23T17:49:01.000Z</time>
      </trkpt>
      <trkpt lat="47.20835" lon="-1.51446">
        <ele>58.4</ele>
        <time>2012-07-23T17:49:03.000Z</time>
      </trkpt>
      <trkpt lat="47.20835" lon="-1.51439">
        <ele>59.4</ele>
        <time>2012-07-23T17:49:05.000Z</time>
      </trkpt>
      <trkpt lat="47.20837" lon="-1.51429">
        <ele>60.4</ele>
        <time>2012-07-23T17:49:08.000Z</time>
      </trkpt>
      <trkpt lat="47.20838" lon="-1.51422">
        <ele>59.7</ele>
        <time>2012-07-23T17:49:10.000Z</time>
      </trkpt>
      <trkpt lat="47.2084" lon="-1.51416">
        <ele>58.9</ele>
        <time>2012-07-23T17:49:12.000Z</time>
      </trkpt>
      <trkpt lat="47.20841" lon="-1.51408">
        <ele>58.9</ele>
        <time>2012-07-23T17:49:15.000Z</time>
      </trkpt>
      <trkpt lat="47.20843" lon="-1.51402">
        <ele>57.7</ele>
        <time>2012-07-23T17:49:17.000Z</time>
      </trkpt>
      <trkpt lat="47.20844" lon="-1.51395">
        <ele>57.7</ele>
        <time>2012-07-23T17:49:19.000Z</time>
      </trkpt>
      <trkpt lat="47.20845" lon="-1.51387">
        <ele>57.3</ele>
        <time>2012-07-23T17:49:21.000Z</time>
      </trkpt>
      <trkpt lat="47.20848" lon="-1.51381">
        <ele>57.5</ele>
        <time>2012-07-23T17:49:24.000Z</time>
      </trkpt>
      <trkpt lat="47.2085" lon="-1.51375">
        <ele>56.8</ele>
        <time>2012-07-23T17:49:26.000Z</time>
      </trkpt>
      <trkpt lat="47.20853" lon="-1.51365">
        <ele>56.8</ele>
        <time>2012-07-23T17:49:29.000Z</time>
      </trkpt>
      <trkpt lat="47.20855" lon="-1.51356">
        <ele>56.1</ele>
        <time>2012-07-23T17:49:32.000Z</time>
      </trkpt>
      <trkpt lat="47.20857" lon="-1.51347">
        <ele>57</ele>
        <time>2012-07-23T17:49:34.000Z</time>
      </trkpt>
      <trkpt lat="47.2086" lon="-1.51341">
        <ele>57.6</ele>
        <time>2012-07-23T17:49:36.000Z</time>
      </trkpt>
      <trkpt lat="47.20862" lon="-1.5133">
        <ele>55.9</ele>
        <time>2012-07-23T17:49:39.000Z</time>
      </trkpt>
      <trkpt lat="47.20865" lon="-1.51323">
        <ele>56.2</ele>
        <time>2012-07-23T17:49:41.000Z</time>
      </trkpt>
      <trkpt lat="47.20868" lon="-1.51314">
        <ele>55.4</ele>
        <time>2012-07-23T17:49:43.000Z</time>
      </trkpt>
      <trkpt lat="47.2087" lon="-1.51307">
        <ele>55.5</ele>
        <time>2012-07-23T17:49:45.000Z</time>
      </trkpt>
      <trkpt lat="47.20874" lon="-1.51301">
        <ele>57.9</ele>
        <time>2012-07-23T17:49:47.000Z</time>
      </trkpt>
      <trkpt lat="47.20878" lon="-1.51294">
        <ele>59.3</ele>
        <time>2012-07-23T17:49:49.000Z</time>
      </trkpt>
      <trkpt lat="47.2088" lon="-1.51287">
        <ele>59.7</ele>
        <time>2012-07-23T17:49:51.000Z</time>
      </trkpt>
      <trkpt lat="47.20882" lon="-1.51279">
        <ele>60.1</ele>
        <time>2012-07-23T17:49:54.000Z</time>
      </trkpt>
      <trkpt lat="47.20888" lon="-1.51268">
        <ele>60.5</ele>
        <time>2012-07-23T17:49:57.000Z</time>
      </trkpt>
      <trkpt lat="47.20892" lon="-1.5126">
        <ele>60.2</ele>
        <time>2012-07-23T17:49:59.000Z</time>
      </trkpt>
      <trkpt lat="47.20896" lon="-1.51253">
        <ele>60.2</ele>
        <time>2012-07-23T17:50:02.000Z</time>
      </trkpt>
      <trkpt lat="47.20897" lon="-1.51247">
        <ele>59.2</ele>
        <time>2012-07-23T17:50:04.000Z</time>
      </trkpt>
      <trkpt lat="47.209" lon="-1.51241">
        <ele>59.2</ele>
        <time>2012-07-23T17:50:06.000Z</time>
      </trkpt>
      <trkpt lat="47.20899" lon="-1.51234">
        <ele>58.3</ele>
        <time>2012-07-23T17:50:08.000Z</time>
      </trkpt>
      <trkpt lat="47.20902" lon="-1.51226">
        <ele>58.1</ele>
        <time>2012-07-23T17:50:11.000Z</time>
      </trkpt>
      <trkpt lat="47.20905" lon="-1.51217">
        <ele>58.5</ele>
        <time>2012-07-23T17:50:14.000Z</time>
      </trkpt>
      <trkpt lat="47.20908" lon="-1.5121">
        <ele>59.9</ele>
        <time>2012-07-23T17:50:16.000Z</time>
      </trkpt>
      <trkpt lat="47.2091" lon="-1.51204">
        <ele>60.3</ele>
        <time>2012-07-23T17:50:18.000Z</time>
      </trkpt>
      <trkpt lat="47.20913" lon="-1.51198">
        <ele>60.7</ele>
        <time>2012-07-23T17:50:20.000Z</time>
      </trkpt>
      <trkpt lat="47.20916" lon="-1.5119">
        <ele>61.3</ele>
        <time>2012-07-23T17:50:23.000Z</time>
      </trkpt>
      <trkpt lat="47.20918" lon="-1.5118">
        <ele>61.1</ele>
        <time>2012-07-23T17:50:26.000Z</time>
      </trkpt>
      <trkpt lat="47.20921" lon="-1.51175">
        <ele>61.6</ele>
        <time>2012-07-23T17:50:28.000Z</time>
      </trkpt>
      <trkpt lat="47.20924" lon="-1.51167">
        <ele>60.7</ele>
        <time>2012-07-23T17:50:30.000Z</time>
      </trkpt>
      <trkpt lat="47.20928" lon="-1.51161">
        <ele>60.9</ele>
        <time>2012-07-23T17:50:32.000Z</time>
      </trkpt>
      <trkpt lat="47.20932" lon="-1.51154">
        <ele>60.6</ele>
        <time>2012-07-23T17:50:34.000Z</time>
      </trkpt>
      <trkpt lat="47.20933" lon="-1.51148">
        <ele>61.4</ele>
        <time>2012-07-23T17:50:36.000Z</time>
      </trkpt>
      <trkpt lat="47.20936" lon="-1.51142">
        <ele>61.1</ele>
        <time>2012-07-23T17:50:38.000Z</time>
      </trkpt>
      <trkpt lat="47.20937" lon="-1.51135">
        <ele>62.4</ele>
        <time>2012-07-23T17:50:41.000Z</time>
      </trkpt>
      <trkpt lat="47.20939" lon="-1.51126">
        <ele>62.8</ele>
        <time>2012-07-23T17:50:43.000Z</time>
      </trkpt>
      <trkpt lat="47.20942" lon="-1.51118">
        <ele>61.3</ele>
        <time>2012-07-23T17:50:45.000Z</time>
      </trkpt>
      <trkpt lat="47.20945" lon="-1.51112">
        <ele>61.3</ele>
        <time>2012-07-23T17:50:47.000Z</time>
      </trkpt>
      <trkpt lat="47.20946" lon="-1.51105">
        <ele>58.7</ele>
        <time>2012-07-23T17:50:50.000Z</time>
      </trkpt>
      <trkpt lat="47.20948" lon="-1.51099">
        <ele>58.4</ele>
        <time>2012-07-23T17:50:52.000Z</time>
      </trkpt>
      <trkpt lat="47.20951" lon="-1.51088">
        <ele>58.1</ele>
        <time>2012-07-23T17:50:55.000Z</time>
      </trkpt>
      <trkpt lat="47.2095" lon="-1.5108">
        <ele>57.2</ele>
        <time>2012-07-23T17:50:58.000Z</time>
      </trkpt>
      <trkpt lat="47.20952" lon="-1.51074">
        <ele>58.8</ele>
        <time>2012-07-23T17:51:00.000Z</time>
      </trkpt>
      <trkpt lat="47.20954" lon="-1.51065">
        <ele>57.1</ele>
        <time>2012-07-23T17:51:03.000Z</time>
      </trkpt>
      <trkpt lat="47.20957" lon="-1.51057">
        <ele>57.3</ele>
        <time>2012-07-23T17:51:05.000Z</time>
      </trkpt>
      <trkpt lat="47.20959" lon="-1.51048">
        <ele>57.8</ele>
        <time>2012-07-23T17:51:08.000Z</time>
      </trkpt>
      <trkpt lat="47.2096" lon="-1.51042">
        <ele>57.8</ele>
        <time>2012-07-23T17:51:10.000Z</time>
      </trkpt>
      <trkpt lat="47.20961" lon="-1.51035">
        <ele>57.4</ele>
        <time>2012-07-23T17:51:12.000Z</time>
      </trkpt>
      <trkpt lat="47.20963" lon="-1.51027">
        <ele>57.8</ele>
        <time>2012-07-23T17:51:14.000Z</time>
      </trkpt>
      <trkpt lat="47.20965" lon="-1.51021">
        <ele>57.6</ele>
        <time>2012-07-23T17:51:16.000Z</time>
      </trkpt>
      <trkpt lat="47.20967" lon="-1.51014">
        <ele>57.5</ele>
        <time>2012-07-23T17:51:18.000Z</time>
      </trkpt>
      <trkpt lat="47.2097" lon="-1.51007">
        <ele>52.2</ele>
        <time>2012-07-23T17:51:20.000Z</time>
      </trkpt>
      <trkpt lat="47.20973" lon="-1.50998">
        <ele>52.6</ele>
        <time>2012-07-23T17:51:23.000Z</time>
      </trkpt>
      <trkpt lat="47.20972" lon="-1.50991">
        <ele>53.6</ele>
        <time>2012-07-23T17:51:25.000Z</time>
      </trkpt>
      <trkpt lat="47.20972" lon="-1.50984">
        <ele>53.2</ele>
        <time>2012-07-23T17:51:27.000Z</time>
      </trkpt>
      <trkpt lat="47.20971" lon="-1.50977">
        <ele>52.9</ele>
        <time>2012-07-23T17:51:29.000Z</time>
      </trkpt>
      <trkpt lat="47.20971" lon="-1.50968">
        <ele>52.3</ele>
        <time>2012-07-23T17:51:32.000Z</time>
      </trkpt>
      <trkpt lat="47.20972" lon="-1.50959">
        <ele>52.1</ele>
        <time>2012-07-23T17:51:35.000Z</time>
      </trkpt>
      <trkpt lat="47.20975" lon="-1.50948">
        <ele>52.3</ele>
        <time>2012-07-23T17:51:38.000Z</time>
      </trkpt>
      <trkpt lat="47.20976" lon="-1.50941">
        <ele>52.3</ele>
        <time>2012-07-23T17:51:40.000Z</time>
      </trkpt>
      <trkpt lat="47.20977" lon="-1.5093">
        <ele>52.7</ele>
        <time>2012-07-23T17:51:43.000Z</time>
      </trkpt>
      <trkpt lat="47.20979" lon="-1.50921">
        <ele>51.9</ele>
        <time>2012-07-23T17:51:45.000Z</time>
      </trkpt>
      <trkpt lat="47.2098" lon="-1.50912">
        <ele>52.9</ele>
        <time>2012-07-23T17:51:48.000Z</time>
      </trkpt>
      <trkpt lat="47.20983" lon="-1.50905">
        <ele>53</ele>
        <time>2012-07-23T17:51:50.000Z</time>
      </trkpt>
      <trkpt lat="47.20984" lon="-1.50897">
        <ele>52.8</ele>
        <time>2012-07-23T17:51:52.000Z</time>
      </trkpt>
      <trkpt lat="47.20985" lon="-1.5089">
        <ele>52.3</ele>
        <time>2012-07-23T17:51:54.000Z</time>
      </trkpt>
      <trkpt lat="47.20984" lon="-1.50883">
        <ele>52.2</ele>
        <time>2012-07-23T17:51:56.000Z</time>
      </trkpt>
      <trkpt lat="47.20986" lon="-1.50875">
        <ele>52.2</ele>
        <time>2012-07-23T17:51:58.000Z</time>
      </trkpt>
      <trkpt lat="47.20987" lon="-1.50866">
        <ele>52.8</ele>
        <time>2012-07-23T17:52:00.000Z</time>
      </trkpt>
      <trkpt lat="47.20987" lon="-1.5086">
        <ele>54.4</ele>
        <time>2012-07-23T17:52:02.000Z</time>
      </trkpt>
      <trkpt lat="47.20988" lon="-1.50852">
        <ele>54.8</ele>
        <time>2012-07-23T17:52:04.000Z</time>
      </trkpt>
      <trkpt lat="47.20988" lon="-1.50844">
        <ele>55.2</ele>
        <time>2012-07-23T17:52:06.000Z</time>
      </trkpt>
      <trkpt lat="47.20991" lon="-1.50836">
        <ele>55.5</ele>
        <time>2012-07-23T17:52:08.000Z</time>
      </trkpt>
      <trkpt lat="47.20991" lon="-1.50828">
        <ele>55.1</ele>
        <time>2012-07-23T17:52:11.000Z</time>
      </trkpt>
      <trkpt lat="47.20992" lon="-1.50818">
        <ele>56.1</ele>
        <time>2012-07-23T17:52:14.000Z</time>
      </trkpt>
      <trkpt lat="47.20995" lon="-1.50811">
        <ele>56.9</ele>
        <time>2012-07-23T17:52:16.000Z</time>
      </trkpt>
      <trkpt lat="47.20995" lon="-1.50804">
        <ele>57.2</ele>
        <time>2012-07-23T17:52:18.000Z</time>
      </trkpt>
      <trkpt lat="47.20997" lon="-1.50796">
        <ele>56.6</ele>
        <time>2012-07-23T17:52:20.000Z</time>
      </trkpt>
      <trkpt lat="47.20998" lon="-1.50789">
        <ele>56.6</ele>
        <time>2012-07-23T17:52:22.000Z</time>
      </trkpt>
      <trkpt lat="47.20998" lon="-1.5078">
        <ele>56.1</ele>
        <time>2012-07-23T17:52:25.000Z</time>
      </trkpt>
      <trkpt lat="47.21" lon="-1.50771">
        <ele>55.8</ele>
        <time>2012-07-23T17:52:28.000Z</time>
      </trkpt>
      <trkpt lat="47.21" lon="-1.50765">
        <ele>55.8</ele>
        <time>2012-07-23T17:52:30.000Z</time>
      </trkpt>
      <trkpt lat="47.21002" lon="-1.50758">
        <ele>55.4</ele>
        <time>2012-07-23T17:52:32.000Z</time>
      </trkpt>
      <trkpt lat="47.21003" lon="-1.50751">
        <ele>55.3</ele>
        <time>2012-07-23T17:52:34.000Z</time>
      </trkpt>
      <trkpt lat="47.21004" lon="-1.50744">
        <ele>55.8</ele>
        <time>2012-07-23T17:52:36.000Z</time>
      </trkpt>
      <trkpt lat="47.21003" lon="-1.50735">
        <ele>53.3</ele>
        <time>2012-07-23T17:52:38.000Z</time>
      </trkpt>
      <trkpt lat="47.21003" lon="-1.50726">
        <ele>53.5</ele>
        <time>2012-07-23T17:52:40.000Z</time>
      </trkpt>
      <trkpt lat="47.21004" lon="-1.50718">
        <ele>54.5</ele>
        <time>2012-07-23T17:52:42.000Z</time>
      </trkpt>
      <trkpt lat="47.21002" lon="-1.5071">
        <ele>55.6</ele>
        <time>2012-07-23T17:52:45.000Z</time>
      </trkpt>
      <trkpt lat="47.21004" lon="-1.507">
        <ele>57.3</ele>
        <time>2012-07-23T17:52:48.000Z</time>
      </trkpt>
      <trkpt lat="47.21005" lon="-1.50693">
        <ele>57.7</ele>
        <time>2012-07-23T17:52:50.000Z</time>
      </trkpt>
      <trkpt lat="47.21005" lon="-1.50686">
        <ele>57.7</ele>
        <time>2012-07-23T17:52:52.000Z</time>
      </trkpt>
      <trkpt lat="47.21006" lon="-1.50677">
        <ele>58.3</ele>
        <time>2012-07-23T17:52:54.000Z</time>
      </trkpt>
      <trkpt lat="47.21006" lon="-1.5067">
        <ele>60.3</ele>
        <time>2012-07-23T17:52:56.000Z</time>
      </trkpt>
      <trkpt lat="47.21006" lon="-1.50663">
        <ele>59.4</ele>
        <time>2012-07-23T17:52:58.000Z</time>
      </trkpt>
      <trkpt lat="47.21007" lon="-1.50655">
        <ele>59.7</ele>
        <time>2012-07-23T17:53:00.000Z</time>
      </trkpt>
      <trkpt lat="47.21007" lon="-1.50647">
        <ele>59.6</ele>
        <time>2012-07-23T17:53:02.000Z</time>
      </trkpt>
      <trkpt lat="47.21009" lon="-1.50637">
        <ele>61.4</ele>
        <time>2012-07-23T17:53:05.000Z</time>
      </trkpt>
      <trkpt lat="47.2101" lon="-1.50629">
        <ele>61.9</ele>
        <time>2012-07-23T17:53:07.000Z</time>
      </trkpt>
      <trkpt lat="47.2101" lon="-1.50621">
        <ele>61.5</ele>
        <time>2012-07-23T17:53:09.000Z</time>
      </trkpt>
      <trkpt lat="47.21009" lon="-1.50614">
        <ele>61.5</ele>
        <time>2012-07-23T17:53:11.000Z</time>
      </trkpt>
      <trkpt lat="47.2101" lon="-1.50607">
        <ele>62.3</ele>
        <time>2012-07-23T17:53:13.000Z</time>
      </trkpt>
      <trkpt lat="47.21009" lon="-1.50597">
        <ele>60.5</ele>
        <time>2012-07-23T17:53:16.000Z</time>
      </trkpt>
      <trkpt lat="47.21009" lon="-1.5059">
        <ele>60.8</ele>
        <time>2012-07-23T17:53:18.000Z</time>
      </trkpt>
      <trkpt lat="47.2101" lon="-1.50582">
        <ele>61.1</ele>
        <time>2012-07-23T17:53:20.000Z</time>
      </trkpt>
      <trkpt lat="47.21011" lon="-1.50572">
        <ele>61.2</ele>
        <time>2012-07-23T17:53:23.000Z</time>
      </trkpt>
      <trkpt lat="47.21011" lon="-1.50564">
        <ele>59.7</ele>
        <time>2012-07-23T17:53:26.000Z</time>
      </trkpt>
      <trkpt lat="47.2101" lon="-1.50555">
        <ele>58.9</ele>
        <time>2012-07-23T17:53:29.000Z</time>
      </trkpt>
      <trkpt lat="47.21009" lon="-1.50545">
        <ele>59</ele>
        <time>2012-07-23T17:53:32.000Z</time>
      </trkpt>
      <trkpt lat="47.21008" lon="-1.50538">
        <ele>59.6</ele>
        <time>2012-07-23T17:53:34.000Z</time>
      </trkpt>
      <trkpt lat="47.21008" lon="-1.50531">
        <ele>60</ele>
        <time>2012-07-23T17:53:36.000Z</time>
      </trkpt>
      <trkpt lat="47.21006" lon="-1.50523">
        <ele>59.9</ele>
        <time>2012-07-23T17:53:38.000Z</time>
      </trkpt>
      <trkpt lat="47.21006" lon="-1.50513">
        <ele>59.2</ele>
        <time>2012-07-23T17:53:41.000Z</time>
      </trkpt>
      <trkpt lat="47.21005" lon="-1.50503">
        <ele>51.9</ele>
        <time>2012-07-23T17:53:44.000Z</time>
      </trkpt>
      <trkpt lat="47.21006" lon="-1.50496">
        <ele>53</ele>
        <time>2012-07-23T17:53:46.000Z</time>
      </trkpt>
      <trkpt lat="47.21006" lon="-1.50489">
        <ele>54</ele>
        <time>2012-07-23T17:53:48.000Z</time>
      </trkpt>
      <trkpt lat="47.21008" lon="-1.50481">
        <ele>54.3</ele>
        <time>2012-07-23T17:53:50.000Z</time>
      </trkpt>
      <trkpt lat="47.21008" lon="-1.50474">
        <ele>54.5</ele>
        <time>2012-07-23T17:53:52.000Z</time>
      </trkpt>
      <trkpt lat="47.21008" lon="-1.50467">
        <ele>54.1</ele>
        <time>2012-07-23T17:53:54.000Z</time>
      </trkpt>
      <trkpt lat="47.21008" lon="-1.5046">
        <ele>54.1</ele>
        <time>2012-07-23T17:53:56.000Z</time>
      </trkpt>
      <trkpt lat="47.21007" lon="-1.5045">
        <ele>53.7</ele>
        <time>2012-07-23T17:53:59.000Z</time>
      </trkpt>
      <trkpt lat="47.21007" lon="-1.50442">
        <ele>53</ele>
        <time>2012-07-23T17:54:01.000Z</time>
      </trkpt>
      <trkpt lat="47.21007" lon="-1.50434">
        <ele>54</ele>
        <time>2012-07-23T17:54:03.000Z</time>
      </trkpt>
      <trkpt lat="47.21005" lon="-1.50427">
        <ele>54.6</ele>
        <time>2012-07-23T17:54:05.000Z</time>
      </trkpt>
      <trkpt lat="47.21006" lon="-1.50419">
        <ele>54.9</ele>
        <time>2012-07-23T17:54:07.000Z</time>
      </trkpt>
      <trkpt lat="47.21006" lon="-1.5041">
        <ele>56</ele>
        <time>2012-07-23T17:54:10.000Z</time>
      </trkpt>
      <trkpt lat="47.21005" lon="-1.50403">
        <ele>56.7</ele>
        <time>2012-07-23T17:54:12.000Z</time>
      </trkpt>
      <trkpt lat="47.21005" lon="-1.50395">
        <ele>56.9</ele>
        <time>2012-07-23T17:54:14.000Z</time>
      </trkpt>
      <trkpt lat="47.21005" lon="-1.50386">
        <ele>57.9</ele>
        <time>2012-07-23T17:54:17.000Z</time>
      </trkpt>
      <trkpt lat="47.21004" lon="-1.50378">
        <ele>58.9</ele>
        <time>2012-07-23T17:54:19.000Z</time>
      </trkpt>
      <trkpt lat="47.21006" lon="-1.50369">
        <ele>59</ele>
        <time>2012-07-23T17:54:21.000Z</time>
      </trkpt>
      <trkpt lat="47.21006" lon="-1.50362">
        <ele>59.3</ele>
        <time>2012-07-23T17:54:23.000Z</time>
      </trkpt>
      <trkpt lat="47.21006" lon="-1.50355">
        <ele>58.5</ele>
        <time>2012-07-23T17:54:25.000Z</time>
      </trkpt>
      <trkpt lat="47.21004" lon="-1.50345">
        <ele>57.8</ele>
        <time>2012-07-23T17:54:28.000Z</time>
      </trkpt>
      <trkpt lat="47.21006" lon="-1.50337">
        <ele>57.9</ele>
        <time>2012-07-23T17:54:30.000Z</time>
      </trkpt>
      <trkpt lat="47.21006" lon="-1.5033">
        <ele>57.2</ele>
        <time>2012-07-23T17:54:32.000Z</time>
      </trkpt>
      <trkpt lat="47.21007" lon="-1.50323">
        <ele>56.7</ele>
        <time>2012-07-23T17:54:34.000Z</time>
      </trkpt>
      <trkpt lat="47.21007" lon="-1.50317">
        <ele>56.9</ele>
        <time>2012-07-23T17:54:36.000Z</time>
      </trkpt>
      <trkpt lat="47.21008" lon="-1.50309">
        <ele>56.9</ele>
        <time>2012-07-23T17:54:38.000Z</time>
      </trkpt>
      <trkpt lat="47.21009" lon="-1.503">
        <ele>56.7</ele>
        <time>2012-07-23T17:54:41.000Z</time>
      </trkpt>
      <trkpt lat="47.2101" lon="-1.50291">
        <ele>55.9</ele>
        <time>2012-07-23T17:54:44.000Z</time>
      </trkpt>
      <trkpt lat="47.21009" lon="-1.50281">
        <ele>51.6</ele>
        <time>2012-07-23T17:54:47.000Z</time>
      </trkpt>
      <trkpt lat="47.2101" lon="-1.50273">
        <ele>51.3</ele>
        <time>2012-07-23T17:54:50.000Z</time>
      </trkpt>
      <trkpt lat="47.21011" lon="-1.50266">
        <ele>53.4</ele>
        <time>2012-07-23T17:54:52.000Z</time>
      </trkpt>
      <trkpt lat="47.21015" lon="-1.50256">
        <ele>53.8</ele>
        <time>2012-07-23T17:54:54.000Z</time>
      </trkpt>
      <trkpt lat="47.21017" lon="-1.5025">
        <ele>53.9</ele>
        <time>2012-07-23T17:54:56.000Z</time>
      </trkpt>
      <trkpt lat="47.21019" lon="-1.50244">
        <ele>54.3</ele>
        <time>2012-07-23T17:54:58.000Z</time>
      </trkpt>
      <trkpt lat="47.21022" lon="-1.50238">
        <ele>55.1</ele>
        <time>2012-07-23T17:55:00.000Z</time>
      </trkpt>
      <trkpt lat="47.21024" lon="-1.50231">
        <ele>53.5</ele>
        <time>2012-07-23T17:55:02.000Z</time>
      </trkpt>
      <trkpt lat="47.21028" lon="-1.50222">
        <ele>55.4</ele>
        <time>2012-07-23T17:55:05.000Z</time>
      </trkpt>
      <trkpt lat="47.21029" lon="-1.50216">
        <ele>56</ele>
        <time>2012-07-23T17:55:07.000Z</time>
      </trkpt>
      <trkpt lat="47.2103" lon="-1.50207">
        <ele>56</ele>
        <time>2012-07-23T17:55:10.000Z</time>
      </trkpt>
      <trkpt lat="47.21031" lon="-1.50198">
        <ele>57.1</ele>
        <time>2012-07-23T17:55:13.000Z</time>
      </trkpt>
      <trkpt lat="47.21031" lon="-1.50189">
        <ele>57.6</ele>
        <time>2012-07-23T17:55:15.000Z</time>
      </trkpt>
      <trkpt lat="47.21035" lon="-1.50181">
        <ele>58.4</ele>
        <time>2012-07-23T17:55:17.000Z</time>
      </trkpt>
      <trkpt lat="47.21038" lon="-1.50174">
        <ele>58.1</ele>
        <time>2012-07-23T17:55:19.000Z</time>
      </trkpt>
      <trkpt lat="47.2104" lon="-1.50168">
        <ele>57.6</ele>
        <time>2012-07-23T17:55:21.000Z</time>
      </trkpt>
      <trkpt lat="47.21041" lon="-1.50161">
        <ele>58.6</ele>
        <time>2012-07-23T17:55:23.000Z</time>
      </trkpt>
      <trkpt lat="47.21042" lon="-1.50152">
        <ele>59.8</ele>
        <time>2012-07-23T17:55:26.000Z</time>
      </trkpt>
      <trkpt lat="47.21045" lon="-1.50146">
        <ele>59.8</ele>
        <time>2012-07-23T17:55:28.000Z</time>
      </trkpt>
      <trkpt lat="47.21046" lon="-1.50139">
        <ele>60.1</ele>
        <time>2012-07-23T17:55:30.000Z</time>
      </trkpt>
      <trkpt lat="47.21048" lon="-1.5013">
        <ele>59.2</ele>
        <time>2012-07-23T17:55:32.000Z</time>
      </trkpt>
      <trkpt lat="47.21048" lon="-1.50123">
        <ele>58.7</ele>
        <time>2012-07-23T17:55:34.000Z</time>
      </trkpt>
      <trkpt lat="47.21049" lon="-1.50116">
        <ele>57.9</ele>
        <time>2012-07-23T17:55:36.000Z</time>
      </trkpt>
      <trkpt lat="47.21052" lon="-1.5011">
        <ele>57.8</ele>
        <time>2012-07-23T17:55:38.000Z</time>
      </trkpt>
      <trkpt lat="47.21054" lon="-1.50098">
        <ele>59.2</ele>
        <time>2012-07-23T17:55:41.000Z</time>
      </trkpt>
      <trkpt lat="47.21055" lon="-1.5009">
        <ele>59.4</ele>
        <time>2012-07-23T17:55:43.000Z</time>
      </trkpt>
      <trkpt lat="47.21058" lon="-1.50083">
        <ele>58.1</ele>
        <time>2012-07-23T17:55:45.000Z</time>
      </trkpt>
      <trkpt lat="47.2106" lon="-1.50074">
        <ele>53.7</ele>
        <time>2012-07-23T17:55:48.000Z</time>
      </trkpt>
      <trkpt lat="47.21062" lon="-1.50067">
        <ele>53.2</ele>
        <time>2012-07-23T17:55:50.000Z</time>
      </trkpt>
      <trkpt lat="47.21063" lon="-1.50059">
        <ele>53.7</ele>
        <time>2012-07-23T17:55:53.000Z</time>
      </trkpt>
      <trkpt lat="47.21065" lon="-1.5005">
        <ele>55.5</ele>
        <time>2012-07-23T17:55:56.000Z</time>
      </trkpt>
      <trkpt lat="47.21067" lon="-1.50041">
        <ele>56</ele>
        <time>2012-07-23T17:55:59.000Z</time>
      </trkpt>
      <trkpt lat="47.21069" lon="-1.50032">
        <ele>56.1</ele>
        <time>2012-07-23T17:56:02.000Z</time>
      </trkpt>
      <trkpt lat="47.21072" lon="-1.5002">
        <ele>56.5</ele>
        <time>2012-07-23T17:56:05.000Z</time>
      </trkpt>
      <trkpt lat="47.21072" lon="-1.50012">
        <ele>56.6</ele>
        <time>2012-07-23T17:56:07.000Z</time>
      </trkpt>
      <trkpt lat="47.21073" lon="-1.50002">
        <ele>54.8</ele>
        <time>2012-07-23T17:56:10.000Z</time>
      </trkpt>
      <trkpt lat="47.21076" lon="-1.49995">
        <ele>55.9</ele>
        <time>2012-07-23T17:56:12.000Z</time>
      </trkpt>
      <trkpt lat="47.21079" lon="-1.49986">
        <ele>55.9</ele>
        <time>2012-07-23T17:56:14.000Z</time>
      </trkpt>
      <trkpt lat="47.21082" lon="-1.49979">
        <ele>56.1</ele>
        <time>2012-07-23T17:56:16.000Z</time>
      </trkpt>
      <trkpt lat="47.21082" lon="-1.49972">
        <ele>53</ele>
        <time>2012-07-23T17:56:19.000Z</time>
      </trkpt>
      <trkpt lat="47.21083" lon="-1.49962">
        <ele>54.2</ele>
        <time>2012-07-23T17:56:22.000Z</time>
      </trkpt>
      <trkpt lat="47.21084" lon="-1.49954">
        <ele>55.2</ele>
        <time>2012-07-23T17:56:25.000Z</time>
      </trkpt>
      <trkpt lat="47.21086" lon="-1.49947">
        <ele>54.8</ele>
        <time>2012-07-23T17:56:27.000Z</time>
      </trkpt>
      <trkpt lat="47.21088" lon="-1.49939">
        <ele>55.1</ele>
        <time>2012-07-23T17:56:29.000Z</time>
      </trkpt>
      <trkpt lat="47.21091" lon="-1.49933">
        <ele>54.7</ele>
        <time>2012-07-23T17:56:31.000Z</time>
      </trkpt>
      <trkpt lat="47.21092" lon="-1.49926">
        <ele>52</ele>
        <time>2012-07-23T17:56:33.000Z</time>
      </trkpt>
      <trkpt lat="47.21094" lon="-1.49918">
        <ele>51.3</ele>
        <time>2012-07-23T17:56:35.000Z</time>
      </trkpt>
      <trkpt lat="47.21096" lon="-1.49909">
        <ele>50.4</ele>
        <time>2012-07-23T17:56:38.000Z</time>
      </trkpt>
      <trkpt lat="47.21097" lon="-1.499">
        <ele>50.7</ele>
        <time>2012-07-23T17:56:41.000Z</time>
      </trkpt>
      <trkpt lat="47.211" lon="-1.49893">
        <ele>51.6</ele>
        <time>2012-07-23T17:56:43.000Z</time>
      </trkpt>
      <trkpt lat="47.21102" lon="-1.49886">
        <ele>50.5</ele>
        <time>2012-07-23T17:56:45.000Z</time>
      </trkpt>
      <trkpt lat="47.21104" lon="-1.4988">
        <ele>51.7</ele>
        <time>2012-07-23T17:56:47.000Z</time>
      </trkpt>
      <trkpt lat="47.21106" lon="-1.49873">
        <ele>52.1</ele>
        <time>2012-07-23T17:56:49.000Z</time>
      </trkpt>
      <trkpt lat="47.21107" lon="-1.49866">
        <ele>52.5</ele>
        <time>2012-07-23T17:56:51.000Z</time>
      </trkpt>
      <trkpt lat="47.21104" lon="-1.49858">
        <ele>52.3</ele>
        <time>2012-07-23T17:56:54.000Z</time>
      </trkpt>
      <trkpt lat="47.21104" lon="-1.4985">
        <ele>52.3</ele>
        <time>2012-07-23T17:56:57.000Z</time>
      </trkpt>
      <trkpt lat="47.21105" lon="-1.49842">
        <ele>51.3</ele>
        <time>2012-07-23T17:57:00.000Z</time>
      </trkpt>
      <trkpt lat="47.2111" lon="-1.49835">
        <ele>54.2</ele>
        <time>2012-07-23T17:57:02.000Z</time>
      </trkpt>
      <trkpt lat="47.21113" lon="-1.4983">
        <ele>55</ele>
        <time>2012-07-23T17:57:04.000Z</time>
      </trkpt>
      <trkpt lat="47.21116" lon="-1.49824">
        <ele>55.5</ele>
        <time>2012-07-23T17:57:06.000Z</time>
      </trkpt>
      <trkpt lat="47.21119" lon="-1.49817">
        <ele>55.6</ele>
        <time>2012-07-23T17:57:08.000Z</time>
      </trkpt>
      <trkpt lat="47.21122" lon="-1.49811">
        <ele>55.5</ele>
        <time>2012-07-23T17:57:10.000Z</time>
      </trkpt>
      <trkpt lat="47.21124" lon="-1.49804">
        <ele>54.3</ele>
        <time>2012-07-23T17:57:13.000Z</time>
      </trkpt>
      <trkpt lat="47.21128" lon="-1.49796">
        <ele>52.4</ele>
        <time>2012-07-23T17:57:16.000Z</time>
      </trkpt>
      <trkpt lat="47.21129" lon="-1.4979">
        <ele>53.4</ele>
        <time>2012-07-23T17:57:18.000Z</time>
      </trkpt>
      <trkpt lat="47.2113" lon="-1.49783">
        <ele>53.3</ele>
        <time>2012-07-23T17:57:20.000Z</time>
      </trkpt>
      <trkpt lat="47.21132" lon="-1.49776">
        <ele>53.6</ele>
        <time>2012-07-23T17:57:22.000Z</time>
      </trkpt>
      <trkpt lat="47.21134" lon="-1.4977">
        <ele>53.9</ele>
        <time>2012-07-23T17:57:24.000Z</time>
      </trkpt>
      <trkpt lat="47.21135" lon="-1.49762">
        <ele>54.3</ele>
        <time>2012-07-23T17:57:26.000Z</time>
      </trkpt>
      <trkpt lat="47.21136" lon="-1.49756">
        <ele>54.9</ele>
        <time>2012-07-23T17:57:28.000Z</time>
      </trkpt>
      <trkpt lat="47.21136" lon="-1.49746">
        <ele>54.8</ele>
        <time>2012-07-23T17:57:30.000Z</time>
      </trkpt>
      <trkpt lat="47.21135" lon="-1.49739">
        <ele>54.8</ele>
        <time>2012-07-23T17:57:32.000Z</time>
      </trkpt>
      <trkpt lat="47.21134" lon="-1.49729">
        <ele>55.1</ele>
        <time>2012-07-23T17:57:35.000Z</time>
      </trkpt>
      <trkpt lat="47.21134" lon="-1.49719">
        <ele>55.6</ele>
        <time>2012-07-23T17:57:38.000Z</time>
      </trkpt>
      <trkpt lat="47.21133" lon="-1.49712">
        <ele>55.9</ele>
        <time>2012-07-23T17:57:40.000Z</time>
      </trkpt>
      <trkpt lat="47.21135" lon="-1.49706">
        <ele>55.8</ele>
        <time>2012-07-23T17:57:42.000Z</time>
      </trkpt>
      <trkpt lat="47.21135" lon="-1.49698">
        <ele>55.6</ele>
        <time>2012-07-23T17:57:45.000Z</time>
      </trkpt>
      <trkpt lat="47.21132" lon="-1.49694">
        <ele>55.5</ele>
        <time>2012-07-23T17:57:47.000Z</time>
      </trkpt>
      <trkpt lat="47.2113" lon="-1.49686">
        <ele>55.9</ele>
        <time>2012-07-23T17:57:52.000Z</time>
      </trkpt>
      <trkpt lat="47.2113" lon="-1.49677">
        <ele>57.8</ele>
        <time>2012-07-23T17:58:30.000Z</time>
      </trkpt>
      <trkpt lat="47.2113" lon="-1.4967">
        <ele>57.6</ele>
        <time>2012-07-23T17:58:33.000Z</time>
      </trkpt>
      <trkpt lat="47.21129" lon="-1.49661">
        <ele>57.6</ele>
        <time>2012-07-23T17:58:36.000Z</time>
      </trkpt>
      <trkpt lat="47.2113" lon="-1.49653">
        <ele>57.8</ele>
        <time>2012-07-23T17:58:38.000Z</time>
      </trkpt>
      <trkpt lat="47.21131" lon="-1.49645">
        <ele>58.1</ele>
        <time>2012-07-23T17:58:40.000Z</time>
      </trkpt>
      <trkpt lat="47.21132" lon="-1.49636">
        <ele>58.1</ele>
        <time>2012-07-23T17:58:42.000Z</time>
      </trkpt>
      <trkpt lat="47.21135" lon="-1.49629">
        <ele>58.8</ele>
        <time>2012-07-23T17:58:45.000Z</time>
      </trkpt>
      <trkpt lat="47.21134" lon="-1.49622">
        <ele>57.5</ele>
        <time>2012-07-23T17:58:47.000Z</time>
      </trkpt>
      <trkpt lat="47.21136" lon="-1.49611">
        <ele>57.6</ele>
        <time>2012-07-23T17:58:49.000Z</time>
      </trkpt>
      <trkpt lat="47.21138" lon="-1.49604">
        <ele>58.6</ele>
        <time>2012-07-23T17:58:51.000Z</time>
      </trkpt>
      <trkpt lat="47.21138" lon="-1.49595">
        <ele>58.6</ele>
        <time>2012-07-23T17:58:55.000Z</time>
      </trkpt>
      <trkpt lat="47.2114" lon="-1.49588">
        <ele>59.4</ele>
        <time>2012-07-23T17:58:57.000Z</time>
      </trkpt>
      <trkpt lat="47.21141" lon="-1.49582">
        <ele>60</ele>
        <time>2012-07-23T17:58:59.000Z</time>
      </trkpt>
      <trkpt lat="47.21142" lon="-1.49574">
        <ele>59.6</ele>
        <time>2012-07-23T17:59:01.000Z</time>
      </trkpt>
      <trkpt lat="47.21139" lon="-1.49567">
        <ele>60.4</ele>
        <time>2012-07-23T17:59:03.000Z</time>
      </trkpt>
      <trkpt lat="47.21136" lon="-1.49559">
        <ele>59.8</ele>
        <time>2012-07-23T17:59:05.000Z</time>
      </trkpt>
      <trkpt lat="47.21135" lon="-1.4955">
        <ele>63.3</ele>
        <time>2012-07-23T17:59:07.000Z</time>
      </trkpt>
      <trkpt lat="47.21133" lon="-1.49544">
        <ele>60.4</ele>
        <time>2012-07-23T17:59:09.000Z</time>
      </trkpt>
      <trkpt lat="47.2113" lon="-1.49534">
        <ele>57.1</ele>
        <time>2012-07-23T17:59:12.000Z</time>
      </trkpt>
      <trkpt lat="47.21129" lon="-1.49524">
        <ele>55.9</ele>
        <time>2012-07-23T17:59:15.000Z</time>
      </trkpt>
      <trkpt lat="47.2113" lon="-1.49514">
        <ele>55.4</ele>
        <time>2012-07-23T17:59:18.000Z</time>
      </trkpt>
      <trkpt lat="47.2113" lon="-1.49506">
        <ele>55.3</ele>
        <time>2012-07-23T17:59:20.000Z</time>
      </trkpt>
      <trkpt lat="47.2113" lon="-1.49499">
        <ele>54.8</ele>
        <time>2012-07-23T17:59:22.000Z</time>
      </trkpt>
      <trkpt lat="47.2113" lon="-1.4949">
        <ele>55.3</ele>
        <time>2012-07-23T17:59:25.000Z</time>
      </trkpt>
      <trkpt lat="47.21131" lon="-1.49483">
        <ele>56</ele>
        <time>2012-07-23T17:59:27.000Z</time>
      </trkpt>
      <trkpt lat="47.21132" lon="-1.49476">
        <ele>56.4</ele>
        <time>2012-07-23T17:59:29.000Z</time>
      </trkpt>
      <trkpt lat="47.21132" lon="-1.49466">
        <ele>56.2</ele>
        <time>2012-07-23T17:59:31.000Z</time>
      </trkpt>
      <trkpt lat="47.21136" lon="-1.49459">
        <ele>56.4</ele>
        <time>2012-07-23T17:59:33.000Z</time>
      </trkpt>
      <trkpt lat="47.21135" lon="-1.49451">
        <ele>56.7</ele>
        <time>2012-07-23T17:59:35.000Z</time>
      </trkpt>
      <trkpt lat="47.21134" lon="-1.49443">
        <ele>56.6</ele>
        <time>2012-07-23T17:59:37.000Z</time>
      </trkpt>
      <trkpt lat="47.21133" lon="-1.49433">
        <ele>56.1</ele>
        <time>2012-07-23T17:59:40.000Z</time>
      </trkpt>
      <trkpt lat="47.21133" lon="-1.49426">
        <ele>56.5</ele>
        <time>2012-07-23T17:59:42.000Z</time>
      </trkpt>
      <trkpt lat="47.21133" lon="-1.49415">
        <ele>57.5</ele>
        <time>2012-07-23T17:59:45.000Z</time>
      </trkpt>
      <trkpt lat="47.21134" lon="-1.49408">
        <ele>57.3</ele>
        <time>2012-07-23T17:59:47.000Z</time>
      </trkpt>
      <trkpt lat="47.21135" lon="-1.494">
        <ele>57.4</ele>
        <time>2012-07-23T17:59:49.000Z</time>
      </trkpt>
      <trkpt lat="47.21136" lon="-1.49393">
        <ele>57.5</ele>
        <time>2012-07-23T17:59:51.000Z</time>
      </trkpt>
      <trkpt lat="47.21138" lon="-1.49385">
        <ele>57</ele>
        <time>2012-07-23T17:59:53.000Z</time>
      </trkpt>
      <trkpt lat="47.21138" lon="-1.49377">
        <ele>56.3</ele>
        <time>2012-07-23T17:59:55.000Z</time>
      </trkpt>
      <trkpt lat="47.21138" lon="-1.4937">
        <ele>56.2</ele>
        <time>2012-07-23T17:59:57.000Z</time>
      </trkpt>
      <trkpt lat="47.21138" lon="-1.49361">
        <ele>56.3</ele>
        <time>2012-07-23T17:59:59.000Z</time>
      </trkpt>
      <trkpt lat="47.21138" lon="-1.49354">
        <ele>57</ele>
        <time>2012-07-23T18:00:01.000Z</time>
      </trkpt>
      <trkpt lat="47.21137" lon="-1.49346">
        <ele>48.2</ele>
        <time>2012-07-23T18:00:04.000Z</time>
      </trkpt>
      <trkpt lat="47.21137" lon="-1.49335">
        <ele>47.2</ele>
        <time>2012-07-23T18:00:07.000Z</time>
      </trkpt>
      <trkpt lat="47.21137" lon="-1.49328">
        <ele>46.5</ele>
        <time>2012-07-23T18:00:09.000Z</time>
      </trkpt>
      <trkpt lat="47.21136" lon="-1.49321">
        <ele>46</ele>
        <time>2012-07-23T18:00:11.000Z</time>
      </trkpt>
      <trkpt lat="47.21137" lon="-1.49311">
        <ele>45.8</ele>
        <time>2012-07-23T18:00:14.000Z</time>
      </trkpt>
      <trkpt lat="47.21137" lon="-1.49302">
        <ele>46.6</ele>
        <time>2012-07-23T18:00:16.000Z</time>
      </trkpt>
      <trkpt lat="47.21136" lon="-1.49295">
        <ele>45</ele>
        <time>2012-07-23T18:00:18.000Z</time>
      </trkpt>
      <trkpt lat="47.21133" lon="-1.49289">
        <ele>46.9</ele>
        <time>2012-07-23T18:00:20.000Z</time>
      </trkpt>
      <trkpt lat="47.21133" lon="-1.49281">
        <ele>40.9</ele>
        <time>2012-07-23T18:00:23.000Z</time>
      </trkpt>
      <trkpt lat="47.21134" lon="-1.49274">
        <ele>40.1</ele>
        <time>2012-07-23T18:00:25.000Z</time>
      </trkpt>
      <trkpt lat="47.21135" lon="-1.49266">
        <ele>41.3</ele>
        <time>2012-07-23T18:00:27.000Z</time>
      </trkpt>
      <trkpt lat="47.21136" lon="-1.49258">
        <ele>41.8</ele>
        <time>2012-07-23T18:00:29.000Z</time>
      </trkpt>
      <trkpt lat="47.21138" lon="-1.4925">
        <ele>43.6</ele>
        <time>2012-07-23T18:00:31.000Z</time>
      </trkpt>
      <trkpt lat="47.21139" lon="-1.49241">
        <ele>44</ele>
        <time>2012-07-23T18:00:33.000Z</time>
      </trkpt>
      <trkpt lat="47.2114" lon="-1.49234">
        <ele>43.7</ele>
        <time>2012-07-23T18:00:35.000Z</time>
      </trkpt>
      <trkpt lat="47.2114" lon="-1.49226">
        <ele>43.8</ele>
        <time>2012-07-23T18:00:37.000Z</time>
      </trkpt>
      <trkpt lat="47.2114" lon="-1.49217">
        <ele>45.4</ele>
        <time>2012-07-23T18:00:39.000Z</time>
      </trkpt>
      <trkpt lat="47.21141" lon="-1.4921">
        <ele>45.5</ele>
        <time>2012-07-23T18:00:41.000Z</time>
      </trkpt>
      <trkpt lat="47.21142" lon="-1.49204">
        <ele>45.8</ele>
        <time>2012-07-23T18:00:43.000Z</time>
      </trkpt>
      <trkpt lat="47.21144" lon="-1.49197">
        <ele>46.8</ele>
        <time>2012-07-23T18:00:45.000Z</time>
      </trkpt>
      <trkpt lat="47.21145" lon="-1.4919">
        <ele>47</ele>
        <time>2012-07-23T18:00:47.000Z</time>
      </trkpt>
      <trkpt lat="47.21148" lon="-1.49181">
        <ele>46.9</ele>
        <time>2012-07-23T18:00:49.000Z</time>
      </trkpt>
      <trkpt lat="47.21149" lon="-1.49174">
        <ele>47.3</ele>
        <time>2012-07-23T18:00:51.000Z</time>
      </trkpt>
      <trkpt lat="47.21151" lon="-1.49165">
        <ele>48</ele>
        <time>2012-07-23T18:00:54.000Z</time>
      </trkpt>
      <trkpt lat="47.21152" lon="-1.49158">
        <ele>48.7</ele>
        <time>2012-07-23T18:00:56.000Z</time>
      </trkpt>
      <trkpt lat="47.21155" lon="-1.49149">
        <ele>49.4</ele>
        <time>2012-07-23T18:00:58.000Z</time>
      </trkpt>
      <trkpt lat="47.21157" lon="-1.49143">
        <ele>50.7</ele>
        <time>2012-07-23T18:00:59.000Z</time>
      </trkpt>
      <trkpt lat="47.21155" lon="-1.49135">
        <ele>43.3</ele>
        <time>2012-07-23T18:01:02.000Z</time>
      </trkpt>
      <trkpt lat="47.21154" lon="-1.49128">
        <ele>43.7</ele>
        <time>2012-07-23T18:01:04.000Z</time>
      </trkpt>
      <trkpt lat="47.21154" lon="-1.49121">
        <ele>44.4</ele>
        <time>2012-07-23T18:01:06.000Z</time>
      </trkpt>
      <trkpt lat="47.21156" lon="-1.49114">
        <ele>43.6</ele>
        <time>2012-07-23T18:01:08.000Z</time>
      </trkpt>
      <trkpt lat="47.2116" lon="-1.49106">
        <ele>47.9</ele>
        <time>2012-07-23T18:01:10.000Z</time>
      </trkpt>
      <trkpt lat="47.21163" lon="-1.49099">
        <ele>47.6</ele>
        <time>2012-07-23T18:01:12.000Z</time>
      </trkpt>
      <trkpt lat="47.21166" lon="-1.4909">
        <ele>48</ele>
        <time>2012-07-23T18:01:14.000Z</time>
      </trkpt>
      <trkpt lat="47.21166" lon="-1.49082">
        <ele>49.6</ele>
        <time>2012-07-23T18:01:16.000Z</time>
      </trkpt>
      <trkpt lat="47.21166" lon="-1.49074">
        <ele>52.2</ele>
        <time>2012-07-23T18:01:18.000Z</time>
      </trkpt>
      <trkpt lat="47.21164" lon="-1.49067">
        <ele>52.9</ele>
        <time>2012-07-23T18:01:20.000Z</time>
      </trkpt>
      <trkpt lat="47.2116" lon="-1.49061">
        <ele>54.9</ele>
        <time>2012-07-23T18:01:22.000Z</time>
      </trkpt>
      <trkpt lat="47.21158" lon="-1.49054">
        <ele>52.5</ele>
        <time>2012-07-23T18:01:24.000Z</time>
      </trkpt>
      <trkpt lat="47.21155" lon="-1.49049">
        <ele>51.3</ele>
        <time>2012-07-23T18:01:26.000Z</time>
      </trkpt>
      <trkpt lat="47.21156" lon="-1.49042">
        <ele>52.6</ele>
        <time>2012-07-23T18:01:28.000Z</time>
      </trkpt>
      <trkpt lat="47.21156" lon="-1.49033">
        <ele>53.7</ele>
        <time>2012-07-23T18:01:31.000Z</time>
      </trkpt>
      <trkpt lat="47.21157" lon="-1.49026">
        <ele>50</ele>
        <time>2012-07-23T18:01:33.000Z</time>
      </trkpt>
      <trkpt lat="47.21158" lon="-1.49017">
        <ele>44.6</ele>
        <time>2012-07-23T18:01:36.000Z</time>
      </trkpt>
      <trkpt lat="47.21161" lon="-1.49008">
        <ele>42.1</ele>
        <time>2012-07-23T18:01:39.000Z</time>
      </trkpt>
      <trkpt lat="47.21163" lon="-1.49002">
        <ele>42.1</ele>
        <time>2012-07-23T18:01:41.000Z</time>
      </trkpt>
      <trkpt lat="47.21164" lon="-1.48995">
        <ele>42.3</ele>
        <time>2012-07-23T18:01:43.000Z</time>
      </trkpt>
      <trkpt lat="47.21166" lon="-1.48988">
        <ele>42.4</ele>
        <time>2012-07-23T18:01:45.000Z</time>
      </trkpt>
      <trkpt lat="47.21169" lon="-1.48982">
        <ele>43.3</ele>
        <time>2012-07-23T18:01:47.000Z</time>
      </trkpt>
      <trkpt lat="47.2117" lon="-1.48973">
        <ele>43.8</ele>
        <time>2012-07-23T18:01:49.000Z</time>
      </trkpt>
      <trkpt lat="47.21174" lon="-1.48965">
        <ele>44</ele>
        <time>2012-07-23T18:01:51.000Z</time>
      </trkpt>
      <trkpt lat="47.21175" lon="-1.48958">
        <ele>44.4</ele>
        <time>2012-07-23T18:01:53.000Z</time>
      </trkpt>
      <trkpt lat="47.21176" lon="-1.48949">
        <ele>45.3</ele>
        <time>2012-07-23T18:01:56.000Z</time>
      </trkpt>
      <trkpt lat="47.21178" lon="-1.48939">
        <ele>46.4</ele>
        <time>2012-07-23T18:01:59.000Z</time>
      </trkpt>
      <trkpt lat="47.2118" lon="-1.4893">
        <ele>46.8</ele>
        <time>2012-07-23T18:02:01.000Z</time>
      </trkpt>
      <trkpt lat="47.21181" lon="-1.48922">
        <ele>47.2</ele>
        <time>2012-07-23T18:02:03.000Z</time>
      </trkpt>
      <trkpt lat="47.21182" lon="-1.48913">
        <ele>50.5</ele>
        <time>2012-07-23T18:02:05.000Z</time>
      </trkpt>
      <trkpt lat="47.21184" lon="-1.48904">
        <ele>51</ele>
        <time>2012-07-23T18:02:08.000Z</time>
      </trkpt>
      <trkpt lat="47.21186" lon="-1.48897">
        <ele>51.2</ele>
        <time>2012-07-23T18:02:10.000Z</time>
      </trkpt>
      <trkpt lat="47.2119" lon="-1.4889">
        <ele>51.3</ele>
        <time>2012-07-23T18:02:12.000Z</time>
      </trkpt>
      <trkpt lat="47.21192" lon="-1.48881">
        <ele>52.3</ele>
        <time>2012-07-23T18:02:14.000Z</time>
      </trkpt>
      <trkpt lat="47.21193" lon="-1.48873">
        <ele>52.8</ele>
        <time>2012-07-23T18:02:16.000Z</time>
      </trkpt>
      <trkpt lat="47.21194" lon="-1.48864">
        <ele>53.2</ele>
        <time>2012-07-23T18:02:18.000Z</time>
      </trkpt>
      <trkpt lat="47.21194" lon="-1.48856">
        <ele>53.3</ele>
        <time>2012-07-23T18:02:20.000Z</time>
      </trkpt>
      <trkpt lat="47.21196" lon="-1.4885">
        <ele>53.7</ele>
        <time>2012-07-23T18:02:22.000Z</time>
      </trkpt>
      <trkpt lat="47.21197" lon="-1.4884">
        <ele>53.6</ele>
        <time>2012-07-23T18:02:25.000Z</time>
      </trkpt>
      <trkpt lat="47.21198" lon="-1.48832">
        <ele>53.4</ele>
        <time>2012-07-23T18:02:28.000Z</time>
      </trkpt>
      <trkpt lat="47.21199" lon="-1.48822">
        <ele>53.1</ele>
        <time>2012-07-23T18:02:31.000Z</time>
      </trkpt>
      <trkpt lat="47.21199" lon="-1.48815">
        <ele>52.8</ele>
        <time>2012-07-23T18:02:33.000Z</time>
      </trkpt>
      <trkpt lat="47.21202" lon="-1.48806">
        <ele>53.2</ele>
        <time>2012-07-23T18:02:36.000Z</time>
      </trkpt>
      <trkpt lat="47.21203" lon="-1.48799">
        <ele>53.3</ele>
        <time>2012-07-23T18:02:38.000Z</time>
      </trkpt>
      <trkpt lat="47.21207" lon="-1.4879">
        <ele>53.4</ele>
        <time>2012-07-23T18:02:40.000Z</time>
      </trkpt>
      <trkpt lat="47.21209" lon="-1.48782">
        <ele>53.1</ele>
        <time>2012-07-23T18:02:43.000Z</time>
      </trkpt>
      <trkpt lat="47.21212" lon="-1.48774">
        <ele>53.4</ele>
        <time>2012-07-23T18:02:45.000Z</time>
      </trkpt>
      <trkpt lat="47.21212" lon="-1.48767">
        <ele>54.3</ele>
        <time>2012-07-23T18:02:47.000Z</time>
      </trkpt>
      <trkpt lat="47.21216" lon="-1.48761">
        <ele>54.5</ele>
        <time>2012-07-23T18:02:49.000Z</time>
      </trkpt>
      <trkpt lat="47.2122" lon="-1.48753">
        <ele>54.7</ele>
        <time>2012-07-23T18:02:51.000Z</time>
      </trkpt>
      <trkpt lat="47.21221" lon="-1.48745">
        <ele>56</ele>
        <time>2012-07-23T18:02:53.000Z</time>
      </trkpt>
      <trkpt lat="47.21223" lon="-1.48737">
        <ele>55.8</ele>
        <time>2012-07-23T18:02:55.000Z</time>
      </trkpt>
      <trkpt lat="47.21224" lon="-1.48728">
        <ele>56.1</ele>
        <time>2012-07-23T18:02:59.000Z</time>
      </trkpt>
      <trkpt lat="47.21226" lon="-1.4872">
        <ele>56</ele>
        <time>2012-07-23T18:03:01.000Z</time>
      </trkpt>
      <trkpt lat="47.21229" lon="-1.4871">
        <ele>55.3</ele>
        <time>2012-07-23T18:03:03.000Z</time>
      </trkpt>
      <trkpt lat="47.21231" lon="-1.48703">
        <ele>56</ele>
        <time>2012-07-23T18:03:05.000Z</time>
      </trkpt>
      <trkpt lat="47.21232" lon="-1.48695">
        <ele>56.5</ele>
        <time>2012-07-23T18:03:07.000Z</time>
      </trkpt>
      <trkpt lat="47.21234" lon="-1.48688">
        <ele>57</ele>
        <time>2012-07-23T18:03:09.000Z</time>
      </trkpt>
      <trkpt lat="47.21235" lon="-1.48678">
        <ele>58.2</ele>
        <time>2012-07-23T18:03:12.000Z</time>
      </trkpt>
      <trkpt lat="47.21236" lon="-1.48671">
        <ele>57.8</ele>
        <time>2012-07-23T18:03:14.000Z</time>
      </trkpt>
      <trkpt lat="47.21239" lon="-1.48661">
        <ele>63.1</ele>
        <time>2012-07-23T18:03:16.000Z</time>
      </trkpt>
      <trkpt lat="47.21239" lon="-1.4865">
        <ele>67.3</ele>
        <time>2012-07-23T18:03:18.000Z</time>
      </trkpt>
      <trkpt lat="47.21242" lon="-1.48644">
        <ele>64.7</ele>
        <time>2012-07-23T18:03:20.000Z</time>
      </trkpt>
      <trkpt lat="47.21245" lon="-1.48636">
        <ele>65.1</ele>
        <time>2012-07-23T18:03:23.000Z</time>
      </trkpt>
      <trkpt lat="47.21248" lon="-1.48627">
        <ele>62.2</ele>
        <time>2012-07-23T18:03:26.000Z</time>
      </trkpt>
      <trkpt lat="47.2125" lon="-1.48619">
        <ele>58.9</ele>
        <time>2012-07-23T18:03:29.000Z</time>
      </trkpt>
      <trkpt lat="47.21252" lon="-1.48613">
        <ele>59.2</ele>
        <time>2012-07-23T18:03:31.000Z</time>
      </trkpt>
      <trkpt lat="47.21255" lon="-1.48606">
        <ele>58.9</ele>
        <time>2012-07-23T18:03:33.000Z</time>
      </trkpt>
      <trkpt lat="47.21257" lon="-1.48598">
        <ele>57.2</ele>
        <time>2012-07-23T18:03:36.000Z</time>
      </trkpt>
      <trkpt lat="47.2126" lon="-1.4859">
        <ele>57.4</ele>
        <time>2012-07-23T18:03:39.000Z</time>
      </trkpt>
      <trkpt lat="47.21262" lon="-1.48583">
        <ele>52.4</ele>
        <time>2012-07-23T18:03:42.000Z</time>
      </trkpt>
      <trkpt lat="47.21264" lon="-1.48574">
        <ele>52.5</ele>
        <time>2012-07-23T18:03:45.000Z</time>
      </trkpt>
      <trkpt lat="47.21266" lon="-1.48566">
        <ele>53.3</ele>
        <time>2012-07-23T18:03:47.000Z</time>
      </trkpt>
      <trkpt lat="47.21267" lon="-1.48558">
        <ele>50</ele>
        <time>2012-07-23T18:03:49.000Z</time>
      </trkpt>
      <trkpt lat="47.21269" lon="-1.48549">
        <ele>50.2</ele>
        <time>2012-07-23T18:03:52.000Z</time>
      </trkpt>
      <trkpt lat="47.21271" lon="-1.48543">
        <ele>50</ele>
        <time>2012-07-23T18:03:54.000Z</time>
      </trkpt>
      <trkpt lat="47.21273" lon="-1.48537">
        <ele>50.3</ele>
        <time>2012-07-23T18:03:56.000Z</time>
      </trkpt>
      <trkpt lat="47.21275" lon="-1.48529">
        <ele>50.7</ele>
        <time>2012-07-23T18:03:58.000Z</time>
      </trkpt>
      <trkpt lat="47.21277" lon="-1.48522">
        <ele>50.4</ele>
        <time>2012-07-23T18:04:00.000Z</time>
      </trkpt>
      <trkpt lat="47.21277" lon="-1.48512">
        <ele>49</ele>
        <time>2012-07-23T18:04:03.000Z</time>
      </trkpt>
      <trkpt lat="47.21279" lon="-1.48505">
        <ele>48.9</ele>
        <time>2012-07-23T18:04:05.000Z</time>
      </trkpt>
      <trkpt lat="47.21281" lon="-1.48498">
        <ele>48.9</ele>
        <time>2012-07-23T18:04:07.000Z</time>
      </trkpt>
      <trkpt lat="47.21283" lon="-1.4849">
        <ele>48.4</ele>
        <time>2012-07-23T18:04:10.000Z</time>
      </trkpt>
      <trkpt lat="47.21285" lon="-1.48484">
        <ele>48.4</ele>
        <time>2012-07-23T18:04:12.000Z</time>
      </trkpt>
      <trkpt lat="47.21281" lon="-1.4848">
        <ele>49.4</ele>
        <time>2012-07-23T18:04:13.000Z</time>
      </trkpt>
      <trkpt lat="47.21279" lon="-1.48473">
        <ele>48.7</ele>
        <time>2012-07-23T18:04:15.000Z</time>
      </trkpt>
      <trkpt lat="47.21275" lon="-1.48466">
        <ele>49.3</ele>
        <time>2012-07-23T18:04:17.000Z</time>
      </trkpt>
      <trkpt lat="47.21271" lon="-1.48461">
        <ele>49.6</ele>
        <time>2012-07-23T18:04:19.000Z</time>
      </trkpt>
      <trkpt lat="47.21266" lon="-1.48458">
        <ele>49.6</ele>
        <time>2012-07-23T18:04:21.000Z</time>
      </trkpt>
      <trkpt lat="47.2126" lon="-1.48459">
        <ele>50.5</ele>
        <time>2012-07-23T18:04:23.000Z</time>
      </trkpt>
      <trkpt lat="47.21255" lon="-1.4846">
        <ele>49.3</ele>
        <time>2012-07-23T18:04:25.000Z</time>
      </trkpt>
      <trkpt lat="47.21249" lon="-1.48459">
        <ele>49.8</ele>
        <time>2012-07-23T18:04:27.000Z</time>
      </trkpt>
      <trkpt lat="47.21245" lon="-1.48456">
        <ele>49.4</ele>
        <time>2012-07-23T18:04:29.000Z</time>
      </trkpt>
      <trkpt lat="47.2124" lon="-1.48449">
        <ele>51</ele>
        <time>2012-07-23T18:04:32.000Z</time>
      </trkpt>
      <trkpt lat="47.21237" lon="-1.48442">
        <ele>52.6</ele>
        <time>2012-07-23T18:04:34.000Z</time>
      </trkpt>
      <trkpt lat="47.21234" lon="-1.48433">
        <ele>52.6</ele>
        <time>2012-07-23T18:04:37.000Z</time>
      </trkpt>
      <trkpt lat="47.21231" lon="-1.48428">
        <ele>52.8</ele>
        <time>2012-07-23T18:04:39.000Z</time>
      </trkpt>
      <trkpt lat="47.21228" lon="-1.48422">
        <ele>52.6</ele>
        <time>2012-07-23T18:04:41.000Z</time>
      </trkpt>
      <trkpt lat="47.21226" lon="-1.48416">
        <ele>52.6</ele>
        <time>2012-07-23T18:04:43.000Z</time>
      </trkpt>
      <trkpt lat="47.21223" lon="-1.48408">
        <ele>52.7</ele>
        <time>2012-07-23T18:04:45.000Z</time>
      </trkpt>
      <trkpt lat="47.21224" lon="-1.48401">
        <ele>52.7</ele>
        <time>2012-07-23T18:04:47.000Z</time>
      </trkpt>
      <trkpt lat="47.21224" lon="-1.48394">
        <ele>52.6</ele>
        <time>2012-07-23T18:04:49.000Z</time>
      </trkpt>
      <trkpt lat="47.21223" lon="-1.48386">
        <ele>53.7</ele>
        <time>2012-07-23T18:04:52.000Z</time>
      </trkpt>
      <trkpt lat="47.21223" lon="-1.48377">
        <ele>53.7</ele>
        <time>2012-07-23T18:04:54.000Z</time>
      </trkpt>
      <trkpt lat="47.21224" lon="-1.4837">
        <ele>55</ele>
        <time>2012-07-23T18:04:56.000Z</time>
      </trkpt>
      <trkpt lat="47.21225" lon="-1.48363">
        <ele>55.1</ele>
        <time>2012-07-23T18:04:58.000Z</time>
      </trkpt>
      <trkpt lat="47.21228" lon="-1.48356">
        <ele>55.5</ele>
        <time>2012-07-23T18:05:00.000Z</time>
      </trkpt>
      <trkpt lat="47.21232" lon="-1.48351">
        <ele>53</ele>
        <time>2012-07-23T18:05:03.000Z</time>
      </trkpt>
      <trkpt lat="47.21234" lon="-1.48345">
        <ele>53.5</ele>
        <time>2012-07-23T18:05:05.000Z</time>
      </trkpt>
      <trkpt lat="47.21239" lon="-1.48338">
        <ele>50.9</ele>
        <time>2012-07-23T18:05:08.000Z</time>
      </trkpt>
      <trkpt lat="47.21239" lon="-1.48331">
        <ele>52</ele>
        <time>2012-07-23T18:05:10.000Z</time>
      </trkpt>
      <trkpt lat="47.21235" lon="-1.48326">
        <ele>52</ele>
        <time>2012-07-23T18:05:12.000Z</time>
      </trkpt>
      <trkpt lat="47.21231" lon="-1.4832">
        <ele>52.1</ele>
        <time>2012-07-23T18:05:14.000Z</time>
      </trkpt>
      <trkpt lat="47.21227" lon="-1.48312">
        <ele>55.1</ele>
        <time>2012-07-23T18:05:17.000Z</time>
      </trkpt>
      <trkpt lat="47.21223" lon="-1.48305">
        <ele>54.9</ele>
        <time>2012-07-23T18:05:20.000Z</time>
      </trkpt>
      <trkpt lat="47.21221" lon="-1.48297">
        <ele>54.5</ele>
        <time>2012-07-23T18:05:23.000Z</time>
      </trkpt>
      <trkpt lat="47.21221" lon="-1.48289">
        <ele>55.9</ele>
        <time>2012-07-23T18:05:26.000Z</time>
      </trkpt>
      <trkpt lat="47.21216" lon="-1.48282">
        <ele>57.4</ele>
        <time>2012-07-23T18:05:30.000Z</time>
      </trkpt>
      <trkpt lat="47.21212" lon="-1.48276">
        <ele>59.8</ele>
        <time>2012-07-23T18:05:32.000Z</time>
      </trkpt>
      <trkpt lat="47.21209" lon="-1.4827">
        <ele>60.5</ele>
        <time>2012-07-23T18:05:34.000Z</time>
      </trkpt>
      <trkpt lat="47.21207" lon="-1.48262">
        <ele>60.7</ele>
        <time>2012-07-23T18:05:37.000Z</time>
      </trkpt>
      <trkpt lat="47.21211" lon="-1.48259">
        <ele>57.3</ele>
        <time>2012-07-23T18:05:41.000Z</time>
      </trkpt>
      <trkpt lat="47.21215" lon="-1.48252">
        <ele>56.8</ele>
        <time>2012-07-23T18:05:44.000Z</time>
      </trkpt>
      <trkpt lat="47.21222" lon="-1.48248">
        <ele>56.6</ele>
        <time>2012-07-23T18:05:47.000Z</time>
      </trkpt>
      <trkpt lat="47.21227" lon="-1.48246">
        <ele>56.5</ele>
        <time>2012-07-23T18:05:50.000Z</time>
      </trkpt>
      <trkpt lat="47.21232" lon="-1.48243">
        <ele>55.7</ele>
        <time>2012-07-23T18:05:52.000Z</time>
      </trkpt>
      <trkpt lat="47.21237" lon="-1.48241">
        <ele>57.4</ele>
        <time>2012-07-23T18:05:58.000Z</time>
      </trkpt>
      <trkpt lat="47.21242" lon="-1.48239">
        <ele>58.2</ele>
        <time>2012-07-23T18:06:05.000Z</time>
      </trkpt>
      <trkpt lat="47.21246" lon="-1.48234">
        <ele>58.5</ele>
        <time>2012-07-23T18:06:06.000Z</time>
      </trkpt>
      <trkpt lat="47.21253" lon="-1.48227">
        <ele>59</ele>
        <time>2012-07-23T18:06:08.000Z</time>
      </trkpt>
      <trkpt lat="47.21258" lon="-1.48223">
        <ele>59.5</ele>
        <time>2012-07-23T18:06:10.000Z</time>
      </trkpt>
      <trkpt lat="47.21262" lon="-1.48222">
        <ele>60.3</ele>
        <time>2012-07-23T18:06:12.000Z</time>
      </trkpt>
      <trkpt lat="47.21268" lon="-1.4822">
        <ele>62.7</ele>
        <time>2012-07-23T18:06:17.000Z</time>
      </trkpt>
      <trkpt lat="47.21275" lon="-1.48215">
        <ele>63.9</ele>
        <time>2012-07-23T18:06:23.000Z</time>
      </trkpt>
      <trkpt lat="47.21279" lon="-1.4821">
        <ele>64.9</ele>
        <time>2012-07-23T18:06:24.000Z</time>
      </trkpt>
      <trkpt lat="47.21286" lon="-1.48204">
        <ele>67.6</ele>
        <time>2012-07-23T18:06:26.000Z</time>
      </trkpt>
      <trkpt lat="47.21291" lon="-1.48201">
        <ele>67.4</ele>
        <time>2012-07-23T18:06:29.000Z</time>
      </trkpt>
      <trkpt lat="47.21295" lon="-1.48196">
        <ele>66.2</ele>
        <time>2012-07-23T18:06:32.000Z</time>
      </trkpt>
      <trkpt lat="47.213" lon="-1.48192">
        <ele>64.9</ele>
        <time>2012-07-23T18:06:37.000Z</time>
      </trkpt>
      <trkpt lat="47.21306" lon="-1.48182">
        <ele>63.8</ele>
        <time>2012-07-23T18:06:40.000Z</time>
      </trkpt>
      <trkpt lat="47.21312" lon="-1.48176">
        <ele>63.5</ele>
        <time>2012-07-23T18:06:41.000Z</time>
      </trkpt>
      <trkpt lat="47.21318" lon="-1.48169">
        <ele>62.8</ele>
        <time>2012-07-23T18:06:42.000Z</time>
      </trkpt>
      <trkpt lat="47.21327" lon="-1.48162">
        <ele>61.5</ele>
        <time>2012-07-23T18:06:43.000Z</time>
      </trkpt>
      <trkpt lat="47.21332" lon="-1.48156">
        <ele>61.7</ele>
        <time>2012-07-23T18:06:44.000Z</time>
      </trkpt>
      <trkpt lat="47.21337" lon="-1.4815">
        <ele>61.1</ele>
        <time>2012-07-23T18:06:45.000Z</time>
      </trkpt>
      <trkpt lat="47.21341" lon="-1.48144">
        <ele>60.7</ele>
        <time>2012-07-23T18:06:46.000Z</time>
      </trkpt>
      <trkpt lat="47.21347" lon="-1.48135">
        <ele>60.8</ele>
        <time>2012-07-23T18:06:48.000Z</time>
      </trkpt>
      <trkpt lat="47.21351" lon="-1.48132">
        <ele>60.6</ele>
        <time>2012-07-23T18:06:49.000Z</time>
      </trkpt>
      <trkpt lat="47.21357" lon="-1.48123">
        <ele>61</ele>
        <time>2012-07-23T18:06:51.000Z</time>
      </trkpt>
      <trkpt lat="47.21361" lon="-1.48117">
        <ele>62.3</ele>
        <time>2012-07-23T18:06:53.000Z</time>
      </trkpt>
      <trkpt lat="47.21365" lon="-1.4811">
        <ele>61.1</ele>
        <time>2012-07-23T18:06:55.000Z</time>
      </trkpt>
      <trkpt lat="47.21368" lon="-1.48104">
        <ele>60.8</ele>
        <time>2012-07-23T18:06:57.000Z</time>
      </trkpt>
      <trkpt lat="47.21372" lon="-1.48102">
        <ele>61.8</ele>
        <time>2012-07-23T18:06:58.000Z</time>
      </trkpt>
      <trkpt lat="47.21377" lon="-1.48096">
        <ele>62.9</ele>
        <time>2012-07-23T18:07:00.000Z</time>
      </trkpt>
      <trkpt lat="47.21382" lon="-1.4809">
        <ele>63.4</ele>
        <time>2012-07-23T18:07:02.000Z</time>
      </trkpt>
      <trkpt lat="47.21386" lon="-1.48083">
        <ele>64.1</ele>
        <time>2012-07-23T18:07:04.000Z</time>
      </trkpt>
      <trkpt lat="47.2139" lon="-1.48075">
        <ele>64.8</ele>
        <time>2012-07-23T18:07:06.000Z</time>
      </trkpt>
      <trkpt lat="47.21394" lon="-1.48068">
        <ele>64.4</ele>
        <time>2012-07-23T18:07:08.000Z</time>
      </trkpt>
      <trkpt lat="47.21397" lon="-1.48059">
        <ele>64.5</ele>
        <time>2012-07-23T18:07:10.000Z</time>
      </trkpt>
      <trkpt lat="47.21402" lon="-1.48052">
        <ele>65.7</ele>
        <time>2012-07-23T18:07:13.000Z</time>
      </trkpt>
      <trkpt lat="47.21403" lon="-1.48044">
        <ele>67.8</ele>
        <time>2012-07-23T18:07:15.000Z</time>
      </trkpt>
      <trkpt lat="47.21406" lon="-1.48035">
        <ele>67.8</ele>
        <time>2012-07-23T18:07:17.000Z</time>
      </trkpt>
      <trkpt lat="47.21409" lon="-1.48026">
        <ele>67.5</ele>
        <time>2012-07-23T18:07:19.000Z</time>
      </trkpt>
      <trkpt lat="47.21412" lon="-1.48019">
        <ele>66.7</ele>
        <time>2012-07-23T18:07:21.000Z</time>
      </trkpt>
      <trkpt lat="47.21411" lon="-1.48011">
        <ele>65.6</ele>
        <time>2012-07-23T18:07:23.000Z</time>
      </trkpt>
      <trkpt lat="47.21411" lon="-1.48003">
        <ele>64.8</ele>
        <time>2012-07-23T18:07:25.000Z</time>
      </trkpt>
      <trkpt lat="47.21411" lon="-1.47995">
        <ele>64.6</ele>
        <time>2012-07-23T18:07:27.000Z</time>
      </trkpt>
      <trkpt lat="47.21413" lon="-1.47987">
        <ele>66.5</ele>
        <time>2012-07-23T18:07:29.000Z</time>
      </trkpt>
      <trkpt lat="47.21416" lon="-1.47979">
        <ele>61.5</ele>
        <time>2012-07-23T18:07:32.000Z</time>
      </trkpt>
      <trkpt lat="47.21419" lon="-1.47974">
        <ele>60.7</ele>
        <time>2012-07-23T18:07:35.000Z</time>
      </trkpt>
      <trkpt lat="47.21422" lon="-1.47967">
        <ele>60.4</ele>
        <time>2012-07-23T18:07:37.000Z</time>
      </trkpt>
      <trkpt lat="47.21425" lon="-1.47958">
        <ele>60.8</ele>
        <time>2012-07-23T18:07:40.000Z</time>
      </trkpt>
      <trkpt lat="47.21427" lon="-1.47951">
        <ele>60.7</ele>
        <time>2012-07-23T18:07:42.000Z</time>
      </trkpt>
      <trkpt lat="47.21427" lon="-1.47944">
        <ele>60.6</ele>
        <time>2012-07-23T18:07:44.000Z</time>
      </trkpt>
      <trkpt lat="47.21429" lon="-1.47936">
        <ele>60.3</ele>
        <time>2012-07-23T18:07:46.000Z</time>
      </trkpt>
      <trkpt lat="47.21431" lon="-1.4793">
        <ele>60</ele>
        <time>2012-07-23T18:07:48.000Z</time>
      </trkpt>
      <trkpt lat="47.21434" lon="-1.47922">
        <ele>59.6</ele>
        <time>2012-07-23T18:07:50.000Z</time>
      </trkpt>
      <trkpt lat="47.21434" lon="-1.47911">
        <ele>60.1</ele>
        <time>2012-07-23T18:07:52.000Z</time>
      </trkpt>
      <trkpt lat="47.21432" lon="-1.47898">
        <ele>63.5</ele>
        <time>2012-07-23T18:07:55.000Z</time>
      </trkpt>
      <trkpt lat="47.21431" lon="-1.47891">
        <ele>63.9</ele>
        <time>2012-07-23T18:07:57.000Z</time>
      </trkpt>
      <trkpt lat="47.21431" lon="-1.47883">
        <ele>65.7</ele>
        <time>2012-07-23T18:07:59.000Z</time>
      </trkpt>
      <trkpt lat="47.21433" lon="-1.47875">
        <ele>66.2</ele>
        <time>2012-07-23T18:08:02.000Z</time>
      </trkpt>
      <trkpt lat="47.21438" lon="-1.47872">
        <ele>64.7</ele>
        <time>2012-07-23T18:08:05.000Z</time>
      </trkpt>
      <trkpt lat="47.21442" lon="-1.47868">
        <ele>63.6</ele>
        <time>2012-07-23T18:08:06.000Z</time>
      </trkpt>
      <trkpt lat="47.21444" lon="-1.4786">
        <ele>60.7</ele>
        <time>2012-07-23T18:08:09.000Z</time>
      </trkpt>
      <trkpt lat="47.21444" lon="-1.47853">
        <ele>58.7</ele>
        <time>2012-07-23T18:08:11.000Z</time>
      </trkpt>
      <trkpt lat="47.21442" lon="-1.47846">
        <ele>57.5</ele>
        <time>2012-07-23T18:08:13.000Z</time>
      </trkpt>
      <trkpt lat="47.21441" lon="-1.47837">
        <ele>57.1</ele>
        <time>2012-07-23T18:08:16.000Z</time>
      </trkpt>
      <trkpt lat="47.21444" lon="-1.47828">
        <ele>56.5</ele>
        <time>2012-07-23T18:08:19.000Z</time>
      </trkpt>
      <trkpt lat="47.21446" lon="-1.47822">
        <ele>57.3</ele>
        <time>2012-07-23T18:08:21.000Z</time>
      </trkpt>
      <trkpt lat="47.21448" lon="-1.47814">
        <ele>56.8</ele>
        <time>2012-07-23T18:08:23.000Z</time>
      </trkpt>
      <trkpt lat="47.2145" lon="-1.47808">
        <ele>61</ele>
        <time>2012-07-23T18:08:24.000Z</time>
      </trkpt>
      <trkpt lat="47.21453" lon="-1.47801">
        <ele>62.6</ele>
        <time>2012-07-23T18:08:26.000Z</time>
      </trkpt>
      <trkpt lat="47.21456" lon="-1.47794">
        <ele>63.1</ele>
        <time>2012-07-23T18:08:28.000Z</time>
      </trkpt>
      <trkpt lat="47.21457" lon="-1.47786">
        <ele>63.5</ele>
        <time>2012-07-23T18:08:30.000Z</time>
      </trkpt>
      <trkpt lat="47.21457" lon="-1.47775">
        <ele>63.2</ele>
        <time>2012-07-23T18:08:33.000Z</time>
      </trkpt>
      <trkpt lat="47.21457" lon="-1.47768">
        <ele>64.6</ele>
        <time>2012-07-23T18:08:35.000Z</time>
      </trkpt>
      <trkpt lat="47.21458" lon="-1.4776">
        <ele>64.3</ele>
        <time>2012-07-23T18:08:37.000Z</time>
      </trkpt>
      <trkpt lat="47.21458" lon="-1.47753">
        <ele>63.6</ele>
        <time>2012-07-23T18:08:39.000Z</time>
      </trkpt>
      <trkpt lat="47.21459" lon="-1.47747">
        <ele>64.5</ele>
        <time>2012-07-23T18:08:41.000Z</time>
      </trkpt>
      <trkpt lat="47.21464" lon="-1.4774">
        <ele>62</ele>
        <time>2012-07-23T18:08:44.000Z</time>
      </trkpt>
      <trkpt lat="47.21467" lon="-1.47734">
        <ele>58.1</ele>
        <time>2012-07-23T18:08:47.000Z</time>
      </trkpt>
      <trkpt lat="47.21471" lon="-1.47729">
        <ele>57.2</ele>
        <time>2012-07-23T18:08:49.000Z</time>
      </trkpt>
      <trkpt lat="47.21474" lon="-1.47724">
        <ele>55.6</ele>
        <time>2012-07-23T18:08:51.000Z</time>
      </trkpt>
      <trkpt lat="47.21478" lon="-1.47718">
        <ele>56.1</ele>
        <time>2012-07-23T18:08:53.000Z</time>
      </trkpt>
      <trkpt lat="47.21482" lon="-1.47714">
        <ele>56</ele>
        <time>2012-07-23T18:08:55.000Z</time>
      </trkpt>
      <trkpt lat="47.21486" lon="-1.47708">
        <ele>55.6</ele>
        <time>2012-07-23T18:08:58.000Z</time>
      </trkpt>
      <trkpt lat="47.21493" lon="-1.47703">
        <ele>56.2</ele>
        <time>2012-07-23T18:09:01.000Z</time>
      </trkpt>
      <trkpt lat="47.21499" lon="-1.47697">
        <ele>55.6</ele>
        <time>2012-07-23T18:09:04.000Z</time>
      </trkpt>
      <trkpt lat="47.21502" lon="-1.47692">
        <ele>54.3</ele>
        <time>2012-07-23T18:09:06.000Z</time>
      </trkpt>
      <trkpt lat="47.21506" lon="-1.47687">
        <ele>54.2</ele>
        <time>2012-07-23T18:09:08.000Z</time>
      </trkpt>
      <trkpt lat="47.21509" lon="-1.47679">
        <ele>56.8</ele>
        <time>2012-07-23T18:09:10.000Z</time>
      </trkpt>
      <trkpt lat="47.2151" lon="-1.47672">
        <ele>57.6</ele>
        <time>2012-07-23T18:09:12.000Z</time>
      </trkpt>
      <trkpt lat="47.21514" lon="-1.47666">
        <ele>57.4</ele>
        <time>2012-07-23T18:09:14.000Z</time>
      </trkpt>
      <trkpt lat="47.21518" lon="-1.47659">
        <ele>58.3</ele>
        <time>2012-07-23T18:09:16.000Z</time>
      </trkpt>
      <trkpt lat="47.2152" lon="-1.47652">
        <ele>58.4</ele>
        <time>2012-07-23T18:09:18.000Z</time>
      </trkpt>
      <trkpt lat="47.21523" lon="-1.47646">
        <ele>58.7</ele>
        <time>2012-07-23T18:09:20.000Z</time>
      </trkpt>
      <trkpt lat="47.21525" lon="-1.47639">
        <ele>59.2</ele>
        <time>2012-07-23T18:09:22.000Z</time>
      </trkpt>
      <trkpt lat="47.21526" lon="-1.47632">
        <ele>59.2</ele>
        <time>2012-07-23T18:09:24.000Z</time>
      </trkpt>
      <trkpt lat="47.2153" lon="-1.47625">
        <ele>60.8</ele>
        <time>2012-07-23T18:09:27.000Z</time>
      </trkpt>
      <trkpt lat="47.21532" lon="-1.47617">
        <ele>60</ele>
        <time>2012-07-23T18:09:30.000Z</time>
      </trkpt>
      <trkpt lat="47.21535" lon="-1.4761">
        <ele>57.5</ele>
        <time>2012-07-23T18:09:33.000Z</time>
      </trkpt>
      <trkpt lat="47.2154" lon="-1.47602">
        <ele>56.4</ele>
        <time>2012-07-23T18:09:36.000Z</time>
      </trkpt>
      <trkpt lat="47.21542" lon="-1.47596">
        <ele>56</ele>
        <time>2012-07-23T18:09:39.000Z</time>
      </trkpt>
      <trkpt lat="47.21543" lon="-1.47586">
        <ele>56.1</ele>
        <time>2012-07-23T18:09:42.000Z</time>
      </trkpt>
      <trkpt lat="47.21544" lon="-1.47578">
        <ele>56</ele>
        <time>2012-07-23T18:09:45.000Z</time>
      </trkpt>
      <trkpt lat="47.21542" lon="-1.4757">
        <ele>55.1</ele>
        <time>2012-07-23T18:09:47.000Z</time>
      </trkpt>
      <trkpt lat="47.21541" lon="-1.47562">
        <ele>55.1</ele>
        <time>2012-07-23T18:09:49.000Z</time>
      </trkpt>
      <trkpt lat="47.21542" lon="-1.47555">
        <ele>55</ele>
        <time>2012-07-23T18:09:51.000Z</time>
      </trkpt>
      <trkpt lat="47.21543" lon="-1.47549">
        <ele>54.8</ele>
        <time>2012-07-23T18:09:53.000Z</time>
      </trkpt>
      <trkpt lat="47.21547" lon="-1.47542">
        <ele>54.9</ele>
        <time>2012-07-23T18:09:55.000Z</time>
      </trkpt>
      <trkpt lat="47.21549" lon="-1.47535">
        <ele>54.7</ele>
        <time>2012-07-23T18:09:57.000Z</time>
      </trkpt>
      <trkpt lat="47.2155" lon="-1.47528">
        <ele>54.8</ele>
        <time>2012-07-23T18:09:59.000Z</time>
      </trkpt>
      <trkpt lat="47.21555" lon="-1.47529">
        <ele>55.3</ele>
        <time>2012-07-23T18:10:04.000Z</time>
      </trkpt>
      <trkpt lat="47.2156" lon="-1.47532">
        <ele>54.7</ele>
        <time>2012-07-23T18:10:07.000Z</time>
      </trkpt>
      <trkpt lat="47.21568" lon="-1.47528">
        <ele>51.4</ele>
        <time>2012-07-23T18:10:10.000Z</time>
      </trkpt>
      <trkpt lat="47.21572" lon="-1.47524">
        <ele>50.3</ele>
        <time>2012-07-23T18:10:12.000Z</time>
      </trkpt>
      <trkpt lat="47.21577" lon="-1.47517">
        <ele>50.7</ele>
        <time>2012-07-23T18:10:14.000Z</time>
      </trkpt>
      <trkpt lat="47.2158" lon="-1.47511">
        <ele>51.3</ele>
        <time>2012-07-23T18:10:16.000Z</time>
      </trkpt>
      <trkpt lat="47.21583" lon="-1.47504">
        <ele>52</ele>
        <time>2012-07-23T18:10:18.000Z</time>
      </trkpt>
      <trkpt lat="47.21582" lon="-1.47496">
        <ele>51.1</ele>
        <time>2012-07-23T18:10:20.000Z</time>
      </trkpt>
      <trkpt lat="47.21584" lon="-1.4749">
        <ele>52.2</ele>
        <time>2012-07-23T18:10:22.000Z</time>
      </trkpt>
      <trkpt lat="47.21585" lon="-1.47482">
        <ele>52.4</ele>
        <time>2012-07-23T18:10:24.000Z</time>
      </trkpt>
      <trkpt lat="47.21588" lon="-1.47473">
        <ele>52.8</ele>
        <time>2012-07-23T18:10:26.000Z</time>
      </trkpt>
      <trkpt lat="47.2159" lon="-1.47465">
        <ele>53.3</ele>
        <time>2012-07-23T18:10:28.000Z</time>
      </trkpt>
      <trkpt lat="47.21594" lon="-1.47458">
        <ele>55.9</ele>
        <time>2012-07-23T18:10:31.000Z</time>
      </trkpt>
      <trkpt lat="47.21599" lon="-1.47451">
        <ele>57.2</ele>
        <time>2012-07-23T18:10:34.000Z</time>
      </trkpt>
      <trkpt lat="47.21599" lon="-1.47444">
        <ele>57.6</ele>
        <time>2012-07-23T18:10:36.000Z</time>
      </trkpt>
      <trkpt lat="47.21602" lon="-1.47435">
        <ele>57.7</ele>
        <time>2012-07-23T18:10:39.000Z</time>
      </trkpt>
      <trkpt lat="47.21604" lon="-1.47427">
        <ele>57.7</ele>
        <time>2012-07-23T18:10:41.000Z</time>
      </trkpt>
      <trkpt lat="47.21604" lon="-1.47419">
        <ele>57.9</ele>
        <time>2012-07-23T18:10:43.000Z</time>
      </trkpt>
      <trkpt lat="47.21604" lon="-1.47411">
        <ele>58.1</ele>
        <time>2012-07-23T18:10:45.000Z</time>
      </trkpt>
      <trkpt lat="47.21606" lon="-1.474">
        <ele>57.8</ele>
        <time>2012-07-23T18:10:48.000Z</time>
      </trkpt>
      <trkpt lat="47.21607" lon="-1.47392">
        <ele>57.9</ele>
        <time>2012-07-23T18:10:51.000Z</time>
      </trkpt>
      <trkpt lat="47.2161" lon="-1.47384">
        <ele>57.8</ele>
        <time>2012-07-23T18:10:54.000Z</time>
      </trkpt>
      <trkpt lat="47.21611" lon="-1.47374">
        <ele>58.6</ele>
        <time>2012-07-23T18:10:57.000Z</time>
      </trkpt>
      <trkpt lat="47.21612" lon="-1.47366">
        <ele>57.9</ele>
        <time>2012-07-23T18:11:00.000Z</time>
      </trkpt>
      <trkpt lat="47.21614" lon="-1.47359">
        <ele>58.6</ele>
        <time>2012-07-23T18:11:02.000Z</time>
      </trkpt>
      <trkpt lat="47.21616" lon="-1.47349">
        <ele>58.4</ele>
        <time>2012-07-23T18:11:04.000Z</time>
      </trkpt>
      <trkpt lat="47.21618" lon="-1.4734">
        <ele>58.2</ele>
        <time>2012-07-23T18:11:07.000Z</time>
      </trkpt>
      <trkpt lat="47.21622" lon="-1.47332">
        <ele>58.7</ele>
        <time>2012-07-23T18:11:10.000Z</time>
      </trkpt>
      <trkpt lat="47.21624" lon="-1.47326">
        <ele>59.8</ele>
        <time>2012-07-23T18:11:13.000Z</time>
      </trkpt>
      <trkpt lat="47.21624" lon="-1.47315">
        <ele>60</ele>
        <time>2012-07-23T18:11:15.000Z</time>
      </trkpt>
      <trkpt lat="47.21626" lon="-1.47307">
        <ele>62.1</ele>
        <time>2012-07-23T18:11:17.000Z</time>
      </trkpt>
      <trkpt lat="47.21626" lon="-1.473">
        <ele>62.7</ele>
        <time>2012-07-23T18:11:19.000Z</time>
      </trkpt>
      <trkpt lat="47.2163" lon="-1.4729">
        <ele>63.7</ele>
        <time>2012-07-23T18:11:22.000Z</time>
      </trkpt>
      <trkpt lat="47.21631" lon="-1.47283">
        <ele>64.7</ele>
        <time>2012-07-23T18:11:25.000Z</time>
      </trkpt>
      <trkpt lat="47.21634" lon="-1.47276">
        <ele>64.9</ele>
        <time>2012-07-23T18:11:27.000Z</time>
      </trkpt>
      <trkpt lat="47.21637" lon="-1.47269">
        <ele>64</ele>
        <time>2012-07-23T18:11:30.000Z</time>
      </trkpt>
      <trkpt lat="47.2164" lon="-1.47262">
        <ele>64.8</ele>
        <time>2012-07-23T18:11:33.000Z</time>
      </trkpt>
      <trkpt lat="47.21641" lon="-1.47255">
        <ele>64</ele>
        <time>2012-07-23T18:11:35.000Z</time>
      </trkpt>
      <trkpt lat="47.21645" lon="-1.47248">
        <ele>62.6</ele>
        <time>2012-07-23T18:11:37.000Z</time>
      </trkpt>
      <trkpt lat="47.21648" lon="-1.47239">
        <ele>62.6</ele>
        <time>2012-07-23T18:11:39.000Z</time>
      </trkpt>
      <trkpt lat="47.21652" lon="-1.47235">
        <ele>60.7</ele>
        <time>2012-07-23T18:11:41.000Z</time>
      </trkpt>
      <trkpt lat="47.21657" lon="-1.47226">
        <ele>61</ele>
        <time>2012-07-23T18:11:43.000Z</time>
      </trkpt>
      <trkpt lat="47.2165" lon="-1.4722">
        <ele>56.5</ele>
        <time>2012-07-23T18:11:44.000Z</time>
      </trkpt>
      <trkpt lat="47.21646" lon="-1.47216">
        <ele>55.1</ele>
        <time>2012-07-23T18:11:45.000Z</time>
      </trkpt>
      <trkpt lat="47.21641" lon="-1.4721">
        <ele>54.6</ele>
        <time>2012-07-23T18:11:47.000Z</time>
      </trkpt>
      <trkpt lat="47.21636" lon="-1.47209">
        <ele>53.9</ele>
        <time>2012-07-23T18:11:49.000Z</time>
      </trkpt>
      <trkpt lat="47.21635" lon="-1.472">
        <ele>52.5</ele>
        <time>2012-07-23T18:11:53.000Z</time>
      </trkpt>
      <trkpt lat="47.21638" lon="-1.47195">
        <ele>53.5</ele>
        <time>2012-07-23T18:11:56.000Z</time>
      </trkpt>
      <trkpt lat="47.21643" lon="-1.47193">
        <ele>53.6</ele>
        <time>2012-07-23T18:11:59.000Z</time>
      </trkpt>
      <trkpt lat="47.21646" lon="-1.47185">
        <ele>53</ele>
        <time>2012-07-23T18:12:02.000Z</time>
      </trkpt>
      <trkpt lat="47.21648" lon="-1.47178">
        <ele>53.3</ele>
        <time>2012-07-23T18:12:04.000Z</time>
      </trkpt>
      <trkpt lat="47.21649" lon="-1.47171">
        <ele>53.8</ele>
        <time>2012-07-23T18:12:06.000Z</time>
      </trkpt>
      <trkpt lat="47.2165" lon="-1.47162">
        <ele>54.5</ele>
        <time>2012-07-23T18:12:08.000Z</time>
      </trkpt>
      <trkpt lat="47.2165" lon="-1.47153">
        <ele>55.7</ele>
        <time>2012-07-23T18:12:11.000Z</time>
      </trkpt>
      <trkpt lat="47.21649" lon="-1.47146">
        <ele>55.3</ele>
        <time>2012-07-23T18:12:13.000Z</time>
      </trkpt>
      <trkpt lat="47.2165" lon="-1.47137">
        <ele>56.1</ele>
        <time>2012-07-23T18:12:15.000Z</time>
      </trkpt>
      <trkpt lat="47.21648" lon="-1.4713">
        <ele>56.7</ele>
        <time>2012-07-23T18:12:17.000Z</time>
      </trkpt>
      <trkpt lat="47.21648" lon="-1.47124">
        <ele>54</ele>
        <time>2012-07-23T18:12:19.000Z</time>
      </trkpt>
      <trkpt lat="47.21649" lon="-1.47117">
        <ele>54.1</ele>
        <time>2012-07-23T18:12:21.000Z</time>
      </trkpt>
      <trkpt lat="47.21649" lon="-1.4711">
        <ele>54</ele>
        <time>2012-07-23T18:12:23.000Z</time>
      </trkpt>
      <trkpt lat="47.2165" lon="-1.471">
        <ele>55</ele>
        <time>2012-07-23T18:12:26.000Z</time>
      </trkpt>
      <trkpt lat="47.2165" lon="-1.47093">
        <ele>55</ele>
        <time>2012-07-23T18:12:28.000Z</time>
      </trkpt>
      <trkpt lat="47.21652" lon="-1.47087">
        <ele>55.3</ele>
        <time>2012-07-23T18:12:30.000Z</time>
      </trkpt>
      <trkpt lat="47.21655" lon="-1.4708">
        <ele>54.4</ele>
        <time>2012-07-23T18:12:33.000Z</time>
      </trkpt>
      <trkpt lat="47.21658" lon="-1.47071">
        <ele>55</ele>
        <time>2012-07-23T18:12:35.000Z</time>
      </trkpt>
      <trkpt lat="47.21659" lon="-1.47062">
        <ele>56.2</ele>
        <time>2012-07-23T18:12:37.000Z</time>
      </trkpt>
      <trkpt lat="47.21659" lon="-1.47054">
        <ele>56.7</ele>
        <time>2012-07-23T18:12:40.000Z</time>
      </trkpt>
      <trkpt lat="47.21657" lon="-1.47048">
        <ele>56.9</ele>
        <time>2012-07-23T18:12:44.000Z</time>
      </trkpt>
      <trkpt lat="47.21657" lon="-1.4704">
        <ele>56</ele>
        <time>2012-07-23T18:12:48.000Z</time>
      </trkpt>
      <trkpt lat="47.21656" lon="-1.47033">
        <ele>55.8</ele>
        <time>2012-07-23T18:12:52.000Z</time>
      </trkpt>
      <trkpt lat="47.21657" lon="-1.47025">
        <ele>56.2</ele>
        <time>2012-07-23T18:12:56.000Z</time>
      </trkpt>
      <trkpt lat="47.21657" lon="-1.47018">
        <ele>54</ele>
        <time>2012-07-23T18:13:00.000Z</time>
      </trkpt>
      <trkpt lat="47.21656" lon="-1.4701">
        <ele>54.8</ele>
        <time>2012-07-23T18:13:04.000Z</time>
      </trkpt>
      <trkpt lat="47.21657" lon="-1.47002">
        <ele>53.1</ele>
        <time>2012-07-23T18:13:09.000Z</time>
      </trkpt>
      <trkpt lat="47.21656" lon="-1.46995">
        <ele>52</ele>
        <time>2012-07-23T18:13:13.000Z</time>
      </trkpt>
      <trkpt lat="47.21657" lon="-1.46988">
        <ele>53.5</ele>
        <time>2012-07-23T18:13:16.000Z</time>
      </trkpt>
      <trkpt lat="47.21657" lon="-1.46981">
        <ele>53.7</ele>
        <time>2012-07-23T18:13:19.000Z</time>
      </trkpt>
      <trkpt lat="47.21658" lon="-1.46974">
        <ele>54.1</ele>
        <time>2012-07-23T18:13:23.000Z</time>
      </trkpt>
      <trkpt lat="47.21658" lon="-1.46966">
        <ele>54.4</ele>
        <time>2012-07-23T18:13:27.000Z</time>
      </trkpt>
      <trkpt lat="47.21658" lon="-1.46959">
        <ele>54.2</ele>
        <time>2012-07-23T18:13:31.000Z</time>
      </trkpt>
      <trkpt lat="47.21656" lon="-1.46953">
        <ele>55.2</ele>
        <time>2012-07-23T18:13:35.000Z</time>
      </trkpt>
      <trkpt lat="47.21654" lon="-1.46945">
        <ele>55.8</ele>
        <time>2012-07-23T18:13:39.000Z</time>
      </trkpt>
      <trkpt lat="47.21654" lon="-1.46935">
        <ele>56</ele>
        <time>2012-07-23T18:13:42.000Z</time>
      </trkpt>
      <trkpt lat="47.2165" lon="-1.46929">
        <ele>55.7</ele>
        <time>2012-07-23T18:13:46.000Z</time>
      </trkpt>
      <trkpt lat="47.21649" lon="-1.46923">
        <ele>55.9</ele>
        <time>2012-07-23T18:13:49.000Z</time>
      </trkpt>
      <trkpt lat="47.21646" lon="-1.46917">
        <ele>56.5</ele>
        <time>2012-07-23T18:13:53.000Z</time>
      </trkpt>
      <trkpt lat="47.21643" lon="-1.46909">
        <ele>56.7</ele>
        <time>2012-07-23T18:13:57.000Z</time>
      </trkpt>
      <trkpt lat="47.21643" lon="-1.46902">
        <ele>57.1</ele>
        <time>2012-07-23T18:14:00.000Z</time>
      </trkpt>
      <trkpt lat="47.21644" lon="-1.46894">
        <ele>57.3</ele>
        <time>2012-07-23T18:14:03.000Z</time>
      </trkpt>
      <trkpt lat="47.21641" lon="-1.46885">
        <ele>56.8</ele>
        <time>2012-07-23T18:14:07.000Z</time>
      </trkpt>
      <trkpt lat="47.21642" lon="-1.46878">
        <ele>57.8</ele>
        <time>2012-07-23T18:14:10.000Z</time>
      </trkpt>
      <trkpt lat="47.2164" lon="-1.46871">
        <ele>58.6</ele>
        <time>2012-07-23T18:14:13.000Z</time>
      </trkpt>
      <trkpt lat="47.21638" lon="-1.46864">
        <ele>58.9</ele>
        <time>2012-07-23T18:14:16.000Z</time>
      </trkpt>
      <trkpt lat="47.21639" lon="-1.46858">
        <ele>59.2</ele>
        <time>2012-07-23T18:14:19.000Z</time>
      </trkpt>
      <trkpt lat="47.21638" lon="-1.4685">
        <ele>58.1</ele>
        <time>2012-07-23T18:14:23.000Z</time>
      </trkpt>
      <trkpt lat="47.21638" lon="-1.46842">
        <ele>55.5</ele>
        <time>2012-07-23T18:14:27.000Z</time>
      </trkpt>
      <trkpt lat="47.21637" lon="-1.46835">
        <ele>54.6</ele>
        <time>2012-07-23T18:14:31.000Z</time>
      </trkpt>
      <trkpt lat="47.21635" lon="-1.46825">
        <ele>57.8</ele>
        <time>2012-07-23T18:14:33.000Z</time>
      </trkpt>
      <trkpt lat="47.21632" lon="-1.46818">
        <ele>57.9</ele>
        <time>2012-07-23T18:14:38.000Z</time>
      </trkpt>
      <trkpt lat="47.2163" lon="-1.46812">
        <ele>58.5</ele>
        <time>2012-07-23T18:14:42.000Z</time>
      </trkpt>
      <trkpt lat="47.2163" lon="-1.46805">
        <ele>57.5</ele>
        <time>2012-07-23T18:14:46.000Z</time>
      </trkpt>
      <trkpt lat="47.21627" lon="-1.46796">
        <ele>58.7</ele>
        <time>2012-07-23T18:14:50.000Z</time>
      </trkpt>
      <trkpt lat="47.21624" lon="-1.46787">
        <ele>59.2</ele>
        <time>2012-07-23T18:14:54.000Z</time>
      </trkpt>
      <trkpt lat="47.21626" lon="-1.4678">
        <ele>55.8</ele>
        <time>2012-07-23T18:14:59.000Z</time>
      </trkpt>
      <trkpt lat="47.21624" lon="-1.46772">
        <ele>56.3</ele>
        <time>2012-07-23T18:15:06.000Z</time>
      </trkpt>
      <trkpt lat="47.21624" lon="-1.46764">
        <ele>54.2</ele>
        <time>2012-07-23T18:15:10.000Z</time>
      </trkpt>
      <trkpt lat="47.21626" lon="-1.46754">
        <ele>54.3</ele>
        <time>2012-07-23T18:15:13.000Z</time>
      </trkpt>
      <trkpt lat="47.21628" lon="-1.46748">
        <ele>55.1</ele>
        <time>2012-07-23T18:15:17.000Z</time>
      </trkpt>
      <trkpt lat="47.21627" lon="-1.4674">
        <ele>53.9</ele>
        <time>2012-07-23T18:15:22.000Z</time>
      </trkpt>
      <trkpt lat="47.2163" lon="-1.46731">
        <ele>51.2</ele>
        <time>2012-07-23T18:15:26.000Z</time>
      </trkpt>
      <trkpt lat="47.2163" lon="-1.46724">
        <ele>52.2</ele>
        <time>2012-07-23T18:15:30.000Z</time>
      </trkpt>
      <trkpt lat="47.2163" lon="-1.46716">
        <ele>51.1</ele>
        <time>2012-07-23T18:15:34.000Z</time>
      </trkpt>
      <trkpt lat="47.2163" lon="-1.46708">
        <ele>49.6</ele>
        <time>2012-07-23T18:15:39.000Z</time>
      </trkpt>
      <trkpt lat="47.21632" lon="-1.46699">
        <ele>47.9</ele>
        <time>2012-07-23T18:15:43.000Z</time>
      </trkpt>
      <trkpt lat="47.21636" lon="-1.46694">
        <ele>49.2</ele>
        <time>2012-07-23T18:15:47.000Z</time>
      </trkpt>
      <trkpt lat="47.21636" lon="-1.46686">
        <ele>51.6</ele>
        <time>2012-07-23T18:15:52.000Z</time>
      </trkpt>
      <trkpt lat="47.21641" lon="-1.46681">
        <ele>52.6</ele>
        <time>2012-07-23T18:15:55.000Z</time>
      </trkpt>
      <trkpt lat="47.21644" lon="-1.46675">
        <ele>53.6</ele>
        <time>2012-07-23T18:15:57.000Z</time>
      </trkpt>
      <trkpt lat="47.21648" lon="-1.46667">
        <ele>54.8</ele>
        <time>2012-07-23T18:16:00.000Z</time>
      </trkpt>
      <trkpt lat="47.2165" lon="-1.46661">
        <ele>54.9</ele>
        <time>2012-07-23T18:16:02.000Z</time>
      </trkpt>
      <trkpt lat="47.21652" lon="-1.46654">
        <ele>55.9</ele>
        <time>2012-07-23T18:16:04.000Z</time>
      </trkpt>
      <trkpt lat="47.21654" lon="-1.46644">
        <ele>54.6</ele>
        <time>2012-07-23T18:16:07.000Z</time>
      </trkpt>
      <trkpt lat="47.21658" lon="-1.46632">
        <ele>59.2</ele>
        <time>2012-07-23T18:16:10.000Z</time>
      </trkpt>
      <trkpt lat="47.2166" lon="-1.46622">
        <ele>60</ele>
        <time>2012-07-23T18:16:12.000Z</time>
      </trkpt>
      <trkpt lat="47.21661" lon="-1.46612">
        <ele>55.3</ele>
        <time>2012-07-23T18:16:14.000Z</time>
      </trkpt>
      <trkpt lat="47.21662" lon="-1.46605">
        <ele>55.1</ele>
        <time>2012-07-23T18:16:16.000Z</time>
      </trkpt>
      <trkpt lat="47.21662" lon="-1.46597">
        <ele>55</ele>
        <time>2012-07-23T18:16:18.000Z</time>
      </trkpt>
      <trkpt lat="47.21662" lon="-1.4659">
        <ele>54.9</ele>
        <time>2012-07-23T18:16:20.000Z</time>
      </trkpt>
      <trkpt lat="47.21662" lon="-1.46582">
        <ele>54.9</ele>
        <time>2012-07-23T18:16:22.000Z</time>
      </trkpt>
      <trkpt lat="47.21662" lon="-1.46575">
        <ele>54.9</ele>
        <time>2012-07-23T18:16:24.000Z</time>
      </trkpt>
      <trkpt lat="47.21663" lon="-1.46565">
        <ele>53.6</ele>
        <time>2012-07-23T18:16:28.000Z</time>
      </trkpt>
      <trkpt lat="47.21665" lon="-1.46559">
        <ele>56</ele>
        <time>2012-07-23T18:16:31.000Z</time>
      </trkpt>
      <trkpt lat="47.21668" lon="-1.46552">
        <ele>57.6</ele>
        <time>2012-07-23T18:16:34.000Z</time>
      </trkpt>
      <trkpt lat="47.21668" lon="-1.46543">
        <ele>59.3</ele>
        <time>2012-07-23T18:16:36.000Z</time>
      </trkpt>
      <trkpt lat="47.21672" lon="-1.46534">
        <ele>61.7</ele>
        <time>2012-07-23T18:16:38.000Z</time>
      </trkpt>
      <trkpt lat="47.21674" lon="-1.46524">
        <ele>60.7</ele>
        <time>2012-07-23T18:16:40.000Z</time>
      </trkpt>
      <trkpt lat="47.21675" lon="-1.46516">
        <ele>61.3</ele>
        <time>2012-07-23T18:16:42.000Z</time>
      </trkpt>
      <trkpt lat="47.21676" lon="-1.46505">
        <ele>61.7</ele>
        <time>2012-07-23T18:16:45.000Z</time>
      </trkpt>
      <trkpt lat="47.21676" lon="-1.46495">
        <ele>62.7</ele>
        <time>2012-07-23T18:16:48.000Z</time>
      </trkpt>
      <trkpt lat="47.21678" lon="-1.46487">
        <ele>63.5</ele>
        <time>2012-07-23T18:16:50.000Z</time>
      </trkpt>
      <trkpt lat="47.21678" lon="-1.46478">
        <ele>64.2</ele>
        <time>2012-07-23T18:16:52.000Z</time>
      </trkpt>
      <trkpt lat="47.21679" lon="-1.46467">
        <ele>63.5</ele>
        <time>2012-07-23T18:16:54.000Z</time>
      </trkpt>
      <trkpt lat="47.21677" lon="-1.46456">
        <ele>63</ele>
        <time>2012-07-23T18:16:57.000Z</time>
      </trkpt>
      <trkpt lat="47.21678" lon="-1.46448">
        <ele>63.7</ele>
        <time>2012-07-23T18:17:00.000Z</time>
      </trkpt>
      <trkpt lat="47.21678" lon="-1.46436">
        <ele>63.7</ele>
        <time>2012-07-23T18:17:03.000Z</time>
      </trkpt>
      <trkpt lat="47.21679" lon="-1.46427">
        <ele>63.1</ele>
        <time>2012-07-23T18:17:06.000Z</time>
      </trkpt>
      <trkpt lat="47.21679" lon="-1.46417">
        <ele>62.3</ele>
        <time>2012-07-23T18:17:09.000Z</time>
      </trkpt>
      <trkpt lat="47.21677" lon="-1.46406">
        <ele>59</ele>
        <time>2012-07-23T18:17:13.000Z</time>
      </trkpt>
      <trkpt lat="47.21678" lon="-1.46396">
        <ele>58.1</ele>
        <time>2012-07-23T18:17:15.000Z</time>
      </trkpt>
      <trkpt lat="47.2168" lon="-1.4639">
        <ele>58.7</ele>
        <time>2012-07-23T18:17:17.000Z</time>
      </trkpt>
      <trkpt lat="47.21681" lon="-1.46383">
        <ele>58.9</ele>
        <time>2012-07-23T18:17:19.000Z</time>
      </trkpt>
      <trkpt lat="47.21681" lon="-1.46374">
        <ele>59.7</ele>
        <time>2012-07-23T18:17:21.000Z</time>
      </trkpt>
      <trkpt lat="47.21681" lon="-1.46362">
        <ele>60.5</ele>
        <time>2012-07-23T18:17:23.000Z</time>
      </trkpt>
      <trkpt lat="47.21682" lon="-1.46354">
        <ele>60.5</ele>
        <time>2012-07-23T18:17:25.000Z</time>
      </trkpt>
      <trkpt lat="47.2168" lon="-1.46345">
        <ele>58.7</ele>
        <time>2012-07-23T18:17:27.000Z</time>
      </trkpt>
      <trkpt lat="47.2168" lon="-1.46337">
        <ele>55.5</ele>
        <time>2012-07-23T18:17:30.000Z</time>
      </trkpt>
      <trkpt lat="47.21681" lon="-1.46328">
        <ele>54.1</ele>
        <time>2012-07-23T18:17:33.000Z</time>
      </trkpt>
      <trkpt lat="47.21686" lon="-1.46321">
        <ele>55.1</ele>
        <time>2012-07-23T18:17:35.000Z</time>
      </trkpt>
      <trkpt lat="47.21686" lon="-1.46314">
        <ele>56.1</ele>
        <time>2012-07-23T18:17:37.000Z</time>
      </trkpt>
      <trkpt lat="47.21689" lon="-1.46305">
        <ele>54.2</ele>
        <time>2012-07-23T18:17:39.000Z</time>
      </trkpt>
      <trkpt lat="47.21692" lon="-1.46296">
        <ele>54.3</ele>
        <time>2012-07-23T18:17:42.000Z</time>
      </trkpt>
      <trkpt lat="47.21693" lon="-1.46289">
        <ele>53.1</ele>
        <time>2012-07-23T18:17:44.000Z</time>
      </trkpt>
      <trkpt lat="47.21691" lon="-1.46279">
        <ele>52.5</ele>
        <time>2012-07-23T18:17:47.000Z</time>
      </trkpt>
      <trkpt lat="47.21691" lon="-1.46261">
        <ele>50.9</ele>
        <time>2012-07-23T18:17:50.000Z</time>
      </trkpt>
      <trkpt lat="47.21691" lon="-1.46248">
        <ele>52.7</ele>
        <time>2012-07-23T18:17:53.000Z</time>
      </trkpt>
      <trkpt lat="47.21694" lon="-1.4624">
        <ele>54.6</ele>
        <time>2012-07-23T18:17:56.000Z</time>
      </trkpt>
      <trkpt lat="47.21694" lon="-1.46234">
        <ele>55.5</ele>
        <time>2012-07-23T18:17:58.000Z</time>
      </trkpt>
      <trkpt lat="47.21695" lon="-1.46221">
        <ele>57.4</ele>
        <time>2012-07-23T18:18:01.000Z</time>
      </trkpt>
      <trkpt lat="47.21696" lon="-1.46215">
        <ele>57.3</ele>
        <time>2012-07-23T18:18:03.000Z</time>
      </trkpt>
      <trkpt lat="47.21698" lon="-1.46208">
        <ele>57.8</ele>
        <time>2012-07-23T18:18:05.000Z</time>
      </trkpt>
      <trkpt lat="47.21699" lon="-1.462">
        <ele>58</ele>
        <time>2012-07-23T18:18:07.000Z</time>
      </trkpt>
      <trkpt lat="47.21696" lon="-1.46194">
        <ele>57.6</ele>
        <time>2012-07-23T18:18:10.000Z</time>
      </trkpt>
      <trkpt lat="47.21697" lon="-1.46187">
        <ele>57.3</ele>
        <time>2012-07-23T18:18:12.000Z</time>
      </trkpt>
      <trkpt lat="47.21699" lon="-1.4618">
        <ele>58.6</ele>
        <time>2012-07-23T18:18:14.000Z</time>
      </trkpt>
      <trkpt lat="47.21702" lon="-1.46173">
        <ele>59.1</ele>
        <time>2012-07-23T18:18:16.000Z</time>
      </trkpt>
      <trkpt lat="47.21704" lon="-1.46166">
        <ele>58.6</ele>
        <time>2012-07-23T18:18:18.000Z</time>
      </trkpt>
      <trkpt lat="47.21706" lon="-1.46157">
        <ele>59</ele>
        <time>2012-07-23T18:18:21.000Z</time>
      </trkpt>
      <trkpt lat="47.21709" lon="-1.46148">
        <ele>55.2</ele>
        <time>2012-07-23T18:18:25.000Z</time>
      </trkpt>
      <trkpt lat="47.21712" lon="-1.46143">
        <ele>54.4</ele>
        <time>2012-07-23T18:18:27.000Z</time>
      </trkpt>
      <trkpt lat="47.21715" lon="-1.46135">
        <ele>54.2</ele>
        <time>2012-07-23T18:18:29.000Z</time>
      </trkpt>
      <trkpt lat="47.21716" lon="-1.46126">
        <ele>53.7</ele>
        <time>2012-07-23T18:18:31.000Z</time>
      </trkpt>
      <trkpt lat="47.2172" lon="-1.4612">
        <ele>51.7</ele>
        <time>2012-07-23T18:18:34.000Z</time>
      </trkpt>
      <trkpt lat="47.21723" lon="-1.46112">
        <ele>51.9</ele>
        <time>2012-07-23T18:18:36.000Z</time>
      </trkpt>
      <trkpt lat="47.21722" lon="-1.46103">
        <ele>51</ele>
        <time>2012-07-23T18:18:39.000Z</time>
      </trkpt>
      <trkpt lat="47.21723" lon="-1.46097">
        <ele>50.4</ele>
        <time>2012-07-23T18:18:41.000Z</time>
      </trkpt>
      <trkpt lat="47.21725" lon="-1.4609">
        <ele>50.8</ele>
        <time>2012-07-23T18:18:43.000Z</time>
      </trkpt>
      <trkpt lat="47.21729" lon="-1.46083">
        <ele>50.7</ele>
        <time>2012-07-23T18:18:45.000Z</time>
      </trkpt>
      <trkpt lat="47.2173" lon="-1.46076">
        <ele>50.8</ele>
        <time>2012-07-23T18:18:48.000Z</time>
      </trkpt>
      <trkpt lat="47.2173" lon="-1.46067">
        <ele>50.2</ele>
        <time>2012-07-23T18:18:50.000Z</time>
      </trkpt>
      <trkpt lat="47.21734" lon="-1.46059">
        <ele>53.3</ele>
        <time>2012-07-23T18:18:51.000Z</time>
      </trkpt>
      <trkpt lat="47.21737" lon="-1.46052">
        <ele>54.4</ele>
        <time>2012-07-23T18:18:54.000Z</time>
      </trkpt>
      <trkpt lat="47.2174" lon="-1.46041">
        <ele>53.3</ele>
        <time>2012-07-23T18:18:57.000Z</time>
      </trkpt>
      <trkpt lat="47.21743" lon="-1.4603">
        <ele>51.7</ele>
        <time>2012-07-23T18:19:00.000Z</time>
      </trkpt>
      <trkpt lat="47.21744" lon="-1.4602">
        <ele>52.5</ele>
        <time>2012-07-23T18:19:03.000Z</time>
      </trkpt>
      <trkpt lat="47.21744" lon="-1.4601">
        <ele>51.8</ele>
        <time>2012-07-23T18:19:05.000Z</time>
      </trkpt>
      <trkpt lat="47.21744" lon="-1.46001">
        <ele>51.5</ele>
        <time>2012-07-23T18:19:08.000Z</time>
      </trkpt>
      <trkpt lat="47.21744" lon="-1.45994">
        <ele>50.1</ele>
        <time>2012-07-23T18:19:10.000Z</time>
      </trkpt>
      <trkpt lat="47.21744" lon="-1.45984">
        <ele>50.4</ele>
        <time>2012-07-23T18:19:12.000Z</time>
      </trkpt>
      <trkpt lat="47.21743" lon="-1.45975">
        <ele>49.4</ele>
        <time>2012-07-23T18:19:16.000Z</time>
      </trkpt>
      <trkpt lat="47.21742" lon="-1.45968">
        <ele>50.6</ele>
        <time>2012-07-23T18:19:18.000Z</time>
      </trkpt>
      <trkpt lat="47.21742" lon="-1.45958">
        <ele>51.8</ele>
        <time>2012-07-23T18:19:21.000Z</time>
      </trkpt>
      <trkpt lat="47.21742" lon="-1.45949">
        <ele>51.2</ele>
        <time>2012-07-23T18:19:24.000Z</time>
      </trkpt>
      <trkpt lat="47.21744" lon="-1.45942">
        <ele>50.7</ele>
        <time>2012-07-23T18:19:25.000Z</time>
      </trkpt>
      <trkpt lat="47.21745" lon="-1.45934">
        <ele>51.2</ele>
        <time>2012-07-23T18:19:27.000Z</time>
      </trkpt>
      <trkpt lat="47.21747" lon="-1.45926">
        <ele>51.3</ele>
        <time>2012-07-23T18:19:29.000Z</time>
      </trkpt>
      <trkpt lat="47.21748" lon="-1.45919">
        <ele>50.7</ele>
        <time>2012-07-23T18:19:31.000Z</time>
      </trkpt>
      <trkpt lat="47.21746" lon="-1.45909">
        <ele>52.1</ele>
        <time>2012-07-23T18:19:34.000Z</time>
      </trkpt>
      <trkpt lat="47.21744" lon="-1.45898">
        <ele>53.3</ele>
        <time>2012-07-23T18:19:37.000Z</time>
      </trkpt>
      <trkpt lat="47.21745" lon="-1.45888">
        <ele>52.9</ele>
        <time>2012-07-23T18:19:40.000Z</time>
      </trkpt>
      <trkpt lat="47.21745" lon="-1.4588">
        <ele>52.4</ele>
        <time>2012-07-23T18:19:42.000Z</time>
      </trkpt>
      <trkpt lat="47.21747" lon="-1.4587">
        <ele>53.2</ele>
        <time>2012-07-23T18:19:45.000Z</time>
      </trkpt>
      <trkpt lat="47.21752" lon="-1.45859">
        <ele>52.6</ele>
        <time>2012-07-23T18:19:48.000Z</time>
      </trkpt>
      <trkpt lat="47.21753" lon="-1.45851">
        <ele>53</ele>
        <time>2012-07-23T18:19:50.000Z</time>
      </trkpt>
      <trkpt lat="47.21754" lon="-1.45844">
        <ele>53.7</ele>
        <time>2012-07-23T18:19:52.000Z</time>
      </trkpt>
      <trkpt lat="47.21756" lon="-1.45837">
        <ele>53.9</ele>
        <time>2012-07-23T18:19:54.000Z</time>
      </trkpt>
      <trkpt lat="47.21756" lon="-1.4583">
        <ele>53.9</ele>
        <time>2012-07-23T18:19:56.000Z</time>
      </trkpt>
      <trkpt lat="47.21759" lon="-1.45824">
        <ele>54.8</ele>
        <time>2012-07-23T18:19:58.000Z</time>
      </trkpt>
      <trkpt lat="47.21761" lon="-1.45813">
        <ele>54.4</ele>
        <time>2012-07-23T18:20:01.000Z</time>
      </trkpt>
      <trkpt lat="47.21762" lon="-1.45807">
        <ele>55.1</ele>
        <time>2012-07-23T18:20:03.000Z</time>
      </trkpt>
      <trkpt lat="47.21762" lon="-1.45799">
        <ele>54.9</ele>
        <time>2012-07-23T18:20:05.000Z</time>
      </trkpt>
      <trkpt lat="47.21764" lon="-1.45792">
        <ele>55.6</ele>
        <time>2012-07-23T18:20:08.000Z</time>
      </trkpt>
      <trkpt lat="47.21765" lon="-1.45785">
        <ele>54.7</ele>
        <time>2012-07-23T18:20:10.000Z</time>
      </trkpt>
      <trkpt lat="47.21766" lon="-1.45778">
        <ele>54.6</ele>
        <time>2012-07-23T18:20:12.000Z</time>
      </trkpt>
      <trkpt lat="47.21766" lon="-1.45767">
        <ele>53.4</ele>
        <time>2012-07-23T18:20:15.000Z</time>
      </trkpt>
      <trkpt lat="47.21764" lon="-1.45752">
        <ele>52.3</ele>
        <time>2012-07-23T18:20:19.000Z</time>
      </trkpt>
      <trkpt lat="47.21766" lon="-1.45744">
        <ele>51.4</ele>
        <time>2012-07-23T18:20:21.000Z</time>
      </trkpt>
      <trkpt lat="47.21766" lon="-1.45735">
        <ele>52.3</ele>
        <time>2012-07-23T18:20:24.000Z</time>
      </trkpt>
      <trkpt lat="47.21768" lon="-1.45727">
        <ele>51.8</ele>
        <time>2012-07-23T18:20:27.000Z</time>
      </trkpt>
      <trkpt lat="47.21771" lon="-1.45718">
        <ele>52.1</ele>
        <time>2012-07-23T18:20:30.000Z</time>
      </trkpt>
      <trkpt lat="47.21776" lon="-1.45711">
        <ele>52.7</ele>
        <time>2012-07-23T18:20:33.000Z</time>
      </trkpt>
      <trkpt lat="47.21781" lon="-1.45703">
        <ele>55.2</ele>
        <time>2012-07-23T18:20:36.000Z</time>
      </trkpt>
      <trkpt lat="47.21784" lon="-1.45696">
        <ele>55.5</ele>
        <time>2012-07-23T18:20:39.000Z</time>
      </trkpt>
      <trkpt lat="47.21789" lon="-1.45688">
        <ele>55.7</ele>
        <time>2012-07-23T18:20:42.000Z</time>
      </trkpt>
      <trkpt lat="47.21793" lon="-1.45682">
        <ele>58.4</ele>
        <time>2012-07-23T18:20:44.000Z</time>
      </trkpt>
      <trkpt lat="47.21796" lon="-1.45675">
        <ele>58.2</ele>
        <time>2012-07-23T18:20:47.000Z</time>
      </trkpt>
      <trkpt lat="47.218" lon="-1.45666">
        <ele>60.5</ele>
        <time>2012-07-23T18:20:50.000Z</time>
      </trkpt>
      <trkpt lat="47.21805" lon="-1.45661">
        <ele>61.6</ele>
        <time>2012-07-23T18:20:52.000Z</time>
      </trkpt>
      <trkpt lat="47.21808" lon="-1.45655">
        <ele>61.7</ele>
        <time>2012-07-23T18:20:54.000Z</time>
      </trkpt>
      <trkpt lat="47.2181" lon="-1.45648">
        <ele>60.8</ele>
        <time>2012-07-23T18:20:57.000Z</time>
      </trkpt>
      <trkpt lat="47.21816" lon="-1.45638">
        <ele>57.2</ele>
        <time>2012-07-23T18:21:01.000Z</time>
      </trkpt>
      <trkpt lat="47.21819" lon="-1.45631">
        <ele>56.7</ele>
        <time>2012-07-23T18:21:04.000Z</time>
      </trkpt>
      <trkpt lat="47.21822" lon="-1.45626">
        <ele>56.4</ele>
        <time>2012-07-23T18:21:06.000Z</time>
      </trkpt>
      <trkpt lat="47.21823" lon="-1.4562">
        <ele>56.4</ele>
        <time>2012-07-23T18:21:09.000Z</time>
      </trkpt>
      <trkpt lat="47.21826" lon="-1.45611">
        <ele>59.4</ele>
        <time>2012-07-23T18:21:13.000Z</time>
      </trkpt>
      <trkpt lat="47.21828" lon="-1.45605">
        <ele>59.5</ele>
        <time>2012-07-23T18:21:15.000Z</time>
      </trkpt>
      <trkpt lat="47.21832" lon="-1.45599">
        <ele>58.3</ele>
        <time>2012-07-23T18:21:17.000Z</time>
      </trkpt>
      <trkpt lat="47.21835" lon="-1.45593">
        <ele>58.4</ele>
        <time>2012-07-23T18:21:19.000Z</time>
      </trkpt>
      <trkpt lat="47.21838" lon="-1.45586">
        <ele>57.3</ele>
        <time>2012-07-23T18:21:21.000Z</time>
      </trkpt>
      <trkpt lat="47.21843" lon="-1.45576">
        <ele>57.5</ele>
        <time>2012-07-23T18:21:24.000Z</time>
      </trkpt>
      <trkpt lat="47.21848" lon="-1.45569">
        <ele>57.2</ele>
        <time>2012-07-23T18:21:28.000Z</time>
      </trkpt>
      <trkpt lat="47.21854" lon="-1.45562">
        <ele>57.1</ele>
        <time>2012-07-23T18:21:31.000Z</time>
      </trkpt>
      <trkpt lat="47.21858" lon="-1.45557">
        <ele>57.6</ele>
        <time>2012-07-23T18:21:33.000Z</time>
      </trkpt>
      <trkpt lat="47.21861" lon="-1.45552">
        <ele>58.2</ele>
        <time>2012-07-23T18:21:36.000Z</time>
      </trkpt>
      <trkpt lat="47.21864" lon="-1.45543">
        <ele>57.8</ele>
        <time>2012-07-23T18:21:38.000Z</time>
      </trkpt>
      <trkpt lat="47.21868" lon="-1.45535">
        <ele>56.9</ele>
        <time>2012-07-23T18:21:41.000Z</time>
      </trkpt>
      <trkpt lat="47.2187" lon="-1.45527">
        <ele>58.2</ele>
        <time>2012-07-23T18:21:45.000Z</time>
      </trkpt>
      <trkpt lat="47.21873" lon="-1.45518">
        <ele>60.4</ele>
        <time>2012-07-23T18:21:49.000Z</time>
      </trkpt>
      <trkpt lat="47.21877" lon="-1.45511">
        <ele>61.7</ele>
        <time>2012-07-23T18:21:51.000Z</time>
      </trkpt>
      <trkpt lat="47.21879" lon="-1.45504">
        <ele>62.1</ele>
        <time>2012-07-23T18:21:53.000Z</time>
      </trkpt>
      <trkpt lat="47.21884" lon="-1.45496">
        <ele>62.7</ele>
        <time>2012-07-23T18:21:56.000Z</time>
      </trkpt>
      <trkpt lat="47.21888" lon="-1.45489">
        <ele>63.9</ele>
        <time>2012-07-23T18:21:59.000Z</time>
      </trkpt>
      <trkpt lat="47.21892" lon="-1.4548">
        <ele>64.2</ele>
        <time>2012-07-23T18:22:02.000Z</time>
      </trkpt>
      <trkpt lat="47.21895" lon="-1.45475">
        <ele>65.2</ele>
        <time>2012-07-23T18:22:04.000Z</time>
      </trkpt>
      <trkpt lat="47.21899" lon="-1.45468">
        <ele>66.5</ele>
        <time>2012-07-23T18:22:07.000Z</time>
      </trkpt>
      <trkpt lat="47.21902" lon="-1.45463">
        <ele>66.4</ele>
        <time>2012-07-23T18:22:09.000Z</time>
      </trkpt>
      <trkpt lat="47.21906" lon="-1.45455">
        <ele>64.8</ele>
        <time>2012-07-23T18:22:12.000Z</time>
      </trkpt>
      <trkpt lat="47.21908" lon="-1.4545">
        <ele>64.2</ele>
        <time>2012-07-23T18:22:14.000Z</time>
      </trkpt>
      <trkpt lat="47.21912" lon="-1.45445">
        <ele>62.4</ele>
        <time>2012-07-23T18:22:17.000Z</time>
      </trkpt>
      <trkpt lat="47.21916" lon="-1.45438">
        <ele>61.4</ele>
        <time>2012-07-23T18:22:20.000Z</time>
      </trkpt>
      <trkpt lat="47.2192" lon="-1.45429">
        <ele>61.9</ele>
        <time>2012-07-23T18:22:23.000Z</time>
      </trkpt>
      <trkpt lat="47.21925" lon="-1.45424">
        <ele>61.4</ele>
        <time>2012-07-23T18:22:26.000Z</time>
      </trkpt>
      <trkpt lat="47.21931" lon="-1.4542">
        <ele>61.3</ele>
        <time>2012-07-23T18:22:29.000Z</time>
      </trkpt>
      <trkpt lat="47.21937" lon="-1.45418">
        <ele>61.4</ele>
        <time>2012-07-23T18:22:31.000Z</time>
      </trkpt>
      <trkpt lat="47.21941" lon="-1.45415">
        <ele>61.8</ele>
        <time>2012-07-23T18:22:33.000Z</time>
      </trkpt>
      <trkpt lat="47.21943" lon="-1.45402">
        <ele>60.8</ele>
        <time>2012-07-23T18:22:36.000Z</time>
      </trkpt>
      <trkpt lat="47.21944" lon="-1.45395">
        <ele>63.4</ele>
        <time>2012-07-23T18:22:38.000Z</time>
      </trkpt>
      <trkpt lat="47.21942" lon="-1.45383">
        <ele>65.9</ele>
        <time>2012-07-23T18:22:41.000Z</time>
      </trkpt>
      <trkpt lat="47.21942" lon="-1.45376">
        <ele>65.8</ele>
        <time>2012-07-23T18:22:43.000Z</time>
      </trkpt>
      <trkpt lat="47.21942" lon="-1.45366">
        <ele>65.7</ele>
        <time>2012-07-23T18:22:46.000Z</time>
      </trkpt>
      <trkpt lat="47.21942" lon="-1.45359">
        <ele>65.8</ele>
        <time>2012-07-23T18:22:48.000Z</time>
      </trkpt>
      <trkpt lat="47.21943" lon="-1.45348">
        <ele>65.4</ele>
        <time>2012-07-23T18:22:50.000Z</time>
      </trkpt>
      <trkpt lat="47.21938" lon="-1.4534">
        <ele>60.9</ele>
        <time>2012-07-23T18:22:53.000Z</time>
      </trkpt>
      <trkpt lat="47.21938" lon="-1.45332">
        <ele>58.8</ele>
        <time>2012-07-23T18:22:55.000Z</time>
      </trkpt>
      <trkpt lat="47.21938" lon="-1.45325">
        <ele>57.6</ele>
        <time>2012-07-23T18:22:57.000Z</time>
      </trkpt>
      <trkpt lat="47.2194" lon="-1.45319">
        <ele>58.3</ele>
        <time>2012-07-23T18:22:59.000Z</time>
      </trkpt>
      <trkpt lat="47.21943" lon="-1.45293">
        <ele>58</ele>
        <time>2012-07-23T18:23:08.000Z</time>
      </trkpt>
      <trkpt lat="47.21941" lon="-1.45287">
        <ele>55.7</ele>
        <time>2012-07-23T18:23:10.000Z</time>
      </trkpt>
      <trkpt lat="47.21935" lon="-1.45282">
        <ele>53.9</ele>
        <time>2012-07-23T18:23:13.000Z</time>
      </trkpt>
      <trkpt lat="47.21929" lon="-1.45284">
        <ele>51.1</ele>
        <time>2012-07-23T18:23:15.000Z</time>
      </trkpt>
      <trkpt lat="47.21922" lon="-1.4528">
        <ele>51.4</ele>
        <time>2012-07-23T18:23:19.000Z</time>
      </trkpt>
      <trkpt lat="47.21912" lon="-1.45274">
        <ele>54.1</ele>
        <time>2012-07-23T18:23:22.000Z</time>
      </trkpt>
      <trkpt lat="47.21908" lon="-1.45272">
        <ele>54.2</ele>
        <time>2012-07-23T18:23:24.000Z</time>
      </trkpt>
      <trkpt lat="47.21902" lon="-1.45269">
        <ele>55</ele>
        <time>2012-07-23T18:23:27.000Z</time>
      </trkpt>
      <trkpt lat="47.21897" lon="-1.45269">
        <ele>54.4</ele>
        <time>2012-07-23T18:23:30.000Z</time>
      </trkpt>
      <trkpt lat="47.21892" lon="-1.45271">
        <ele>53</ele>
        <time>2012-07-23T18:23:32.000Z</time>
      </trkpt>
      <trkpt lat="47.21885" lon="-1.45271">
        <ele>52.6</ele>
        <time>2012-07-23T18:23:35.000Z</time>
      </trkpt>
      <trkpt lat="47.21878" lon="-1.45273">
        <ele>51.3</ele>
        <time>2012-07-23T18:23:38.000Z</time>
      </trkpt>
      <trkpt lat="47.21873" lon="-1.45275">
        <ele>51.8</ele>
        <time>2012-07-23T18:23:40.000Z</time>
      </trkpt>
      <trkpt lat="47.21868" lon="-1.45276">
        <ele>52</ele>
        <time>2012-07-23T18:23:42.000Z</time>
      </trkpt>
      <trkpt lat="47.21863" lon="-1.45279">
        <ele>51.8</ele>
        <time>2012-07-23T18:23:44.000Z</time>
      </trkpt>
      <trkpt lat="47.21858" lon="-1.45281">
        <ele>51.8</ele>
        <time>2012-07-23T18:23:46.000Z</time>
      </trkpt>
      <trkpt lat="47.21852" lon="-1.45282">
        <ele>49.7</ele>
        <time>2012-07-23T18:23:49.000Z</time>
      </trkpt>
      <trkpt lat="47.21845" lon="-1.45283">
        <ele>49.2</ele>
        <time>2012-07-23T18:23:52.000Z</time>
      </trkpt>
      <trkpt lat="47.21839" lon="-1.45284">
        <ele>47.9</ele>
        <time>2012-07-23T18:23:54.000Z</time>
      </trkpt>
      <trkpt lat="47.21834" lon="-1.45288">
        <ele>47.3</ele>
        <time>2012-07-23T18:23:57.000Z</time>
      </trkpt>
      <trkpt lat="47.21828" lon="-1.45291">
        <ele>45</ele>
        <time>2012-07-23T18:23:59.000Z</time>
      </trkpt>
      <trkpt lat="47.21823" lon="-1.45292">
        <ele>45.8</ele>
        <time>2012-07-23T18:24:01.000Z</time>
      </trkpt>
      <trkpt lat="47.21818" lon="-1.45296">
        <ele>46.4</ele>
        <time>2012-07-23T18:24:03.000Z</time>
      </trkpt>
      <trkpt lat="47.21813" lon="-1.45295">
        <ele>46.5</ele>
        <time>2012-07-23T18:24:05.000Z</time>
      </trkpt>
      <trkpt lat="47.21809" lon="-1.45298">
        <ele>45.3</ele>
        <time>2012-07-23T18:24:07.000Z</time>
      </trkpt>
      <trkpt lat="47.21803" lon="-1.45299">
        <ele>48.2</ele>
        <time>2012-07-23T18:24:09.000Z</time>
      </trkpt>
      <trkpt lat="47.21798" lon="-1.453">
        <ele>48.8</ele>
        <time>2012-07-23T18:24:11.000Z</time>
      </trkpt>
      <trkpt lat="47.21794" lon="-1.45302">
        <ele>48.6</ele>
        <time>2012-07-23T18:24:13.000Z</time>
      </trkpt>
      <trkpt lat="47.2179" lon="-1.45306">
        <ele>46.1</ele>
        <time>2012-07-23T18:24:15.000Z</time>
      </trkpt>
      <trkpt lat="47.21785" lon="-1.45305">
        <ele>46.6</ele>
        <time>2012-07-23T18:24:17.000Z</time>
      </trkpt>
      <trkpt lat="47.2178" lon="-1.45306">
        <ele>45.8</ele>
        <time>2012-07-23T18:24:19.000Z</time>
      </trkpt>
      <trkpt lat="47.21773" lon="-1.45308">
        <ele>44.8</ele>
        <time>2012-07-23T18:24:22.000Z</time>
      </trkpt>
      <trkpt lat="47.21768" lon="-1.45308">
        <ele>45.1</ele>
        <time>2012-07-23T18:24:24.000Z</time>
      </trkpt>
      <trkpt lat="47.21763" lon="-1.4531">
        <ele>44.9</ele>
        <time>2012-07-23T18:24:26.000Z</time>
      </trkpt>
      <trkpt lat="47.21756" lon="-1.4531">
        <ele>43.5</ele>
        <time>2012-07-23T18:24:29.000Z</time>
      </trkpt>
      <trkpt lat="47.2175" lon="-1.4531">
        <ele>42.9</ele>
        <time>2012-07-23T18:24:31.000Z</time>
      </trkpt>
      <trkpt lat="47.21745" lon="-1.4531">
        <ele>43.4</ele>
        <time>2012-07-23T18:24:33.000Z</time>
      </trkpt>
      <trkpt lat="47.2174" lon="-1.45309">
        <ele>40.6</ele>
        <time>2012-07-23T18:24:35.000Z</time>
      </trkpt>
      <trkpt lat="47.21734" lon="-1.45307">
        <ele>41.3</ele>
        <time>2012-07-23T18:24:37.000Z</time>
      </trkpt>
      <trkpt lat="47.21729" lon="-1.45305">
        <ele>40.8</ele>
        <time>2012-07-23T18:24:39.000Z</time>
      </trkpt>
      <trkpt lat="47.21723" lon="-1.45305">
        <ele>40.8</ele>
        <time>2012-07-23T18:24:41.000Z</time>
      </trkpt>
      <trkpt lat="47.21718" lon="-1.45301">
        <ele>40.7</ele>
        <time>2012-07-23T18:24:43.000Z</time>
      </trkpt>
      <trkpt lat="47.21712" lon="-1.45299">
        <ele>40.9</ele>
        <time>2012-07-23T18:24:46.000Z</time>
      </trkpt>
      <trkpt lat="47.21704" lon="-1.45297">
        <ele>43.4</ele>
        <time>2012-07-23T18:24:50.000Z</time>
      </trkpt>
      <trkpt lat="47.21698" lon="-1.45294">
        <ele>41.6</ele>
        <time>2012-07-23T18:24:53.000Z</time>
      </trkpt>
      <trkpt lat="47.2169" lon="-1.4529">
        <ele>40.5</ele>
        <time>2012-07-23T18:24:56.000Z</time>
      </trkpt>
      <trkpt lat="47.21684" lon="-1.45286">
        <ele>43.3</ele>
        <time>2012-07-23T18:24:58.000Z</time>
      </trkpt>
      <trkpt lat="47.21679" lon="-1.45283">
        <ele>42.4</ele>
        <time>2012-07-23T18:25:00.000Z</time>
      </trkpt>
      <trkpt lat="47.21674" lon="-1.45281">
        <ele>42.2</ele>
        <time>2012-07-23T18:25:02.000Z</time>
      </trkpt>
      <trkpt lat="47.21668" lon="-1.45278">
        <ele>44.3</ele>
        <time>2012-07-23T18:25:04.000Z</time>
      </trkpt>
      <trkpt lat="47.21663" lon="-1.45275">
        <ele>43.2</ele>
        <time>2012-07-23T18:25:06.000Z</time>
      </trkpt>
      <trkpt lat="47.21659" lon="-1.45274">
        <ele>43.8</ele>
        <time>2012-07-23T18:25:08.000Z</time>
      </trkpt>
      <trkpt lat="47.21654" lon="-1.45272">
        <ele>43.3</ele>
        <time>2012-07-23T18:25:10.000Z</time>
      </trkpt>
      <trkpt lat="47.21649" lon="-1.45271">
        <ele>39.7</ele>
        <time>2012-07-23T18:25:12.000Z</time>
      </trkpt>
      <trkpt lat="47.21644" lon="-1.45269">
        <ele>39.4</ele>
        <time>2012-07-23T18:25:14.000Z</time>
      </trkpt>
      <trkpt lat="47.2164" lon="-1.45266">
        <ele>38</ele>
        <time>2012-07-23T18:25:16.000Z</time>
      </trkpt>
      <trkpt lat="47.21636" lon="-1.45263">
        <ele>37.7</ele>
        <time>2012-07-23T18:25:18.000Z</time>
      </trkpt>
      <trkpt lat="47.21631" lon="-1.4526">
        <ele>37.4</ele>
        <time>2012-07-23T18:25:20.000Z</time>
      </trkpt>
      <trkpt lat="47.21625" lon="-1.45256">
        <ele>35.7</ele>
        <time>2012-07-23T18:25:23.000Z</time>
      </trkpt>
      <trkpt lat="47.2162" lon="-1.45254">
        <ele>35.1</ele>
        <time>2012-07-23T18:25:25.000Z</time>
      </trkpt>
      <trkpt lat="47.21616" lon="-1.4525">
        <ele>34.9</ele>
        <time>2012-07-23T18:25:27.000Z</time>
      </trkpt>
      <trkpt lat="47.21609" lon="-1.45246">
        <ele>34.9</ele>
        <time>2012-07-23T18:25:30.000Z</time>
      </trkpt>
      <trkpt lat="47.21604" lon="-1.45243">
        <ele>34.8</ele>
        <time>2012-07-23T18:25:32.000Z</time>
      </trkpt>
      <trkpt lat="47.21598" lon="-1.4524">
        <ele>35</ele>
        <time>2012-07-23T18:25:35.000Z</time>
      </trkpt>
      <trkpt lat="47.21592" lon="-1.45238">
        <ele>35.1</ele>
        <time>2012-07-23T18:25:38.000Z</time>
      </trkpt>
      <trkpt lat="47.21586" lon="-1.45235">
        <ele>34</ele>
        <time>2012-07-23T18:25:41.000Z</time>
      </trkpt>
      <trkpt lat="47.21581" lon="-1.45233">
        <ele>34.5</ele>
        <time>2012-07-23T18:25:43.000Z</time>
      </trkpt>
      <trkpt lat="47.21573" lon="-1.45229">
        <ele>34.1</ele>
        <time>2012-07-23T18:25:47.000Z</time>
      </trkpt>
      <trkpt lat="47.21569" lon="-1.45228">
        <ele>33.2</ele>
        <time>2012-07-23T18:25:49.000Z</time>
      </trkpt>
      <trkpt lat="47.21561" lon="-1.45225">
        <ele>35.2</ele>
        <time>2012-07-23T18:25:52.000Z</time>
      </trkpt>
      <trkpt lat="47.21556" lon="-1.45222">
        <ele>35.6</ele>
        <time>2012-07-23T18:25:54.000Z</time>
      </trkpt>
      <trkpt lat="47.21552" lon="-1.4522">
        <ele>36.5</ele>
        <time>2012-07-23T18:25:57.000Z</time>
      </trkpt>
      <trkpt lat="47.21545" lon="-1.45215">
        <ele>36.5</ele>
        <time>2012-07-23T18:26:00.000Z</time>
      </trkpt>
      <trkpt lat="47.21541" lon="-1.45213">
        <ele>36.8</ele>
        <time>2012-07-23T18:26:02.000Z</time>
      </trkpt>
      <trkpt lat="47.21536" lon="-1.4521">
        <ele>35.4</ele>
        <time>2012-07-23T18:26:04.000Z</time>
      </trkpt>
      <trkpt lat="47.21529" lon="-1.45206">
        <ele>32.9</ele>
        <time>2012-07-23T18:26:07.000Z</time>
      </trkpt>
      <trkpt lat="47.21523" lon="-1.45203">
        <ele>33.4</ele>
        <time>2012-07-23T18:26:10.000Z</time>
      </trkpt>
      <trkpt lat="47.21517" lon="-1.45199">
        <ele>34.3</ele>
        <time>2012-07-23T18:26:12.000Z</time>
      </trkpt>
      <trkpt lat="47.2151" lon="-1.45196">
        <ele>35</ele>
        <time>2012-07-23T18:26:15.000Z</time>
      </trkpt>
      <trkpt lat="47.21506" lon="-1.45193">
        <ele>34.2</ele>
        <time>2012-07-23T18:26:17.000Z</time>
      </trkpt>
      <trkpt lat="47.215" lon="-1.4519">
        <ele>34.6</ele>
        <time>2012-07-23T18:26:19.000Z</time>
      </trkpt>
      <trkpt lat="47.21494" lon="-1.45188">
        <ele>33.7</ele>
        <time>2012-07-23T18:26:22.000Z</time>
      </trkpt>
      <trkpt lat="47.2149" lon="-1.45186">
        <ele>34.2</ele>
        <time>2012-07-23T18:26:24.000Z</time>
      </trkpt>
      <trkpt lat="47.21485" lon="-1.45184">
        <ele>34.4</ele>
        <time>2012-07-23T18:26:26.000Z</time>
      </trkpt>
      <trkpt lat="47.2148" lon="-1.45182">
        <ele>34.8</ele>
        <time>2012-07-23T18:26:28.000Z</time>
      </trkpt>
      <trkpt lat="47.21476" lon="-1.45179">
        <ele>36</ele>
        <time>2012-07-23T18:26:30.000Z</time>
      </trkpt>
      <trkpt lat="47.21469" lon="-1.45177">
        <ele>35.7</ele>
        <time>2012-07-23T18:26:33.000Z</time>
      </trkpt>
      <trkpt lat="47.21464" lon="-1.45174">
        <ele>36.7</ele>
        <time>2012-07-23T18:26:35.000Z</time>
      </trkpt>
      <trkpt lat="47.2146" lon="-1.45171">
        <ele>38</ele>
        <time>2012-07-23T18:26:37.000Z</time>
      </trkpt>
      <trkpt lat="47.21453" lon="-1.45168">
        <ele>37.9</ele>
        <time>2012-07-23T18:26:40.000Z</time>
      </trkpt>
      <trkpt lat="47.21446" lon="-1.45164">
        <ele>37.6</ele>
        <time>2012-07-23T18:26:43.000Z</time>
      </trkpt>
      <trkpt lat="47.21439" lon="-1.4516">
        <ele>40.1</ele>
        <time>2012-07-23T18:26:46.000Z</time>
      </trkpt>
      <trkpt lat="47.21433" lon="-1.45157">
        <ele>41.5</ele>
        <time>2012-07-23T18:26:49.000Z</time>
      </trkpt>
      <trkpt lat="47.21428" lon="-1.45152">
        <ele>42.2</ele>
        <time>2012-07-23T18:26:52.000Z</time>
      </trkpt>
      <trkpt lat="47.21421" lon="-1.45151">
        <ele>43.6</ele>
        <time>2012-07-23T18:26:54.000Z</time>
      </trkpt>
      <trkpt lat="47.21415" lon="-1.45151">
        <ele>43.3</ele>
        <time>2012-07-23T18:26:57.000Z</time>
      </trkpt>
      <trkpt lat="47.21408" lon="-1.45149">
        <ele>43.6</ele>
        <time>2012-07-23T18:27:00.000Z</time>
      </trkpt>
      <trkpt lat="47.21403" lon="-1.45146">
        <ele>44.2</ele>
        <time>2012-07-23T18:27:03.000Z</time>
      </trkpt>
      <trkpt lat="47.21395" lon="-1.4514">
        <ele>43.2</ele>
        <time>2012-07-23T18:27:06.000Z</time>
      </trkpt>
      <trkpt lat="47.21391" lon="-1.45137">
        <ele>42.6</ele>
        <time>2012-07-23T18:27:08.000Z</time>
      </trkpt>
      <trkpt lat="47.21385" lon="-1.45139">
        <ele>43.7</ele>
        <time>2012-07-23T18:27:11.000Z</time>
      </trkpt>
      <trkpt lat="47.2138" lon="-1.45136">
        <ele>44.3</ele>
        <time>2012-07-23T18:27:13.000Z</time>
      </trkpt>
      <trkpt lat="47.21375" lon="-1.45134">
        <ele>43.2</ele>
        <time>2012-07-23T18:27:16.000Z</time>
      </trkpt>
      <trkpt lat="47.2137" lon="-1.45132">
        <ele>41.2</ele>
        <time>2012-07-23T18:27:18.000Z</time>
      </trkpt>
      <trkpt lat="47.21362" lon="-1.45131">
        <ele>40.3</ele>
        <time>2012-07-23T18:27:22.000Z</time>
      </trkpt>
      <trkpt lat="47.21356" lon="-1.4513">
        <ele>39.7</ele>
        <time>2012-07-23T18:27:25.000Z</time>
      </trkpt>
      <trkpt lat="47.2135" lon="-1.45126">
        <ele>40.2</ele>
        <time>2012-07-23T18:27:26.000Z</time>
      </trkpt>
      <trkpt lat="47.21344" lon="-1.45123">
        <ele>43.6</ele>
        <time>2012-07-23T18:27:29.000Z</time>
      </trkpt>
      <trkpt lat="47.21337" lon="-1.4512">
        <ele>41.6</ele>
        <time>2012-07-23T18:27:33.000Z</time>
      </trkpt>
      <trkpt lat="47.21332" lon="-1.45118">
        <ele>42.9</ele>
        <time>2012-07-23T18:27:35.000Z</time>
      </trkpt>
      <trkpt lat="47.21326" lon="-1.45116">
        <ele>44.3</ele>
        <time>2012-07-23T18:27:38.000Z</time>
      </trkpt>
      <trkpt lat="47.2132" lon="-1.45113">
        <ele>44.6</ele>
        <time>2012-07-23T18:27:40.000Z</time>
      </trkpt>
      <trkpt lat="47.21315" lon="-1.45111">
        <ele>44.8</ele>
        <time>2012-07-23T18:27:42.000Z</time>
      </trkpt>
      <trkpt lat="47.21307" lon="-1.45107">
        <ele>44</ele>
        <time>2012-07-23T18:27:45.000Z</time>
      </trkpt>
      <trkpt lat="47.213" lon="-1.45105">
        <ele>42.5</ele>
        <time>2012-07-23T18:27:48.000Z</time>
      </trkpt>
      <trkpt lat="47.21292" lon="-1.45103">
        <ele>42.5</ele>
        <time>2012-07-23T18:27:52.000Z</time>
      </trkpt>
      <trkpt lat="47.21286" lon="-1.45101">
        <ele>41.7</ele>
        <time>2012-07-23T18:27:54.000Z</time>
      </trkpt>
      <trkpt lat="47.21279" lon="-1.45096">
        <ele>40.9</ele>
        <time>2012-07-23T18:27:57.000Z</time>
      </trkpt>
      <trkpt lat="47.21273" lon="-1.45094">
        <ele>42.1</ele>
        <time>2012-07-23T18:28:00.000Z</time>
      </trkpt>
      <trkpt lat="47.21268" lon="-1.45096">
        <ele>43.4</ele>
        <time>2012-07-23T18:28:02.000Z</time>
      </trkpt>
      <trkpt lat="47.2126" lon="-1.45094">
        <ele>43.8</ele>
        <time>2012-07-23T18:28:05.000Z</time>
      </trkpt>
      <trkpt lat="47.21256" lon="-1.45092">
        <ele>43.5</ele>
        <time>2012-07-23T18:28:07.000Z</time>
      </trkpt>
      <trkpt lat="47.21251" lon="-1.45089">
        <ele>43</ele>
        <time>2012-07-23T18:28:09.000Z</time>
      </trkpt>
      <trkpt lat="47.21247" lon="-1.45086">
        <ele>44</ele>
        <time>2012-07-23T18:28:11.000Z</time>
      </trkpt>
      <trkpt lat="47.21242" lon="-1.45083">
        <ele>46.5</ele>
        <time>2012-07-23T18:28:14.000Z</time>
      </trkpt>
      <trkpt lat="47.21235" lon="-1.4508">
        <ele>47.4</ele>
        <time>2012-07-23T18:28:17.000Z</time>
      </trkpt>
      <trkpt lat="47.2123" lon="-1.45078">
        <ele>47.9</ele>
        <time>2012-07-23T18:28:19.000Z</time>
      </trkpt>
      <trkpt lat="47.21226" lon="-1.45074">
        <ele>44.9</ele>
        <time>2012-07-23T18:28:21.000Z</time>
      </trkpt>
      <trkpt lat="47.2122" lon="-1.45075">
        <ele>45.2</ele>
        <time>2012-07-23T18:28:24.000Z</time>
      </trkpt>
      <trkpt lat="47.21214" lon="-1.45074">
        <ele>45.5</ele>
        <time>2012-07-23T18:28:27.000Z</time>
      </trkpt>
      <trkpt lat="47.21207" lon="-1.45075">
        <ele>44.6</ele>
        <time>2012-07-23T18:28:30.000Z</time>
      </trkpt>
      <trkpt lat="47.21201" lon="-1.45072">
        <ele>42.5</ele>
        <time>2012-07-23T18:28:33.000Z</time>
      </trkpt>
      <trkpt lat="47.21196" lon="-1.45071">
        <ele>44.7</ele>
        <time>2012-07-23T18:28:35.000Z</time>
      </trkpt>
      <trkpt lat="47.21191" lon="-1.4507">
        <ele>45.4</ele>
        <time>2012-07-23T18:28:37.000Z</time>
      </trkpt>
      <trkpt lat="47.21184" lon="-1.45069">
        <ele>45.6</ele>
        <time>2012-07-23T18:28:40.000Z</time>
      </trkpt>
      <trkpt lat="47.21179" lon="-1.45069">
        <ele>44.9</ele>
        <time>2012-07-23T18:28:42.000Z</time>
      </trkpt>
      <trkpt lat="47.21174" lon="-1.45068">
        <ele>43.4</ele>
        <time>2012-07-23T18:28:44.000Z</time>
      </trkpt>
      <trkpt lat="47.21168" lon="-1.45068">
        <ele>43.9</ele>
        <time>2012-07-23T18:28:47.000Z</time>
      </trkpt>
      <trkpt lat="47.21163" lon="-1.45066">
        <ele>45</ele>
        <time>2012-07-23T18:28:49.000Z</time>
      </trkpt>
      <trkpt lat="47.21158" lon="-1.45064">
        <ele>46</ele>
        <time>2012-07-23T18:28:51.000Z</time>
      </trkpt>
      <trkpt lat="47.21154" lon="-1.45061">
        <ele>46.4</ele>
        <time>2012-07-23T18:28:53.000Z</time>
      </trkpt>
      <trkpt lat="47.21149" lon="-1.45067">
        <ele>47.2</ele>
        <time>2012-07-23T18:28:55.000Z</time>
      </trkpt>
      <trkpt lat="47.21142" lon="-1.45065">
        <ele>47.5</ele>
        <time>2012-07-23T18:28:58.000Z</time>
      </trkpt>
      <trkpt lat="47.21137" lon="-1.45063">
        <ele>47.9</ele>
        <time>2012-07-23T18:29:00.000Z</time>
      </trkpt>
      <trkpt lat="47.21132" lon="-1.45063">
        <ele>48.3</ele>
        <time>2012-07-23T18:29:02.000Z</time>
      </trkpt>
      <trkpt lat="47.21125" lon="-1.45064">
        <ele>48.7</ele>
        <time>2012-07-23T18:29:04.000Z</time>
      </trkpt>
      <trkpt lat="47.2112" lon="-1.45064">
        <ele>45.4</ele>
        <time>2012-07-23T18:29:06.000Z</time>
      </trkpt>
      <trkpt lat="47.21113" lon="-1.45061">
        <ele>47.4</ele>
        <time>2012-07-23T18:29:09.000Z</time>
      </trkpt>
      <trkpt lat="47.21107" lon="-1.45062">
        <ele>46.7</ele>
        <time>2012-07-23T18:29:12.000Z</time>
      </trkpt>
      <trkpt lat="47.21101" lon="-1.45061">
        <ele>47.4</ele>
        <time>2012-07-23T18:29:15.000Z</time>
      </trkpt>
      <trkpt lat="47.21095" lon="-1.45059">
        <ele>47.9</ele>
        <time>2012-07-23T18:29:17.000Z</time>
      </trkpt>
      <trkpt lat="47.2109" lon="-1.45056">
        <ele>47.5</ele>
        <time>2012-07-23T18:29:19.000Z</time>
      </trkpt>
      <trkpt lat="47.21085" lon="-1.45056">
        <ele>48.1</ele>
        <time>2012-07-23T18:29:24.000Z</time>
      </trkpt>
      <trkpt lat="47.21081" lon="-1.45061">
        <ele>48.4</ele>
        <time>2012-07-23T18:29:30.000Z</time>
      </trkpt>
      <trkpt lat="47.21086" lon="-1.45061">
        <ele>48.8</ele>
        <time>2012-07-23T18:29:36.000Z</time>
      </trkpt>
      <trkpt lat="47.21087" lon="-1.45053">
        <ele>49.4</ele>
        <time>2012-07-23T18:29:41.000Z</time>
      </trkpt>
      <trkpt lat="47.21088" lon="-1.45046">
        <ele>48.7</ele>
        <time>2012-07-23T18:29:44.000Z</time>
      </trkpt>
      <trkpt lat="47.21087" lon="-1.45039">
        <ele>50.2</ele>
        <time>2012-07-23T18:29:48.000Z</time>
      </trkpt>
      <trkpt lat="47.21083" lon="-1.45032">
        <ele>50.5</ele>
        <time>2012-07-23T18:29:54.000Z</time>
      </trkpt>
      <trkpt lat="47.21081" lon="-1.45024">
        <ele>51.9</ele>
        <time>2012-07-23T18:29:57.000Z</time>
      </trkpt>
      <trkpt lat="47.21079" lon="-1.45017">
        <ele>51.3</ele>
        <time>2012-07-23T18:30:02.000Z</time>
      </trkpt>
      <trkpt lat="47.21077" lon="-1.45008">
        <ele>50.7</ele>
        <time>2012-07-23T18:30:05.000Z</time>
      </trkpt>
      <trkpt lat="47.21077" lon="-1.44998">
        <ele>50.6</ele>
        <time>2012-07-23T18:30:08.000Z</time>
      </trkpt>
      <trkpt lat="47.21075" lon="-1.44992">
        <ele>51</ele>
        <time>2012-07-23T18:30:12.000Z</time>
      </trkpt>
      <trkpt lat="47.21073" lon="-1.44985">
        <ele>50.7</ele>
        <time>2012-07-23T18:30:14.000Z</time>
      </trkpt>
      <trkpt lat="47.21072" lon="-1.44977">
        <ele>50.6</ele>
        <time>2012-07-23T18:30:17.000Z</time>
      </trkpt>
      <trkpt lat="47.2107" lon="-1.44969">
        <ele>51.1</ele>
        <time>2012-07-23T18:30:20.000Z</time>
      </trkpt>
      <trkpt lat="47.2107" lon="-1.4496">
        <ele>51.8</ele>
        <time>2012-07-23T18:30:22.000Z</time>
      </trkpt>
      <trkpt lat="47.21065" lon="-1.44949">
        <ele>53.4</ele>
        <time>2012-07-23T18:30:25.000Z</time>
      </trkpt>
      <trkpt lat="47.21063" lon="-1.44942">
        <ele>53.9</ele>
        <time>2012-07-23T18:30:26.000Z</time>
      </trkpt>
      <trkpt lat="47.21064" lon="-1.44929">
        <ele>55.6</ele>
        <time>2012-07-23T18:30:30.000Z</time>
      </trkpt>
      <trkpt lat="47.21062" lon="-1.44921">
        <ele>53.6</ele>
        <time>2012-07-23T18:30:34.000Z</time>
      </trkpt>
      <trkpt lat="47.2106" lon="-1.44914">
        <ele>52.5</ele>
        <time>2012-07-23T18:30:37.000Z</time>
      </trkpt>
      <trkpt lat="47.21063" lon="-1.44907">
        <ele>51.6</ele>
        <time>2012-07-23T18:30:40.000Z</time>
      </trkpt>
      <trkpt lat="47.21062" lon="-1.44899">
        <ele>54.1</ele>
        <time>2012-07-23T18:30:44.000Z</time>
      </trkpt>
      <trkpt lat="47.21067" lon="-1.44895">
        <ele>54.3</ele>
        <time>2012-07-23T18:30:46.000Z</time>
      </trkpt>
      <trkpt lat="47.2107" lon="-1.44888">
        <ele>56.8</ele>
        <time>2012-07-23T18:30:49.000Z</time>
      </trkpt>
      <trkpt lat="47.21071" lon="-1.44881">
        <ele>58.6</ele>
        <time>2012-07-23T18:30:51.000Z</time>
      </trkpt>
      <trkpt lat="47.21072" lon="-1.44874">
        <ele>58.2</ele>
        <time>2012-07-23T18:30:56.000Z</time>
      </trkpt>
      <trkpt lat="47.21075" lon="-1.44869">
        <ele>56.6</ele>
        <time>2012-07-23T18:30:59.000Z</time>
      </trkpt>
      <trkpt lat="47.21074" lon="-1.44862">
        <ele>56.7</ele>
        <time>2012-07-23T18:31:08.000Z</time>
      </trkpt>
      <trkpt lat="47.21071" lon="-1.44852">
        <ele>56.6</ele>
        <time>2012-07-23T18:31:11.000Z</time>
      </trkpt>
      <trkpt lat="47.21067" lon="-1.44848">
        <ele>57</ele>
        <time>2012-07-23T18:31:12.000Z</time>
      </trkpt>
      <trkpt lat="47.21065" lon="-1.44838">
        <ele>56.2</ele>
        <time>2012-07-23T18:31:14.000Z</time>
      </trkpt>
      <trkpt lat="47.21064" lon="-1.44829">
        <ele>55</ele>
        <time>2012-07-23T18:31:15.000Z</time>
      </trkpt>
      <trkpt lat="47.21064" lon="-1.44821">
        <ele>54</ele>
        <time>2012-07-23T18:31:16.000Z</time>
      </trkpt>
      <trkpt lat="47.21062" lon="-1.44814">
        <ele>53.8</ele>
        <time>2012-07-23T18:31:18.000Z</time>
      </trkpt>
      <trkpt lat="47.21058" lon="-1.44806">
        <ele>52.7</ele>
        <time>2012-07-23T18:31:20.000Z</time>
      </trkpt>
      <trkpt lat="47.21057" lon="-1.44796">
        <ele>52.1</ele>
        <time>2012-07-23T18:31:22.000Z</time>
      </trkpt>
      <trkpt lat="47.21052" lon="-1.44789">
        <ele>52.9</ele>
        <time>2012-07-23T18:31:23.000Z</time>
      </trkpt>
      <trkpt lat="47.21048" lon="-1.44784">
        <ele>53.6</ele>
        <time>2012-07-23T18:31:24.000Z</time>
      </trkpt>
      <trkpt lat="47.21047" lon="-1.44777">
        <ele>53.1</ele>
        <time>2012-07-23T18:31:26.000Z</time>
      </trkpt>
      <trkpt lat="47.21043" lon="-1.44772">
        <ele>53.2</ele>
        <time>2012-07-23T18:31:27.000Z</time>
      </trkpt>
      <trkpt lat="47.21043" lon="-1.44765">
        <ele>52.7</ele>
        <time>2012-07-23T18:31:29.000Z</time>
      </trkpt>
      <trkpt lat="47.21049" lon="-1.44758">
        <ele>52.1</ele>
        <time>2012-07-23T18:31:31.000Z</time>
      </trkpt>
      <trkpt lat="47.21043" lon="-1.44746">
        <ele>50</ele>
        <time>2012-07-23T18:31:35.000Z</time>
      </trkpt>
      <trkpt lat="47.21043" lon="-1.44738">
        <ele>50.6</ele>
        <time>2012-07-23T18:31:37.000Z</time>
      </trkpt>
      <trkpt lat="47.21039" lon="-1.44729">
        <ele>50.4</ele>
        <time>2012-07-23T18:31:40.000Z</time>
      </trkpt>
      <trkpt lat="47.21033" lon="-1.44724">
        <ele>52.9</ele>
        <time>2012-07-23T18:31:43.000Z</time>
      </trkpt>
      <trkpt lat="47.21029" lon="-1.44713">
        <ele>54.1</ele>
        <time>2012-07-23T18:31:46.000Z</time>
      </trkpt>
      <trkpt lat="47.21026" lon="-1.44705">
        <ele>54.3</ele>
        <time>2012-07-23T18:31:50.000Z</time>
      </trkpt>
      <trkpt lat="47.21022" lon="-1.447">
        <ele>56</ele>
        <time>2012-07-23T18:31:52.000Z</time>
      </trkpt>
      <trkpt lat="47.21019" lon="-1.44695">
        <ele>56.2</ele>
        <time>2012-07-23T18:31:54.000Z</time>
      </trkpt>
      <trkpt lat="47.21015" lon="-1.44679">
        <ele>60.3</ele>
        <time>2012-07-23T18:31:58.000Z</time>
      </trkpt>
      <trkpt lat="47.21014" lon="-1.44672">
        <ele>58.6</ele>
        <time>2012-07-23T18:32:00.000Z</time>
      </trkpt>
      <trkpt lat="47.21013" lon="-1.44664">
        <ele>57.6</ele>
        <time>2012-07-23T18:32:03.000Z</time>
      </trkpt>
      <trkpt lat="47.21009" lon="-1.44656">
        <ele>56.4</ele>
        <time>2012-07-23T18:32:06.000Z</time>
      </trkpt>
      <trkpt lat="47.21005" lon="-1.44648">
        <ele>54.9</ele>
        <time>2012-07-23T18:32:09.000Z</time>
      </trkpt>
      <trkpt lat="47.21001" lon="-1.44641">
        <ele>54.2</ele>
        <time>2012-07-23T18:32:12.000Z</time>
      </trkpt>
      <trkpt lat="47.20998" lon="-1.44632">
        <ele>53.6</ele>
        <time>2012-07-23T18:32:16.000Z</time>
      </trkpt>
      <trkpt lat="47.20996" lon="-1.44625">
        <ele>56.1</ele>
        <time>2012-07-23T18:32:18.000Z</time>
      </trkpt>
      <trkpt lat="47.20993" lon="-1.44616">
        <ele>57.4</ele>
        <time>2012-07-23T18:32:21.000Z</time>
      </trkpt>
      <trkpt lat="47.2099" lon="-1.4461">
        <ele>57</ele>
        <time>2012-07-23T18:32:23.000Z</time>
      </trkpt>
      <trkpt lat="47.20986" lon="-1.44603">
        <ele>54.9</ele>
        <time>2012-07-23T18:32:26.000Z</time>
      </trkpt>
      <trkpt lat="47.20982" lon="-1.44596">
        <ele>53.8</ele>
        <time>2012-07-23T18:32:29.000Z</time>
      </trkpt>
      <trkpt lat="47.2098" lon="-1.4459">
        <ele>53.1</ele>
        <time>2012-07-23T18:32:31.000Z</time>
      </trkpt>
      <trkpt lat="47.20975" lon="-1.44583">
        <ele>53.3</ele>
        <time>2012-07-23T18:32:34.000Z</time>
      </trkpt>
      <trkpt lat="47.20973" lon="-1.44577">
        <ele>52.6</ele>
        <time>2012-07-23T18:32:36.000Z</time>
      </trkpt>
      <trkpt lat="47.20969" lon="-1.44569">
        <ele>54.3</ele>
        <time>2012-07-23T18:32:39.000Z</time>
      </trkpt>
      <trkpt lat="47.20967" lon="-1.44563">
        <ele>58.1</ele>
        <time>2012-07-23T18:32:42.000Z</time>
      </trkpt>
      <trkpt lat="47.20964" lon="-1.44556">
        <ele>59.7</ele>
        <time>2012-07-23T18:32:45.000Z</time>
      </trkpt>
      <trkpt lat="47.2096" lon="-1.44548">
        <ele>60.4</ele>
        <time>2012-07-23T18:32:48.000Z</time>
      </trkpt>
      <trkpt lat="47.20958" lon="-1.44539">
        <ele>60.3</ele>
        <time>2012-07-23T18:32:51.000Z</time>
      </trkpt>
      <trkpt lat="47.20953" lon="-1.44529">
        <ele>61.2</ele>
        <time>2012-07-23T18:32:55.000Z</time>
      </trkpt>
      <trkpt lat="47.20951" lon="-1.44523">
        <ele>61.8</ele>
        <time>2012-07-23T18:32:58.000Z</time>
      </trkpt>
      <trkpt lat="47.20947" lon="-1.44517">
        <ele>61.6</ele>
        <time>2012-07-23T18:33:00.000Z</time>
      </trkpt>
      <trkpt lat="47.20944" lon="-1.44511">
        <ele>61.6</ele>
        <time>2012-07-23T18:33:03.000Z</time>
      </trkpt>
      <trkpt lat="47.2094" lon="-1.44501">
        <ele>61.1</ele>
        <time>2012-07-23T18:33:06.000Z</time>
      </trkpt>
      <trkpt lat="47.20937" lon="-1.44492">
        <ele>61.1</ele>
        <time>2012-07-23T18:33:09.000Z</time>
      </trkpt>
      <trkpt lat="47.20932" lon="-1.44485">
        <ele>60.1</ele>
        <time>2012-07-23T18:33:12.000Z</time>
      </trkpt>
      <trkpt lat="47.20932" lon="-1.44474">
        <ele>57.8</ele>
        <time>2012-07-23T18:33:16.000Z</time>
      </trkpt>
      <trkpt lat="47.20929" lon="-1.44467">
        <ele>58.1</ele>
        <time>2012-07-23T18:33:18.000Z</time>
      </trkpt>
      <trkpt lat="47.20927" lon="-1.44459">
        <ele>57.9</ele>
        <time>2012-07-23T18:33:21.000Z</time>
      </trkpt>
      <trkpt lat="47.20924" lon="-1.44447">
        <ele>61</ele>
        <time>2012-07-23T18:33:24.000Z</time>
      </trkpt>
      <trkpt lat="47.20922" lon="-1.44441">
        <ele>60.2</ele>
        <time>2012-07-23T18:33:27.000Z</time>
      </trkpt>
      <trkpt lat="47.2092" lon="-1.44433">
        <ele>59.4</ele>
        <time>2012-07-23T18:33:30.000Z</time>
      </trkpt>
      <trkpt lat="47.2092" lon="-1.44426">
        <ele>59.7</ele>
        <time>2012-07-23T18:33:32.000Z</time>
      </trkpt>
      <trkpt lat="47.20919" lon="-1.44418">
        <ele>58.7</ele>
        <time>2012-07-23T18:33:34.000Z</time>
      </trkpt>
      <trkpt lat="47.20917" lon="-1.44407">
        <ele>60</ele>
        <time>2012-07-23T18:33:37.000Z</time>
      </trkpt>
      <trkpt lat="47.20915" lon="-1.44398">
        <ele>61.1</ele>
        <time>2012-07-23T18:33:39.000Z</time>
      </trkpt>
      <trkpt lat="47.20914" lon="-1.4439">
        <ele>60.7</ele>
        <time>2012-07-23T18:33:41.000Z</time>
      </trkpt>
      <trkpt lat="47.20913" lon="-1.44381">
        <ele>60.2</ele>
        <time>2012-07-23T18:33:44.000Z</time>
      </trkpt>
      <trkpt lat="47.20912" lon="-1.44371">
        <ele>61.2</ele>
        <time>2012-07-23T18:33:47.000Z</time>
      </trkpt>
      <trkpt lat="47.20909" lon="-1.44362">
        <ele>60.9</ele>
        <time>2012-07-23T18:33:50.000Z</time>
      </trkpt>
      <trkpt lat="47.20908" lon="-1.44355">
        <ele>61.9</ele>
        <time>2012-07-23T18:33:52.000Z</time>
      </trkpt>
      <trkpt lat="47.20908" lon="-1.44344">
        <ele>62.1</ele>
        <time>2012-07-23T18:33:55.000Z</time>
      </trkpt>
      <trkpt lat="47.20906" lon="-1.44335">
        <ele>60.4</ele>
        <time>2012-07-23T18:33:58.000Z</time>
      </trkpt>
      <trkpt lat="47.20904" lon="-1.44329">
        <ele>59.1</ele>
        <time>2012-07-23T18:34:00.000Z</time>
      </trkpt>
      <trkpt lat="47.20904" lon="-1.44322">
        <ele>58.1</ele>
        <time>2012-07-23T18:34:02.000Z</time>
      </trkpt>
      <trkpt lat="47.20902" lon="-1.44315">
        <ele>58.1</ele>
        <time>2012-07-23T18:34:04.000Z</time>
      </trkpt>
      <trkpt lat="47.20899" lon="-1.44307">
        <ele>56.7</ele>
        <time>2012-07-23T18:34:07.000Z</time>
      </trkpt>
      <trkpt lat="47.20897" lon="-1.44297">
        <ele>54.9</ele>
        <time>2012-07-23T18:34:10.000Z</time>
      </trkpt>
      <trkpt lat="47.20895" lon="-1.44287">
        <ele>54.2</ele>
        <time>2012-07-23T18:34:13.000Z</time>
      </trkpt>
      <trkpt lat="47.20893" lon="-1.4428">
        <ele>57.1</ele>
        <time>2012-07-23T18:34:15.000Z</time>
      </trkpt>
      <trkpt lat="47.20885" lon="-1.44275">
        <ele>60.1</ele>
        <time>2012-07-23T18:34:18.000Z</time>
      </trkpt>
      <trkpt lat="47.20879" lon="-1.44272">
        <ele>61.1</ele>
        <time>2012-07-23T18:34:20.000Z</time>
      </trkpt>
      <trkpt lat="47.2088" lon="-1.44263">
        <ele>60.7</ele>
        <time>2012-07-23T18:34:22.000Z</time>
      </trkpt>
      <trkpt lat="47.20878" lon="-1.44257">
        <ele>60.9</ele>
        <time>2012-07-23T18:34:24.000Z</time>
      </trkpt>
      <trkpt lat="47.20875" lon="-1.44246">
        <ele>60.5</ele>
        <time>2012-07-23T18:34:27.000Z</time>
      </trkpt>
      <trkpt lat="47.20876" lon="-1.44238">
        <ele>61.4</ele>
        <time>2012-07-23T18:34:29.000Z</time>
      </trkpt>
      <trkpt lat="47.20872" lon="-1.44233">
        <ele>59.8</ele>
        <time>2012-07-23T18:34:31.000Z</time>
      </trkpt>
      <trkpt lat="47.20868" lon="-1.44229">
        <ele>59.2</ele>
        <time>2012-07-23T18:34:33.000Z</time>
      </trkpt>
      <trkpt lat="47.20865" lon="-1.44224">
        <ele>58.1</ele>
        <time>2012-07-23T18:34:36.000Z</time>
      </trkpt>
      <trkpt lat="47.20865" lon="-1.44216">
        <ele>58.1</ele>
        <time>2012-07-23T18:34:42.000Z</time>
      </trkpt>
      <trkpt lat="47.20863" lon="-1.44209">
        <ele>56.7</ele>
        <time>2012-07-23T18:34:49.000Z</time>
      </trkpt>
      <trkpt lat="47.20861" lon="-1.44203">
        <ele>55.7</ele>
        <time>2012-07-23T18:34:54.000Z</time>
      </trkpt>
      <trkpt lat="47.20858" lon="-1.44194">
        <ele>57.2</ele>
        <time>2012-07-23T18:34:58.000Z</time>
      </trkpt>
      <trkpt lat="47.20855" lon="-1.44188">
        <ele>57.4</ele>
        <time>2012-07-23T18:35:00.000Z</time>
      </trkpt>
      <trkpt lat="47.20854" lon="-1.44181">
        <ele>58.3</ele>
        <time>2012-07-23T18:35:02.000Z</time>
      </trkpt>
      <trkpt lat="47.20852" lon="-1.44174">
        <ele>59</ele>
        <time>2012-07-23T18:35:04.000Z</time>
      </trkpt>
      <trkpt lat="47.20849" lon="-1.44165">
        <ele>59.8</ele>
        <time>2012-07-23T18:35:07.000Z</time>
      </trkpt>
      <trkpt lat="47.20848" lon="-1.44158">
        <ele>58.2</ele>
        <time>2012-07-23T18:35:09.000Z</time>
      </trkpt>
      <trkpt lat="47.2085" lon="-1.44151">
        <ele>58.5</ele>
        <time>2012-07-23T18:35:11.000Z</time>
      </trkpt>
      <trkpt lat="47.20851" lon="-1.44144">
        <ele>57.5</ele>
        <time>2012-07-23T18:35:13.000Z</time>
      </trkpt>
      <trkpt lat="47.20854" lon="-1.44137">
        <ele>54.3</ele>
        <time>2012-07-23T18:35:16.000Z</time>
      </trkpt>
      <trkpt lat="47.20858" lon="-1.44131">
        <ele>54.3</ele>
        <time>2012-07-23T18:35:19.000Z</time>
      </trkpt>
      <trkpt lat="47.20863" lon="-1.44128">
        <ele>55.4</ele>
        <time>2012-07-23T18:35:28.000Z</time>
      </trkpt>
      <trkpt lat="47.20858" lon="-1.44125">
        <ele>56</ele>
        <time>2012-07-23T18:35:36.000Z</time>
      </trkpt>
      <trkpt lat="47.20854" lon="-1.44121">
        <ele>55.6</ele>
        <time>2012-07-23T18:35:39.000Z</time>
      </trkpt>
      <trkpt lat="47.2085" lon="-1.44118">
        <ele>55.8</ele>
        <time>2012-07-23T18:35:42.000Z</time>
      </trkpt>
      <trkpt lat="47.20845" lon="-1.44113">
        <ele>56.4</ele>
        <time>2012-07-23T18:35:46.000Z</time>
      </trkpt>
      <trkpt lat="47.20839" lon="-1.44111">
        <ele>57</ele>
        <time>2012-07-23T18:35:50.000Z</time>
      </trkpt>
      <trkpt lat="47.20835" lon="-1.44112">
        <ele>58</ele>
        <time>2012-07-23T18:35:54.000Z</time>
      </trkpt>
      <trkpt lat="47.20839" lon="-1.44115">
        <ele>58.6</ele>
        <time>2012-07-23T18:36:07.000Z</time>
      </trkpt>
      <trkpt lat="47.20844" lon="-1.44124">
        <ele>58</ele>
        <time>2012-07-23T18:36:13.000Z</time>
      </trkpt>
      <trkpt lat="47.20845" lon="-1.44131">
        <ele>58.5</ele>
        <time>2012-07-23T18:36:17.000Z</time>
      </trkpt>
      <trkpt lat="47.20847" lon="-1.44138">
        <ele>57.7</ele>
        <time>2012-07-23T18:36:24.000Z</time>
      </trkpt>
      <trkpt lat="47.20845" lon="-1.44146">
        <ele>58</ele>
        <time>2012-07-23T18:36:29.000Z</time>
      </trkpt>
      <trkpt lat="47.20844" lon="-1.44154">
        <ele>59.4</ele>
        <time>2012-07-23T18:36:34.000Z</time>
      </trkpt>
      <trkpt lat="47.20843" lon="-1.44162">
        <ele>58.8</ele>
        <time>2012-07-23T18:36:38.000Z</time>
      </trkpt>
      <trkpt lat="47.20846" lon="-1.44168">
        <ele>58.6</ele>
        <time>2012-07-23T18:36:41.000Z</time>
      </trkpt>
      <trkpt lat="47.20848" lon="-1.44176">
        <ele>58.1</ele>
        <time>2012-07-23T18:36:45.000Z</time>
      </trkpt>
      <trkpt lat="47.20851" lon="-1.44182">
        <ele>57.8</ele>
        <time>2012-07-23T18:36:48.000Z</time>
      </trkpt>
      <trkpt lat="47.20855" lon="-1.44189">
        <ele>56</ele>
        <time>2012-07-23T18:36:55.000Z</time>
      </trkpt>
      <trkpt lat="47.20858" lon="-1.44194">
        <ele>56.3</ele>
        <time>2012-07-23T18:37:00.000Z</time>
      </trkpt>
      <trkpt lat="47.2086" lon="-1.44202">
        <ele>56.9</ele>
        <time>2012-07-23T18:37:07.000Z</time>
      </trkpt>
      <trkpt lat="47.20862" lon="-1.44207">
        <ele>58.1</ele>
        <time>2012-07-23T18:37:10.000Z</time>
      </trkpt>
      <trkpt lat="47.20866" lon="-1.4421">
        <ele>57.1</ele>
        <time>2012-07-23T18:37:32.000Z</time>
      </trkpt>
      <trkpt lat="47.20863" lon="-1.44216">
        <ele>57.3</ele>
        <time>2012-07-23T18:38:20.000Z</time>
      </trkpt>
      <trkpt lat="47.20859" lon="-1.44222">
        <ele>58.9</ele>
        <time>2012-07-23T18:38:55.000Z</time>
      </trkpt>
      <trkpt lat="47.20855" lon="-1.44223">
        <ele>58.6</ele>
        <time>2012-07-23T18:38:58.000Z</time>
      </trkpt>
      <trkpt lat="47.20849" lon="-1.44227">
        <ele>58.1</ele>
        <time>2012-07-23T18:39:02.000Z</time>
      </trkpt>
      <trkpt lat="47.20844" lon="-1.4423">
        <ele>58</ele>
        <time>2012-07-23T18:39:06.000Z</time>
      </trkpt>
      <trkpt lat="47.2084" lon="-1.44234">
        <ele>59.8</ele>
        <time>2012-07-23T18:39:10.000Z</time>
      </trkpt>
      <trkpt lat="47.20835" lon="-1.44238">
        <ele>61.4</ele>
        <time>2012-07-23T18:39:14.000Z</time>
      </trkpt>
      <trkpt lat="47.2083" lon="-1.44242">
        <ele>62.6</ele>
        <time>2012-07-23T18:39:18.000Z</time>
      </trkpt>
      <trkpt lat="47.20825" lon="-1.44245">
        <ele>62.6</ele>
        <time>2012-07-23T18:39:22.000Z</time>
      </trkpt>
      <trkpt lat="47.2082" lon="-1.44248">
        <ele>62.7</ele>
        <time>2012-07-23T18:39:26.000Z</time>
      </trkpt>
      <trkpt lat="47.20815" lon="-1.4425">
        <ele>63.2</ele>
        <time>2012-07-23T18:39:30.000Z</time>
      </trkpt>
      <trkpt lat="47.20811" lon="-1.44253">
        <ele>63.8</ele>
        <time>2012-07-23T18:39:34.000Z</time>
      </trkpt>
      <trkpt lat="47.20806" lon="-1.44257">
        <ele>64.2</ele>
        <time>2012-07-23T18:39:38.000Z</time>
      </trkpt>
      <trkpt lat="47.20801" lon="-1.4426">
        <ele>65.7</ele>
        <time>2012-07-23T18:39:42.000Z</time>
      </trkpt>
      <trkpt lat="47.20796" lon="-1.44266">
        <ele>64.3</ele>
        <time>2012-07-23T18:39:47.000Z</time>
      </trkpt>
      <trkpt lat="47.20791" lon="-1.44269">
        <ele>63.5</ele>
        <time>2012-07-23T18:39:51.000Z</time>
      </trkpt>
      <trkpt lat="47.20785" lon="-1.44272">
        <ele>62.7</ele>
        <time>2012-07-23T18:39:56.000Z</time>
      </trkpt>
      <trkpt lat="47.20779" lon="-1.44274">
        <ele>61.6</ele>
        <time>2012-07-23T18:40:00.000Z</time>
      </trkpt>
      <trkpt lat="47.20774" lon="-1.44281">
        <ele>61.4</ele>
        <time>2012-07-23T18:40:05.000Z</time>
      </trkpt>
      <trkpt lat="47.2077" lon="-1.44284">
        <ele>62.8</ele>
        <time>2012-07-23T18:40:07.000Z</time>
      </trkpt>
      <trkpt lat="47.20766" lon="-1.44287">
        <ele>63.5</ele>
        <time>2012-07-23T18:40:12.000Z</time>
      </trkpt>
      <trkpt lat="47.20761" lon="-1.4429">
        <ele>63.4</ele>
        <time>2012-07-23T18:40:15.000Z</time>
      </trkpt>
      <trkpt lat="47.20757" lon="-1.44295">
        <ele>63.3</ele>
        <time>2012-07-23T18:40:19.000Z</time>
      </trkpt>
      <trkpt lat="47.20752" lon="-1.44296">
        <ele>63</ele>
        <time>2012-07-23T18:40:22.000Z</time>
      </trkpt>
      <trkpt lat="47.20748" lon="-1.44298">
        <ele>61.6</ele>
        <time>2012-07-23T18:40:26.000Z</time>
      </trkpt>
      <trkpt lat="47.20743" lon="-1.443">
        <ele>60.5</ele>
        <time>2012-07-23T18:40:28.000Z</time>
      </trkpt>
      <trkpt lat="47.20738" lon="-1.44301">
        <ele>59.4</ele>
        <time>2012-07-23T18:40:30.000Z</time>
      </trkpt>
      <trkpt lat="47.20732" lon="-1.44302">
        <ele>59.3</ele>
        <time>2012-07-23T18:40:32.000Z</time>
      </trkpt>
      <trkpt lat="47.20725" lon="-1.4431">
        <ele>60.8</ele>
        <time>2012-07-23T18:40:35.000Z</time>
      </trkpt>
      <trkpt lat="47.20719" lon="-1.44314">
        <ele>60.7</ele>
        <time>2012-07-23T18:40:37.000Z</time>
      </trkpt>
      <trkpt lat="47.20715" lon="-1.4432">
        <ele>59</ele>
        <time>2012-07-23T18:40:39.000Z</time>
      </trkpt>
      <trkpt lat="47.20708" lon="-1.44322">
        <ele>58.4</ele>
        <time>2012-07-23T18:40:42.000Z</time>
      </trkpt>
      <trkpt lat="47.20704" lon="-1.44326">
        <ele>55.6</ele>
        <time>2012-07-23T18:40:43.000Z</time>
      </trkpt>
      <trkpt lat="47.20699" lon="-1.4433">
        <ele>53.7</ele>
        <time>2012-07-23T18:40:45.000Z</time>
      </trkpt>
      <trkpt lat="47.20694" lon="-1.44334">
        <ele>54.5</ele>
        <time>2012-07-23T18:40:47.000Z</time>
      </trkpt>
      <trkpt lat="47.20688" lon="-1.44343">
        <ele>56.1</ele>
        <time>2012-07-23T18:40:50.000Z</time>
      </trkpt>
      <trkpt lat="47.20683" lon="-1.44344">
        <ele>58.5</ele>
        <time>2012-07-23T18:40:53.000Z</time>
      </trkpt>
      <trkpt lat="47.20678" lon="-1.44348">
        <ele>57.4</ele>
        <time>2012-07-23T18:40:55.000Z</time>
      </trkpt>
      <trkpt lat="47.20672" lon="-1.44347">
        <ele>57.8</ele>
        <time>2012-07-23T18:40:58.000Z</time>
      </trkpt>
      <trkpt lat="47.20667" lon="-1.44348">
        <ele>58.5</ele>
        <time>2012-07-23T18:41:00.000Z</time>
      </trkpt>
      <trkpt lat="47.20662" lon="-1.44353">
        <ele>62</ele>
        <time>2012-07-23T18:41:03.000Z</time>
      </trkpt>
      <trkpt lat="47.20659" lon="-1.44359">
        <ele>62.4</ele>
        <time>2012-07-23T18:41:06.000Z</time>
      </trkpt>
      <trkpt lat="47.20657" lon="-1.44366">
        <ele>64</ele>
        <time>2012-07-23T18:41:08.000Z</time>
      </trkpt>
      <trkpt lat="47.20652" lon="-1.4437">
        <ele>65.2</ele>
        <time>2012-07-23T18:41:10.000Z</time>
      </trkpt>
      <trkpt lat="47.20647" lon="-1.44375">
        <ele>67</ele>
        <time>2012-07-23T18:41:12.000Z</time>
      </trkpt>
      <trkpt lat="47.20642" lon="-1.44374">
        <ele>66</ele>
        <time>2012-07-23T18:41:14.000Z</time>
      </trkpt>
      <trkpt lat="47.20636" lon="-1.44375">
        <ele>64</ele>
        <time>2012-07-23T18:41:17.000Z</time>
      </trkpt>
      <trkpt lat="47.2063" lon="-1.44381">
        <ele>62.4</ele>
        <time>2012-07-23T18:41:19.000Z</time>
      </trkpt>
      <trkpt lat="47.20626" lon="-1.44386">
        <ele>60.4</ele>
        <time>2012-07-23T18:41:21.000Z</time>
      </trkpt>
      <trkpt lat="47.20623" lon="-1.44391">
        <ele>59.1</ele>
        <time>2012-07-23T18:41:23.000Z</time>
      </trkpt>
      <trkpt lat="47.20617" lon="-1.44396">
        <ele>58.6</ele>
        <time>2012-07-23T18:41:25.000Z</time>
      </trkpt>
      <trkpt lat="47.20611" lon="-1.44398">
        <ele>58.7</ele>
        <time>2012-07-23T18:41:28.000Z</time>
      </trkpt>
      <trkpt lat="47.20606" lon="-1.44402">
        <ele>58.8</ele>
        <time>2012-07-23T18:41:30.000Z</time>
      </trkpt>
      <trkpt lat="47.206" lon="-1.44407">
        <ele>60.5</ele>
        <time>2012-07-23T18:41:33.000Z</time>
      </trkpt>
      <trkpt lat="47.20595" lon="-1.4441">
        <ele>61.1</ele>
        <time>2012-07-23T18:41:35.000Z</time>
      </trkpt>
      <trkpt lat="47.2059" lon="-1.44413">
        <ele>58.4</ele>
        <time>2012-07-23T18:41:37.000Z</time>
      </trkpt>
      <trkpt lat="47.20584" lon="-1.44417">
        <ele>58.9</ele>
        <time>2012-07-23T18:41:39.000Z</time>
      </trkpt>
      <trkpt lat="47.20578" lon="-1.4442">
        <ele>57.2</ele>
        <time>2012-07-23T18:41:41.000Z</time>
      </trkpt>
      <trkpt lat="47.20573" lon="-1.44421">
        <ele>55</ele>
        <time>2012-07-23T18:41:43.000Z</time>
      </trkpt>
      <trkpt lat="47.20569" lon="-1.44426">
        <ele>54.2</ele>
        <time>2012-07-23T18:41:47.000Z</time>
      </trkpt>
      <trkpt lat="47.20563" lon="-1.44428">
        <ele>57.9</ele>
        <time>2012-07-23T18:41:48.000Z</time>
      </trkpt>
      <trkpt lat="47.20557" lon="-1.44429">
        <ele>62.8</ele>
        <time>2012-07-23T18:41:51.000Z</time>
      </trkpt>
      <trkpt lat="47.20551" lon="-1.44433">
        <ele>66.5</ele>
        <time>2012-07-23T18:41:54.000Z</time>
      </trkpt>
      <trkpt lat="47.20546" lon="-1.44435">
        <ele>68.5</ele>
        <time>2012-07-23T18:41:56.000Z</time>
      </trkpt>
      <trkpt lat="47.20541" lon="-1.44438">
        <ele>66.4</ele>
        <time>2012-07-23T18:41:58.000Z</time>
      </trkpt>
      <trkpt lat="47.20536" lon="-1.44442">
        <ele>67.1</ele>
        <time>2012-07-23T18:42:00.000Z</time>
      </trkpt>
      <trkpt lat="47.20531" lon="-1.44445">
        <ele>65.2</ele>
        <time>2012-07-23T18:42:02.000Z</time>
      </trkpt>
      <trkpt lat="47.20524" lon="-1.44449">
        <ele>65.1</ele>
        <time>2012-07-23T18:42:05.000Z</time>
      </trkpt>
      <trkpt lat="47.2052" lon="-1.44454">
        <ele>64.8</ele>
        <time>2012-07-23T18:42:07.000Z</time>
      </trkpt>
      <trkpt lat="47.20511" lon="-1.44456">
        <ele>64.3</ele>
        <time>2012-07-23T18:42:10.000Z</time>
      </trkpt>
      <trkpt lat="47.20507" lon="-1.44464">
        <ele>65.4</ele>
        <time>2012-07-23T18:42:12.000Z</time>
      </trkpt>
      <trkpt lat="47.205" lon="-1.4447">
        <ele>64.9</ele>
        <time>2012-07-23T18:42:14.000Z</time>
      </trkpt>
      <trkpt lat="47.20495" lon="-1.44472">
        <ele>66</ele>
        <time>2012-07-23T18:42:16.000Z</time>
      </trkpt>
      <trkpt lat="47.20492" lon="-1.44476">
        <ele>68.4</ele>
        <time>2012-07-23T18:42:18.000Z</time>
      </trkpt>
      <trkpt lat="47.20486" lon="-1.4448">
        <ele>68.5</ele>
        <time>2012-07-23T18:42:21.000Z</time>
      </trkpt>
      <trkpt lat="47.20481" lon="-1.44484">
        <ele>68.4</ele>
        <time>2012-07-23T18:42:23.000Z</time>
      </trkpt>
      <trkpt lat="47.20476" lon="-1.44487">
        <ele>68.8</ele>
        <time>2012-07-23T18:42:26.000Z</time>
      </trkpt>
      <trkpt lat="47.20472" lon="-1.44491">
        <ele>68.6</ele>
        <time>2012-07-23T18:42:28.000Z</time>
      </trkpt>
      <trkpt lat="47.20466" lon="-1.44495">
        <ele>69.8</ele>
        <time>2012-07-23T18:42:30.000Z</time>
      </trkpt>
      <trkpt lat="47.20461" lon="-1.44498">
        <ele>69.3</ele>
        <time>2012-07-23T18:42:32.000Z</time>
      </trkpt>
      <trkpt lat="47.20456" lon="-1.44501">
        <ele>68.5</ele>
        <time>2012-07-23T18:42:34.000Z</time>
      </trkpt>
      <trkpt lat="47.20452" lon="-1.44504">
        <ele>68.9</ele>
        <time>2012-07-23T18:42:37.000Z</time>
      </trkpt>
      <trkpt lat="47.20447" lon="-1.44505">
        <ele>70.1</ele>
        <time>2012-07-23T18:42:39.000Z</time>
      </trkpt>
      <trkpt lat="47.20443" lon="-1.44508">
        <ele>70.5</ele>
        <time>2012-07-23T18:42:41.000Z</time>
      </trkpt>
      <trkpt lat="47.20435" lon="-1.44509">
        <ele>69.7</ele>
        <time>2012-07-23T18:42:44.000Z</time>
      </trkpt>
      <trkpt lat="47.2043" lon="-1.44513">
        <ele>69.9</ele>
        <time>2012-07-23T18:42:46.000Z</time>
      </trkpt>
      <trkpt lat="47.20425" lon="-1.44516">
        <ele>67.4</ele>
        <time>2012-07-23T18:42:49.000Z</time>
      </trkpt>
      <trkpt lat="47.20419" lon="-1.44521">
        <ele>67</ele>
        <time>2012-07-23T18:42:51.000Z</time>
      </trkpt>
      <trkpt lat="47.20414" lon="-1.44525">
        <ele>65.5</ele>
        <time>2012-07-23T18:42:53.000Z</time>
      </trkpt>
      <trkpt lat="47.2041" lon="-1.44529">
        <ele>64.9</ele>
        <time>2012-07-23T18:42:55.000Z</time>
      </trkpt>
      <trkpt lat="47.20404" lon="-1.44535">
        <ele>64.2</ele>
        <time>2012-07-23T18:42:58.000Z</time>
      </trkpt>
      <trkpt lat="47.20399" lon="-1.44539">
        <ele>67</ele>
        <time>2012-07-23T18:43:01.000Z</time>
      </trkpt>
      <trkpt lat="47.20392" lon="-1.44542">
        <ele>64.9</ele>
        <time>2012-07-23T18:43:04.000Z</time>
      </trkpt>
      <trkpt lat="47.20386" lon="-1.44547">
        <ele>64</ele>
        <time>2012-07-23T18:43:06.000Z</time>
      </trkpt>
      <trkpt lat="47.2038" lon="-1.44551">
        <ele>63.5</ele>
        <time>2012-07-23T18:43:09.000Z</time>
      </trkpt>
      <trkpt lat="47.20376" lon="-1.44553">
        <ele>64.1</ele>
        <time>2012-07-23T18:43:11.000Z</time>
      </trkpt>
      <trkpt lat="47.20371" lon="-1.44555">
        <ele>64.5</ele>
        <time>2012-07-23T18:43:13.000Z</time>
      </trkpt>
      <trkpt lat="47.20366" lon="-1.44557">
        <ele>63.8</ele>
        <time>2012-07-23T18:43:15.000Z</time>
      </trkpt>
      <trkpt lat="47.2036" lon="-1.44557">
        <ele>65.2</ele>
        <time>2012-07-23T18:43:17.000Z</time>
      </trkpt>
      <trkpt lat="47.20354" lon="-1.44561">
        <ele>66.8</ele>
        <time>2012-07-23T18:43:19.000Z</time>
      </trkpt>
      <trkpt lat="47.20349" lon="-1.44563">
        <ele>64.9</ele>
        <time>2012-07-23T18:43:21.000Z</time>
      </trkpt>
      <trkpt lat="47.20344" lon="-1.44566">
        <ele>66</ele>
        <time>2012-07-23T18:43:23.000Z</time>
      </trkpt>
      <trkpt lat="47.20338" lon="-1.44571">
        <ele>67</ele>
        <time>2012-07-23T18:43:26.000Z</time>
      </trkpt>
      <trkpt lat="47.20334" lon="-1.44574">
        <ele>69.3</ele>
        <time>2012-07-23T18:43:28.000Z</time>
      </trkpt>
      <trkpt lat="47.20329" lon="-1.44578">
        <ele>71.5</ele>
        <time>2012-07-23T18:43:30.000Z</time>
      </trkpt>
      <trkpt lat="47.20324" lon="-1.44583">
        <ele>71.1</ele>
        <time>2012-07-23T18:43:32.000Z</time>
      </trkpt>
      <trkpt lat="47.20318" lon="-1.44589">
        <ele>69.4</ele>
        <time>2012-07-23T18:43:35.000Z</time>
      </trkpt>
      <trkpt lat="47.20314" lon="-1.44593">
        <ele>69.8</ele>
        <time>2012-07-23T18:43:38.000Z</time>
      </trkpt>
      <trkpt lat="47.20309" lon="-1.44597">
        <ele>69.9</ele>
        <time>2012-07-23T18:43:40.000Z</time>
      </trkpt>
      <trkpt lat="47.20303" lon="-1.44599">
        <ele>69.3</ele>
        <time>2012-07-23T18:43:42.000Z</time>
      </trkpt>
      <trkpt lat="47.20298" lon="-1.44606">
        <ele>70.2</ele>
        <time>2012-07-23T18:43:44.000Z</time>
      </trkpt>
      <trkpt lat="47.20293" lon="-1.44608">
        <ele>70.9</ele>
        <time>2012-07-23T18:43:45.000Z</time>
      </trkpt>
      <trkpt lat="47.20288" lon="-1.44615">
        <ele>68.3</ele>
        <time>2012-07-23T18:43:48.000Z</time>
      </trkpt>
      <trkpt lat="47.20284" lon="-1.44617">
        <ele>68.5</ele>
        <time>2012-07-23T18:43:50.000Z</time>
      </trkpt>
      <trkpt lat="47.20278" lon="-1.4462">
        <ele>71.5</ele>
        <time>2012-07-23T18:43:53.000Z</time>
      </trkpt>
      <trkpt lat="47.20273" lon="-1.44625">
        <ele>72.1</ele>
        <time>2012-07-23T18:43:55.000Z</time>
      </trkpt>
      <trkpt lat="47.20268" lon="-1.4463">
        <ele>71.1</ele>
        <time>2012-07-23T18:43:58.000Z</time>
      </trkpt>
      <trkpt lat="47.20262" lon="-1.44635">
        <ele>70.5</ele>
        <time>2012-07-23T18:44:00.000Z</time>
      </trkpt>
      <trkpt lat="47.20256" lon="-1.4464">
        <ele>69.4</ele>
        <time>2012-07-23T18:44:02.000Z</time>
      </trkpt>
      <trkpt lat="47.20252" lon="-1.44644">
        <ele>69.3</ele>
        <time>2012-07-23T18:44:04.000Z</time>
      </trkpt>
      <trkpt lat="47.20246" lon="-1.44648">
        <ele>65.7</ele>
        <time>2012-07-23T18:44:06.000Z</time>
      </trkpt>
      <trkpt lat="47.20242" lon="-1.44653">
        <ele>65.2</ele>
        <time>2012-07-23T18:44:09.000Z</time>
      </trkpt>
      <trkpt lat="47.20237" lon="-1.44656">
        <ele>66.5</ele>
        <time>2012-07-23T18:44:12.000Z</time>
      </trkpt>
      <trkpt lat="47.20232" lon="-1.4466">
        <ele>65.5</ele>
        <time>2012-07-23T18:44:14.000Z</time>
      </trkpt>
      <trkpt lat="47.20226" lon="-1.44664">
        <ele>65.2</ele>
        <time>2012-07-23T18:44:16.000Z</time>
      </trkpt>
      <trkpt lat="47.20222" lon="-1.44667">
        <ele>64.5</ele>
        <time>2012-07-23T18:44:18.000Z</time>
      </trkpt>
      <trkpt lat="47.20216" lon="-1.44667">
        <ele>65.5</ele>
        <time>2012-07-23T18:44:21.000Z</time>
      </trkpt>
      <trkpt lat="47.20209" lon="-1.4467">
        <ele>65.1</ele>
        <time>2012-07-23T18:44:23.000Z</time>
      </trkpt>
      <trkpt lat="47.20206" lon="-1.44676">
        <ele>66.9</ele>
        <time>2012-07-23T18:44:25.000Z</time>
      </trkpt>
      <trkpt lat="47.20199" lon="-1.44679">
        <ele>68.6</ele>
        <time>2012-07-23T18:44:28.000Z</time>
      </trkpt>
      <trkpt lat="47.20192" lon="-1.44684">
        <ele>68.3</ele>
        <time>2012-07-23T18:44:31.000Z</time>
      </trkpt>
      <trkpt lat="47.20186" lon="-1.44688">
        <ele>67.9</ele>
        <time>2012-07-23T18:44:34.000Z</time>
      </trkpt>
      <trkpt lat="47.2018" lon="-1.44688">
        <ele>67.7</ele>
        <time>2012-07-23T18:44:36.000Z</time>
      </trkpt>
      <trkpt lat="47.20176" lon="-1.44686">
        <ele>66.2</ele>
        <time>2012-07-23T18:44:39.000Z</time>
      </trkpt>
      <trkpt lat="47.20172" lon="-1.44682">
        <ele>63.4</ele>
        <time>2012-07-23T18:44:41.000Z</time>
      </trkpt>
      <trkpt lat="47.20168" lon="-1.44677">
        <ele>65.2</ele>
        <time>2012-07-23T18:44:43.000Z</time>
      </trkpt>
      <trkpt lat="47.20163" lon="-1.44672">
        <ele>65.1</ele>
        <time>2012-07-23T18:44:45.000Z</time>
      </trkpt>
      <trkpt lat="47.20161" lon="-1.44663">
        <ele>67.1</ele>
        <time>2012-07-23T18:44:48.000Z</time>
      </trkpt>
      <trkpt lat="47.20158" lon="-1.44658">
        <ele>65.7</ele>
        <time>2012-07-23T18:44:50.000Z</time>
      </trkpt>
      <trkpt lat="47.20154" lon="-1.44645">
        <ele>67.4</ele>
        <time>2012-07-23T18:44:54.000Z</time>
      </trkpt>
      <trkpt lat="47.20151" lon="-1.44639">
        <ele>64</ele>
        <time>2012-07-23T18:44:56.000Z</time>
      </trkpt>
      <trkpt lat="47.20149" lon="-1.44633">
        <ele>64.7</ele>
        <time>2012-07-23T18:44:59.000Z</time>
      </trkpt>
      <trkpt lat="47.20147" lon="-1.44626">
        <ele>61.7</ele>
        <time>2012-07-23T18:45:02.000Z</time>
      </trkpt>
      <trkpt lat="47.20145" lon="-1.44614">
        <ele>64</ele>
        <time>2012-07-23T18:45:07.000Z</time>
      </trkpt>
      <trkpt lat="47.20141" lon="-1.44607">
        <ele>63.9</ele>
        <time>2012-07-23T18:45:09.000Z</time>
      </trkpt>
      <trkpt lat="47.20137" lon="-1.446">
        <ele>64.1</ele>
        <time>2012-07-23T18:45:12.000Z</time>
      </trkpt>
      <trkpt lat="47.20134" lon="-1.44591">
        <ele>64.8</ele>
        <time>2012-07-23T18:45:14.000Z</time>
      </trkpt>
      <trkpt lat="47.2013" lon="-1.44582">
        <ele>63.3</ele>
        <time>2012-07-23T18:45:17.000Z</time>
      </trkpt>
      <trkpt lat="47.20126" lon="-1.44576">
        <ele>62.4</ele>
        <time>2012-07-23T18:45:20.000Z</time>
      </trkpt>
      <trkpt lat="47.20121" lon="-1.44568">
        <ele>63.7</ele>
        <time>2012-07-23T18:45:23.000Z</time>
      </trkpt>
      <trkpt lat="47.20119" lon="-1.44562">
        <ele>64.3</ele>
        <time>2012-07-23T18:45:25.000Z</time>
      </trkpt>
      <trkpt lat="47.20116" lon="-1.44556">
        <ele>65.2</ele>
        <time>2012-07-23T18:45:27.000Z</time>
      </trkpt>
      <trkpt lat="47.20109" lon="-1.44545">
        <ele>66.3</ele>
        <time>2012-07-23T18:45:31.000Z</time>
      </trkpt>
      <trkpt lat="47.20105" lon="-1.44539">
        <ele>65.6</ele>
        <time>2012-07-23T18:45:33.000Z</time>
      </trkpt>
      <trkpt lat="47.20099" lon="-1.44536">
        <ele>63.6</ele>
        <time>2012-07-23T18:45:37.000Z</time>
      </trkpt>
      <trkpt lat="47.20092" lon="-1.44525">
        <ele>65.6</ele>
        <time>2012-07-23T18:45:41.000Z</time>
      </trkpt>
      <trkpt lat="47.2009" lon="-1.44518">
        <ele>65.8</ele>
        <time>2012-07-23T18:45:44.000Z</time>
      </trkpt>
      <trkpt lat="47.20086" lon="-1.44511">
        <ele>66</ele>
        <time>2012-07-23T18:45:48.000Z</time>
      </trkpt>
      <trkpt lat="47.20083" lon="-1.44503">
        <ele>69.9</ele>
        <time>2012-07-23T18:45:53.000Z</time>
      </trkpt>
      <trkpt lat="47.2008" lon="-1.44498">
        <ele>69.9</ele>
        <time>2012-07-23T18:45:55.000Z</time>
      </trkpt>
      <trkpt lat="47.20076" lon="-1.4449">
        <ele>68.4</ele>
        <time>2012-07-23T18:45:58.000Z</time>
      </trkpt>
      <trkpt lat="47.20074" lon="-1.44481">
        <ele>69.2</ele>
        <time>2012-07-23T18:46:02.000Z</time>
      </trkpt>
      <trkpt lat="47.20071" lon="-1.44474">
        <ele>69.6</ele>
        <time>2012-07-23T18:46:05.000Z</time>
      </trkpt>
      <trkpt lat="47.20069" lon="-1.44467">
        <ele>69.9</ele>
        <time>2012-07-23T18:46:07.000Z</time>
      </trkpt>
      <trkpt lat="47.20066" lon="-1.4446">
        <ele>70.3</ele>
        <time>2012-07-23T18:46:10.000Z</time>
      </trkpt>
      <trkpt lat="47.20064" lon="-1.44452">
        <ele>69.8</ele>
        <time>2012-07-23T18:46:13.000Z</time>
      </trkpt>
      <trkpt lat="47.20062" lon="-1.44443">
        <ele>71.7</ele>
        <time>2012-07-23T18:46:16.000Z</time>
      </trkpt>
      <trkpt lat="47.20062" lon="-1.44433">
        <ele>72.6</ele>
        <time>2012-07-23T18:46:19.000Z</time>
      </trkpt>
      <trkpt lat="47.20063" lon="-1.44424">
        <ele>73.1</ele>
        <time>2012-07-23T18:46:22.000Z</time>
      </trkpt>
      <trkpt lat="47.20065" lon="-1.44416">
        <ele>70.9</ele>
        <time>2012-07-23T18:46:25.000Z</time>
      </trkpt>
      <trkpt lat="47.20065" lon="-1.44409">
        <ele>72</ele>
        <time>2012-07-23T18:46:27.000Z</time>
      </trkpt>
      <trkpt lat="47.20062" lon="-1.44403">
        <ele>72.1</ele>
        <time>2012-07-23T18:46:29.000Z</time>
      </trkpt>
      <trkpt lat="47.20058" lon="-1.44398">
        <ele>72.5</ele>
        <time>2012-07-23T18:46:31.000Z</time>
      </trkpt>
      <trkpt lat="47.20053" lon="-1.44392">
        <ele>73.6</ele>
        <time>2012-07-23T18:46:34.000Z</time>
      </trkpt>
      <trkpt lat="47.2005" lon="-1.44384">
        <ele>71.8</ele>
        <time>2012-07-23T18:46:37.000Z</time>
      </trkpt>
      <trkpt lat="47.20051" lon="-1.44375">
        <ele>74</ele>
        <time>2012-07-23T18:46:40.000Z</time>
      </trkpt>
      <trkpt lat="47.2005" lon="-1.44367">
        <ele>73.8</ele>
        <time>2012-07-23T18:46:43.000Z</time>
      </trkpt>
      <trkpt lat="47.20048" lon="-1.44358">
        <ele>72.8</ele>
        <time>2012-07-23T18:46:46.000Z</time>
      </trkpt>
      <trkpt lat="47.20045" lon="-1.4435">
        <ele>72.3</ele>
        <time>2012-07-23T18:46:49.000Z</time>
      </trkpt>
      <trkpt lat="47.20046" lon="-1.44343">
        <ele>71.7</ele>
        <time>2012-07-23T18:46:51.000Z</time>
      </trkpt>
      <trkpt lat="47.20045" lon="-1.44336">
        <ele>71.8</ele>
        <time>2012-07-23T18:46:53.000Z</time>
      </trkpt>
      <trkpt lat="47.20044" lon="-1.44326">
        <ele>70.4</ele>
        <time>2012-07-23T18:46:56.000Z</time>
      </trkpt>
      <trkpt lat="47.20042" lon="-1.44316">
        <ele>70.5</ele>
        <time>2012-07-23T18:46:59.000Z</time>
      </trkpt>
      <trkpt lat="47.2004" lon="-1.44309">
        <ele>71.2</ele>
        <time>2012-07-23T18:47:01.000Z</time>
      </trkpt>
      <trkpt lat="47.20038" lon="-1.44302">
        <ele>71.1</ele>
        <time>2012-07-23T18:47:03.000Z</time>
      </trkpt>
      <trkpt lat="47.20036" lon="-1.44294">
        <ele>70.8</ele>
        <time>2012-07-23T18:47:05.000Z</time>
      </trkpt>
      <trkpt lat="47.20035" lon="-1.44288">
        <ele>70.5</ele>
        <time>2012-07-23T18:47:07.000Z</time>
      </trkpt>
      <trkpt lat="47.20033" lon="-1.4428">
        <ele>70.1</ele>
        <time>2012-07-23T18:47:09.000Z</time>
      </trkpt>
      <trkpt lat="47.20031" lon="-1.44274">
        <ele>70</ele>
        <time>2012-07-23T18:47:11.000Z</time>
      </trkpt>
      <trkpt lat="47.20029" lon="-1.44265">
        <ele>67.7</ele>
        <time>2012-07-23T18:47:14.000Z</time>
      </trkpt>
      <trkpt lat="47.20028" lon="-1.44258">
        <ele>67.8</ele>
        <time>2012-07-23T18:47:17.000Z</time>
      </trkpt>
      <trkpt lat="47.20027" lon="-1.44248">
        <ele>65.7</ele>
        <time>2012-07-23T18:47:20.000Z</time>
      </trkpt>
      <trkpt lat="47.20025" lon="-1.44241">
        <ele>65</ele>
        <time>2012-07-23T18:47:22.000Z</time>
      </trkpt>
      <trkpt lat="47.20024" lon="-1.44235">
        <ele>65</ele>
        <time>2012-07-23T18:47:24.000Z</time>
      </trkpt>
      <trkpt lat="47.20023" lon="-1.44227">
        <ele>65.8</ele>
        <time>2012-07-23T18:47:26.000Z</time>
      </trkpt>
      <trkpt lat="47.20021" lon="-1.44219">
        <ele>66.8</ele>
        <time>2012-07-23T18:47:28.000Z</time>
      </trkpt>
      <trkpt lat="47.20019" lon="-1.44212">
        <ele>66.9</ele>
        <time>2012-07-23T18:47:30.000Z</time>
      </trkpt>
      <trkpt lat="47.20019" lon="-1.44202">
        <ele>67.7</ele>
        <time>2012-07-23T18:47:33.000Z</time>
      </trkpt>
      <trkpt lat="47.20017" lon="-1.44196">
        <ele>67.5</ele>
        <time>2012-07-23T18:47:35.000Z</time>
      </trkpt>
      <trkpt lat="47.20015" lon="-1.44187">
        <ele>65.6</ele>
        <time>2012-07-23T18:47:38.000Z</time>
      </trkpt>
      <trkpt lat="47.20014" lon="-1.4418">
        <ele>66</ele>
        <time>2012-07-23T18:47:40.000Z</time>
      </trkpt>
      <trkpt lat="47.20012" lon="-1.44172">
        <ele>66.5</ele>
        <time>2012-07-23T18:47:42.000Z</time>
      </trkpt>
      <trkpt lat="47.2001" lon="-1.44166">
        <ele>66.4</ele>
        <time>2012-07-23T18:47:44.000Z</time>
      </trkpt>
      <trkpt lat="47.20009" lon="-1.44158">
        <ele>66</ele>
        <time>2012-07-23T18:47:47.000Z</time>
      </trkpt>
      <trkpt lat="47.20008" lon="-1.4415">
        <ele>66.6</ele>
        <time>2012-07-23T18:47:49.000Z</time>
      </trkpt>
      <trkpt lat="47.20008" lon="-1.44141">
        <ele>66.7</ele>
        <time>2012-07-23T18:47:52.000Z</time>
      </trkpt>
      <trkpt lat="47.20007" lon="-1.44131">
        <ele>67.3</ele>
        <time>2012-07-23T18:47:55.000Z</time>
      </trkpt>
      <trkpt lat="47.20006" lon="-1.44124">
        <ele>68.9</ele>
        <time>2012-07-23T18:47:57.000Z</time>
      </trkpt>
      <trkpt lat="47.20004" lon="-1.44115">
        <ele>69.4</ele>
        <time>2012-07-23T18:48:00.000Z</time>
      </trkpt>
      <trkpt lat="47.20002" lon="-1.44104">
        <ele>71.3</ele>
        <time>2012-07-23T18:48:04.000Z</time>
      </trkpt>
      <trkpt lat="47.2" lon="-1.44096">
        <ele>71.6</ele>
        <time>2012-07-23T18:48:07.000Z</time>
      </trkpt>
      <trkpt lat="47.2" lon="-1.44088">
        <ele>72.6</ele>
        <time>2012-07-23T18:48:09.000Z</time>
      </trkpt>
      <trkpt lat="47.19999" lon="-1.44081">
        <ele>73</ele>
        <time>2012-07-23T18:48:11.000Z</time>
      </trkpt>
      <trkpt lat="47.19997" lon="-1.44072">
        <ele>73.3</ele>
        <time>2012-07-23T18:48:13.000Z</time>
      </trkpt>
      <trkpt lat="47.19996" lon="-1.44064">
        <ele>74.1</ele>
        <time>2012-07-23T18:48:15.000Z</time>
      </trkpt>
      <trkpt lat="47.19994" lon="-1.44054">
        <ele>74.3</ele>
        <time>2012-07-23T18:48:18.000Z</time>
      </trkpt>
      <trkpt lat="47.19992" lon="-1.44048">
        <ele>73.9</ele>
        <time>2012-07-23T18:48:20.000Z</time>
      </trkpt>
      <trkpt lat="47.19991" lon="-1.4404">
        <ele>74.6</ele>
        <time>2012-07-23T18:48:23.000Z</time>
      </trkpt>
      <trkpt lat="47.19991" lon="-1.4403">
        <ele>75.3</ele>
        <time>2012-07-23T18:48:26.000Z</time>
      </trkpt>
      <trkpt lat="47.1999" lon="-1.44021">
        <ele>75.3</ele>
        <time>2012-07-23T18:48:28.000Z</time>
      </trkpt>
      <trkpt lat="47.19989" lon="-1.44011">
        <ele>74.9</ele>
        <time>2012-07-23T18:48:31.000Z</time>
      </trkpt>
      <trkpt lat="47.19986" lon="-1.44002">
        <ele>74.8</ele>
        <time>2012-07-23T18:48:33.000Z</time>
      </trkpt>
      <trkpt lat="47.19985" lon="-1.43996">
        <ele>75.3</ele>
        <time>2012-07-23T18:48:35.000Z</time>
      </trkpt>
      <trkpt lat="47.1998" lon="-1.43988">
        <ele>74.5</ele>
        <time>2012-07-23T18:48:37.000Z</time>
      </trkpt>
      <trkpt lat="47.19978" lon="-1.4398">
        <ele>74.7</ele>
        <time>2012-07-23T18:48:39.000Z</time>
      </trkpt>
      <trkpt lat="47.19975" lon="-1.43973">
        <ele>72.6</ele>
        <time>2012-07-23T18:48:41.000Z</time>
      </trkpt>
      <trkpt lat="47.19974" lon="-1.43964">
        <ele>71.6</ele>
        <time>2012-07-23T18:48:44.000Z</time>
      </trkpt>
      <trkpt lat="47.19971" lon="-1.43957">
        <ele>71.1</ele>
        <time>2012-07-23T18:48:47.000Z</time>
      </trkpt>
      <trkpt lat="47.1997" lon="-1.4395">
        <ele>71.4</ele>
        <time>2012-07-23T18:48:49.000Z</time>
      </trkpt>
      <trkpt lat="47.19968" lon="-1.43942">
        <ele>73.9</ele>
        <time>2012-07-23T18:48:51.000Z</time>
      </trkpt>
      <trkpt lat="47.19967" lon="-1.43935">
        <ele>76.6</ele>
        <time>2012-07-23T18:48:53.000Z</time>
      </trkpt>
      <trkpt lat="47.19964" lon="-1.4393">
        <ele>77</ele>
        <time>2012-07-23T18:48:55.000Z</time>
      </trkpt>
      <trkpt lat="47.1996" lon="-1.43924">
        <ele>78</ele>
        <time>2012-07-23T18:48:57.000Z</time>
      </trkpt>
      <trkpt lat="47.19954" lon="-1.43918">
        <ele>79.2</ele>
        <time>2012-07-23T18:49:00.000Z</time>
      </trkpt>
      <trkpt lat="47.19955" lon="-1.4391">
        <ele>80.1</ele>
        <time>2012-07-23T18:49:02.000Z</time>
      </trkpt>
      <trkpt lat="47.19952" lon="-1.43904">
        <ele>81</ele>
        <time>2012-07-23T18:49:04.000Z</time>
      </trkpt>
      <trkpt lat="47.19948" lon="-1.43897">
        <ele>80.6</ele>
        <time>2012-07-23T18:49:07.000Z</time>
      </trkpt>
      <trkpt lat="47.19946" lon="-1.43888">
        <ele>79.9</ele>
        <time>2012-07-23T18:49:10.000Z</time>
      </trkpt>
      <trkpt lat="47.19942" lon="-1.4388">
        <ele>77.8</ele>
        <time>2012-07-23T18:49:12.000Z</time>
      </trkpt>
      <trkpt lat="47.1994" lon="-1.43874">
        <ele>77.4</ele>
        <time>2012-07-23T18:49:14.000Z</time>
      </trkpt>
      <trkpt lat="47.1994" lon="-1.43866">
        <ele>74.1</ele>
        <time>2012-07-23T18:49:16.000Z</time>
      </trkpt>
      <trkpt lat="47.19938" lon="-1.43858">
        <ele>73.5</ele>
        <time>2012-07-23T18:49:19.000Z</time>
      </trkpt>
      <trkpt lat="47.19936" lon="-1.4385">
        <ele>70.3</ele>
        <time>2012-07-23T18:49:22.000Z</time>
      </trkpt>
      <trkpt lat="47.19935" lon="-1.43841">
        <ele>71.7</ele>
        <time>2012-07-23T18:49:25.000Z</time>
      </trkpt>
      <trkpt lat="47.19934" lon="-1.43833">
        <ele>71.3</ele>
        <time>2012-07-23T18:49:28.000Z</time>
      </trkpt>
      <trkpt lat="47.19934" lon="-1.43822">
        <ele>72.5</ele>
        <time>2012-07-23T18:49:31.000Z</time>
      </trkpt>
      <trkpt lat="47.1993" lon="-1.43814">
        <ele>73.4</ele>
        <time>2012-07-23T18:49:34.000Z</time>
      </trkpt>
      <trkpt lat="47.19925" lon="-1.43809">
        <ele>73.4</ele>
        <time>2012-07-23T18:49:37.000Z</time>
      </trkpt>
      <trkpt lat="47.1992" lon="-1.43807">
        <ele>73.1</ele>
        <time>2012-07-23T18:49:39.000Z</time>
      </trkpt>
      <trkpt lat="47.19916" lon="-1.43801">
        <ele>72.9</ele>
        <time>2012-07-23T18:49:42.000Z</time>
      </trkpt>
      <trkpt lat="47.19912" lon="-1.43794">
        <ele>73.6</ele>
        <time>2012-07-23T18:49:45.000Z</time>
      </trkpt>
      <trkpt lat="47.19909" lon="-1.43786">
        <ele>73.9</ele>
        <time>2012-07-23T18:49:48.000Z</time>
      </trkpt>
      <trkpt lat="47.19907" lon="-1.43779">
        <ele>75.2</ele>
        <time>2012-07-23T18:49:51.000Z</time>
      </trkpt>
      <trkpt lat="47.19905" lon="-1.43773">
        <ele>76</ele>
        <time>2012-07-23T18:49:54.000Z</time>
      </trkpt>
      <trkpt lat="47.19903" lon="-1.43766">
        <ele>76.2</ele>
        <time>2012-07-23T18:49:57.000Z</time>
      </trkpt>
      <trkpt lat="47.19901" lon="-1.43759">
        <ele>75.4</ele>
        <time>2012-07-23T18:50:00.000Z</time>
      </trkpt>
      <trkpt lat="47.19899" lon="-1.43752">
        <ele>76.1</ele>
        <time>2012-07-23T18:50:02.000Z</time>
      </trkpt>
      <trkpt lat="47.19898" lon="-1.43745">
        <ele>75.4</ele>
        <time>2012-07-23T18:50:05.000Z</time>
      </trkpt>
      <trkpt lat="47.19899" lon="-1.43736">
        <ele>73.6</ele>
        <time>2012-07-23T18:50:08.000Z</time>
      </trkpt>
      <trkpt lat="47.19898" lon="-1.43729">
        <ele>73.4</ele>
        <time>2012-07-23T18:50:11.000Z</time>
      </trkpt>
      <trkpt lat="47.19896" lon="-1.43721">
        <ele>71</ele>
        <time>2012-07-23T18:50:14.000Z</time>
      </trkpt>
      <trkpt lat="47.19891" lon="-1.43713">
        <ele>70.9</ele>
        <time>2012-07-23T18:50:17.000Z</time>
      </trkpt>
      <trkpt lat="47.19888" lon="-1.43704">
        <ele>71.5</ele>
        <time>2012-07-23T18:50:20.000Z</time>
      </trkpt>
      <trkpt lat="47.19886" lon="-1.43697">
        <ele>71.7</ele>
        <time>2012-07-23T18:50:22.000Z</time>
      </trkpt>
      <trkpt lat="47.19885" lon="-1.43691">
        <ele>73.5</ele>
        <time>2012-07-23T18:50:24.000Z</time>
      </trkpt>
      <trkpt lat="47.19885" lon="-1.43683">
        <ele>74.9</ele>
        <time>2012-07-23T18:50:26.000Z</time>
      </trkpt>
      <trkpt lat="47.19883" lon="-1.43676">
        <ele>74.8</ele>
        <time>2012-07-23T18:50:28.000Z</time>
      </trkpt>
      <trkpt lat="47.19882" lon="-1.43669">
        <ele>75.5</ele>
        <time>2012-07-23T18:50:30.000Z</time>
      </trkpt>
      <trkpt lat="47.19882" lon="-1.4366">
        <ele>75.1</ele>
        <time>2012-07-23T18:50:33.000Z</time>
      </trkpt>
      <trkpt lat="47.1988" lon="-1.43653">
        <ele>74.8</ele>
        <time>2012-07-23T18:50:35.000Z</time>
      </trkpt>
      <trkpt lat="47.19878" lon="-1.43645">
        <ele>73</ele>
        <time>2012-07-23T18:50:38.000Z</time>
      </trkpt>
      <trkpt lat="47.19878" lon="-1.43638">
        <ele>72.5</ele>
        <time>2012-07-23T18:50:40.000Z</time>
      </trkpt>
      <trkpt lat="47.19879" lon="-1.43628">
        <ele>71.5</ele>
        <time>2012-07-23T18:50:43.000Z</time>
      </trkpt>
      <trkpt lat="47.19879" lon="-1.43621">
        <ele>71.5</ele>
        <time>2012-07-23T18:50:45.000Z</time>
      </trkpt>
      <trkpt lat="47.19878" lon="-1.43614">
        <ele>73</ele>
        <time>2012-07-23T18:50:47.000Z</time>
      </trkpt>
      <trkpt lat="47.19878" lon="-1.43607">
        <ele>74.3</ele>
        <time>2012-07-23T18:50:49.000Z</time>
      </trkpt>
      <trkpt lat="47.19879" lon="-1.43599">
        <ele>74.3</ele>
        <time>2012-07-23T18:50:51.000Z</time>
      </trkpt>
      <trkpt lat="47.19877" lon="-1.43589">
        <ele>75.1</ele>
        <time>2012-07-23T18:50:54.000Z</time>
      </trkpt>
      <trkpt lat="47.19875" lon="-1.43582">
        <ele>75.7</ele>
        <time>2012-07-23T18:50:56.000Z</time>
      </trkpt>
      <trkpt lat="47.19873" lon="-1.43572">
        <ele>76.7</ele>
        <time>2012-07-23T18:50:59.000Z</time>
      </trkpt>
      <trkpt lat="47.19872" lon="-1.43564">
        <ele>75</ele>
        <time>2012-07-23T18:51:01.000Z</time>
      </trkpt>
      <trkpt lat="47.19871" lon="-1.43555">
        <ele>75.7</ele>
        <time>2012-07-23T18:51:03.000Z</time>
      </trkpt>
      <trkpt lat="47.1987" lon="-1.43547">
        <ele>75.4</ele>
        <time>2012-07-23T18:51:05.000Z</time>
      </trkpt>
      <trkpt lat="47.19871" lon="-1.43541">
        <ele>76.9</ele>
        <time>2012-07-23T18:51:07.000Z</time>
      </trkpt>
      <trkpt lat="47.19869" lon="-1.43533">
        <ele>75.9</ele>
        <time>2012-07-23T18:51:09.000Z</time>
      </trkpt>
      <trkpt lat="47.19868" lon="-1.43522">
        <ele>75.1</ele>
        <time>2012-07-23T18:51:12.000Z</time>
      </trkpt>
      <trkpt lat="47.19867" lon="-1.43515">
        <ele>74.7</ele>
        <time>2012-07-23T18:51:14.000Z</time>
      </trkpt>
      <trkpt lat="47.19869" lon="-1.43509">
        <ele>75.2</ele>
        <time>2012-07-23T18:51:16.000Z</time>
      </trkpt>
      <trkpt lat="47.19868" lon="-1.43502">
        <ele>73.1</ele>
        <time>2012-07-23T18:51:18.000Z</time>
      </trkpt>
      <trkpt lat="47.19869" lon="-1.43493">
        <ele>72.6</ele>
        <time>2012-07-23T18:51:21.000Z</time>
      </trkpt>
      <trkpt lat="47.19871" lon="-1.43485">
        <ele>72.5</ele>
        <time>2012-07-23T18:51:23.000Z</time>
      </trkpt>
      <trkpt lat="47.19873" lon="-1.43477">
        <ele>71.9</ele>
        <time>2012-07-23T18:51:25.000Z</time>
      </trkpt>
      <trkpt lat="47.19873" lon="-1.43468">
        <ele>70.1</ele>
        <time>2012-07-23T18:51:28.000Z</time>
      </trkpt>
      <trkpt lat="47.19874" lon="-1.43461">
        <ele>69.8</ele>
        <time>2012-07-23T18:51:30.000Z</time>
      </trkpt>
      <trkpt lat="47.19877" lon="-1.43453">
        <ele>71.7</ele>
        <time>2012-07-23T18:51:33.000Z</time>
      </trkpt>
      <trkpt lat="47.1988" lon="-1.43445">
        <ele>71.9</ele>
        <time>2012-07-23T18:51:35.000Z</time>
      </trkpt>
      <trkpt lat="47.19883" lon="-1.43437">
        <ele>71.5</ele>
        <time>2012-07-23T18:51:37.000Z</time>
      </trkpt>
      <trkpt lat="47.19884" lon="-1.4343">
        <ele>72.7</ele>
        <time>2012-07-23T18:51:39.000Z</time>
      </trkpt>
      <trkpt lat="47.19884" lon="-1.43419">
        <ele>73.8</ele>
        <time>2012-07-23T18:51:41.000Z</time>
      </trkpt>
      <trkpt lat="47.19886" lon="-1.43413">
        <ele>71.9</ele>
        <time>2012-07-23T18:51:43.000Z</time>
      </trkpt>
      <trkpt lat="47.1989" lon="-1.43408">
        <ele>71.9</ele>
        <time>2012-07-23T18:51:45.000Z</time>
      </trkpt>
      <trkpt lat="47.19892" lon="-1.43402">
        <ele>72.4</ele>
        <time>2012-07-23T18:51:47.000Z</time>
      </trkpt>
      <trkpt lat="47.19895" lon="-1.43395">
        <ele>73.8</ele>
        <time>2012-07-23T18:51:50.000Z</time>
      </trkpt>
      <trkpt lat="47.19895" lon="-1.43386">
        <ele>71.8</ele>
        <time>2012-07-23T18:51:53.000Z</time>
      </trkpt>
      <trkpt lat="47.19896" lon="-1.43378">
        <ele>70.2</ele>
        <time>2012-07-23T18:51:55.000Z</time>
      </trkpt>
      <trkpt lat="47.19896" lon="-1.43371">
        <ele>69.7</ele>
        <time>2012-07-23T18:51:57.000Z</time>
      </trkpt>
      <trkpt lat="47.19901" lon="-1.43365">
        <ele>71.2</ele>
        <time>2012-07-23T18:51:59.000Z</time>
      </trkpt>
      <trkpt lat="47.19903" lon="-1.43358">
        <ele>71.2</ele>
        <time>2012-07-23T18:52:02.000Z</time>
      </trkpt>
      <trkpt lat="47.19906" lon="-1.43351">
        <ele>71.9</ele>
        <time>2012-07-23T18:52:05.000Z</time>
      </trkpt>
      <trkpt lat="47.19907" lon="-1.43342">
        <ele>71.3</ele>
        <time>2012-07-23T18:52:08.000Z</time>
      </trkpt>
      <trkpt lat="47.19911" lon="-1.43337">
        <ele>73.3</ele>
        <time>2012-07-23T18:52:11.000Z</time>
      </trkpt>
      <trkpt lat="47.19914" lon="-1.43332">
        <ele>73.1</ele>
        <time>2012-07-23T18:52:12.000Z</time>
      </trkpt>
      <trkpt lat="47.19916" lon="-1.43326">
        <ele>73</ele>
        <time>2012-07-23T18:52:14.000Z</time>
      </trkpt>
      <trkpt lat="47.19919" lon="-1.4332">
        <ele>75.1</ele>
        <time>2012-07-23T18:52:16.000Z</time>
      </trkpt>
      <trkpt lat="47.19922" lon="-1.43309">
        <ele>72.8</ele>
        <time>2012-07-23T18:52:20.000Z</time>
      </trkpt>
      <trkpt lat="47.19921" lon="-1.43301">
        <ele>72.7</ele>
        <time>2012-07-23T18:52:22.000Z</time>
      </trkpt>
      <trkpt lat="47.19919" lon="-1.43294">
        <ele>72.4</ele>
        <time>2012-07-23T18:52:25.000Z</time>
      </trkpt>
      <trkpt lat="47.19918" lon="-1.43286">
        <ele>74.3</ele>
        <time>2012-07-23T18:52:28.000Z</time>
      </trkpt>
      <trkpt lat="47.19918" lon="-1.43278">
        <ele>73.4</ele>
        <time>2012-07-23T18:52:30.000Z</time>
      </trkpt>
      <trkpt lat="47.19917" lon="-1.43271">
        <ele>72.5</ele>
        <time>2012-07-23T18:52:32.000Z</time>
      </trkpt>
      <trkpt lat="47.19915" lon="-1.43264">
        <ele>73.5</ele>
        <time>2012-07-23T18:52:35.000Z</time>
      </trkpt>
      <trkpt lat="47.19915" lon="-1.43256">
        <ele>73.3</ele>
        <time>2012-07-23T18:52:38.000Z</time>
      </trkpt>
      <trkpt lat="47.19915" lon="-1.43242">
        <ele>70.8</ele>
        <time>2012-07-23T18:52:42.000Z</time>
      </trkpt>
      <trkpt lat="47.19918" lon="-1.43238">
        <ele>71</ele>
        <time>2012-07-23T18:52:44.000Z</time>
      </trkpt>
      <trkpt lat="47.19918" lon="-1.43229">
        <ele>69</ele>
        <time>2012-07-23T18:52:47.000Z</time>
      </trkpt>
      <trkpt lat="47.19919" lon="-1.43216">
        <ele>67.2</ele>
        <time>2012-07-23T18:52:51.000Z</time>
      </trkpt>
      <trkpt lat="47.19918" lon="-1.43208">
        <ele>65.7</ele>
        <time>2012-07-23T18:52:53.000Z</time>
      </trkpt>
      <trkpt lat="47.19916" lon="-1.43199">
        <ele>66.8</ele>
        <time>2012-07-23T18:52:56.000Z</time>
      </trkpt>
      <trkpt lat="47.19913" lon="-1.43192">
        <ele>68.4</ele>
        <time>2012-07-23T18:52:58.000Z</time>
      </trkpt>
      <trkpt lat="47.19913" lon="-1.43182">
        <ele>70.9</ele>
        <time>2012-07-23T18:53:01.000Z</time>
      </trkpt>
      <trkpt lat="47.19912" lon="-1.43174">
        <ele>68.8</ele>
        <time>2012-07-23T18:53:04.000Z</time>
      </trkpt>
      <trkpt lat="47.1991" lon="-1.43166">
        <ele>70.5</ele>
        <time>2012-07-23T18:53:07.000Z</time>
      </trkpt>
      <trkpt lat="47.19908" lon="-1.43158">
        <ele>71.1</ele>
        <time>2012-07-23T18:53:10.000Z</time>
      </trkpt>
      <trkpt lat="47.19906" lon="-1.43149">
        <ele>73.2</ele>
        <time>2012-07-23T18:53:13.000Z</time>
      </trkpt>
      <trkpt lat="47.19905" lon="-1.43139">
        <ele>71.7</ele>
        <time>2012-07-23T18:53:16.000Z</time>
      </trkpt>
      <trkpt lat="47.19904" lon="-1.43132">
        <ele>71.4</ele>
        <time>2012-07-23T18:53:18.000Z</time>
      </trkpt>
      <trkpt lat="47.19902" lon="-1.43125">
        <ele>69.9</ele>
        <time>2012-07-23T18:53:20.000Z</time>
      </trkpt>
      <trkpt lat="47.19902" lon="-1.43115">
        <ele>70.3</ele>
        <time>2012-07-23T18:53:23.000Z</time>
      </trkpt>
      <trkpt lat="47.19901" lon="-1.43108">
        <ele>69.8</ele>
        <time>2012-07-23T18:53:25.000Z</time>
      </trkpt>
      <trkpt lat="47.199" lon="-1.43098">
        <ele>70.5</ele>
        <time>2012-07-23T18:53:28.000Z</time>
      </trkpt>
      <trkpt lat="47.19898" lon="-1.4309">
        <ele>70</ele>
        <time>2012-07-23T18:53:30.000Z</time>
      </trkpt>
      <trkpt lat="47.19897" lon="-1.43082">
        <ele>69.4</ele>
        <time>2012-07-23T18:53:32.000Z</time>
      </trkpt>
      <trkpt lat="47.19896" lon="-1.43073">
        <ele>67.8</ele>
        <time>2012-07-23T18:53:35.000Z</time>
      </trkpt>
      <trkpt lat="47.19895" lon="-1.43065">
        <ele>67.3</ele>
        <time>2012-07-23T18:53:38.000Z</time>
      </trkpt>
      <trkpt lat="47.19894" lon="-1.43054">
        <ele>67.5</ele>
        <time>2012-07-23T18:53:41.000Z</time>
      </trkpt>
      <trkpt lat="47.19896" lon="-1.43046">
        <ele>68.6</ele>
        <time>2012-07-23T18:53:43.000Z</time>
      </trkpt>
      <trkpt lat="47.19893" lon="-1.43039">
        <ele>68.4</ele>
        <time>2012-07-23T18:53:45.000Z</time>
      </trkpt>
      <trkpt lat="47.19893" lon="-1.43031">
        <ele>68</ele>
        <time>2012-07-23T18:53:48.000Z</time>
      </trkpt>
      <trkpt lat="47.19893" lon="-1.43022">
        <ele>68.1</ele>
        <time>2012-07-23T18:53:50.000Z</time>
      </trkpt>
      <trkpt lat="47.19891" lon="-1.43015">
        <ele>68.1</ele>
        <time>2012-07-23T18:53:53.000Z</time>
      </trkpt>
      <trkpt lat="47.1989" lon="-1.43008">
        <ele>69.3</ele>
        <time>2012-07-23T18:53:57.000Z</time>
      </trkpt>
      <trkpt lat="47.19889" lon="-1.43001">
        <ele>71.4</ele>
        <time>2012-07-23T18:54:00.000Z</time>
      </trkpt>
      <trkpt lat="47.19888" lon="-1.42994">
        <ele>71.2</ele>
        <time>2012-07-23T18:54:08.000Z</time>
      </trkpt>
      <trkpt lat="47.19887" lon="-1.42987">
        <ele>71.3</ele>
        <time>2012-07-23T18:54:19.000Z</time>
      </trkpt>
      <trkpt lat="47.19896" lon="-1.4299">
        <ele>77.7</ele>
        <time>2012-07-23T18:55:59.000Z</time>
      </trkpt>
      <trkpt lat="47.19896" lon="-1.42981">
        <ele>69.7</ele>
        <time>2012-07-23T18:56:06.000Z</time>
      </trkpt>
      <trkpt lat="47.199" lon="-1.42976">
        <ele>73.3</ele>
        <time>2012-07-23T18:56:08.000Z</time>
      </trkpt>
      <trkpt lat="47.19899" lon="-1.42969">
        <ele>73.4</ele>
        <time>2012-07-23T18:56:12.000Z</time>
      </trkpt>
      <trkpt lat="47.199" lon="-1.42962">
        <ele>75.8</ele>
        <time>2012-07-23T18:56:16.000Z</time>
      </trkpt>
      <trkpt lat="47.199" lon="-1.42953">
        <ele>76.9</ele>
        <time>2012-07-23T18:56:22.000Z</time>
      </trkpt>
      <trkpt lat="47.19902" lon="-1.42946">
        <ele>81.7</ele>
        <time>2012-07-23T18:56:25.000Z</time>
      </trkpt>
      <trkpt lat="47.19906" lon="-1.42939">
        <ele>80.3</ele>
        <time>2012-07-23T18:56:29.000Z</time>
      </trkpt>
      <trkpt lat="47.19905" lon="-1.4293">
        <ele>77.3</ele>
        <time>2012-07-23T18:56:33.000Z</time>
      </trkpt>
      <trkpt lat="47.19905" lon="-1.42923">
        <ele>76.4</ele>
        <time>2012-07-23T18:56:36.000Z</time>
      </trkpt>
      <trkpt lat="47.19899" lon="-1.42916">
        <ele>76</ele>
        <time>2012-07-23T18:56:39.000Z</time>
      </trkpt>
      <trkpt lat="47.19895" lon="-1.42912">
        <ele>75.8</ele>
        <time>2012-07-23T18:56:41.000Z</time>
      </trkpt>
      <trkpt lat="47.19894" lon="-1.42904">
        <ele>77.3</ele>
        <time>2012-07-23T18:56:45.000Z</time>
      </trkpt>
      <trkpt lat="47.19893" lon="-1.42895">
        <ele>76.2</ele>
        <time>2012-07-23T18:56:50.000Z</time>
      </trkpt>
      <trkpt lat="47.19897" lon="-1.42888">
        <ele>77</ele>
        <time>2012-07-23T18:56:54.000Z</time>
      </trkpt>
      <trkpt lat="47.19897" lon="-1.4288">
        <ele>77.6</ele>
        <time>2012-07-23T18:56:57.000Z</time>
      </trkpt>
      <trkpt lat="47.19896" lon="-1.42873">
        <ele>77.8</ele>
        <time>2012-07-23T18:57:00.000Z</time>
      </trkpt>
      <trkpt lat="47.19892" lon="-1.42866">
        <ele>78.1</ele>
        <time>2012-07-23T18:57:03.000Z</time>
      </trkpt>
      <trkpt lat="47.19889" lon="-1.42859">
        <ele>75.5</ele>
        <time>2012-07-23T18:57:07.000Z</time>
      </trkpt>
      <trkpt lat="47.19886" lon="-1.42853">
        <ele>75</ele>
        <time>2012-07-23T18:57:10.000Z</time>
      </trkpt>
      <trkpt lat="47.19884" lon="-1.42846">
        <ele>75.2</ele>
        <time>2012-07-23T18:57:13.000Z</time>
      </trkpt>
      <trkpt lat="47.19882" lon="-1.42838">
        <ele>79.1</ele>
        <time>2012-07-23T18:57:16.000Z</time>
      </trkpt>
      <trkpt lat="47.1988" lon="-1.42831">
        <ele>78.8</ele>
        <time>2012-07-23T18:57:20.000Z</time>
      </trkpt>
      <trkpt lat="47.19879" lon="-1.42823">
        <ele>77.2</ele>
        <time>2012-07-23T18:57:23.000Z</time>
      </trkpt>
      <trkpt lat="47.19877" lon="-1.42818">
        <ele>80.7</ele>
        <time>2012-07-23T18:57:27.000Z</time>
      </trkpt>
      <trkpt lat="47.19873" lon="-1.4281">
        <ele>80.2</ele>
        <time>2012-07-23T18:57:32.000Z</time>
      </trkpt>
      <trkpt lat="47.19872" lon="-1.42802">
        <ele>80.6</ele>
        <time>2012-07-23T18:57:37.000Z</time>
      </trkpt>
      <trkpt lat="47.19868" lon="-1.42796">
        <ele>79.9</ele>
        <time>2012-07-23T18:57:39.000Z</time>
      </trkpt>
      <trkpt lat="47.19865" lon="-1.42788">
        <ele>80</ele>
        <time>2012-07-23T18:57:43.000Z</time>
      </trkpt>
      <trkpt lat="47.19864" lon="-1.42781">
        <ele>79.5</ele>
        <time>2012-07-23T18:57:46.000Z</time>
      </trkpt>
      <trkpt lat="47.19863" lon="-1.42775">
        <ele>78.2</ele>
        <time>2012-07-23T18:57:50.000Z</time>
      </trkpt>
      <trkpt lat="47.19862" lon="-1.42768">
        <ele>77.1</ele>
        <time>2012-07-23T18:57:53.000Z</time>
      </trkpt>
      <trkpt lat="47.19861" lon="-1.4276">
        <ele>76.5</ele>
        <time>2012-07-23T18:57:56.000Z</time>
      </trkpt>
      <trkpt lat="47.19858" lon="-1.42749">
        <ele>77.6</ele>
        <time>2012-07-23T18:58:00.000Z</time>
      </trkpt>
      <trkpt lat="47.19858" lon="-1.4274">
        <ele>77.4</ele>
        <time>2012-07-23T18:58:07.000Z</time>
      </trkpt>
      <trkpt lat="47.19857" lon="-1.42733">
        <ele>77.7</ele>
        <time>2012-07-23T18:58:10.000Z</time>
      </trkpt>
      <trkpt lat="47.19857" lon="-1.42724">
        <ele>78</ele>
        <time>2012-07-23T18:58:14.000Z</time>
      </trkpt>
      <trkpt lat="47.19853" lon="-1.42719">
        <ele>78</ele>
        <time>2012-07-23T18:58:17.000Z</time>
      </trkpt>
      <trkpt lat="47.19848" lon="-1.42715">
        <ele>78.9</ele>
        <time>2012-07-23T18:58:19.000Z</time>
      </trkpt>
      <trkpt lat="47.19845" lon="-1.4271">
        <ele>80.9</ele>
        <time>2012-07-23T18:58:21.000Z</time>
      </trkpt>
      <trkpt lat="47.19841" lon="-1.42704">
        <ele>82.5</ele>
        <time>2012-07-23T18:58:23.000Z</time>
      </trkpt>
      <trkpt lat="47.19835" lon="-1.42699">
        <ele>77.4</ele>
        <time>2012-07-23T18:58:24.000Z</time>
      </trkpt>
      <trkpt lat="47.19829" lon="-1.42694">
        <ele>77</ele>
        <time>2012-07-23T18:58:26.000Z</time>
      </trkpt>
      <trkpt lat="47.19823" lon="-1.42691">
        <ele>77.9</ele>
        <time>2012-07-23T18:58:28.000Z</time>
      </trkpt>
      <trkpt lat="47.19817" lon="-1.42686">
        <ele>79.3</ele>
        <time>2012-07-23T18:58:30.000Z</time>
      </trkpt>
      <trkpt lat="47.19813" lon="-1.42682">
        <ele>78</ele>
        <time>2012-07-23T18:58:32.000Z</time>
      </trkpt>
      <trkpt lat="47.19808" lon="-1.42679">
        <ele>77.9</ele>
        <time>2012-07-23T18:58:34.000Z</time>
      </trkpt>
      <trkpt lat="47.19804" lon="-1.42676">
        <ele>78.4</ele>
        <time>2012-07-23T18:58:36.000Z</time>
      </trkpt>
      <trkpt lat="47.19799" lon="-1.42672">
        <ele>78.3</ele>
        <time>2012-07-23T18:58:38.000Z</time>
      </trkpt>
      <trkpt lat="47.19795" lon="-1.42669">
        <ele>80</ele>
        <time>2012-07-23T18:58:40.000Z</time>
      </trkpt>
      <trkpt lat="47.1979" lon="-1.42668">
        <ele>78.6</ele>
        <time>2012-07-23T18:58:42.000Z</time>
      </trkpt>
      <trkpt lat="47.19784" lon="-1.42665">
        <ele>78.7</ele>
        <time>2012-07-23T18:58:44.000Z</time>
      </trkpt>
      <trkpt lat="47.19779" lon="-1.42664">
        <ele>78.5</ele>
        <time>2012-07-23T18:58:46.000Z</time>
      </trkpt>
      <trkpt lat="47.19774" lon="-1.42663">
        <ele>76.3</ele>
        <time>2012-07-23T18:58:48.000Z</time>
      </trkpt>
      <trkpt lat="47.1977" lon="-1.42661">
        <ele>78.3</ele>
        <time>2012-07-23T18:58:50.000Z</time>
      </trkpt>
      <trkpt lat="47.19764" lon="-1.42659">
        <ele>77.2</ele>
        <time>2012-07-23T18:58:52.000Z</time>
      </trkpt>
      <trkpt lat="47.1976" lon="-1.42657">
        <ele>76.5</ele>
        <time>2012-07-23T18:58:54.000Z</time>
      </trkpt>
      <trkpt lat="47.19754" lon="-1.42656">
        <ele>78.2</ele>
        <time>2012-07-23T18:58:56.000Z</time>
      </trkpt>
      <trkpt lat="47.19749" lon="-1.42655">
        <ele>79</ele>
        <time>2012-07-23T18:58:58.000Z</time>
      </trkpt>
      <trkpt lat="47.19741" lon="-1.42649">
        <ele>80.5</ele>
        <time>2012-07-23T18:59:02.000Z</time>
      </trkpt>
      <trkpt lat="47.19736" lon="-1.42646">
        <ele>79.1</ele>
        <time>2012-07-23T18:59:04.000Z</time>
      </trkpt>
      <trkpt lat="47.19731" lon="-1.42641">
        <ele>79.5</ele>
        <time>2012-07-23T18:59:06.000Z</time>
      </trkpt>
      <trkpt lat="47.19726" lon="-1.42638">
        <ele>79</ele>
        <time>2012-07-23T18:59:08.000Z</time>
      </trkpt>
      <trkpt lat="47.19721" lon="-1.42638">
        <ele>79</ele>
        <time>2012-07-23T18:59:10.000Z</time>
      </trkpt>
      <trkpt lat="47.19715" lon="-1.42633">
        <ele>81</ele>
        <time>2012-07-23T18:59:14.000Z</time>
      </trkpt>
      <trkpt lat="47.19708" lon="-1.42628">
        <ele>79.8</ele>
        <time>2012-07-23T18:59:17.000Z</time>
      </trkpt>
      <trkpt lat="47.19703" lon="-1.42623">
        <ele>80.6</ele>
        <time>2012-07-23T18:59:19.000Z</time>
      </trkpt>
      <trkpt lat="47.19699" lon="-1.42619">
        <ele>81.3</ele>
        <time>2012-07-23T18:59:21.000Z</time>
      </trkpt>
      <trkpt lat="47.19694" lon="-1.42611">
        <ele>82.5</ele>
        <time>2012-07-23T18:59:25.000Z</time>
      </trkpt>
      <trkpt lat="47.19689" lon="-1.42605">
        <ele>81</ele>
        <time>2012-07-23T18:59:28.000Z</time>
      </trkpt>
      <trkpt lat="47.19684" lon="-1.426">
        <ele>80.7</ele>
        <time>2012-07-23T18:59:31.000Z</time>
      </trkpt>
      <trkpt lat="47.1968" lon="-1.42596">
        <ele>83.1</ele>
        <time>2012-07-23T18:59:33.000Z</time>
      </trkpt>
      <trkpt lat="47.19676" lon="-1.42589">
        <ele>82.1</ele>
        <time>2012-07-23T18:59:37.000Z</time>
      </trkpt>
      <trkpt lat="47.19672" lon="-1.42583">
        <ele>82.7</ele>
        <time>2012-07-23T18:59:39.000Z</time>
      </trkpt>
      <trkpt lat="47.19668" lon="-1.42578">
        <ele>83.8</ele>
        <time>2012-07-23T18:59:41.000Z</time>
      </trkpt>
      <trkpt lat="47.19664" lon="-1.42573">
        <ele>84.2</ele>
        <time>2012-07-23T18:59:43.000Z</time>
      </trkpt>
      <trkpt lat="47.19659" lon="-1.42568">
        <ele>80.4</ele>
        <time>2012-07-23T18:59:46.000Z</time>
      </trkpt>
      <trkpt lat="47.19656" lon="-1.42562">
        <ele>82.4</ele>
        <time>2012-07-23T18:59:49.000Z</time>
      </trkpt>
      <trkpt lat="47.1965" lon="-1.42553">
        <ele>82.1</ele>
        <time>2012-07-23T18:59:53.000Z</time>
      </trkpt>
      <trkpt lat="47.19645" lon="-1.42549">
        <ele>82.6</ele>
        <time>2012-07-23T18:59:55.000Z</time>
      </trkpt>
      <trkpt lat="47.19638" lon="-1.42544">
        <ele>85</ele>
        <time>2012-07-23T18:59:58.000Z</time>
      </trkpt>
      <trkpt lat="47.19634" lon="-1.42542">
        <ele>83.2</ele>
        <time>2012-07-23T19:00:00.000Z</time>
      </trkpt>
      <trkpt lat="47.19627" lon="-1.42536">
        <ele>82.8</ele>
        <time>2012-07-23T19:00:03.000Z</time>
      </trkpt>
      <trkpt lat="47.19625" lon="-1.42525">
        <ele>81.1</ele>
        <time>2012-07-23T19:00:06.000Z</time>
      </trkpt>
      <trkpt lat="47.19621" lon="-1.42521">
        <ele>81.4</ele>
        <time>2012-07-23T19:00:08.000Z</time>
      </trkpt>
      <trkpt lat="47.19618" lon="-1.42515">
        <ele>83.1</ele>
        <time>2012-07-23T19:00:10.000Z</time>
      </trkpt>
      <trkpt lat="47.19611" lon="-1.42506">
        <ele>83.3</ele>
        <time>2012-07-23T19:00:14.000Z</time>
      </trkpt>
      <trkpt lat="47.19605" lon="-1.42502">
        <ele>82.7</ele>
        <time>2012-07-23T19:00:16.000Z</time>
      </trkpt>
      <trkpt lat="47.19602" lon="-1.42495">
        <ele>82.5</ele>
        <time>2012-07-23T19:00:19.000Z</time>
      </trkpt>
      <trkpt lat="47.19598" lon="-1.42488">
        <ele>79.9</ele>
        <time>2012-07-23T19:00:21.000Z</time>
      </trkpt>
      <trkpt lat="47.19592" lon="-1.42481">
        <ele>79.1</ele>
        <time>2012-07-23T19:00:24.000Z</time>
      </trkpt>
      <trkpt lat="47.19587" lon="-1.42477">
        <ele>78.2</ele>
        <time>2012-07-23T19:00:26.000Z</time>
      </trkpt>
      <trkpt lat="47.19582" lon="-1.42475">
        <ele>76.1</ele>
        <time>2012-07-23T19:00:28.000Z</time>
      </trkpt>
      <trkpt lat="47.19577" lon="-1.42471">
        <ele>75.5</ele>
        <time>2012-07-23T19:00:30.000Z</time>
      </trkpt>
      <trkpt lat="47.19572" lon="-1.42466">
        <ele>75.2</ele>
        <time>2012-07-23T19:00:33.000Z</time>
      </trkpt>
      <trkpt lat="47.19567" lon="-1.42461">
        <ele>73.7</ele>
        <time>2012-07-23T19:00:35.000Z</time>
      </trkpt>
      <trkpt lat="47.19563" lon="-1.42454">
        <ele>74.4</ele>
        <time>2012-07-23T19:00:38.000Z</time>
      </trkpt>
      <trkpt lat="47.19558" lon="-1.42446">
        <ele>74.7</ele>
        <time>2012-07-23T19:00:41.000Z</time>
      </trkpt>
      <trkpt lat="47.19553" lon="-1.42442">
        <ele>75</ele>
        <time>2012-07-23T19:00:43.000Z</time>
      </trkpt>
      <trkpt lat="47.19549" lon="-1.42436">
        <ele>73.9</ele>
        <time>2012-07-23T19:00:45.000Z</time>
      </trkpt>
      <trkpt lat="47.19546" lon="-1.42432">
        <ele>75.2</ele>
        <time>2012-07-23T19:00:47.000Z</time>
      </trkpt>
      <trkpt lat="47.19542" lon="-1.42426">
        <ele>75</ele>
        <time>2012-07-23T19:00:49.000Z</time>
      </trkpt>
      <trkpt lat="47.19538" lon="-1.42422">
        <ele>72.5</ele>
        <time>2012-07-23T19:00:51.000Z</time>
      </trkpt>
      <trkpt lat="47.19534" lon="-1.42417">
        <ele>72.9</ele>
        <time>2012-07-23T19:00:54.000Z</time>
      </trkpt>
      <trkpt lat="47.19527" lon="-1.42412">
        <ele>74.5</ele>
        <time>2012-07-23T19:00:57.000Z</time>
      </trkpt>
      <trkpt lat="47.19522" lon="-1.42406">
        <ele>75.2</ele>
        <time>2012-07-23T19:01:00.000Z</time>
      </trkpt>
      <trkpt lat="47.19517" lon="-1.42401">
        <ele>73.5</ele>
        <time>2012-07-23T19:01:03.000Z</time>
      </trkpt>
      <trkpt lat="47.19513" lon="-1.42398">
        <ele>79.4</ele>
        <time>2012-07-23T19:01:06.000Z</time>
      </trkpt>
      <trkpt lat="47.19506" lon="-1.4239">
        <ele>79.4</ele>
        <time>2012-07-23T19:01:09.000Z</time>
      </trkpt>
      <trkpt lat="47.19501" lon="-1.42386">
        <ele>79.2</ele>
        <time>2012-07-23T19:01:11.000Z</time>
      </trkpt>
      <trkpt lat="47.19497" lon="-1.42379">
        <ele>78.8</ele>
        <time>2012-07-23T19:01:13.000Z</time>
      </trkpt>
      <trkpt lat="47.1949" lon="-1.42374">
        <ele>76.5</ele>
        <time>2012-07-23T19:01:15.000Z</time>
      </trkpt>
      <trkpt lat="47.19482" lon="-1.42365">
        <ele>74.5</ele>
        <time>2012-07-23T19:01:19.000Z</time>
      </trkpt>
      <trkpt lat="47.19475" lon="-1.42362">
        <ele>73.9</ele>
        <time>2012-07-23T19:01:22.000Z</time>
      </trkpt>
      <trkpt lat="47.19471" lon="-1.42359">
        <ele>74.7</ele>
        <time>2012-07-23T19:01:25.000Z</time>
      </trkpt>
      <trkpt lat="47.19466" lon="-1.42355">
        <ele>75.2</ele>
        <time>2012-07-23T19:01:27.000Z</time>
      </trkpt>
      <trkpt lat="47.19461" lon="-1.4235">
        <ele>77.7</ele>
        <time>2012-07-23T19:01:30.000Z</time>
      </trkpt>
      <trkpt lat="47.19456" lon="-1.42347">
        <ele>78.9</ele>
        <time>2012-07-23T19:01:32.000Z</time>
      </trkpt>
      <trkpt lat="47.1945" lon="-1.42342">
        <ele>79.8</ele>
        <time>2012-07-23T19:01:34.000Z</time>
      </trkpt>
      <trkpt lat="47.19442" lon="-1.42335">
        <ele>77.8</ele>
        <time>2012-07-23T19:01:38.000Z</time>
      </trkpt>
      <trkpt lat="47.19437" lon="-1.42331">
        <ele>77.9</ele>
        <time>2012-07-23T19:01:40.000Z</time>
      </trkpt>
      <trkpt lat="47.1943" lon="-1.42325">
        <ele>77.8</ele>
        <time>2012-07-23T19:01:43.000Z</time>
      </trkpt>
      <trkpt lat="47.19426" lon="-1.42321">
        <ele>78.4</ele>
        <time>2012-07-23T19:01:44.000Z</time>
      </trkpt>
      <trkpt lat="47.1942" lon="-1.42316">
        <ele>77.9</ele>
        <time>2012-07-23T19:01:48.000Z</time>
      </trkpt>
      <trkpt lat="47.19415" lon="-1.4231">
        <ele>76.6</ele>
        <time>2012-07-23T19:01:50.000Z</time>
      </trkpt>
      <trkpt lat="47.19409" lon="-1.42306">
        <ele>77.3</ele>
        <time>2012-07-23T19:01:53.000Z</time>
      </trkpt>
      <trkpt lat="47.19404" lon="-1.42301">
        <ele>75.4</ele>
        <time>2012-07-23T19:01:56.000Z</time>
      </trkpt>
      <trkpt lat="47.19399" lon="-1.42298">
        <ele>75.6</ele>
        <time>2012-07-23T19:01:58.000Z</time>
      </trkpt>
      <trkpt lat="47.19395" lon="-1.42295">
        <ele>76.1</ele>
        <time>2012-07-23T19:02:00.000Z</time>
      </trkpt>
      <trkpt lat="47.1939" lon="-1.4229">
        <ele>76.6</ele>
        <time>2012-07-23T19:02:02.000Z</time>
      </trkpt>
      <trkpt lat="47.19385" lon="-1.42286">
        <ele>75.3</ele>
        <time>2012-07-23T19:02:04.000Z</time>
      </trkpt>
      <trkpt lat="47.1938" lon="-1.42281">
        <ele>75.2</ele>
        <time>2012-07-23T19:02:06.000Z</time>
      </trkpt>
      <trkpt lat="47.19377" lon="-1.42276">
        <ele>78.6</ele>
        <time>2012-07-23T19:02:10.000Z</time>
      </trkpt>
      <trkpt lat="47.19371" lon="-1.42269">
        <ele>79.3</ele>
        <time>2012-07-23T19:02:13.000Z</time>
      </trkpt>
      <trkpt lat="47.19365" lon="-1.42258">
        <ele>75.2</ele>
        <time>2012-07-23T19:02:16.000Z</time>
      </trkpt>
      <trkpt lat="47.19359" lon="-1.42252">
        <ele>74.5</ele>
        <time>2012-07-23T19:02:19.000Z</time>
      </trkpt>
      <trkpt lat="47.19351" lon="-1.42246">
        <ele>73.3</ele>
        <time>2012-07-23T19:02:23.000Z</time>
      </trkpt>
      <trkpt lat="47.19346" lon="-1.42243">
        <ele>72.7</ele>
        <time>2012-07-23T19:02:25.000Z</time>
      </trkpt>
      <trkpt lat="47.19341" lon="-1.42236">
        <ele>73.1</ele>
        <time>2012-07-23T19:02:28.000Z</time>
      </trkpt>
      <trkpt lat="47.19337" lon="-1.42229">
        <ele>73.4</ele>
        <time>2012-07-23T19:02:31.000Z</time>
      </trkpt>
      <trkpt lat="47.19336" lon="-1.42221">
        <ele>79.1</ele>
        <time>2012-07-23T19:02:35.000Z</time>
      </trkpt>
      <trkpt lat="47.19329" lon="-1.42213">
        <ele>79.8</ele>
        <time>2012-07-23T19:02:38.000Z</time>
      </trkpt>
      <trkpt lat="47.19325" lon="-1.4221">
        <ele>78</ele>
        <time>2012-07-23T19:02:40.000Z</time>
      </trkpt>
      <trkpt lat="47.19319" lon="-1.42206">
        <ele>77.9</ele>
        <time>2012-07-23T19:02:42.000Z</time>
      </trkpt>
      <trkpt lat="47.19315" lon="-1.42201">
        <ele>78.6</ele>
        <time>2012-07-23T19:02:44.000Z</time>
      </trkpt>
      <trkpt lat="47.19308" lon="-1.42191">
        <ele>78.1</ele>
        <time>2012-07-23T19:02:48.000Z</time>
      </trkpt>
      <trkpt lat="47.19301" lon="-1.42183">
        <ele>79</ele>
        <time>2012-07-23T19:02:50.000Z</time>
      </trkpt>
      <trkpt lat="47.19297" lon="-1.42176">
        <ele>82.7</ele>
        <time>2012-07-23T19:02:53.000Z</time>
      </trkpt>
      <trkpt lat="47.19294" lon="-1.42172">
        <ele>83.4</ele>
        <time>2012-07-23T19:02:55.000Z</time>
      </trkpt>
      <trkpt lat="47.19289" lon="-1.42168">
        <ele>83.4</ele>
        <time>2012-07-23T19:02:57.000Z</time>
      </trkpt>
      <trkpt lat="47.19283" lon="-1.42162">
        <ele>84.2</ele>
        <time>2012-07-23T19:03:00.000Z</time>
      </trkpt>
      <trkpt lat="47.19277" lon="-1.42158">
        <ele>84.4</ele>
        <time>2012-07-23T19:03:02.000Z</time>
      </trkpt>
      <trkpt lat="47.19273" lon="-1.42156">
        <ele>85.5</ele>
        <time>2012-07-23T19:03:04.000Z</time>
      </trkpt>
      <trkpt lat="47.19267" lon="-1.4215">
        <ele>85.1</ele>
        <time>2012-07-23T19:03:07.000Z</time>
      </trkpt>
      <trkpt lat="47.19259" lon="-1.42143">
        <ele>82.9</ele>
        <time>2012-07-23T19:03:09.000Z</time>
      </trkpt>
      <trkpt lat="47.19251" lon="-1.42139">
        <ele>83</ele>
        <time>2012-07-23T19:03:11.000Z</time>
      </trkpt>
      <trkpt lat="47.19246" lon="-1.42138">
        <ele>83.1</ele>
        <time>2012-07-23T19:03:13.000Z</time>
      </trkpt>
      <trkpt lat="47.19242" lon="-1.42132">
        <ele>82.1</ele>
        <time>2012-07-23T19:03:16.000Z</time>
      </trkpt>
      <trkpt lat="47.19235" lon="-1.4213">
        <ele>83</ele>
        <time>2012-07-23T19:03:19.000Z</time>
      </trkpt>
      <trkpt lat="47.1923" lon="-1.42125">
        <ele>82.7</ele>
        <time>2012-07-23T19:03:22.000Z</time>
      </trkpt>
      <trkpt lat="47.19223" lon="-1.42119">
        <ele>83.2</ele>
        <time>2012-07-23T19:03:25.000Z</time>
      </trkpt>
      <trkpt lat="47.19219" lon="-1.42115">
        <ele>83.1</ele>
        <time>2012-07-23T19:03:27.000Z</time>
      </trkpt>
      <trkpt lat="47.19214" lon="-1.42111">
        <ele>83.7</ele>
        <time>2012-07-23T19:03:30.000Z</time>
      </trkpt>
      <trkpt lat="47.19208" lon="-1.42104">
        <ele>82.1</ele>
        <time>2012-07-23T19:03:34.000Z</time>
      </trkpt>
      <trkpt lat="47.19203" lon="-1.421">
        <ele>81.5</ele>
        <time>2012-07-23T19:03:36.000Z</time>
      </trkpt>
      <trkpt lat="47.19198" lon="-1.42094">
        <ele>81.8</ele>
        <time>2012-07-23T19:03:38.000Z</time>
      </trkpt>
      <trkpt lat="47.19195" lon="-1.4209">
        <ele>83.7</ele>
        <time>2012-07-23T19:03:40.000Z</time>
      </trkpt>
      <trkpt lat="47.19187" lon="-1.42084">
        <ele>82.8</ele>
        <time>2012-07-23T19:03:42.000Z</time>
      </trkpt>
      <trkpt lat="47.19179" lon="-1.42076">
        <ele>81.3</ele>
        <time>2012-07-23T19:03:47.000Z</time>
      </trkpt>
      <trkpt lat="47.19175" lon="-1.42072">
        <ele>81.2</ele>
        <time>2012-07-23T19:03:49.000Z</time>
      </trkpt>
      <trkpt lat="47.19172" lon="-1.42066">
        <ele>81.7</ele>
        <time>2012-07-23T19:03:51.000Z</time>
      </trkpt>
      <trkpt lat="47.19166" lon="-1.42061">
        <ele>81.2</ele>
        <time>2012-07-23T19:03:53.000Z</time>
      </trkpt>
      <trkpt lat="47.19162" lon="-1.42057">
        <ele>81.4</ele>
        <time>2012-07-23T19:03:55.000Z</time>
      </trkpt>
      <trkpt lat="47.19157" lon="-1.4205">
        <ele>83.1</ele>
        <time>2012-07-23T19:03:58.000Z</time>
      </trkpt>
      <trkpt lat="47.19153" lon="-1.42044">
        <ele>83.9</ele>
        <time>2012-07-23T19:04:00.000Z</time>
      </trkpt>
      <trkpt lat="47.19149" lon="-1.42037">
        <ele>81.3</ele>
        <time>2012-07-23T19:04:02.000Z</time>
      </trkpt>
      <trkpt lat="47.19145" lon="-1.42032">
        <ele>79.5</ele>
        <time>2012-07-23T19:04:05.000Z</time>
      </trkpt>
      <trkpt lat="47.19142" lon="-1.42023">
        <ele>80</ele>
        <time>2012-07-23T19:04:08.000Z</time>
      </trkpt>
      <trkpt lat="47.1914" lon="-1.42013">
        <ele>81.2</ele>
        <time>2012-07-23T19:04:11.000Z</time>
      </trkpt>
      <trkpt lat="47.19137" lon="-1.42004">
        <ele>81.9</ele>
        <time>2012-07-23T19:04:14.000Z</time>
      </trkpt>
      <trkpt lat="47.19134" lon="-1.41998">
        <ele>84.4</ele>
        <time>2012-07-23T19:04:16.000Z</time>
      </trkpt>
      <trkpt lat="47.1913" lon="-1.41991">
        <ele>80.9</ele>
        <time>2012-07-23T19:04:19.000Z</time>
      </trkpt>
      <trkpt lat="47.19128" lon="-1.41984">
        <ele>81.7</ele>
        <time>2012-07-23T19:04:21.000Z</time>
      </trkpt>
      <trkpt lat="47.19124" lon="-1.41977">
        <ele>81.4</ele>
        <time>2012-07-23T19:04:23.000Z</time>
      </trkpt>
      <trkpt lat="47.19121" lon="-1.41968">
        <ele>80</ele>
        <time>2012-07-23T19:04:26.000Z</time>
      </trkpt>
      <trkpt lat="47.19118" lon="-1.41959">
        <ele>84.1</ele>
        <time>2012-07-23T19:04:31.000Z</time>
      </trkpt>
      <trkpt lat="47.19113" lon="-1.41952">
        <ele>85.6</ele>
        <time>2012-07-23T19:04:32.000Z</time>
      </trkpt>
      <trkpt lat="47.19109" lon="-1.41944">
        <ele>86.9</ele>
        <time>2012-07-23T19:04:37.000Z</time>
      </trkpt>
      <trkpt lat="47.19106" lon="-1.41939">
        <ele>87.4</ele>
        <time>2012-07-23T19:04:39.000Z</time>
      </trkpt>
      <trkpt lat="47.19101" lon="-1.41933">
        <ele>86.8</ele>
        <time>2012-07-23T19:04:41.000Z</time>
      </trkpt>
      <trkpt lat="47.19098" lon="-1.41928">
        <ele>86</ele>
        <time>2012-07-23T19:04:43.000Z</time>
      </trkpt>
      <trkpt lat="47.19093" lon="-1.41926">
        <ele>85.8</ele>
        <time>2012-07-23T19:04:44.000Z</time>
      </trkpt>
      <trkpt lat="47.19088" lon="-1.41923">
        <ele>84.4</ele>
        <time>2012-07-23T19:04:44.000Z</time>
      </trkpt>
      <trkpt lat="47.19083" lon="-1.41913">
        <ele>81</ele>
        <time>2012-07-23T19:04:47.000Z</time>
      </trkpt>
      <trkpt lat="47.19078" lon="-1.41909">
        <ele>80.6</ele>
        <time>2012-07-23T19:04:49.000Z</time>
      </trkpt>
      <trkpt lat="47.19072" lon="-1.41907">
        <ele>80.6</ele>
        <time>2012-07-23T19:04:51.000Z</time>
      </trkpt>
      <trkpt lat="47.19066" lon="-1.41899">
        <ele>79.9</ele>
        <time>2012-07-23T19:04:55.000Z</time>
      </trkpt>
      <trkpt lat="47.19062" lon="-1.4189">
        <ele>79.6</ele>
        <time>2012-07-23T19:04:57.000Z</time>
      </trkpt>
      <trkpt lat="47.19056" lon="-1.41882">
        <ele>83.6</ele>
        <time>2012-07-23T19:05:01.000Z</time>
      </trkpt>
      <trkpt lat="47.1905" lon="-1.41876">
        <ele>78.8</ele>
        <time>2012-07-23T19:05:03.000Z</time>
      </trkpt>
      <trkpt lat="47.19046" lon="-1.41872">
        <ele>77.9</ele>
        <time>2012-07-23T19:05:05.000Z</time>
      </trkpt>
      <trkpt lat="47.19042" lon="-1.41867">
        <ele>78.4</ele>
        <time>2012-07-23T19:05:07.000Z</time>
      </trkpt>
      <trkpt lat="47.19035" lon="-1.4187">
        <ele>74.8</ele>
        <time>2012-07-23T19:05:09.000Z</time>
      </trkpt>
      <trkpt lat="47.19029" lon="-1.41865">
        <ele>75.8</ele>
        <time>2012-07-23T19:05:12.000Z</time>
      </trkpt>
      <trkpt lat="47.19024" lon="-1.41861">
        <ele>77.1</ele>
        <time>2012-07-23T19:05:14.000Z</time>
      </trkpt>
      <trkpt lat="47.19018" lon="-1.41852">
        <ele>79.4</ele>
        <time>2012-07-23T19:05:17.000Z</time>
      </trkpt>
      <trkpt lat="47.19013" lon="-1.41847">
        <ele>79.1</ele>
        <time>2012-07-23T19:05:19.000Z</time>
      </trkpt>
      <trkpt lat="47.19007" lon="-1.4184">
        <ele>77.9</ele>
        <time>2012-07-23T19:05:22.000Z</time>
      </trkpt>
      <trkpt lat="47.19001" lon="-1.41832">
        <ele>76</ele>
        <time>2012-07-23T19:05:26.000Z</time>
      </trkpt>
      <trkpt lat="47.18995" lon="-1.41828">
        <ele>75.8</ele>
        <time>2012-07-23T19:05:29.000Z</time>
      </trkpt>
      <trkpt lat="47.18989" lon="-1.41824">
        <ele>79</ele>
        <time>2012-07-23T19:05:32.000Z</time>
      </trkpt>
      <trkpt lat="47.18984" lon="-1.41818">
        <ele>81.1</ele>
        <time>2012-07-23T19:05:35.000Z</time>
      </trkpt>
      <trkpt lat="47.18976" lon="-1.41811">
        <ele>79.3</ele>
        <time>2012-07-23T19:05:38.000Z</time>
      </trkpt>
      <trkpt lat="47.1897" lon="-1.41808">
        <ele>82.6</ele>
        <time>2012-07-23T19:05:41.000Z</time>
      </trkpt>
      <trkpt lat="47.18965" lon="-1.41804">
        <ele>83.8</ele>
        <time>2012-07-23T19:05:44.000Z</time>
      </trkpt>
      <trkpt lat="47.18961" lon="-1.418">
        <ele>84.7</ele>
        <time>2012-07-23T19:05:46.000Z</time>
      </trkpt>
      <trkpt lat="47.18953" lon="-1.41798">
        <ele>88.2</ele>
        <time>2012-07-23T19:05:48.000Z</time>
      </trkpt>
      <trkpt lat="47.18948" lon="-1.41797">
        <ele>89.8</ele>
        <time>2012-07-23T19:05:50.000Z</time>
      </trkpt>
      <trkpt lat="47.18941" lon="-1.41794">
        <ele>92.1</ele>
        <time>2012-07-23T19:05:53.000Z</time>
      </trkpt>
      <trkpt lat="47.18936" lon="-1.4179">
        <ele>91.3</ele>
        <time>2012-07-23T19:05:55.000Z</time>
      </trkpt>
      <trkpt lat="47.18932" lon="-1.41786">
        <ele>91.9</ele>
        <time>2012-07-23T19:05:57.000Z</time>
      </trkpt>
      <trkpt lat="47.18927" lon="-1.4178">
        <ele>92.5</ele>
        <time>2012-07-23T19:06:00.000Z</time>
      </trkpt>
      <trkpt lat="47.18922" lon="-1.41777">
        <ele>91</ele>
        <time>2012-07-23T19:06:02.000Z</time>
      </trkpt>
      <trkpt lat="47.18917" lon="-1.41774">
        <ele>91.9</ele>
        <time>2012-07-23T19:06:05.000Z</time>
      </trkpt>
      <trkpt lat="47.18912" lon="-1.41769">
        <ele>91.7</ele>
        <time>2012-07-23T19:06:07.000Z</time>
      </trkpt>
      <trkpt lat="47.18908" lon="-1.41765">
        <ele>91</ele>
        <time>2012-07-23T19:06:10.000Z</time>
      </trkpt>
      <trkpt lat="47.18902" lon="-1.41763">
        <ele>90</ele>
        <time>2012-07-23T19:06:14.000Z</time>
      </trkpt>
      <trkpt lat="47.18895" lon="-1.41761">
        <ele>87.4</ele>
        <time>2012-07-23T19:06:19.000Z</time>
      </trkpt>
      <trkpt lat="47.1889" lon="-1.4176">
        <ele>86.2</ele>
        <time>2012-07-23T19:06:24.000Z</time>
      </trkpt>
      <trkpt lat="47.18885" lon="-1.41756">
        <ele>86.3</ele>
        <time>2012-07-23T19:06:28.000Z</time>
      </trkpt>
      <trkpt lat="47.18881" lon="-1.41751">
        <ele>86.7</ele>
        <time>2012-07-23T19:06:31.000Z</time>
      </trkpt>
      <trkpt lat="47.18876" lon="-1.41747">
        <ele>89</ele>
        <time>2012-07-23T19:06:35.000Z</time>
      </trkpt>
      <trkpt lat="47.18871" lon="-1.41743">
        <ele>87.9</ele>
        <time>2012-07-23T19:06:38.000Z</time>
      </trkpt>
      <trkpt lat="47.18866" lon="-1.4174">
        <ele>88.9</ele>
        <time>2012-07-23T19:06:41.000Z</time>
      </trkpt>
      <trkpt lat="47.18862" lon="-1.41737">
        <ele>89.8</ele>
        <time>2012-07-23T19:06:44.000Z</time>
      </trkpt>
      <trkpt lat="47.18856" lon="-1.41736">
        <ele>90.4</ele>
        <time>2012-07-23T19:06:47.000Z</time>
      </trkpt>
      <trkpt lat="47.18851" lon="-1.41734">
        <ele>91.6</ele>
        <time>2012-07-23T19:06:51.000Z</time>
      </trkpt>
      <trkpt lat="47.18846" lon="-1.41734">
        <ele>89.4</ele>
        <time>2012-07-23T19:06:54.000Z</time>
      </trkpt>
      <trkpt lat="47.1884" lon="-1.41734">
        <ele>87.4</ele>
        <time>2012-07-23T19:06:58.000Z</time>
      </trkpt>
      <trkpt lat="47.18835" lon="-1.41734">
        <ele>87.7</ele>
        <time>2012-07-23T19:07:01.000Z</time>
      </trkpt>
      <trkpt lat="47.1883" lon="-1.41732">
        <ele>89.8</ele>
        <time>2012-07-23T19:07:04.000Z</time>
      </trkpt>
      <trkpt lat="47.18825" lon="-1.41731">
        <ele>90.2</ele>
        <time>2012-07-23T19:07:07.000Z</time>
      </trkpt>
      <trkpt lat="47.18819" lon="-1.41734">
        <ele>90.5</ele>
        <time>2012-07-23T19:07:10.000Z</time>
      </trkpt>
      <trkpt lat="47.18815" lon="-1.41738">
        <ele>88.3</ele>
        <time>2012-07-23T19:07:16.000Z</time>
      </trkpt>
      <trkpt lat="47.1881" lon="-1.41736">
        <ele>88.6</ele>
        <time>2012-07-23T19:07:20.000Z</time>
      </trkpt>
      <trkpt lat="47.18806" lon="-1.41733">
        <ele>88.9</ele>
        <time>2012-07-23T19:07:23.000Z</time>
      </trkpt>
      <trkpt lat="47.18801" lon="-1.41734">
        <ele>88.6</ele>
        <time>2012-07-23T19:07:26.000Z</time>
      </trkpt>
      <trkpt lat="47.18796" lon="-1.41734">
        <ele>87.2</ele>
        <time>2012-07-23T19:07:30.000Z</time>
      </trkpt>
      <trkpt lat="47.18791" lon="-1.41733">
        <ele>86.3</ele>
        <time>2012-07-23T19:07:34.000Z</time>
      </trkpt>
      <trkpt lat="47.18786" lon="-1.41732">
        <ele>86.8</ele>
        <time>2012-07-23T19:07:37.000Z</time>
      </trkpt>
      <trkpt lat="47.18781" lon="-1.41732">
        <ele>84.8</ele>
        <time>2012-07-23T19:07:41.000Z</time>
      </trkpt>
      <trkpt lat="47.18776" lon="-1.41729">
        <ele>85.3</ele>
        <time>2012-07-23T19:07:45.000Z</time>
      </trkpt>
      <trkpt lat="47.18772" lon="-1.41728">
        <ele>85.4</ele>
        <time>2012-07-23T19:07:48.000Z</time>
      </trkpt>
      <trkpt lat="47.18766" lon="-1.41725">
        <ele>86.1</ele>
        <time>2012-07-23T19:07:52.000Z</time>
      </trkpt>
      <trkpt lat="47.1876" lon="-1.41722">
        <ele>87.6</ele>
        <time>2012-07-23T19:07:56.000Z</time>
      </trkpt>
      <trkpt lat="47.18755" lon="-1.41719">
        <ele>87.8</ele>
        <time>2012-07-23T19:08:00.000Z</time>
      </trkpt>
      <trkpt lat="47.18751" lon="-1.41716">
        <ele>88.1</ele>
        <time>2012-07-23T19:08:04.000Z</time>
      </trkpt>
      <trkpt lat="47.18746" lon="-1.41712">
        <ele>87.8</ele>
        <time>2012-07-23T19:08:07.000Z</time>
      </trkpt>
      <trkpt lat="47.18741" lon="-1.41711">
        <ele>86.8</ele>
        <time>2012-07-23T19:08:11.000Z</time>
      </trkpt>
      <trkpt lat="47.18736" lon="-1.41709">
        <ele>87.2</ele>
        <time>2012-07-23T19:08:15.000Z</time>
      </trkpt>
      <trkpt lat="47.18731" lon="-1.41706">
        <ele>87.5</ele>
        <time>2012-07-23T19:08:18.000Z</time>
      </trkpt>
      <trkpt lat="47.18726" lon="-1.41703">
        <ele>88.4</ele>
        <time>2012-07-23T19:08:22.000Z</time>
      </trkpt>
      <trkpt lat="47.18722" lon="-1.417">
        <ele>88.7</ele>
        <time>2012-07-23T19:08:26.000Z</time>
      </trkpt>
      <trkpt lat="47.18716" lon="-1.41697">
        <ele>87.4</ele>
        <time>2012-07-23T19:08:30.000Z</time>
      </trkpt>
      <trkpt lat="47.18712" lon="-1.41695">
        <ele>87.1</ele>
        <time>2012-07-23T19:08:33.000Z</time>
      </trkpt>
      <trkpt lat="47.18706" lon="-1.41692">
        <ele>87</ele>
        <time>2012-07-23T19:08:37.000Z</time>
      </trkpt>
      <trkpt lat="47.18704" lon="-1.41685">
        <ele>89</ele>
        <time>2012-07-23T19:08:40.000Z</time>
      </trkpt>
      <trkpt lat="47.187" lon="-1.4168">
        <ele>91.1</ele>
        <time>2012-07-23T19:08:44.000Z</time>
      </trkpt>
      <trkpt lat="47.18695" lon="-1.41678">
        <ele>91.2</ele>
        <time>2012-07-23T19:08:47.000Z</time>
      </trkpt>
      <trkpt lat="47.1869" lon="-1.41674">
        <ele>91.2</ele>
        <time>2012-07-23T19:08:49.000Z</time>
      </trkpt>
      <trkpt lat="47.18685" lon="-1.4167">
        <ele>90.4</ele>
        <time>2012-07-23T19:08:51.000Z</time>
      </trkpt>
      <trkpt lat="47.18681" lon="-1.41666">
        <ele>91.5</ele>
        <time>2012-07-23T19:08:53.000Z</time>
      </trkpt>
      <trkpt lat="47.18676" lon="-1.41663">
        <ele>93.3</ele>
        <time>2012-07-23T19:08:56.000Z</time>
      </trkpt>
      <trkpt lat="47.18669" lon="-1.41658">
        <ele>91.3</ele>
        <time>2012-07-23T19:08:58.000Z</time>
      </trkpt>
      <trkpt lat="47.18664" lon="-1.41656">
        <ele>92</ele>
        <time>2012-07-23T19:09:00.000Z</time>
      </trkpt>
      <trkpt lat="47.1866" lon="-1.41654">
        <ele>91.6</ele>
        <time>2012-07-23T19:09:02.000Z</time>
      </trkpt>
      <trkpt lat="47.18653" lon="-1.41646">
        <ele>91.7</ele>
        <time>2012-07-23T19:09:05.000Z</time>
      </trkpt>
      <trkpt lat="47.18645" lon="-1.4164">
        <ele>87.1</ele>
        <time>2012-07-23T19:09:09.000Z</time>
      </trkpt>
      <trkpt lat="47.18639" lon="-1.41632">
        <ele>86.8</ele>
        <time>2012-07-23T19:09:12.000Z</time>
      </trkpt>
      <trkpt lat="47.18636" lon="-1.41625">
        <ele>85.8</ele>
        <time>2012-07-23T19:09:15.000Z</time>
      </trkpt>
      <trkpt lat="47.18635" lon="-1.41614">
        <ele>86.2</ele>
        <time>2012-07-23T19:09:18.000Z</time>
      </trkpt>
      <trkpt lat="47.18636" lon="-1.41607">
        <ele>86.5</ele>
        <time>2012-07-23T19:09:20.000Z</time>
      </trkpt>
      <trkpt lat="47.18638" lon="-1.416">
        <ele>86.9</ele>
        <time>2012-07-23T19:09:22.000Z</time>
      </trkpt>
      <trkpt lat="47.18639" lon="-1.41593">
        <ele>87.5</ele>
        <time>2012-07-23T19:09:24.000Z</time>
      </trkpt>
      <trkpt lat="47.1864" lon="-1.41583">
        <ele>85.8</ele>
        <time>2012-07-23T19:09:27.000Z</time>
      </trkpt>
      <trkpt lat="47.1864" lon="-1.41576">
        <ele>85.8</ele>
        <time>2012-07-23T19:09:29.000Z</time>
      </trkpt>
      <trkpt lat="47.1864" lon="-1.41568">
        <ele>85.7</ele>
        <time>2012-07-23T19:09:31.000Z</time>
      </trkpt>
      <trkpt lat="47.18643" lon="-1.4156">
        <ele>84.5</ele>
        <time>2012-07-23T19:09:33.000Z</time>
      </trkpt>
      <trkpt lat="47.18644" lon="-1.41552">
        <ele>84.8</ele>
        <time>2012-07-23T19:09:35.000Z</time>
      </trkpt>
      <trkpt lat="47.18644" lon="-1.41545">
        <ele>85.8</ele>
        <time>2012-07-23T19:09:37.000Z</time>
      </trkpt>
      <trkpt lat="47.18643" lon="-1.41536">
        <ele>85.1</ele>
        <time>2012-07-23T19:09:39.000Z</time>
      </trkpt>
      <trkpt lat="47.18642" lon="-1.41525">
        <ele>84.6</ele>
        <time>2012-07-23T19:09:42.000Z</time>
      </trkpt>
      <trkpt lat="47.18641" lon="-1.41513">
        <ele>84.2</ele>
        <time>2012-07-23T19:09:45.000Z</time>
      </trkpt>
      <trkpt lat="47.18639" lon="-1.41506">
        <ele>86</ele>
        <time>2012-07-23T19:09:48.000Z</time>
      </trkpt>
      <trkpt lat="47.18636" lon="-1.41497">
        <ele>87.1</ele>
        <time>2012-07-23T19:09:51.000Z</time>
      </trkpt>
      <trkpt lat="47.18636" lon="-1.4149">
        <ele>87.5</ele>
        <time>2012-07-23T19:09:53.000Z</time>
      </trkpt>
      <trkpt lat="47.18636" lon="-1.41482">
        <ele>87.2</ele>
        <time>2012-07-23T19:09:55.000Z</time>
      </trkpt>
      <trkpt lat="47.18633" lon="-1.41475">
        <ele>86.2</ele>
        <time>2012-07-23T19:09:57.000Z</time>
      </trkpt>
      <trkpt lat="47.18632" lon="-1.41469">
        <ele>85.4</ele>
        <time>2012-07-23T19:09:59.000Z</time>
      </trkpt>
      <trkpt lat="47.18627" lon="-1.41462">
        <ele>85.6</ele>
        <time>2012-07-23T19:10:02.000Z</time>
      </trkpt>
      <trkpt lat="47.18624" lon="-1.41457">
        <ele>86.6</ele>
        <time>2012-07-23T19:10:04.000Z</time>
      </trkpt>
      <trkpt lat="47.1862" lon="-1.41451">
        <ele>84</ele>
        <time>2012-07-23T19:10:06.000Z</time>
      </trkpt>
      <trkpt lat="47.18616" lon="-1.41444">
        <ele>85.5</ele>
        <time>2012-07-23T19:10:08.000Z</time>
      </trkpt>
      <trkpt lat="47.1861" lon="-1.4144">
        <ele>84.8</ele>
        <time>2012-07-23T19:10:10.000Z</time>
      </trkpt>
      <trkpt lat="47.18604" lon="-1.41436">
        <ele>84.8</ele>
        <time>2012-07-23T19:10:12.000Z</time>
      </trkpt>
      <trkpt lat="47.18599" lon="-1.41432">
        <ele>84</ele>
        <time>2012-07-23T19:10:14.000Z</time>
      </trkpt>
      <trkpt lat="47.18594" lon="-1.41432">
        <ele>84.1</ele>
        <time>2012-07-23T19:10:16.000Z</time>
      </trkpt>
      <trkpt lat="47.18589" lon="-1.4143">
        <ele>83.9</ele>
        <time>2012-07-23T19:10:18.000Z</time>
      </trkpt>
      <trkpt lat="47.18584" lon="-1.41429">
        <ele>83.6</ele>
        <time>2012-07-23T19:10:20.000Z</time>
      </trkpt>
      <trkpt lat="47.1858" lon="-1.41427">
        <ele>82.5</ele>
        <time>2012-07-23T19:10:22.000Z</time>
      </trkpt>
      <trkpt lat="47.18575" lon="-1.41425">
        <ele>83.1</ele>
        <time>2012-07-23T19:10:24.000Z</time>
      </trkpt>
      <trkpt lat="47.1857" lon="-1.41424">
        <ele>82.4</ele>
        <time>2012-07-23T19:10:26.000Z</time>
      </trkpt>
      <trkpt lat="47.18564" lon="-1.41422">
        <ele>80.6</ele>
        <time>2012-07-23T19:10:28.000Z</time>
      </trkpt>
      <trkpt lat="47.18559" lon="-1.4142">
        <ele>79.1</ele>
        <time>2012-07-23T19:10:30.000Z</time>
      </trkpt>
      <trkpt lat="47.18553" lon="-1.41419">
        <ele>78.7</ele>
        <time>2012-07-23T19:10:32.000Z</time>
      </trkpt>
      <trkpt lat="47.18549" lon="-1.41418">
        <ele>78.4</ele>
        <time>2012-07-23T19:10:34.000Z</time>
      </trkpt>
      <trkpt lat="47.18543" lon="-1.41418">
        <ele>77.8</ele>
        <time>2012-07-23T19:10:36.000Z</time>
      </trkpt>
      <trkpt lat="47.18538" lon="-1.41417">
        <ele>78.1</ele>
        <time>2012-07-23T19:10:38.000Z</time>
      </trkpt>
      <trkpt lat="47.18533" lon="-1.41416">
        <ele>78.5</ele>
        <time>2012-07-23T19:10:40.000Z</time>
      </trkpt>
      <trkpt lat="47.18528" lon="-1.41412">
        <ele>77</ele>
        <time>2012-07-23T19:10:42.000Z</time>
      </trkpt>
      <trkpt lat="47.18522" lon="-1.4141">
        <ele>81</ele>
        <time>2012-07-23T19:10:44.000Z</time>
      </trkpt>
      <trkpt lat="47.18517" lon="-1.41407">
        <ele>81.1</ele>
        <time>2012-07-23T19:10:46.000Z</time>
      </trkpt>
      <trkpt lat="47.18512" lon="-1.41404">
        <ele>79.8</ele>
        <time>2012-07-23T19:10:48.000Z</time>
      </trkpt>
      <trkpt lat="47.18507" lon="-1.41402">
        <ele>79.3</ele>
        <time>2012-07-23T19:10:50.000Z</time>
      </trkpt>
      <trkpt lat="47.18501" lon="-1.41399">
        <ele>77.7</ele>
        <time>2012-07-23T19:10:53.000Z</time>
      </trkpt>
      <trkpt lat="47.18494" lon="-1.41396">
        <ele>77.9</ele>
        <time>2012-07-23T19:10:56.000Z</time>
      </trkpt>
      <trkpt lat="47.18489" lon="-1.41393">
        <ele>77.9</ele>
        <time>2012-07-23T19:10:59.000Z</time>
      </trkpt>
      <trkpt lat="47.18484" lon="-1.41391">
        <ele>77.2</ele>
        <time>2012-07-23T19:11:01.000Z</time>
      </trkpt>
      <trkpt lat="47.18478" lon="-1.4139">
        <ele>76</ele>
        <time>2012-07-23T19:11:04.000Z</time>
      </trkpt>
      <trkpt lat="47.18473" lon="-1.41388">
        <ele>76.5</ele>
        <time>2012-07-23T19:11:06.000Z</time>
      </trkpt>
      <trkpt lat="47.18468" lon="-1.41387">
        <ele>75.4</ele>
        <time>2012-07-23T19:11:08.000Z</time>
      </trkpt>
      <trkpt lat="47.18462" lon="-1.41386">
        <ele>76.7</ele>
        <time>2012-07-23T19:11:11.000Z</time>
      </trkpt>
      <trkpt lat="47.18457" lon="-1.41385">
        <ele>77.7</ele>
        <time>2012-07-23T19:11:13.000Z</time>
      </trkpt>
      <trkpt lat="47.18451" lon="-1.41384">
        <ele>77.7</ele>
        <time>2012-07-23T19:11:16.000Z</time>
      </trkpt>
      <trkpt lat="47.18446" lon="-1.41383">
        <ele>77.3</ele>
        <time>2012-07-23T19:11:18.000Z</time>
      </trkpt>
      <trkpt lat="47.18439" lon="-1.41382">
        <ele>78.2</ele>
        <time>2012-07-23T19:11:21.000Z</time>
      </trkpt>
      <trkpt lat="47.18434" lon="-1.41383">
        <ele>78.7</ele>
        <time>2012-07-23T19:11:23.000Z</time>
      </trkpt>
      <trkpt lat="47.1843" lon="-1.41383">
        <ele>79.6</ele>
        <time>2012-07-23T19:11:25.000Z</time>
      </trkpt>
      <trkpt lat="47.18425" lon="-1.41382">
        <ele>80.4</ele>
        <time>2012-07-23T19:11:27.000Z</time>
      </trkpt>
      <trkpt lat="47.1842" lon="-1.41382">
        <ele>80.6</ele>
        <time>2012-07-23T19:11:29.000Z</time>
      </trkpt>
      <trkpt lat="47.18415" lon="-1.41381">
        <ele>80.9</ele>
        <time>2012-07-23T19:11:33.000Z</time>
      </trkpt>
      <trkpt lat="47.18411" lon="-1.41381">
        <ele>81.3</ele>
        <time>2012-07-23T19:11:36.000Z</time>
      </trkpt>
      <trkpt lat="47.18406" lon="-1.41378">
        <ele>80.9</ele>
        <time>2012-07-23T19:11:40.000Z</time>
      </trkpt>
      <trkpt lat="47.18402" lon="-1.41374">
        <ele>80.6</ele>
        <time>2012-07-23T19:11:43.000Z</time>
      </trkpt>
      <trkpt lat="47.18397" lon="-1.41372">
        <ele>80.5</ele>
        <time>2012-07-23T19:11:46.000Z</time>
      </trkpt>
      <trkpt lat="47.18391" lon="-1.41368">
        <ele>80.9</ele>
        <time>2012-07-23T19:11:50.000Z</time>
      </trkpt>
      <trkpt lat="47.18387" lon="-1.41364">
        <ele>80.3</ele>
        <time>2012-07-23T19:11:53.000Z</time>
      </trkpt>
      <trkpt lat="47.18381" lon="-1.4136">
        <ele>77.7</ele>
        <time>2012-07-23T19:11:57.000Z</time>
      </trkpt>
      <trkpt lat="47.18376" lon="-1.41355">
        <ele>79</ele>
        <time>2012-07-23T19:12:00.000Z</time>
      </trkpt>
      <trkpt lat="47.18371" lon="-1.41352">
        <ele>76.7</ele>
        <time>2012-07-23T19:12:07.000Z</time>
      </trkpt>
      <trkpt lat="47.18366" lon="-1.41348">
        <ele>74.5</ele>
        <time>2012-07-23T19:12:11.000Z</time>
      </trkpt>
      <trkpt lat="47.18362" lon="-1.41345">
        <ele>74.2</ele>
        <time>2012-07-23T19:12:14.000Z</time>
      </trkpt>
      <trkpt lat="47.18357" lon="-1.4134">
        <ele>74.7</ele>
        <time>2012-07-23T19:12:17.000Z</time>
      </trkpt>
      <trkpt lat="47.18352" lon="-1.41338">
        <ele>74.7</ele>
        <time>2012-07-23T19:12:22.000Z</time>
      </trkpt>
      <trkpt lat="47.18347" lon="-1.41334">
        <ele>74.4</ele>
        <time>2012-07-23T19:12:27.000Z</time>
      </trkpt>
      <trkpt lat="47.18344" lon="-1.41329">
        <ele>74.7</ele>
        <time>2012-07-23T19:12:32.000Z</time>
      </trkpt>
      <trkpt lat="47.18339" lon="-1.41326">
        <ele>76.3</ele>
        <time>2012-07-23T19:12:37.000Z</time>
      </trkpt>
      <trkpt lat="47.18332" lon="-1.41322">
        <ele>75.5</ele>
        <time>2012-07-23T19:12:40.000Z</time>
      </trkpt>
      <trkpt lat="47.18327" lon="-1.41319">
        <ele>76.5</ele>
        <time>2012-07-23T19:12:43.000Z</time>
      </trkpt>
      <trkpt lat="47.18322" lon="-1.41317">
        <ele>77.7</ele>
        <time>2012-07-23T19:12:46.000Z</time>
      </trkpt>
      <trkpt lat="47.18317" lon="-1.41313">
        <ele>80</ele>
        <time>2012-07-23T19:12:49.000Z</time>
      </trkpt>
      <trkpt lat="47.18312" lon="-1.41312">
        <ele>80.5</ele>
        <time>2012-07-23T19:12:53.000Z</time>
      </trkpt>
      <trkpt lat="47.18307" lon="-1.4131">
        <ele>81.4</ele>
        <time>2012-07-23T19:12:56.000Z</time>
      </trkpt>
      <trkpt lat="47.18301" lon="-1.41308">
        <ele>81.1</ele>
        <time>2012-07-23T19:13:00.000Z</time>
      </trkpt>
      <trkpt lat="47.18296" lon="-1.41307">
        <ele>81.9</ele>
        <time>2012-07-23T19:13:03.000Z</time>
      </trkpt>
      <trkpt lat="47.18291" lon="-1.41305">
        <ele>82.4</ele>
        <time>2012-07-23T19:13:06.000Z</time>
      </trkpt>
      <trkpt lat="47.18286" lon="-1.41303">
        <ele>81.9</ele>
        <time>2012-07-23T19:13:10.000Z</time>
      </trkpt>
      <trkpt lat="47.18281" lon="-1.41302">
        <ele>82.1</ele>
        <time>2012-07-23T19:13:13.000Z</time>
      </trkpt>
      <trkpt lat="47.18275" lon="-1.41301">
        <ele>83.1</ele>
        <time>2012-07-23T19:13:17.000Z</time>
      </trkpt>
      <trkpt lat="47.1827" lon="-1.41299">
        <ele>82.1</ele>
        <time>2012-07-23T19:13:21.000Z</time>
      </trkpt>
      <trkpt lat="47.18264" lon="-1.41296">
        <ele>84.7</ele>
        <time>2012-07-23T19:13:24.000Z</time>
      </trkpt>
      <trkpt lat="47.18256" lon="-1.41293">
        <ele>84.9</ele>
        <time>2012-07-23T19:13:27.000Z</time>
      </trkpt>
      <trkpt lat="47.1825" lon="-1.41289">
        <ele>84</ele>
        <time>2012-07-23T19:13:29.000Z</time>
      </trkpt>
      <trkpt lat="47.18246" lon="-1.41288">
        <ele>84.8</ele>
        <time>2012-07-23T19:13:32.000Z</time>
      </trkpt>
      <trkpt lat="47.18241" lon="-1.41288">
        <ele>85.1</ele>
        <time>2012-07-23T19:13:34.000Z</time>
      </trkpt>
      <trkpt lat="47.18233" lon="-1.41283">
        <ele>82.4</ele>
        <time>2012-07-23T19:13:36.000Z</time>
      </trkpt>
      <trkpt lat="47.18227" lon="-1.41281">
        <ele>83.9</ele>
        <time>2012-07-23T19:13:39.000Z</time>
      </trkpt>
      <trkpt lat="47.18222" lon="-1.41279">
        <ele>85.1</ele>
        <time>2012-07-23T19:13:41.000Z</time>
      </trkpt>
      <trkpt lat="47.18217" lon="-1.41278">
        <ele>85.3</ele>
        <time>2012-07-23T19:13:43.000Z</time>
      </trkpt>
      <trkpt lat="47.18212" lon="-1.41276">
        <ele>84.9</ele>
        <time>2012-07-23T19:13:45.000Z</time>
      </trkpt>
      <trkpt lat="47.18206" lon="-1.41274">
        <ele>84.5</ele>
        <time>2012-07-23T19:13:48.000Z</time>
      </trkpt>
      <trkpt lat="47.18201" lon="-1.41273">
        <ele>83.1</ele>
        <time>2012-07-23T19:13:50.000Z</time>
      </trkpt>
      <trkpt lat="47.18196" lon="-1.41272">
        <ele>84.3</ele>
        <time>2012-07-23T19:13:52.000Z</time>
      </trkpt>
      <trkpt lat="47.1819" lon="-1.41271">
        <ele>83.8</ele>
        <time>2012-07-23T19:13:55.000Z</time>
      </trkpt>
      <trkpt lat="47.18185" lon="-1.41268">
        <ele>84.4</ele>
        <time>2012-07-23T19:13:56.000Z</time>
      </trkpt>
      <trkpt lat="47.18181" lon="-1.41269">
        <ele>84.2</ele>
        <time>2012-07-23T19:13:58.000Z</time>
      </trkpt>
      <trkpt lat="47.18174" lon="-1.41268">
        <ele>83.5</ele>
        <time>2012-07-23T19:14:01.000Z</time>
      </trkpt>
      <trkpt lat="47.18169" lon="-1.41265">
        <ele>85.6</ele>
        <time>2012-07-23T19:14:04.000Z</time>
      </trkpt>
      <trkpt lat="47.18164" lon="-1.4126">
        <ele>88.4</ele>
        <time>2012-07-23T19:14:07.000Z</time>
      </trkpt>
      <trkpt lat="47.18157" lon="-1.41258">
        <ele>88</ele>
        <time>2012-07-23T19:14:10.000Z</time>
      </trkpt>
      <trkpt lat="47.18152" lon="-1.41255">
        <ele>88.9</ele>
        <time>2012-07-23T19:14:14.000Z</time>
      </trkpt>
      <trkpt lat="47.18146" lon="-1.4125">
        <ele>88.3</ele>
        <time>2012-07-23T19:14:16.000Z</time>
      </trkpt>
      <trkpt lat="47.18143" lon="-1.41245">
        <ele>88.5</ele>
        <time>2012-07-23T19:14:19.000Z</time>
      </trkpt>
      <trkpt lat="47.1814" lon="-1.4124">
        <ele>87.6</ele>
        <time>2012-07-23T19:14:22.000Z</time>
      </trkpt>
      <trkpt lat="47.18133" lon="-1.41232">
        <ele>83.8</ele>
        <time>2012-07-23T19:14:46.000Z</time>
      </trkpt>
      <trkpt lat="47.1813" lon="-1.41224">
        <ele>84.3</ele>
        <time>2012-07-23T19:14:49.000Z</time>
      </trkpt>
      <trkpt lat="47.18128" lon="-1.41216">
        <ele>83.9</ele>
        <time>2012-07-23T19:14:52.000Z</time>
      </trkpt>
      <trkpt lat="47.18125" lon="-1.41211">
        <ele>84.1</ele>
        <time>2012-07-23T19:14:55.000Z</time>
      </trkpt>
      <trkpt lat="47.18123" lon="-1.41205">
        <ele>84.2</ele>
        <time>2012-07-23T19:14:58.000Z</time>
      </trkpt>
      <trkpt lat="47.1812" lon="-1.41197">
        <ele>83.9</ele>
        <time>2012-07-23T19:15:01.000Z</time>
      </trkpt>
      <trkpt lat="47.18119" lon="-1.4119">
        <ele>83.4</ele>
        <time>2012-07-23T19:15:04.000Z</time>
      </trkpt>
      <trkpt lat="47.18117" lon="-1.41182">
        <ele>82.5</ele>
        <time>2012-07-23T19:15:08.000Z</time>
      </trkpt>
      <trkpt lat="47.18116" lon="-1.41175">
        <ele>83</ele>
        <time>2012-07-23T19:15:11.000Z</time>
      </trkpt>
      <trkpt lat="47.18114" lon="-1.41167">
        <ele>81.3</ele>
        <time>2012-07-23T19:15:14.000Z</time>
      </trkpt>
      <trkpt lat="47.18112" lon="-1.4116">
        <ele>81.7</ele>
        <time>2012-07-23T19:15:17.000Z</time>
      </trkpt>
      <trkpt lat="47.1811" lon="-1.41152">
        <ele>81.1</ele>
        <time>2012-07-23T19:15:21.000Z</time>
      </trkpt>
      <trkpt lat="47.18108" lon="-1.41146">
        <ele>81.5</ele>
        <time>2012-07-23T19:15:24.000Z</time>
      </trkpt>
      <trkpt lat="47.18109" lon="-1.41138">
        <ele>82.9</ele>
        <time>2012-07-23T19:15:27.000Z</time>
      </trkpt>
      <trkpt lat="47.18108" lon="-1.41131">
        <ele>85.3</ele>
        <time>2012-07-23T19:15:30.000Z</time>
      </trkpt>
      <trkpt lat="47.18108" lon="-1.41123">
        <ele>85.2</ele>
        <time>2012-07-23T19:15:35.000Z</time>
      </trkpt>
      <trkpt lat="47.1811" lon="-1.41117">
        <ele>85.8</ele>
        <time>2012-07-23T19:15:38.000Z</time>
      </trkpt>
      <trkpt lat="47.18108" lon="-1.41109">
        <ele>84.5</ele>
        <time>2012-07-23T19:15:41.000Z</time>
      </trkpt>
      <trkpt lat="47.18107" lon="-1.41102">
        <ele>85.4</ele>
        <time>2012-07-23T19:15:44.000Z</time>
      </trkpt>
      <trkpt lat="47.18106" lon="-1.41094">
        <ele>84.1</ele>
        <time>2012-07-23T19:15:47.000Z</time>
      </trkpt>
      <trkpt lat="47.18105" lon="-1.41088">
        <ele>85.1</ele>
        <time>2012-07-23T19:15:50.000Z</time>
      </trkpt>
      <trkpt lat="47.18105" lon="-1.41081">
        <ele>84.6</ele>
        <time>2012-07-23T19:15:53.000Z</time>
      </trkpt>
      <trkpt lat="47.18108" lon="-1.41073">
        <ele>84.4</ele>
        <time>2012-07-23T19:15:57.000Z</time>
      </trkpt>
      <trkpt lat="47.18113" lon="-1.41069">
        <ele>83.5</ele>
        <time>2012-07-23T19:16:03.000Z</time>
      </trkpt>
      <trkpt lat="47.18117" lon="-1.41065">
        <ele>83</ele>
        <time>2012-07-23T19:16:07.000Z</time>
      </trkpt>
      <trkpt lat="47.1812" lon="-1.4106">
        <ele>83.1</ele>
        <time>2012-07-23T19:16:11.000Z</time>
      </trkpt>
      <trkpt lat="47.18122" lon="-1.41052">
        <ele>83</ele>
        <time>2012-07-23T19:16:15.000Z</time>
      </trkpt>
      <trkpt lat="47.18123" lon="-1.41044">
        <ele>83.7</ele>
        <time>2012-07-23T19:16:19.000Z</time>
      </trkpt>
      <trkpt lat="47.18121" lon="-1.41036">
        <ele>83.7</ele>
        <time>2012-07-23T19:16:23.000Z</time>
      </trkpt>
      <trkpt lat="47.1812" lon="-1.41028">
        <ele>84.5</ele>
        <time>2012-07-23T19:16:27.000Z</time>
      </trkpt>
      <trkpt lat="47.1812" lon="-1.41021">
        <ele>85.3</ele>
        <time>2012-07-23T19:16:32.000Z</time>
      </trkpt>
      <trkpt lat="47.18118" lon="-1.41014">
        <ele>84.3</ele>
        <time>2012-07-23T19:16:36.000Z</time>
      </trkpt>
      <trkpt lat="47.18116" lon="-1.41006">
        <ele>86.2</ele>
        <time>2012-07-23T19:16:39.000Z</time>
      </trkpt>
      <trkpt lat="47.18116" lon="-1.40998">
        <ele>85.7</ele>
        <time>2012-07-23T19:16:43.000Z</time>
      </trkpt>
      <trkpt lat="47.18115" lon="-1.40991">
        <ele>86.9</ele>
        <time>2012-07-23T19:16:46.000Z</time>
      </trkpt>
      <trkpt lat="47.18112" lon="-1.40984">
        <ele>87.8</ele>
        <time>2012-07-23T19:16:50.000Z</time>
      </trkpt>
      <trkpt lat="47.18113" lon="-1.40975">
        <ele>86.5</ele>
        <time>2012-07-23T19:16:54.000Z</time>
      </trkpt>
      <trkpt lat="47.18116" lon="-1.40969">
        <ele>85.8</ele>
        <time>2012-07-23T19:16:56.000Z</time>
      </trkpt>
      <trkpt lat="47.18109" lon="-1.40965">
        <ele>85.1</ele>
        <time>2012-07-23T19:16:58.000Z</time>
      </trkpt>
      <trkpt lat="47.18108" lon="-1.40958">
        <ele>85.8</ele>
        <time>2012-07-23T19:17:00.000Z</time>
      </trkpt>
      <trkpt lat="47.18105" lon="-1.40951">
        <ele>85.7</ele>
        <time>2012-07-23T19:17:05.000Z</time>
      </trkpt>
      <trkpt lat="47.18105" lon="-1.40944">
        <ele>87.2</ele>
        <time>2012-07-23T19:17:07.000Z</time>
      </trkpt>
      <trkpt lat="47.18102" lon="-1.40939">
        <ele>88.2</ele>
        <time>2012-07-23T19:17:10.000Z</time>
      </trkpt>
      <trkpt lat="47.18102" lon="-1.40932">
        <ele>90.7</ele>
        <time>2012-07-23T19:17:13.000Z</time>
      </trkpt>
      <trkpt lat="47.18098" lon="-1.40926">
        <ele>88.4</ele>
        <time>2012-07-23T19:17:17.000Z</time>
      </trkpt>
      <trkpt lat="47.18097" lon="-1.40918">
        <ele>89.7</ele>
        <time>2012-07-23T19:17:21.000Z</time>
      </trkpt>
      <trkpt lat="47.18095" lon="-1.40911">
        <ele>88.5</ele>
        <time>2012-07-23T19:17:24.000Z</time>
      </trkpt>
      <trkpt lat="47.18093" lon="-1.40903">
        <ele>89.6</ele>
        <time>2012-07-23T19:17:27.000Z</time>
      </trkpt>
      <trkpt lat="47.18091" lon="-1.40895">
        <ele>90.8</ele>
        <time>2012-07-23T19:17:30.000Z</time>
      </trkpt>
      <trkpt lat="47.1809" lon="-1.40887">
        <ele>91</ele>
        <time>2012-07-23T19:17:42.000Z</time>
      </trkpt>
      <trkpt lat="47.18088" lon="-1.40879">
        <ele>90.5</ele>
        <time>2012-07-23T19:17:46.000Z</time>
      </trkpt>
      <trkpt lat="47.18086" lon="-1.40871">
        <ele>88.4</ele>
        <time>2012-07-23T19:17:52.000Z</time>
      </trkpt>
      <trkpt lat="47.18083" lon="-1.40863">
        <ele>88.1</ele>
        <time>2012-07-23T19:17:55.000Z</time>
      </trkpt>
      <trkpt lat="47.18082" lon="-1.40856">
        <ele>90.2</ele>
        <time>2012-07-23T19:17:59.000Z</time>
      </trkpt>
      <trkpt lat="47.18078" lon="-1.40852">
        <ele>90.2</ele>
        <time>2012-07-23T19:18:02.000Z</time>
      </trkpt>
      <trkpt lat="47.18076" lon="-1.40845">
        <ele>89.7</ele>
        <time>2012-07-23T19:18:06.000Z</time>
      </trkpt>
      <trkpt lat="47.18074" lon="-1.40838">
        <ele>90.3</ele>
        <time>2012-07-23T19:18:10.000Z</time>
      </trkpt>
      <trkpt lat="47.18072" lon="-1.40831">
        <ele>91.4</ele>
        <time>2012-07-23T19:18:24.000Z</time>
      </trkpt>
      <trkpt lat="47.1807" lon="-1.40824">
        <ele>91.3</ele>
        <time>2012-07-23T19:18:27.000Z</time>
      </trkpt>
      <trkpt lat="47.1807" lon="-1.40816">
        <ele>90.3</ele>
        <time>2012-07-23T19:18:31.000Z</time>
      </trkpt>
      <trkpt lat="47.18067" lon="-1.40809">
        <ele>91.7</ele>
        <time>2012-07-23T19:18:36.000Z</time>
      </trkpt>
      <trkpt lat="47.18064" lon="-1.40802">
        <ele>90.8</ele>
        <time>2012-07-23T19:18:40.000Z</time>
      </trkpt>
      <trkpt lat="47.18061" lon="-1.40796">
        <ele>90.9</ele>
        <time>2012-07-23T19:18:43.000Z</time>
      </trkpt>
      <trkpt lat="47.1806" lon="-1.40789">
        <ele>91.2</ele>
        <time>2012-07-23T19:18:52.000Z</time>
      </trkpt>
      <trkpt lat="47.18057" lon="-1.40782">
        <ele>91.8</ele>
        <time>2012-07-23T19:18:57.000Z</time>
      </trkpt>
      <trkpt lat="47.18055" lon="-1.40773">
        <ele>91</ele>
        <time>2012-07-23T19:19:01.000Z</time>
      </trkpt>
      <trkpt lat="47.18054" lon="-1.40766">
        <ele>90.4</ele>
        <time>2012-07-23T19:19:05.000Z</time>
      </trkpt>
      <trkpt lat="47.1805" lon="-1.40759">
        <ele>89.6</ele>
        <time>2012-07-23T19:19:09.000Z</time>
      </trkpt>
      <trkpt lat="47.18048" lon="-1.40752">
        <ele>89.6</ele>
        <time>2012-07-23T19:19:12.000Z</time>
      </trkpt>
      <trkpt lat="47.18045" lon="-1.40746">
        <ele>91.4</ele>
        <time>2012-07-23T19:19:17.000Z</time>
      </trkpt>
      <trkpt lat="47.18044" lon="-1.40737">
        <ele>91.5</ele>
        <time>2012-07-23T19:19:20.000Z</time>
      </trkpt>
      <trkpt lat="47.18042" lon="-1.4073">
        <ele>92.3</ele>
        <time>2012-07-23T19:19:24.000Z</time>
      </trkpt>
      <trkpt lat="47.1804" lon="-1.40723">
        <ele>91.6</ele>
        <time>2012-07-23T19:19:27.000Z</time>
      </trkpt>
      <trkpt lat="47.18038" lon="-1.40716">
        <ele>92</ele>
        <time>2012-07-23T19:19:30.000Z</time>
      </trkpt>
      <trkpt lat="47.18036" lon="-1.40708">
        <ele>93.4</ele>
        <time>2012-07-23T19:19:33.000Z</time>
      </trkpt>
      <trkpt lat="47.18034" lon="-1.40701">
        <ele>91.1</ele>
        <time>2012-07-23T19:19:35.000Z</time>
      </trkpt>
      <trkpt lat="47.18033" lon="-1.40692">
        <ele>90.2</ele>
        <time>2012-07-23T19:19:38.000Z</time>
      </trkpt>
      <trkpt lat="47.1803" lon="-1.40685">
        <ele>89.4</ele>
        <time>2012-07-23T19:19:40.000Z</time>
      </trkpt>
      <trkpt lat="47.18027" lon="-1.40678">
        <ele>87.2</ele>
        <time>2012-07-23T19:19:42.000Z</time>
      </trkpt>
      <trkpt lat="47.18026" lon="-1.4067">
        <ele>85.2</ele>
        <time>2012-07-23T19:19:44.000Z</time>
      </trkpt>
      <trkpt lat="47.18023" lon="-1.40661">
        <ele>86.7</ele>
        <time>2012-07-23T19:19:47.000Z</time>
      </trkpt>
      <trkpt lat="47.18021" lon="-1.4065">
        <ele>88.9</ele>
        <time>2012-07-23T19:19:50.000Z</time>
      </trkpt>
      <trkpt lat="47.18018" lon="-1.40643">
        <ele>88.5</ele>
        <time>2012-07-23T19:19:53.000Z</time>
      </trkpt>
      <trkpt lat="47.1802" lon="-1.40634">
        <ele>90.2</ele>
        <time>2012-07-23T19:19:56.000Z</time>
      </trkpt>
      <trkpt lat="47.18022" lon="-1.40627">
        <ele>90.7</ele>
        <time>2012-07-23T19:19:58.000Z</time>
      </trkpt>
      <trkpt lat="47.18026" lon="-1.40622">
        <ele>89.1</ele>
        <time>2012-07-23T19:20:00.000Z</time>
      </trkpt>
      <trkpt lat="47.18029" lon="-1.40617">
        <ele>88.4</ele>
        <time>2012-07-23T19:20:02.000Z</time>
      </trkpt>
      <trkpt lat="47.18034" lon="-1.40612">
        <ele>87</ele>
        <time>2012-07-23T19:20:05.000Z</time>
      </trkpt>
      <trkpt lat="47.18039" lon="-1.40607">
        <ele>86.1</ele>
        <time>2012-07-23T19:20:08.000Z</time>
      </trkpt>
      <trkpt lat="47.18044" lon="-1.40604">
        <ele>86.8</ele>
        <time>2012-07-23T19:20:10.000Z</time>
      </trkpt>
      <trkpt lat="47.18049" lon="-1.40597">
        <ele>86.3</ele>
        <time>2012-07-23T19:20:13.000Z</time>
      </trkpt>
      <trkpt lat="47.18052" lon="-1.40587">
        <ele>83.9</ele>
        <time>2012-07-23T19:20:42.000Z</time>
      </trkpt>
      <trkpt lat="47.18056" lon="-1.40584">
        <ele>84.6</ele>
        <time>2012-07-23T19:20:44.000Z</time>
      </trkpt>
      <trkpt lat="47.18061" lon="-1.4058">
        <ele>84.8</ele>
        <time>2012-07-23T19:20:47.000Z</time>
      </trkpt>
      <trkpt lat="47.18065" lon="-1.40577">
        <ele>85</ele>
        <time>2012-07-23T19:20:50.000Z</time>
      </trkpt>
      <trkpt lat="47.1807" lon="-1.40573">
        <ele>86.5</ele>
        <time>2012-07-23T19:20:54.000Z</time>
      </trkpt>
      <trkpt lat="47.18075" lon="-1.40571">
        <ele>86.7</ele>
        <time>2012-07-23T19:20:57.000Z</time>
      </trkpt>
      <trkpt lat="47.1808" lon="-1.40568">
        <ele>85.9</ele>
        <time>2012-07-23T19:21:01.000Z</time>
      </trkpt>
      <trkpt lat="47.18086" lon="-1.40565">
        <ele>85.7</ele>
        <time>2012-07-23T19:21:05.000Z</time>
      </trkpt>
      <trkpt lat="47.18091" lon="-1.40562">
        <ele>86.6</ele>
        <time>2012-07-23T19:21:09.000Z</time>
      </trkpt>
      <trkpt lat="47.18096" lon="-1.4056">
        <ele>85.9</ele>
        <time>2012-07-23T19:21:13.000Z</time>
      </trkpt>
      <trkpt lat="47.181" lon="-1.40555">
        <ele>85.3</ele>
        <time>2012-07-23T19:21:17.000Z</time>
      </trkpt>
      <trkpt lat="47.18104" lon="-1.40551">
        <ele>84.8</ele>
        <time>2012-07-23T19:21:20.000Z</time>
      </trkpt>
      <trkpt lat="47.18108" lon="-1.40548">
        <ele>84.6</ele>
        <time>2012-07-23T19:21:23.000Z</time>
      </trkpt>
      <trkpt lat="47.18112" lon="-1.40545">
        <ele>84.2</ele>
        <time>2012-07-23T19:21:26.000Z</time>
      </trkpt>
      <trkpt lat="47.18116" lon="-1.40542">
        <ele>83.9</ele>
        <time>2012-07-23T19:21:29.000Z</time>
      </trkpt>
      <trkpt lat="47.1812" lon="-1.40538">
        <ele>83.5</ele>
        <time>2012-07-23T19:21:32.000Z</time>
      </trkpt>
      <trkpt lat="47.18124" lon="-1.40534">
        <ele>83.6</ele>
        <time>2012-07-23T19:21:35.000Z</time>
      </trkpt>
      <trkpt lat="47.18128" lon="-1.40531">
        <ele>84.1</ele>
        <time>2012-07-23T19:21:38.000Z</time>
      </trkpt>
      <trkpt lat="47.18135" lon="-1.40524">
        <ele>83.1</ele>
        <time>2012-07-23T19:21:43.000Z</time>
      </trkpt>
      <trkpt lat="47.18138" lon="-1.40518">
        <ele>82.4</ele>
        <time>2012-07-23T19:21:46.000Z</time>
      </trkpt>
      <trkpt lat="47.18142" lon="-1.40514">
        <ele>82.7</ele>
        <time>2012-07-23T19:21:49.000Z</time>
      </trkpt>
      <trkpt lat="47.18148" lon="-1.40512">
        <ele>81.4</ele>
        <time>2012-07-23T19:21:54.000Z</time>
      </trkpt>
      <trkpt lat="47.1815" lon="-1.40505">
        <ele>80.5</ele>
        <time>2012-07-23T19:21:58.000Z</time>
      </trkpt>
      <trkpt lat="47.18152" lon="-1.40497">
        <ele>81.5</ele>
        <time>2012-07-23T19:22:05.000Z</time>
      </trkpt>
      <trkpt lat="47.18153" lon="-1.40491">
        <ele>81.1</ele>
        <time>2012-07-23T19:22:08.000Z</time>
      </trkpt>
      <trkpt lat="47.18154" lon="-1.40482">
        <ele>80.8</ele>
        <time>2012-07-23T19:22:12.000Z</time>
      </trkpt>
      <trkpt lat="47.18152" lon="-1.40474">
        <ele>80</ele>
        <time>2012-07-23T19:22:16.000Z</time>
      </trkpt>
      <trkpt lat="47.1815" lon="-1.40468">
        <ele>79.8</ele>
        <time>2012-07-23T19:22:22.000Z</time>
      </trkpt>
      <trkpt lat="47.18146" lon="-1.40461">
        <ele>81.2</ele>
        <time>2012-07-23T19:22:26.000Z</time>
      </trkpt>
      <trkpt lat="47.1814" lon="-1.40457">
        <ele>81.3</ele>
        <time>2012-07-23T19:22:31.000Z</time>
      </trkpt>
      <trkpt lat="47.18136" lon="-1.40453">
        <ele>80.7</ele>
        <time>2012-07-23T19:22:35.000Z</time>
      </trkpt>
      <trkpt lat="47.18131" lon="-1.40448">
        <ele>78.5</ele>
        <time>2012-07-23T19:22:40.000Z</time>
      </trkpt>
      <trkpt lat="47.18126" lon="-1.40443">
        <ele>80.3</ele>
        <time>2012-07-23T19:22:45.000Z</time>
      </trkpt>
      <trkpt lat="47.18122" lon="-1.40442">
        <ele>79.3</ele>
        <time>2012-07-23T19:22:48.000Z</time>
      </trkpt>
      <trkpt lat="47.18117" lon="-1.40439">
        <ele>78.9</ele>
        <time>2012-07-23T19:22:51.000Z</time>
      </trkpt>
      <trkpt lat="47.18114" lon="-1.40434">
        <ele>78.8</ele>
        <time>2012-07-23T19:22:54.000Z</time>
      </trkpt>
      <trkpt lat="47.1811" lon="-1.4043">
        <ele>79.3</ele>
        <time>2012-07-23T19:22:58.000Z</time>
      </trkpt>
      <trkpt lat="47.18105" lon="-1.40426">
        <ele>79.1</ele>
        <time>2012-07-23T19:23:01.000Z</time>
      </trkpt>
      <trkpt lat="47.181" lon="-1.40424">
        <ele>78.9</ele>
        <time>2012-07-23T19:23:05.000Z</time>
      </trkpt>
      <trkpt lat="47.18096" lon="-1.40419">
        <ele>79.9</ele>
        <time>2012-07-23T19:23:08.000Z</time>
      </trkpt>
      <trkpt lat="47.18091" lon="-1.40416">
        <ele>78.3</ele>
        <time>2012-07-23T19:23:11.000Z</time>
      </trkpt>
      <trkpt lat="47.18087" lon="-1.40412">
        <ele>77.9</ele>
        <time>2012-07-23T19:23:14.000Z</time>
      </trkpt>
      <trkpt lat="47.18083" lon="-1.40406">
        <ele>75.5</ele>
        <time>2012-07-23T19:23:19.000Z</time>
      </trkpt>
      <trkpt lat="47.18077" lon="-1.40404">
        <ele>81.6</ele>
        <time>2012-07-23T19:23:24.000Z</time>
      </trkpt>
      <trkpt lat="47.18073" lon="-1.40399">
        <ele>80.6</ele>
        <time>2012-07-23T19:23:29.000Z</time>
      </trkpt>
      <trkpt lat="47.18069" lon="-1.40394">
        <ele>80.3</ele>
        <time>2012-07-23T19:23:33.000Z</time>
      </trkpt>
      <trkpt lat="47.18064" lon="-1.4039">
        <ele>80.1</ele>
        <time>2012-07-23T19:23:37.000Z</time>
      </trkpt>
      <trkpt lat="47.1806" lon="-1.40386">
        <ele>80.4</ele>
        <time>2012-07-23T19:23:41.000Z</time>
      </trkpt>
      <trkpt lat="47.18056" lon="-1.40381">
        <ele>79.9</ele>
        <time>2012-07-23T19:23:46.000Z</time>
      </trkpt>
      <trkpt lat="47.18051" lon="-1.40377">
        <ele>80</ele>
        <time>2012-07-23T19:23:50.000Z</time>
      </trkpt>
      <trkpt lat="47.18046" lon="-1.40374">
        <ele>80.2</ele>
        <time>2012-07-23T19:23:54.000Z</time>
      </trkpt>
      <trkpt lat="47.18041" lon="-1.40372">
        <ele>80.3</ele>
        <time>2012-07-23T19:23:58.000Z</time>
      </trkpt>
      <trkpt lat="47.18036" lon="-1.40371">
        <ele>80.5</ele>
        <time>2012-07-23T19:24:02.000Z</time>
      </trkpt>
      <trkpt lat="47.1803" lon="-1.40368">
        <ele>79.5</ele>
        <time>2012-07-23T19:24:06.000Z</time>
      </trkpt>
      <trkpt lat="47.18025" lon="-1.4037">
        <ele>78.7</ele>
        <time>2012-07-23T19:24:11.000Z</time>
      </trkpt>
      <trkpt lat="47.18018" lon="-1.40369">
        <ele>78.7</ele>
        <time>2012-07-23T19:24:19.000Z</time>
      </trkpt>
      <trkpt lat="47.18012" lon="-1.40368">
        <ele>79.1</ele>
        <time>2012-07-23T19:24:23.000Z</time>
      </trkpt>
      <trkpt lat="47.18006" lon="-1.40368">
        <ele>79.8</ele>
        <time>2012-07-23T19:24:26.000Z</time>
      </trkpt>
      <trkpt lat="47.18002" lon="-1.40368">
        <ele>79.8</ele>
        <time>2012-07-23T19:24:32.000Z</time>
      </trkpt>
      <trkpt lat="47.17997" lon="-1.40366">
        <ele>80.2</ele>
        <time>2012-07-23T19:24:35.000Z</time>
      </trkpt>
      <trkpt lat="47.17991" lon="-1.40364">
        <ele>78.4</ele>
        <time>2012-07-23T19:24:40.000Z</time>
      </trkpt>
      <trkpt lat="47.17985" lon="-1.40363">
        <ele>77.9</ele>
        <time>2012-07-23T19:24:45.000Z</time>
      </trkpt>
      <trkpt lat="47.1798" lon="-1.40358">
        <ele>74.6</ele>
        <time>2012-07-23T19:24:50.000Z</time>
      </trkpt>
      <trkpt lat="47.17974" lon="-1.40357">
        <ele>76.6</ele>
        <time>2012-07-23T19:24:55.000Z</time>
      </trkpt>
      <trkpt lat="47.1797" lon="-1.40358">
        <ele>79</ele>
        <time>2012-07-23T19:24:59.000Z</time>
      </trkpt>
      <trkpt lat="47.17965" lon="-1.40358">
        <ele>80.3</ele>
        <time>2012-07-23T19:25:03.000Z</time>
      </trkpt>
      <trkpt lat="47.17959" lon="-1.40356">
        <ele>80.4</ele>
        <time>2012-07-23T19:25:08.000Z</time>
      </trkpt>
      <trkpt lat="47.17954" lon="-1.40354">
        <ele>80</ele>
        <time>2012-07-23T19:25:11.000Z</time>
      </trkpt>
      <trkpt lat="47.1795" lon="-1.40352">
        <ele>77.3</ele>
        <time>2012-07-23T19:25:33.000Z</time>
      </trkpt>
      <trkpt lat="47.17944" lon="-1.40349">
        <ele>77.2</ele>
        <time>2012-07-23T19:25:38.000Z</time>
      </trkpt>
      <trkpt lat="47.17939" lon="-1.40346">
        <ele>78.4</ele>
        <time>2012-07-23T19:25:42.000Z</time>
      </trkpt>
      <trkpt lat="47.17934" lon="-1.40346">
        <ele>78.8</ele>
        <time>2012-07-23T19:25:45.000Z</time>
      </trkpt>
      <trkpt lat="47.1793" lon="-1.40343">
        <ele>78.3</ele>
        <time>2012-07-23T19:25:50.000Z</time>
      </trkpt>
      <trkpt lat="47.17925" lon="-1.40339">
        <ele>78</ele>
        <time>2012-07-23T19:25:53.000Z</time>
      </trkpt>
      <trkpt lat="47.1792" lon="-1.40337">
        <ele>77.3</ele>
        <time>2012-07-23T19:25:58.000Z</time>
      </trkpt>
      <trkpt lat="47.17916" lon="-1.40334">
        <ele>78.4</ele>
        <time>2012-07-23T19:26:03.000Z</time>
      </trkpt>
      <trkpt lat="47.17912" lon="-1.40332">
        <ele>77.8</ele>
        <time>2012-07-23T19:26:06.000Z</time>
      </trkpt>
      <trkpt lat="47.17907" lon="-1.40329">
        <ele>78.4</ele>
        <time>2012-07-23T19:26:09.000Z</time>
      </trkpt>
      <trkpt lat="47.17903" lon="-1.40324">
        <ele>78.9</ele>
        <time>2012-07-23T19:26:14.000Z</time>
      </trkpt>
      <trkpt lat="47.17898" lon="-1.40321">
        <ele>76.8</ele>
        <time>2012-07-23T19:26:18.000Z</time>
      </trkpt>
      <trkpt lat="47.17892" lon="-1.4032">
        <ele>78.8</ele>
        <time>2012-07-23T19:26:23.000Z</time>
      </trkpt>
      <trkpt lat="47.17888" lon="-1.40316">
        <ele>78.5</ele>
        <time>2012-07-23T19:26:26.000Z</time>
      </trkpt>
      <trkpt lat="47.17882" lon="-1.40314">
        <ele>77.6</ele>
        <time>2012-07-23T19:26:42.000Z</time>
      </trkpt>
      <trkpt lat="47.17877" lon="-1.40312">
        <ele>76.3</ele>
        <time>2012-07-23T19:26:47.000Z</time>
      </trkpt>
      <trkpt lat="47.17873" lon="-1.40309">
        <ele>77.4</ele>
        <time>2012-07-23T19:26:50.000Z</time>
      </trkpt>
      <trkpt lat="47.17868" lon="-1.40306">
        <ele>77.8</ele>
        <time>2012-07-23T19:26:55.000Z</time>
      </trkpt>
      <trkpt lat="47.17864" lon="-1.40302">
        <ele>76.4</ele>
        <time>2012-07-23T19:27:01.000Z</time>
      </trkpt>
      <trkpt lat="47.17857" lon="-1.40298">
        <ele>75.5</ele>
        <time>2012-07-23T19:27:05.000Z</time>
      </trkpt>
      <trkpt lat="47.17853" lon="-1.40294">
        <ele>75</ele>
        <time>2012-07-23T19:27:08.000Z</time>
      </trkpt>
      <trkpt lat="47.17848" lon="-1.40293">
        <ele>75.2</ele>
        <time>2012-07-23T19:27:12.000Z</time>
      </trkpt>
      <trkpt lat="47.17844" lon="-1.40289">
        <ele>75.9</ele>
        <time>2012-07-23T19:27:17.000Z</time>
      </trkpt>
      <trkpt lat="47.17838" lon="-1.40288">
        <ele>76.1</ele>
        <time>2012-07-23T19:27:21.000Z</time>
      </trkpt>
      <trkpt lat="47.17833" lon="-1.40287">
        <ele>78.1</ele>
        <time>2012-07-23T19:27:25.000Z</time>
      </trkpt>
      <trkpt lat="47.1783" lon="-1.40282">
        <ele>77.8</ele>
        <time>2012-07-23T19:27:31.000Z</time>
      </trkpt>
      <trkpt lat="47.17826" lon="-1.40275">
        <ele>77.5</ele>
        <time>2012-07-23T19:27:34.000Z</time>
      </trkpt>
      <trkpt lat="47.17826" lon="-1.40268">
        <ele>76.4</ele>
        <time>2012-07-23T19:27:37.000Z</time>
      </trkpt>
      <trkpt lat="47.17824" lon="-1.40262">
        <ele>76.2</ele>
        <time>2012-07-23T19:27:41.000Z</time>
      </trkpt>
      <trkpt lat="47.17822" lon="-1.40256">
        <ele>76.4</ele>
        <time>2012-07-23T19:27:44.000Z</time>
      </trkpt>
      <trkpt lat="47.1782" lon="-1.40249">
        <ele>76.4</ele>
        <time>2012-07-23T19:27:47.000Z</time>
      </trkpt>
      <trkpt lat="47.1782" lon="-1.4024">
        <ele>78.2</ele>
        <time>2012-07-23T19:27:51.000Z</time>
      </trkpt>
    </trkseg>
  </trk>
</gpx>